# Wetter Temperatur Luftdruck Luftfeuchtigkeit Sichtweite Windgeschwindigkeit Windrichtung Zeit
1 Haze 23 1014 69 5000 1.5 300 11:42 08.04.2020
2 Haze 23 1014 69 5000 1.5 300 11:23 08.04.2020
3 Mist 23 1014 73 5000 1.5 250 10:59 08.04.2020
4 Mist 23 1014 73 5000 1.5 250 10:41 08.04.2020
5 Mist 23 1015 73 5000 2.1 260 10:21 08.04.2020
6 Mist 23 1015 73 5000 2.1 260 09:59 08.04.2020
7 Mist 23 1015 73 5000 2.6 270 09:41 08.04.2020
8 Mist 23 1015 73 5000 2.6 270 09:19 08.04.2020
9 Mist 22 1015 78 5000 2.6 250 08:58 08.04.2020
10 Mist 21 1016 77 5000 3.1 260 08:39 08.04.2020
11 Mist 21 1016 77 5000 3.1 260 08:20 08.04.2020
12 Mist 22 1017 73 4100 2.6 310 07:43 08.04.2020
13 Mist 21 1017 83 3400 2.6 300 07:21 08.04.2020
14 Mist 20 1018 88 3900 2.6 270 06:29 08.04.2020
15 Mist 19 1018 93 2800 2.1 290 04:58 08.04.2020
16 Mist 18 1017 93 1400 2.1 330 02:50 08.04.2020
17 Drizzle 18 1016 93 1400 1.5 320 02:22 08.04.2020
18 Drizzle 18 1016 93 1400 1.5 320 01:56 08.04.2020
19 Drizzle 18 1016 93 1800 1 300 01:28 08.04.2020
20 Drizzle 19 1015 88 2500 1 0 00:47 08.04.2020
21 Drizzle 19 1015 88 2500 1 0 00:25 08.04.2020
22 Mist 19 1015 88 3600 1.5 90 23:56 07.04.2020
23 Mist 19 1015 88 3900 2.6 120 23:37 07.04.2020
24 Mist 19 1015 88 3900 2.6 120 23:18 07.04.2020
25 Mist 19 1015 88 4600 1.5 70 22:54 07.04.2020
26 Mist 19 1015 88 4700 2.1 100 22:54 07.04.2020
27 Mist 19 1015 88 4600 1.5 70 22:36 07.04.2020
28 Mist 19 1015 88 4900 1.5 80 22:18 07.04.2020
29 Mist 19 1015 88 4700 2.1 80 21:42 07.04.2020
30 Mist 19 1015 88 4700 2.1 80 21:21 07.04.2020
31 Mist 20 1015 82 4900 1 30 20:58 07.04.2020
32 Mist 20 1015 82 4900 1 30 20:39 07.04.2020
33 Mist 20 1015 82 4900 1 30 20:21 07.04.2020
34 Clouds 20 1016 77 6000 1 0 19:57 07.04.2020
35 Clouds 20 1016 77 6000 1.5 150 19:37 07.04.2020
36 Clouds 20 1016 77 6000 1.5 150 19:19 07.04.2020
37 Clouds 20 1016 77 6000 2.1 170 18:57 07.04.2020
38 Clouds 20 1016 77 6000 2.1 150 18:39 07.04.2020
39 Clouds 20 1016 77 7000 2.6 130 18:19 07.04.2020
40 Clouds 20 1016 77 7000 2.1 110 17:45 07.04.2020
41 Clouds 20 1016 77 7000 1.5 100 17:21 07.04.2020
42 Clouds 20 1015 77 8000 1 110 16:47 07.04.2020
43 Clouds 20 1015 77 8000 1 110 16:29 07.04.2020
44 Clouds 20 1015 72 8000 1.5 140 15:58 07.04.2020
45 Clear 21 1014 68 9000 2.1 160 15:40 07.04.2020
46 Clear 21 1014 68 9000 2.1 160 15:22 07.04.2020
47 Clear 21 1014 68 10000 1.5 180 14:41 07.04.2020
48 Clouds 21 1014 68 10000 1.5 180 14:22 07.04.2020
49 Clouds 21 1013 73 10000 1.5 120 13:57 07.04.2020
50 Clouds 21 1013 73 10000 2.6 100 13:37 07.04.2020
51 Clouds 23 1013 64 10000 1.5 80 13:18 07.04.2020
52 Clouds 23 1013 64 10000 1.5 80 12:55 07.04.2020
53 Clouds 23 1013 64 10000 1 0 12:36 07.04.2020
54 Clouds 23 1013 64 10000 1 0 12:36 07.04.2020
55 Clouds 23 1013 60 10000 1.5 330 12:18 07.04.2020
56 Clouds 23 1013 60 10000 1.5 330 12:18 07.04.2020
57 Clouds 23 1013 64 10000 0.5 0 11:42 07.04.2020
58 Clouds 23 1013 64 10000 0.5 0 11:24 07.04.2020
59 Clouds 23 1013 64 10000 1 0 10:58 07.04.2020
60 Clouds 23 1014 60 10000 1.5 0 10:37 07.04.2020
61 Clouds 23 1014 60 10000 1.5 0 10:19 07.04.2020
62 Clouds 22 1015 68 10000 2.1 300 09:45 07.04.2020
63 Clouds 22 1015 68 10000 2.1 300 09:18 07.04.2020
64 Clouds 22 1015 64 10000 2.6 310 08:55 07.04.2020
65 Clouds 21 1016 68 10000 2.1 300 08:36 07.04.2020
66 Clouds 21 1016 68 9000 1.5 280 08:18 07.04.2020
67 Clouds 21 1017 73 8000 2.6 290 07:40 07.04.2020
68 Clouds 21 1017 73 8000 2.6 290 07:40 07.04.2020
69 Clouds 20 1018 77 7000 2.1 310 07:21 07.04.2020
70 Clouds 20 1018 77 6000 2.1 320 06:49 07.04.2020
71 Mist 19 1018 88 3600 3.1 290 06:21 07.04.2020
72 Mist 18 1018 88 2700 2.1 290 05:38 07.04.2020
73 Mist 17 1018 93 4000 2.6 320 04:40 07.04.2020
74 Mist 17 1018 88 5000 1 0 03:25 07.04.2020
75 Rain 16 1017 93 2900 1 110 02:48 07.04.2020
76 Thunderstorm 17 1016 88 8000 2.1 40 01:48 07.04.2020
77 Thunderstorm 17 1016 88 8000 2.1 40 01:24 07.04.2020
78 Rain 17 1015 88 7000 3.6 360 00:28 07.04.2020
79 Clouds 18 1015 77 10000 3.1 30 23:44 06.04.2020
80 Clouds 18 1015 77 10000 3.1 30 23:23 06.04.2020
81 Clouds 19 1015 68 10000 3.1 40 22:57 06.04.2020
82 Clouds 18 1016 77 10000 3.1 360 22:37 06.04.2020
83 Clouds 18 1016 77 10000 3.1 360 22:19 06.04.2020
84 Clouds 18 1015 82 10000 2.6 350 21:56 06.04.2020
85 Clouds 18 1015 82 9000 2.1 30 21:38 06.04.2020
86 Clouds 18 1015 82 9000 2.1 30 21:18 06.04.2020
87 Clouds 18 1015 88 9000 2.1 50 20:42 06.04.2020
88 Clouds 18 1015 88 9000 2.1 50 20:23 06.04.2020
89 Clouds 18 1016 82 10000 1 70 19:59 06.04.2020
90 Clouds 18 1016 82 9000 1.5 60 19:40 06.04.2020
91 Clouds 18 1017 82 9000 1.5 60 19:22 06.04.2020
92 Clouds 18 1017 82 10000 1.5 70 18:55 06.04.2020
93 Clouds 18 1017 82 10000 1.5 60 18:36 06.04.2020
94 Clouds 18 1017 82 10000 1.5 60 18:18 06.04.2020
95 Clouds 18 1016 82 10000 1.5 80 17:41 06.04.2020
96 Clouds 18 1016 82 10000 1.5 70 17:19 06.04.2020
97 Clouds 18 1016 88 10000 1.5 100 16:50 06.04.2020
98 Clouds 18 1016 88 10000 1.5 100 16:31 06.04.2020
99 Clouds 18 1015 82 10000 1.5 70 15:40 06.04.2020
100 Clouds 19 1014 77 10000 2.6 100 13:45 06.04.2020
101 Clouds 19 1014 77 10000 2.6 100 13:23 06.04.2020
102 Clouds 19 1013 72 10000 2.1 100 12:53 06.04.2020
103 Clouds 19 1013 72 10000 2.1 100 12:53 06.04.2020
104 Clouds 19 1013 72 10000 2.1 100 12:53 06.04.2020
105 Clouds 19 1013 72 10000 2.1 100 12:53 06.04.2020
106 Clouds 19 1013 72 10000 2.1 100 12:53 06.04.2020
107 Clouds 19 1013 72 10000 2.1 110 12:21 06.04.2020
108 Clouds 19 1013 72 10000 2.1 110 12:21 06.04.2020
109 Clouds 20 1013 72 10000 2.1 70 11:54 06.04.2020
110 Clouds 20 1013 72 10000 2.1 70 11:54 06.04.2020
111 Clouds 20 1013 68 10000 1.5 30 11:28 06.04.2020
112 Clouds 20 1013 68 10000 1.5 30 11:28 06.04.2020
113 Clouds 20 1013 68 10000 1.5 30 11:28 06.04.2020
114 Clouds 20 1013 68 10000 1.5 30 11:28 06.04.2020
115 Clouds 20 1013 68 10000 1.5 30 11:28 06.04.2020
116 Clouds 20 1014 68 10000 1 0 10:49 06.04.2020
117 Clouds 20 1014 68 10000 1 0 10:49 06.04.2020
118 Clouds 20 1014 68 10000 1 0 10:49 06.04.2020
119 Clouds 20 1014 68 10000 1 0 10:49 06.04.2020
120 Clouds 20 1014 68 10000 1 0 10:49 06.04.2020
121 Clouds 19 1014 72 10000 1 0 10:21 06.04.2020
122 Clouds 19 1015 72 10000 1 0 09:43 06.04.2020
123 Clouds 19 1015 72 10000 1 0 09:43 06.04.2020
124 Clouds 18 1015 82 9000 1 0 09:20 06.04.2020
125 Clouds 18 1016 82 7000 1 0 08:51 06.04.2020
126 Clouds 18 1016 88 7000 2.1 280 08:30 06.04.2020
127 Rain 17 1017 93 7000 2.1 320 07:26 06.04.2020
128 Clouds 17 1019 88 10000 1.5 330 06:34 06.04.2020
129 Clouds 17 1019 88 10000 0.5 0 06:01 06.04.2020
130 Rain 17 1019 88 5000 2.1 320 04:18 06.04.2020
131 Rain 16 1019 93 8000 2.1 300 02:56 06.04.2020
132 Rain 16 1018 93 6000 2.6 290 01:57 06.04.2020
133 Rain 16 1018 93 6000 2.6 290 01:57 06.04.2020
134 Thunderstorm 16 1016 93 7000 3.6 60 00:59 06.04.2020
135 Thunderstorm 16 1017 87 10000 1 0 00:29 06.04.2020
136 Thunderstorm 16 1017 87 10000 1 0 00:29 06.04.2020
137 Thunderstorm 16 1017 87 10000 1.5 360 23:59 05.04.2020
138 Clouds 16 1017 87 10000 2.1 360 23:40 05.04.2020
139 Clouds 16 1017 87 10000 2.1 360 23:21 05.04.2020
140 Clouds 16 1017 87 10000 2.1 360 23:21 05.04.2020
141 Clouds 16 1017 87 10000 2.1 360 23:21 05.04.2020
142 Rain 16 1017 87 10000 3.1 360 22:54 05.04.2020
143 Thunderstorm 16 1017 87 7000 2.6 0 22:36 05.04.2020
144 Thunderstorm 16 1017 87 7000 2.6 0 22:18 05.04.2020
145 Thunderstorm 16 1017 87 10000 1.5 340 21:43 05.04.2020
146 Thunderstorm 16 1017 87 10000 1.5 340 21:43 05.04.2020
147 Thunderstorm 16 1017 87 10000 1.5 340 21:43 05.04.2020
148 Clouds 16 1018 87 10000 1.5 30 21:23 05.04.2020
149 Rain 16 1019 87 6000 2.6 10 20:25 05.04.2020
150 Rain 16 1020 87 6000 2.1 330 19:43 05.04.2020
151 Rain 16 1020 87 4700 2.6 360 19:24 05.04.2020
152 Clouds 16 1019 87 10000 3.6 40 18:49 05.04.2020
153 Clouds 16 1019 87 10000 3.6 40 18:18 05.04.2020
154 Clouds 16 1019 87 10000 3.6 40 18:18 05.04.2020
155 Clouds 17 1019 77 10000 5.1 20 17:49 05.04.2020
156 Clouds 17 1019 77 10000 5.1 20 17:49 05.04.2020
157 Clouds 17 1019 77 10000 5.1 20 17:49 05.04.2020
158 Clouds 17 1019 77 10000 5.1 20 17:49 05.04.2020
159 Clouds 17 1019 77 10000 5.1 20 17:49 05.04.2020
160 Clouds 18 1019 68 10000 3.6 30 17:22 05.04.2020
161 Clouds 18 1019 68 10000 3.1 20 16:47 05.04.2020
162 Clouds 18 1019 68 10000 3.1 20 16:47 05.04.2020
163 Clouds 18 1019 68 10000 3.1 10 16:19 05.04.2020
164 Clouds 18 1019 68 10000 3.1 10 16:19 05.04.2020
165 Clouds 18 1019 68 10000 2.6 10 15:45 05.04.2020
166 Clouds 18 1018 72 10000 2.6 10 15:26 05.04.2020
167 Clouds 18 1018 72 10000 2.6 10 15:26 05.04.2020
168 Clouds 18 1018 72 10000 2.6 10 14:48 05.04.2020
169 Clouds 18 1018 72 10000 2.6 10 14:48 05.04.2020
170 Clouds 18 1018 72 10000 2.6 10 14:48 05.04.2020
171 Clouds 18 1018 72 10000 2.6 10 14:48 05.04.2020
172 Clouds 18 1017 72 10000 2.1 10 13:59 05.04.2020
173 Clouds 18 1017 72 10000 2.6 10 13:40 05.04.2020
174 Clouds 18 1017 72 10000 2.6 10 13:40 05.04.2020
175 Clouds 18 1017 72 10000 2.6 10 13:40 05.04.2020
176 Clouds 18 1017 72 10000 3.1 10 12:20 05.04.2020
177 Clouds 18 1017 72 10000 3.1 10 12:20 05.04.2020
178 Clouds 18 1017 72 10000 3.1 10 12:20 05.04.2020
179 Clouds 18 1016 72 10000 4.1 10 11:39 05.04.2020
180 Clouds 18 1016 72 10000 4.1 10 11:19 05.04.2020
181 Clouds 19 1017 68 10000 4.6 10 10:47 05.04.2020
182 Clouds 19 1017 68 10000 4.6 10 10:22 05.04.2020
183 Clouds 19 1017 68 10000 4.6 10 10:22 05.04.2020
184 Clouds 19 1017 68 10000 4.1 360 09:53 05.04.2020
185 Clouds 19 1017 68 10000 4.1 10 09:26 05.04.2020
186 Clouds 19 1017 68 10000 4.1 10 09:26 05.04.2020
187 Clouds 20 1018 64 10000 4.1 10 08:31 05.04.2020
188 Clouds 20 1018 64 10000 4.1 10 08:31 05.04.2020
189 Clouds 20 1018 64 10000 4.1 10 08:31 05.04.2020
190 Clouds 20 1018 64 10000 4.1 10 08:31 05.04.2020
191 Clouds 20 1018 64 10000 4.1 10 08:31 05.04.2020
192 Clouds 19 1021 68 10000 3.6 10 05:53 05.04.2020
193 Clouds 19 1021 68 10000 3.6 10 05:53 05.04.2020
194 Clouds 19 1021 68 10000 3.6 10 05:49 05.04.2020
195 Clouds 19 1021 68 10000 3.6 10 05:49 05.04.2020
196 Clouds 19 1020 68 10000 4.6 20 04:29 05.04.2020
197 Clouds 18 1020 68 10000 5.1 10 03:27 05.04.2020
198 Clouds 18 1019 72 10000 3.6 30 02:18 05.04.2020
199 Clouds 18 1018 72 10000 4.1 40 01:42 05.04.2020
200 Clouds 18 1018 77 10000 4.6 30 00:52 05.04.2020
201 Clouds 18 1018 77 10000 4.6 30 00:52 05.04.2020
202 Clouds 17 1017 82 10000 3.1 20 00:23 05.04.2020
203 Clouds 17 1017 82 10000 3.1 30 23:58 04.04.2020
204 Rain 17 1017 82 10000 5.1 10 23:39 04.04.2020
205 Rain 17 1017 82 10000 5.1 10 23:21 04.04.2020
206 Clouds 17 1017 82 10000 4.6 360 22:56 04.04.2020
207 Clouds 17 1017 82 10000 3.6 10 22:38 04.04.2020
208 Clouds 17 1017 82 10000 3.6 10 22:19 04.04.2020
209 Clouds 18 1017 77 10000 4.1 360 21:55 04.04.2020
210 Clouds 18 1018 82 10000 3.6 360 21:37 04.04.2020
211 Clouds 18 1018 82 10000 3.6 360 21:18 04.04.2020
212 Clouds 18 1017 77 10000 4.1 30 20:43 04.04.2020
213 Clouds 18 1017 77 10000 4.1 30 20:23 04.04.2020
214 Clouds 18 1019 82 10000 4.1 360 19:59 04.04.2020
215 Clouds 18 1019 82 10000 4.1 360 19:59 04.04.2020
216 Rain 18 1018 82 10000 3.6 30 19:39 04.04.2020
217 Rain 18 1018 82 10000 3.6 30 19:20 04.04.2020
218 Clouds 18 1019 82 10000 4.1 360 18:58 04.04.2020
219 Clouds 18 1019 82 10000 2.6 20 18:39 04.04.2020
220 Clouds 18 1019 82 10000 2.6 20 18:19 04.04.2020
221 Clouds 18 1019 82 10000 3.6 30 17:58 04.04.2020
222 Clouds 18 1019 82 10000 4.1 40 17:38 04.04.2020
223 Clouds 18 1019 82 10000 4.1 40 17:19 04.04.2020
224 Clouds 18 1018 82 10000 4.6 40 16:42 04.04.2020
225 Clouds 18 1018 82 10000 4.6 40 16:23 04.04.2020
226 Drizzle 18 1018 82 10000 5.1 50 15:57 04.04.2020
227 Clouds 18 1018 88 10000 3.6 40 15:38 04.04.2020
228 Clouds 18 1018 88 10000 3.6 40 15:19 04.04.2020
229 Drizzle 19 1017 82 10000 4.1 40 14:44 04.04.2020
230 Clouds 19 1017 82 10000 3.1 50 14:23 04.04.2020
231 Clouds 19 1016 82 10000 4.6 40 13:57 04.04.2020
232 Clouds 19 1016 82 10000 4.6 40 13:38 04.04.2020
233 Clouds 19 1016 82 10000 4.6 40 13:20 04.04.2020
234 Clouds 19 1015 82 10000 4.6 40 12:55 04.04.2020
235 Clouds 19 1015 82 10000 4.1 40 12:36 04.04.2020
236 Clouds 20 1015 72 10000 5.1 50 12:18 04.04.2020
237 Clouds 20 1015 72 10000 5.1 50 11:40 04.04.2020
238 Clouds 20 1015 77 10000 5.1 50 11:21 04.04.2020
239 Clouds 20 1015 77 10000 5.1 30 10:57 04.04.2020
240 Clouds 20 1015 77 10000 5.1 30 10:39 04.04.2020
241 Clouds 20 1015 77 10000 6.2 30 10:21 04.04.2020
242 Clouds 21 1015 73 10000 5.7 20 09:55 04.04.2020
243 Clouds 21 1016 77 10000 4.6 30 09:37 04.04.2020
244 Clouds 21 1016 77 10000 4.6 30 09:19 04.04.2020
245 Clouds 20 1016 77 10000 3.6 10 08:42 04.04.2020
246 Clouds 20 1017 77 10000 5.1 30 08:21 04.04.2020
247 Clouds 20 1017 77 10000 5.1 30 07:47 04.04.2020
248 Clouds 20 1017 77 10000 3.6 20 07:28 04.04.2020
249 Rain 19 1018 82 10000 3.6 10 06:57 04.04.2020
250 Clouds 19 1018 82 10000 3.6 360 06:20 04.04.2020
251 Clouds 19 1018 82 10000 3.6 360 05:45 04.04.2020
252 Clouds 19 1018 82 10000 3.6 20 05:24 04.04.2020
253 Clouds 19 1018 88 10000 4.6 30 04:33 04.04.2020
254 Rain 19 1018 82 10000 5.7 40 03:55 04.04.2020
255 Clouds 19 1017 88 10000 5.7 40 03:22 04.04.2020
256 Clouds 19 1016 88 10000 6.2 30 02:38 04.04.2020
257 Clouds 19 1016 88 10000 5.1 40 02:20 04.04.2020
258 Clouds 19 1015 88 10000 4.1 40 01:26 04.04.2020
259 Clouds 19 1015 88 10000 5.1 50 00:52 04.04.2020
260 Clouds 19 1014 88 10000 5.1 50 00:30 04.04.2020
261 Rain 19 1014 93 5000 5.7 50 23:41 03.04.2020
262 Rain 20 1014 88 10000 2.6 40 23:22 03.04.2020
263 Clouds 19 1014 93 10000 4.1 40 22:59 03.04.2020
264 Clouds 19 1014 93 10000 4.1 40 22:40 03.04.2020
265 Clouds 19 1014 93 10000 4.6 40 22:19 03.04.2020
266 Clouds 19 1014 93 10000 4.6 50 21:45 03.04.2020
267 Clouds 20 1014 88 10000 5.7 40 21:26 03.04.2020
268 Clouds 19 1014 93 10000 5.7 50 20:57 03.04.2020
269 Clouds 20 1014 88 10000 5.1 50 20:39 03.04.2020
270 Clouds 20 1014 88 10000 5.1 50 20:21 03.04.2020
271 Clouds 20 1014 88 10000 5.1 50 19:58 03.04.2020
272 Clouds 20 1015 88 10000 4.1 50 19:39 03.04.2020
273 Clouds 20 1015 88 10000 4.1 50 19:21 03.04.2020
274 Clouds 20 1015 88 10000 4.1 50 18:59 03.04.2020
275 Clouds 20 1015 88 10000 4.1 50 18:59 03.04.2020
276 Clouds 20 1015 88 10000 3.1 60 18:41 03.04.2020
277 Clouds 20 1014 88 7000 4.1 60 18:23 03.04.2020
278 Clouds 20 1014 88 7000 4.1 60 17:55 03.04.2020
279 Clouds 20 1014 88 10000 5.1 50 17:37 03.04.2020
280 Clouds 20 1014 88 10000 5.1 50 17:18 03.04.2020
281 Clouds 20 1014 94 10000 5.1 50 16:44 03.04.2020
282 Clouds 20 1014 94 10000 5.1 50 16:22 03.04.2020
283 Clouds 20 1014 94 9000 5.1 50 15:58 03.04.2020
284 Clouds 20 1014 94 9000 5.1 50 15:40 03.04.2020
285 Clouds 20 1013 94 7000 5.7 50 15:21 03.04.2020
286 Rain 25 1013 87 0 4.25 131 14:56 03.04.2020
287 Rain 25 1013 87 0 4.25 131 14:37 03.04.2020
288 Drizzle 20 1012 94 4800 4.6 50 14:19 03.04.2020
289 Drizzle 20 1012 94 4800 4.6 50 13:43 03.04.2020
290 Drizzle 20 1012 94 4800 4.6 50 13:25 03.04.2020
291 Rain 21 1011 94 4500 4.1 60 12:55 03.04.2020
292 Rain 21 1011 94 3500 4.6 50 12:37 03.04.2020
293 Rain 21 1011 94 4400 3.1 50 12:18 03.04.2020
294 Rain 21 1011 94 4400 3.1 50 11:41 03.04.2020
295 Rain 21 1011 94 3900 3.1 50 11:23 03.04.2020
296 Drizzle 21 1011 94 5000 3.6 50 10:59 03.04.2020
297 Drizzle 21 1012 94 1600 3.1 60 10:40 03.04.2020
298 Drizzle 21 1012 94 1600 3.1 60 10:21 03.04.2020
299 Drizzle 22 1012 94 1300 2.6 50 09:59 03.04.2020
300 Rain 22 1012 94 1700 2.1 60 09:40 03.04.2020
301 Rain 22 1012 94 1700 2.1 60 09:22 03.04.2020
302 Rain 22 1012 94 1200 2.1 60 08:57 03.04.2020
303 Rain 22 1012 94 1200 2.1 60 08:38 03.04.2020
304 Rain 21 1013 94 1400 3.1 70 08:20 03.04.2020
305 Rain 22 1014 94 1100 3.1 40 07:48 03.04.2020
306 Drizzle 22 1014 94 1700 1.5 40 07:29 03.04.2020
307 Drizzle 22 1015 94 1200 1 0 06:42 03.04.2020
308 Drizzle 22 1015 94 1200 1 0 06:23 03.04.2020
309 Mist 22 1015 94 1700 1 0 05:39 03.04.2020
310 Mist 21 1015 94 1600 1 0 03:42 03.04.2020
311 Rain 21 1014 94 1300 1 290 02:56 03.04.2020
312 Mist 21 1014 94 1500 1.5 260 02:27 03.04.2020
313 Mist 21 1013 94 2400 1.5 290 01:22 03.04.2020
314 Rain 21 1013 94 1800 2.6 270 00:37 03.04.2020
315 Rain 21 1013 94 1800 2.6 270 00:19 03.04.2020
316 Rain 21 1012 94 1900 2.6 260 23:42 02.04.2020
317 Drizzle 21 1012 94 2000 1.5 250 23:23 02.04.2020
318 Drizzle 21 1012 94 1800 1 0 22:58 02.04.2020
319 Drizzle 21 1012 94 2000 1.5 80 22:38 02.04.2020
320 Drizzle 21 1012 94 2000 1.5 80 22:20 02.04.2020
321 Drizzle 21 1012 94 2500 1 0 21:39 02.04.2020
322 Drizzle 21 1012 94 2500 1 0 21:39 02.04.2020
323 Drizzle 21 1012 94 2500 1 0 21:20 02.04.2020
324 Mist 21 1012 94 4600 1.5 80 20:58 02.04.2020
325 Mist 21 1012 94 4600 1.5 80 20:40 02.04.2020
326 Mist 21 1012 94 5000 2.1 60 20:21 02.04.2020
327 Mist 21 1013 94 5000 0.5 0 19:44 02.04.2020
328 Mist 21 1013 94 4700 2.1 100 19:21 02.04.2020
329 Mist 21 1013 94 4800 2.1 90 19:21 02.04.2020
330 Mist 21 1013 94 4700 2.1 100 18:58 02.04.2020
331 Mist 21 1013 94 4500 1.5 100 18:39 02.04.2020
332 Mist 21 1013 94 4500 1.5 100 18:20 02.04.2020
333 Mist 21 1013 94 4900 2.1 110 17:56 02.04.2020
334 Mist 21 1013 94 4800 1 0 17:38 02.04.2020
335 Mist 21 1013 94 4800 1 0 17:18 02.04.2020
336 Mist 21 1013 88 4800 1.5 70 16:55 02.04.2020
337 Mist 21 1013 88 4900 1.5 70 16:36 02.04.2020
338 Mist 21 1013 88 4900 1.5 70 16:18 02.04.2020
339 Mist 21 1012 88 4800 1.5 90 15:44 02.04.2020
340 Mist 21 1012 88 4800 1.5 90 15:44 02.04.2020
341 Mist 21 1012 88 4800 1.5 90 15:44 02.04.2020
342 Mist 21 1012 88 4800 1.5 90 15:44 02.04.2020
343 Mist 21 1012 88 4800 2.1 100 15:21 02.04.2020
344 Mist 21 1012 88 5000 0.5 0 14:58 02.04.2020
345 Clouds 21 1012 88 6000 1 0 14:39 02.04.2020
346 Clouds 21 1012 88 6000 1 0 14:19 02.04.2020
347 Mist 21 1012 88 4900 3.68 126 13:56 02.04.2020
348 Mist 21 1011 88 3900 1 0 13:38 02.04.2020
349 Mist 21 1011 88 3900 1 0 13:19 02.04.2020
350 Mist 20 1011 94 4600 1.5 40 12:46 02.04.2020
351 Mist 20 1011 94 5000 2.1 50 12:20 02.04.2020
352 Mist 20 1011 94 5000 2.1 70 11:58 02.04.2020
353 Clouds 20 1011 94 6000 2.6 50 11:39 02.04.2020
354 Clouds 20 1011 94 6000 2.6 50 11:39 02.04.2020
355 Clouds 20 1011 94 6000 2.6 50 11:39 02.04.2020
356 Clouds 20 1011 94 6000 2.6 50 11:21 02.04.2020
357 Clouds 20 1011 94 9000 2.1 50 10:57 02.04.2020
358 Clouds 20 1011 94 8000 2.6 50 10:39 02.04.2020
359 Clouds 20 1011 94 8000 2.6 50 10:21 02.04.2020
360 Clouds 20 1012 94 7000 2.1 60 09:59 02.04.2020
361 Clouds 20 1012 94 7000 2.1 60 09:41 02.04.2020
362 Clouds 20 1012 94 6000 1 0 09:21 02.04.2020
363 Clouds 20 1013 94 9000 1.5 30 08:48 02.04.2020
364 Drizzle 20 1013 94 4700 1 50 08:28 02.04.2020
365 Drizzle 20 1014 88 4100 1 0 07:57 02.04.2020
366 Clouds 20 1014 88 6000 1 0 07:38 02.04.2020
367 Clouds 20 1014 88 6000 1 0 07:19 02.04.2020
368 Drizzle 19 1015 93 3000 1.5 20 06:24 02.04.2020
369 Drizzle 19 1015 93 3400 2.1 350 05:46 02.04.2020
370 Drizzle 19 1015 93 3300 1 20 04:55 02.04.2020
371 Drizzle 19 1014 93 2100 1 10 02:19 02.04.2020
372 Clouds 19 1012 88 7000 1.5 360 00:59 02.04.2020
373 Clouds 19 1012 88 7000 1 30 00:38 02.04.2020
374 Clouds 19 1012 88 7000 1 30 00:19 02.04.2020
375 Clouds 18 1012 93 7000 1 0 23:39 01.04.2020
376 Clouds 18 1012 93 7000 1 0 23:19 01.04.2020
377 Clouds 18 1012 93 6000 1.5 50 22:56 01.04.2020
378 Drizzle 18 1012 93 6000 3.1 30 22:37 01.04.2020
379 Drizzle 18 1012 93 6000 3.1 30 22:19 01.04.2020
380 Drizzle 19 1012 93 4100 2.1 40 21:39 01.04.2020
381 Drizzle 19 1012 93 3500 1.5 20 21:19 01.04.2020
382 Drizzle 19 1013 88 4400 1.5 10 20:56 01.04.2020
383 Mist 19 1013 88 4700 2.1 20 20:38 01.04.2020
384 Mist 19 1013 88 4700 2.1 20 20:19 01.04.2020
385 Mist 19 1013 88 4500 1.5 10 19:57 01.04.2020
386 Mist 19 1013 88 4100 2.1 50 19:37 01.04.2020
387 Mist 19 1013 88 4100 2.1 50 19:37 01.04.2020
388 Mist 19 1014 88 4100 1.5 30 19:19 01.04.2020
389 Drizzle 19 1014 88 4200 1.5 50 18:41 01.04.2020
390 Drizzle 19 1014 88 4200 1.5 50 18:21 01.04.2020
391 Clouds 19 1013 88 4000 1.5 40 17:56 01.04.2020
392 Clouds 19 1013 88 6000 2.1 50 17:37 01.04.2020
393 Clouds 19 1013 88 6000 2.1 50 17:18 01.04.2020
394 Clouds 20 1013 82 8000 2.1 40 16:55 01.04.2020
395 Clouds 20 1013 82 9000 2.1 50 16:36 01.04.2020
396 Clouds 20 1013 82 9000 2.1 50 16:18 01.04.2020
397 Clouds 20 1012 82 10000 2.1 40 15:42 01.04.2020
398 Clouds 20 1012 82 10000 2.1 40 15:22 01.04.2020
399 Clouds 20 1011 82 10000 2.1 30 14:58 01.04.2020
400 Clouds 20 1011 82 10000 2.1 50 14:39 01.04.2020
401 Clouds 20 1011 82 10000 2.1 50 14:20 01.04.2020
402 Clouds 20 1011 82 10000 2.1 40 13:59 01.04.2020
403 Clouds 20 1010 77 10000 3.1 40 13:38 01.04.2020
404 Clouds 20 1010 77 10000 3.1 40 13:19 01.04.2020
405 Clouds 20 1010 77 10000 3.6 40 12:56 01.04.2020
406 Clouds 20 1010 77 10000 3.6 50 12:37 01.04.2020
407 Clouds 20 1010 77 10000 3.6 50 12:18 01.04.2020
408 Clouds 20 1010 77 10000 3.6 50 11:54 01.04.2020
409 Clouds 20 1010 77 10000 3.1 40 11:36 01.04.2020
410 Clouds 20 1010 77 10000 3.1 40 11:18 01.04.2020
411 Clouds 21 1010 73 10000 3.1 50 10:38 01.04.2020
412 Clouds 21 1010 73 10000 3.1 50 10:20 01.04.2020
413 Clouds 21 1011 73 10000 3.6 40 09:57 01.04.2020
414 Clouds 21 1011 73 10000 3.1 50 09:39 01.04.2020
415 Clouds 21 1011 73 10000 3.1 50 09:19 01.04.2020
416 Clouds 21 1012 73 10000 3.1 30 08:42 01.04.2020
417 Clouds 21 1013 73 10000 2.6 50 08:18 01.04.2020
418 Clouds 20 1014 77 10000 1.5 0 07:46 01.04.2020
419 Clouds 20 1014 77 10000 1.5 0 07:21 01.04.2020
420 Clouds 20 1015 77 10000 2.1 20 06:52 01.04.2020
421 Clouds 19 1015 77 10000 3.1 10 06:27 01.04.2020
422 Clouds 19 1016 77 10000 3.6 40 05:58 01.04.2020
423 Clouds 19 1016 77 10000 3.1 50 04:33 01.04.2020
424 Clouds 18 1015 82 9000 3.1 40 03:32 01.04.2020
425 Clouds 18 1015 82 7000 2.1 30 02:56 01.04.2020
426 Clouds 17 1014 88 8000 2.6 40 01:59 01.04.2020
427 Clouds 17 1014 88 9000 3.1 40 01:39 01.04.2020
428 Clouds 17 1014 88 9000 3.1 40 01:18 01.04.2020
429 Clouds 17 1013 88 8000 3.1 40 00:46 01.04.2020
430 Clouds 17 1013 88 6000 3.1 40 00:21 01.04.2020
431 Clouds 17 1013 88 6000 2.6 40 23:48 31.03.2020
432 Clouds 17 1013 88 6000 2.6 40 23:27 31.03.2020
433 Clouds 17 1013 88 8000 2.6 40 22:58 31.03.2020
434 Clouds 17 1013 88 8000 2.6 40 22:37 31.03.2020
435 Clouds 17 1013 88 7000 3.1 40 22:19 31.03.2020
436 Clouds 17 1013 88 7000 3.1 40 21:56 31.03.2020
437 Clouds 18 1013 77 9000 3.1 20 21:38 31.03.2020
438 Clouds 18 1013 77 9000 3.1 20 21:19 31.03.2020
439 Clouds 19 1013 72 10000 2.6 30 20:55 31.03.2020
440 Clouds 19 1013 72 10000 2.6 30 20:36 31.03.2020
441 Clouds 19 1013 72 10000 2.6 30 20:36 31.03.2020
442 Clouds 19 1013 72 10000 2.6 20 20:18 31.03.2020
443 Clouds 19 1014 72 10000 2.1 40 19:42 31.03.2020
444 Clouds 19 1014 72 10000 2.1 40 19:42 31.03.2020
445 Clouds 19 1014 72 10000 2.1 40 19:42 31.03.2020
446 Clouds 19 1014 77 10000 1.5 50 19:23 31.03.2020
447 Clouds 19 1014 77 10000 1.5 50 18:58 31.03.2020
448 Clouds 19 1014 77 10000 1.5 50 18:39 31.03.2020
449 Clouds 19 1014 82 10000 1 70 18:18 31.03.2020
450 Clouds 19 1014 82 10000 1 70 17:55 31.03.2020
451 Clouds 19 1014 82 10000 1 70 17:55 31.03.2020
452 Clouds 19 1014 77 10000 1.5 60 17:37 31.03.2020
453 Clouds 19 1014 77 10000 1.5 60 17:18 31.03.2020
454 Clouds 19 1013 77 10000 1.5 40 16:40 31.03.2020
455 Clouds 19 1013 77 10000 1.5 40 16:19 31.03.2020
456 Clouds 19 1013 77 10000 2.1 40 15:57 31.03.2020
457 Clouds 19 1013 77 10000 2.1 50 15:39 31.03.2020
458 Clouds 19 1013 77 10000 2.1 50 15:21 31.03.2020
459 Clouds 19 1012 77 10000 1.5 50 14:57 31.03.2020
460 Clouds 19 1012 77 10000 2.1 40 14:38 31.03.2020
461 Clouds 19 1012 77 10000 2.1 40 14:20 31.03.2020
462 Clouds 19 1011 77 10000 2.6 40 13:43 31.03.2020
463 Clouds 19 1011 77 10000 2.6 40 13:20 31.03.2020
464 Clouds 19 1011 77 10000 2.6 40 13:20 31.03.2020
465 Clouds 19 1011 77 10000 2.6 40 13:20 31.03.2020
466 Clouds 19 1011 72 10000 3.1 30 12:56 31.03.2020
467 Clouds 19 1011 72 10000 3.6 20 12:38 31.03.2020
468 Clouds 19 1011 72 10000 3.6 20 12:19 31.03.2020
469 Clouds 19 1011 72 10000 3.6 30 11:39 31.03.2020
470 Clouds 19 1011 72 10000 3.6 30 11:20 31.03.2020
471 Clouds 19 1011 72 10000 3.6 30 10:58 31.03.2020
472 Clouds 19 1011 72 10000 4.1 40 10:40 31.03.2020
473 Clouds 19 1011 72 10000 4.1 40 10:21 31.03.2020
474 Clouds 19 1012 77 10000 4.1 40 09:56 31.03.2020
475 Clouds 19 1012 77 10000 4.1 30 09:37 31.03.2020
476 Clouds 19 1012 77 10000 4.1 30 09:19 31.03.2020
477 Clouds 18 1013 82 10000 5.1 30 08:56 31.03.2020
478 Clouds 18 1013 82 10000 5.1 30 08:56 31.03.2020
479 Clouds 18 1013 82 10000 5.1 30 08:56 31.03.2020
480 Clouds 18 1013 82 10000 4.6 40 08:37 31.03.2020
481 Clouds 18 1013 82 10000 4.6 40 08:19 31.03.2020
482 Clouds 18 1014 82 10000 5.1 30 07:54 31.03.2020
483 Clouds 18 1014 82 10000 5.7 30 07:36 31.03.2020
484 Clouds 18 1014 82 10000 5.1 30 07:18 31.03.2020
485 Clouds 18 1015 82 10000 5.1 30 06:42 31.03.2020
486 Clouds 18 1015 82 10000 5.1 30 05:53 31.03.2020
487 Clouds 18 1015 82 10000 4.6 40 05:26 31.03.2020
488 Clouds 17 1013 93 10000 4.6 30 02:57 31.03.2020
489 Clouds 18 1012 88 8000 4.1 40 01:47 31.03.2020
490 Clouds 18 1011 88 8000 3.1 30 01:27 31.03.2020
491 Clouds 18 1010 93 9000 2.6 40 00:43 31.03.2020
492 Clouds 18 1010 93 9000 2.6 40 00:23 31.03.2020
493 Rain 18 1010 93 6000 2.1 40 23:41 30.03.2020
494 -273 0 0 0 0 0 23:20 30.03.2020
495 Drizzle 18 1009 93 5000 3.1 40 23:20 30.03.2020
496 Mist 18 1009 93 5000 3.1 40 22:58 30.03.2020
497 Mist 18 1009 93 5000 3.1 50 22:38 30.03.2020
498 Mist 18 1009 93 5000 3.1 50 22:19 30.03.2020
499 Drizzle 18 1009 93 5000 3.6 60 21:57 30.03.2020
500 Drizzle 18 1009 93 4900 3.1 50 21:38 30.03.2020
501 Drizzle 18 1009 93 4900 3.1 50 21:20 30.03.2020
502 Drizzle 18 1009 93 4900 3.1 50 21:20 30.03.2020
503 Rain 18 1009 93 5000 3.6 60 20:58 30.03.2020
504 Rain 18 1010 93 4700 2.6 70 20:39 30.03.2020
505 Rain 18 1010 93 4700 2.6 70 20:19 30.03.2020
506 Drizzle 18 1010 93 4700 3.6 50 19:54 30.03.2020
507 Drizzle 18 1010 93 4200 3.1 50 19:36 30.03.2020
508 Drizzle 18 1010 93 4200 3.1 50 19:18 30.03.2020
509 Drizzle 18 1011 93 4800 3.1 50 18:41 30.03.2020
510 Drizzle 18 1011 93 4800 3.1 50 18:23 30.03.2020
511 Drizzle 17 1010 93 4800 2.6 50 17:57 30.03.2020
512 Drizzle 18 1010 93 4700 2.6 60 17:39 30.03.2020
513 Drizzle 18 1010 93 4700 2.6 60 17:19 30.03.2020
514 Drizzle 17 1010 93 4800 3.6 50 16:57 30.03.2020
515 Drizzle 18 1010 88 4800 3.1 60 16:39 30.03.2020
516 Drizzle 18 1010 88 4800 3.1 60 16:20 30.03.2020
517 Drizzle 18 1010 88 4800 2.6 50 15:55 30.03.2020
518 Drizzle 17 1009 93 4500 3.6 60 15:37 30.03.2020
519 Drizzle 17 1009 93 4500 3.6 60 15:18 30.03.2020
520 Drizzle 17 1009 93 5000 4.1 60 14:55 30.03.2020
521 Drizzle 17 1009 93 5000 4.1 60 14:36 30.03.2020
522 Drizzle 17 1009 93 5000 4.1 60 14:18 30.03.2020
523 Drizzle 17 1008 93 5000 4.1 50 13:44 30.03.2020
524 Drizzle 17 1008 93 5000 4.1 50 13:21 30.03.2020
525 Drizzle 18 1008 88 7000 4.1 60 12:59 30.03.2020
526 Clouds 18 1008 88 10000 4.6 50 12:41 30.03.2020
527 Clouds 18 1008 88 10000 4.6 50 12:19 30.03.2020
528 Clouds 18 1007 88 10000 4.6 50 11:57 30.03.2020
529 Clouds 18 1007 88 10000 5.7 50 11:38 30.03.2020
530 Clouds 18 1007 88 10000 5.7 50 11:20 30.03.2020
531 Clouds 19 1008 82 10000 6.2 50 10:40 30.03.2020
532 Clouds 19 1008 82 10000 6.2 60 10:22 30.03.2020
533 Clouds 19 1008 82 10000 6.7 60 09:56 30.03.2020
534 Clouds 20 1009 77 10000 7.2 50 09:38 30.03.2020
535 Clouds 20 1009 77 10000 7.2 50 09:19 30.03.2020
536 Clouds 19 1009 82 10000 6.7 50 08:42 30.03.2020
537 Clouds 20 1009 77 10000 7.2 50 08:22 30.03.2020
538 Clouds 20 1010 77 10000 6.7 50 07:49 30.03.2020
539 Clouds 19 1010 82 10000 7.7 50 07:31 30.03.2020
540 Clouds 20 1011 77 10000 6.2 50 06:56 30.03.2020
541 Clouds 20 1011 77 10000 6.7 50 06:31 30.03.2020
542 Clouds 20 1011 82 10000 7.7 50 05:53 30.03.2020
543 Clouds 20 1012 82 10000 7.7 50 05:22 30.03.2020
544 Clouds 20 1012 82 10000 7.2 50 04:23 30.03.2020
545 Clouds 20 1011 82 10000 6.7 50 03:38 30.03.2020
546 Rain 20 1010 94 10000 6.2 60 02:37 30.03.2020
547 Rain 21 1009 94 7000 5.1 50 01:35 30.03.2020
548 Clouds 24 1008 94 6000 7.2 50 00:47 30.03.2020
549 Clouds 25 1008 88 7000 3.1 110 00:21 30.03.2020
550 Clouds 25 1007 88 6000 2.6 100 23:41 29.03.2020
551 Clouds 25 1007 88 7000 2.6 100 23:23 29.03.2020
552 Rain 25 1007 88 9000 3.1 100 22:57 29.03.2020
553 Clouds 25 1007 88 10000 4.1 120 22:37 29.03.2020
554 Clouds 25 1007 88 10000 4.1 120 22:19 29.03.2020
555 Clouds 25 1007 88 10000 4.1 110 21:40 29.03.2020
556 Clouds 25 1007 88 10000 4.1 110 21:21 29.03.2020
557 Clouds 25 1007 88 9000 4.1 100 20:56 29.03.2020
558 Clouds 25 1007 88 9000 4.1 100 20:56 29.03.2020
559 Clouds 25 1008 88 10000 3.6 110 20:38 29.03.2020
560 Clouds 25 1008 88 10000 3.6 110 20:19 29.03.2020
561 Clouds 25 1008 88 10000 3.6 110 19:59 29.03.2020
562 Clouds 25 1008 88 10000 3.6 110 19:59 29.03.2020
563 Clouds 25 1008 88 10000 3.1 100 19:41 29.03.2020
564 Clouds 25 1008 88 10000 3.6 110 19:23 29.03.2020
565 Clouds 25 1008 88 10000 3.6 110 18:57 29.03.2020
566 Clouds 25 1008 88 10000 4.6 110 18:39 29.03.2020
567 Clouds 25 1008 88 10000 4.1 110 18:20 29.03.2020
568 Clouds 25 1008 88 10000 4.1 110 17:56 29.03.2020
569 Clouds 25 1008 88 10000 4.1 120 17:38 29.03.2020
570 Clouds 25 1008 88 10000 4.1 120 17:19 29.03.2020
571 Clouds 25 1008 88 10000 3.6 110 16:57 29.03.2020
572 Clouds 25 1007 88 10000 4.6 110 16:38 29.03.2020
573 Clouds 25 1007 88 10000 4.6 110 16:38 29.03.2020
574 Clouds 25 1007 88 10000 4.6 110 16:19 29.03.2020
575 Clouds 26 1007 83 10000 4.6 120 15:43 29.03.2020
576 Clouds 26 1006 83 10000 4.1 120 15:25 29.03.2020
577 Clouds 26 1006 83 10000 4.1 110 14:59 29.03.2020
578 Clouds 26 1006 83 10000 4.6 120 14:40 29.03.2020
579 Clouds 26 1006 83 10000 4.6 120 14:40 29.03.2020
580 Clouds 26 1006 83 10000 4.6 120 14:20 29.03.2020
581 Clouds 26 1005 83 10000 4.6 130 13:58 29.03.2020
582 Clouds 27 1005 78 10000 4.6 130 13:40 29.03.2020
583 Clouds 27 1005 78 10000 4.6 130 13:20 29.03.2020
584 Clouds 27 1005 78 10000 6.2 140 12:56 29.03.2020
585 Clouds 27 1005 78 10000 6.2 140 12:37 29.03.2020
586 Clouds 27 1005 78 10000 6.2 140 12:37 29.03.2020
587 Clouds 28 1004 74 10000 6.2 140 12:19 29.03.2020
588 Clouds 28 1004 74 10000 6.2 140 11:55 29.03.2020
589 Clouds 28 1005 74 10000 6.2 140 11:37 29.03.2020
590 Clouds 28 1005 74 10000 6.2 140 11:18 29.03.2020
591 Clouds 27 1005 78 10000 7.7 140 10:38 29.03.2020
592 Clouds 27 1005 78 10000 7.7 140 10:19 29.03.2020
593 Clouds 27 1006 78 10000 5.7 150 09:41 29.03.2020
594 Clouds 27 1006 78 10000 5.7 150 09:22 29.03.2020
595 Clouds 26 1007 83 10000 5.7 130 08:54 29.03.2020
596 Clouds 26 1008 83 8000 4.6 130 08:36 29.03.2020
597 Clouds 26 1008 83 8000 4.6 130 08:18 29.03.2020
598 Clouds 25 1009 88 7000 4.6 140 07:42 29.03.2020
599 Clouds 25 1010 88 7000 5.1 140 07:21 29.03.2020
600 Clouds 25 1011 83 8000 4.6 140 05:46 29.03.2020
601 Clouds 24 1011 88 6000 4.1 130 04:27 29.03.2020
602 Drizzle 23 1010 94 4400 2.6 130 03:31 29.03.2020
603 Rain 23 1010 94 2400 2.1 110 01:51 29.03.2020
604 Rain 23 1010 88 2400 1.5 80 01:23 29.03.2020
605 Rain 22 1009 94 2800 2.1 80 00:56 29.03.2020
606 Rain 22 1009 94 4200 2.1 90 00:32 29.03.2020
607 Rain 22 1008 94 2400 2.1 120 23:43 28.03.2020
608 Rain 22 1008 94 2400 2.1 120 23:24 28.03.2020
609 Drizzle 22 1008 94 2300 2.6 110 22:59 28.03.2020
610 Rain 22 1008 94 2000 2.6 110 22:39 28.03.2020
611 Rain 22 1008 94 2000 2.6 110 22:20 28.03.2020
612 Rain 22 1008 94 1900 2.6 110 21:54 28.03.2020
613 Rain 22 1008 94 2100 3.1 110 21:36 28.03.2020
614 Rain 22 1008 94 2100 3.1 110 21:18 28.03.2020
615 Rain 23 1008 88 2600 3.1 110 20:41 28.03.2020
616 Clouds 23 1009 88 6000 3.6 130 20:23 28.03.2020
617 Clouds 23 1009 88 6000 4.6 130 19:57 28.03.2020
618 Clouds 23 1009 83 7000 5.7 130 19:39 28.03.2020
619 Clouds 23 1009 83 7000 5.7 130 19:20 28.03.2020
620 Clouds 23 1009 83 7000 5.7 130 19:20 28.03.2020
621 Clouds 24 1010 83 7000 5.1 130 18:58 28.03.2020
622 Clouds 24 1010 78 9000 5.1 130 18:38 28.03.2020
623 Clouds 24 1010 78 10000 4.6 140 18:19 28.03.2020
624 Clouds 24 1010 78 10000 4.6 140 18:19 28.03.2020
625 Clouds 24 1010 83 10000 5.1 130 17:39 28.03.2020
626 Clouds 24 1010 83 8000 5.1 130 17:20 28.03.2020
627 Clouds 24 1010 83 8000 5.1 130 16:43 28.03.2020
628 Clouds 24 1010 83 8000 5.1 130 16:20 28.03.2020
629 Clouds 24 1009 83 7000 4.1 130 15:58 28.03.2020
630 Clouds 25 1009 83 6000 4.6 130 15:39 28.03.2020
631 Clouds 25 1009 83 6000 4.6 130 15:19 28.03.2020
632 Clouds 25 1009 83 6000 4.1 130 14:43 28.03.2020
633 Clouds 25 1008 83 6000 4.6 120 14:24 28.03.2020
634 Clouds 25 1008 83 7000 4.1 130 13:59 28.03.2020
635 Clouds 25 1008 83 7000 4.6 130 13:38 28.03.2020
636 Clouds 25 1008 83 7000 4.6 130 13:19 28.03.2020
637 Clouds 26 1007 78 8000 6.2 130 12:39 28.03.2020
638 Clouds 26 1007 78 8000 6.2 130 12:21 28.03.2020
639 Clouds 26 1007 78 10000 5.7 130 11:42 28.03.2020
640 Clouds 27 1007 74 10000 5.7 130 11:21 28.03.2020
641 Clouds 27 1007 74 10000 5.7 130 10:56 28.03.2020
642 Clouds 27 1007 74 10000 5.1 130 10:37 28.03.2020
643 Clouds 27 1007 74 10000 5.1 130 10:18 28.03.2020
644 Clouds 27 1008 74 10000 6.2 130 09:41 28.03.2020
645 Clouds 27 1008 74 10000 6.2 130 09:22 28.03.2020
646 Clouds 28 1008 65 10000 4.6 140 08:45 28.03.2020
647 Clouds 28 1009 61 10000 4.6 160 08:27 28.03.2020
648 Clouds 28 1009 65 10000 5.1 160 07:59 28.03.2020
649 Clouds 28 1010 69 10000 4.6 160 07:41 28.03.2020
650 Clouds 28 1010 69 10000 4.1 160 06:54 28.03.2020
651 Clouds 27 1011 74 10000 4.6 160 06:29 28.03.2020
652 Clouds 27 1012 74 10000 3.6 150 05:38 28.03.2020
653 Clouds 26 1012 83 10000 2.6 130 05:19 28.03.2020
654 Clouds 25 1013 88 7000 3.1 130 04:39 28.03.2020
655 Clouds 26 1012 83 6000 3.1 120 02:52 28.03.2020
656 Mist 25 1012 88 4400 2.1 70 01:48 28.03.2020
657 Mist 25 1011 88 4400 2.1 70 01:23 28.03.2020
658 Mist 25 1011 88 5000 1.5 60 00:52 28.03.2020
659 Clouds 25 1010 88 5000 2.1 80 00:28 28.03.2020
660 Clouds 25 1010 88 8000 2.1 60 23:44 27.03.2020
661 Clouds 25 1010 88 8000 2.1 60 23:26 27.03.2020
662 Clouds 25 1010 88 8000 2.1 60 22:57 27.03.2020
663 Clouds 25 1010 88 8000 2.6 80 22:39 27.03.2020
664 Clouds 25 1010 88 8000 2.6 80 22:39 27.03.2020
665 Clouds 25 1010 88 8000 2.6 80 22:20 27.03.2020
666 Clouds 25 1010 88 6000 2.6 80 21:58 27.03.2020
667 Rain 25 1010 88 6000 2.6 130 21:40 27.03.2020
668 Rain 25 1010 88 6000 2.6 130 21:22 27.03.2020
669 Rain 25 1010 88 6000 2.6 130 21:22 27.03.2020
670 Clouds 26 1010 83 7000 3.1 80 20:56 27.03.2020
671 Clouds 25 1010 88 9000 2.6 80 20:37 27.03.2020
672 Clouds 25 1010 88 9000 2.6 80 20:19 27.03.2020
673 Clouds 26 1010 83 9000 2.6 90 19:43 27.03.2020
674 Clouds 26 1010 83 9000 2.6 90 19:23 27.03.2020
675 Clouds 26 1010 83 9000 2.6 90 18:57 27.03.2020
676 Clouds 26 1010 83 10000 3.6 100 18:39 27.03.2020
677 Clouds 26 1010 83 9000 3.6 110 18:20 27.03.2020
678 Clouds 26 1010 83 9000 3.1 120 17:41 27.03.2020
679 Clouds 26 1010 83 10000 4.1 120 17:21 27.03.2020
680 Clouds 26 1010 83 10000 4.1 120 16:57 27.03.2020
681 Clouds 26 1010 83 10000 4.1 130 16:38 27.03.2020
682 Clouds 26 1010 83 10000 4.1 130 16:20 27.03.2020
683 Clouds 26 1009 83 10000 4.1 120 15:42 27.03.2020
684 Clouds 25 1010 91 0 3.04 125 15:24 27.03.2020
685 Clouds 25 1010 91 0 3.04 125 14:48 27.03.2020
686 Clouds 25 1010 91 0 3.04 125 14:25 27.03.2020
687 Clouds 26 1008 85 0 2.99 113 13:58 27.03.2020
688 Clouds 26 1008 85 0 2.99 113 13:40 27.03.2020
689 Clouds 26 1008 85 0 2.99 113 13:21 27.03.2020
690 Clouds 26 1007 84 0 3.34 112 12:57 27.03.2020
691 Clouds 26 1007 84 0 3.34 112 12:39 27.03.2020
692 Clouds 26 1007 84 0 3.34 112 12:18 27.03.2020
693 Clouds 26 1007 84 0 3.34 112 11:41 27.03.2020
694 Clouds 26 1007 84 0 3.34 112 11:23 27.03.2020
695 Clouds 32 1006 61 0 4.87 120 10:55 27.03.2020
696 Clouds 32 1006 61 0 4.87 120 10:37 27.03.2020
697 Clouds 32 1006 61 0 4.87 120 10:18 27.03.2020
698 Clouds 32 1006 61 0 4.87 120 09:56 27.03.2020
699 Clouds 32 1006 61 0 4.87 120 09:37 27.03.2020
700 Clouds 32 1006 61 0 4.87 120 09:18 27.03.2020
701 Clouds 32 1006 61 0 4.87 120 08:56 27.03.2020
702 Clouds 32 1006 61 0 4.87 120 08:37 27.03.2020
703 Clouds 30 1008 64 0 3.15 161 08:19 27.03.2020
704 Clouds 31 1009 59 0 2.85 151 07:50 27.03.2020
705 Clouds 31 1009 59 0 2.85 151 07:23 27.03.2020
706 Clouds 31 1009 59 0 2.85 151 06:51 27.03.2020
707 Clouds 31 1009 59 0 2.85 151 06:33 27.03.2020
708 Clouds 27 1012 75 0 3.66 166 04:23 27.03.2020
709 Clouds 27 1012 75 0 3.66 166 02:25 27.03.2020
710 Clouds 25 1010 86 0 3.19 162 01:23 27.03.2020
711 Clouds 25 1010 85 0 2.98 161 00:48 27.03.2020
712 Clouds 25 1010 85 0 2.98 161 00:23 27.03.2020
713 Clouds 25 1010 85 0 2.98 161 23:43 26.03.2020
714 Clouds 25 1010 85 0 2.98 161 23:21 26.03.2020
715 Clouds 25 1008 86 0 3.61 156 22:58 26.03.2020
716 Clouds 25 1008 86 0 3.61 156 22:37 26.03.2020
717 Clouds 25 1008 86 0 3.61 156 22:19 26.03.2020
718 Clouds 25 1008 86 0 3.61 156 21:55 26.03.2020
719 Clouds 25 1008 86 0 3.61 156 21:37 26.03.2020
720 Clouds 25 1008 86 0 3.61 156 21:18 26.03.2020
721 Clouds 25 1008 86 0 3.61 156 20:41 26.03.2020
722 Clouds 25 1008 86 0 3.61 156 20:23 26.03.2020
723 Clouds 25 1009 87 0 4.43 155 19:58 26.03.2020
724 Clouds 25 1009 87 0 4.43 155 19:40 26.03.2020
725 Clouds 25 1009 87 0 4.43 155 19:40 26.03.2020
726 Clouds 25 1009 87 0 4.43 155 19:22 26.03.2020
727 Clouds 25 1009 87 0 4.43 155 18:59 26.03.2020
728 Clouds 25 1009 87 0 4.43 155 18:41 26.03.2020
729 Clouds 25 1009 87 0 4.43 155 18:23 26.03.2020
730 Clouds 25 1009 87 0 4.43 155 17:45 26.03.2020
731 Clouds 25 1010 87 0 4.69 143 17:20 26.03.2020
732 Clouds 25 1010 87 0 4.69 143 16:59 26.03.2020
733 Clouds 25 1010 87 0 4.69 143 16:39 26.03.2020
734 Clouds 25 1010 87 0 4.69 143 16:21 26.03.2020
735 Clouds 25 1010 87 0 4.69 143 15:56 26.03.2020
736 Clouds 25 1010 87 0 4.69 143 15:38 26.03.2020
737 Clouds 25 1010 87 0 4.69 143 15:19 26.03.2020
738 Clouds 25 1010 87 0 4.69 143 14:43 26.03.2020
739 Clouds 25 1010 87 0 4.69 143 14:25 26.03.2020
740 Clouds 25 1008 85 0 4.4 133 13:56 26.03.2020
741 Clouds 25 1008 85 0 4.4 133 13:56 26.03.2020
742 Clouds 25 1008 85 0 4.4 133 13:38 26.03.2020
743 Rain 25 1008 83 0 3.92 145 13:20 26.03.2020
744 Rain 25 1008 83 0 3.92 145 12:39 26.03.2020
745 Rain 25 1008 83 0 3.92 145 12:20 26.03.2020
746 Rain 25 1008 83 0 3.92 145 11:55 26.03.2020
747 Rain 25 1008 83 0 3.92 145 11:37 26.03.2020
748 Rain 30 1007 65 0 6.32 147 11:18 26.03.2020
749 Rain 30 1007 65 0 6.32 147 10:42 26.03.2020
750 Rain 30 1007 65 0 6.32 147 10:20 26.03.2020
751 Rain 30 1007 65 0 6.32 147 09:45 26.03.2020
752 Rain 30 1007 65 0 6.32 147 09:21 26.03.2020
753 Rain 30 1007 65 0 6.32 147 08:57 26.03.2020
754 Rain 30 1007 65 0 6.32 147 08:38 26.03.2020
755 Clouds 30 1009 62 0 5.34 150 08:19 26.03.2020
756 Clouds 30 1009 62 0 5.34 150 07:45 26.03.2020
757 Clouds 30 1009 62 0 5.34 150 07:23 26.03.2020
758 Clouds 30 1009 62 0 5.34 150 06:57 26.03.2020
759 Clouds 30 1009 62 0 5.34 150 06:27 26.03.2020
760 Rain 28 1012 70 0 5 164 05:22 26.03.2020
761 Rain 28 1012 70 0 5 164 03:45 26.03.2020
762 Rain 28 1012 70 0 5 164 02:56 26.03.2020
763 Rain 24 1010 85 0 4.14 162 01:50 26.03.2020
764 Rain 24 1010 85 0 4.01 162 00:55 26.03.2020
765 Rain 24 1010 85 0 4.01 162 00:22 26.03.2020
766 Rain 24 1010 85 0 4.01 162 23:41 25.03.2020
767 Rain 24 1009 85 0 3.95 157 23:21 25.03.2020
768 Rain 24 1009 85 0 3.95 157 22:42 25.03.2020
769 Rain 24 1009 85 0 3.95 157 22:21 25.03.2020
770 Rain 24 1009 85 0 3.95 157 21:56 25.03.2020
771 Rain 24 1009 85 0 3.95 157 21:38 25.03.2020
772 Rain 24 1009 85 0 3.95 157 21:38 25.03.2020
773 Rain 24 1009 85 0 3.95 157 21:19 25.03.2020
774 Rain 24 1009 85 0 3.95 157 20:55 25.03.2020
775 Rain 24 1009 85 0 3.95 157 20:37 25.03.2020
776 Clouds 24 1010 85 0 4.3 160 20:18 25.03.2020
777 Clouds 24 1010 85 0 4.3 160 19:43 25.03.2020
778 Clouds 24 1010 85 0 4.3 160 19:23 25.03.2020
779 Clouds 24 1009 86 0 3.96 160 18:58 25.03.2020
780 Clouds 24 1010 85 0 4.3 160 18:39 25.03.2020
781 Clouds 24 1010 85 0 4.3 160 18:21 25.03.2020
782 Clouds 24 1010 85 0 4.3 160 17:55 25.03.2020
783 Clouds 24 1010 85 0 4.3 160 17:37 25.03.2020
784 Clouds 25 1011 83 0 4.64 164 17:18 25.03.2020
785 Clouds 25 1011 83 0 4.64 164 16:43 25.03.2020
786 Clouds 25 1011 83 0 4.64 164 16:24 25.03.2020
787 Clouds 25 1011 83 0 5.77 149 15:57 25.03.2020
788 Clouds 25 1011 83 0 5.77 149 15:38 25.03.2020
789 Clouds 25 1011 83 0 5.77 149 15:19 25.03.2020
790 Clouds 25 1011 83 0 5.77 149 15:19 25.03.2020
791 Clouds 25 1011 83 0 5.77 149 14:42 25.03.2020
792 Rain 25 1009 79 0 4.87 146 14:21 25.03.2020
793 Rain 25 1009 79 0 4.87 146 13:46 25.03.2020
794 Rain 25 1009 79 0 4.87 146 13:27 25.03.2020
795 Rain 25 1009 79 0 4.87 146 12:57 25.03.2020
796 Rain 26 1009 78 0 5.62 142 12:37 25.03.2020
797 Rain 26 1009 78 0 5.62 142 12:19 25.03.2020
798 Rain 26 1009 78 0 5.62 142 11:43 25.03.2020
799 Rain 29 1008 62 0 6.84 160 11:22 25.03.2020
800 Rain 29 1008 62 0 6.84 160 10:59 25.03.2020
801 Rain 29 1008 62 0 6.84 160 10:41 25.03.2020
802 Rain 29 1008 62 0 6.84 160 10:19 25.03.2020
803 Rain 29 1008 62 0 6.84 160 09:59 25.03.2020
804 Rain 29 1008 62 0 6.84 160 09:41 25.03.2020
805 Rain 29 1008 62 0 6.84 160 09:22 25.03.2020
806 Rain 29 1008 62 0 6.84 160 08:55 25.03.2020
807 Rain 29 1008 62 0 6.84 160 08:37 25.03.2020
808 Rain 31 1009 57 0 6.36 165 08:18 25.03.2020
809 Rain 31 1009 57 0 6.39 166 07:39 25.03.2020
810 Rain 31 1009 57 0 6.39 166 07:19 25.03.2020
811 Rain 31 1009 57 0 6.39 166 06:46 25.03.2020
812 Rain 31 1009 57 0 6.39 166 06:25 25.03.2020
813 Rain 31 1009 57 0 6.39 166 05:50 25.03.2020
814 Rain 28 1013 67 0 4.64 173 04:59 25.03.2020
815 Rain 28 1013 67 0 4.64 173 04:36 25.03.2020
816 Rain 28 1013 67 0 4.64 173 03:34 25.03.2020
817 Rain 24 1011 87 0 3.24 149 01:57 25.03.2020
818 Rain 24 1011 85 0 3.18 149 01:20 25.03.2020
819 Rain 24 1011 85 0 3.18 149 00:43 25.03.2020
820 Rain 24 1011 85 0 3.18 149 00:19 25.03.2020
821 Rain 24 1011 85 0 3.18 149 23:42 24.03.2020
822 Rain 24 1011 88 0 3.06 136 23:22 24.03.2020
823 Rain 24 1011 88 0 3.06 136 22:55 24.03.2020
824 Rain 24 1011 88 0 3.06 136 22:37 24.03.2020
825 Rain 24 1011 88 0 3.06 136 22:37 24.03.2020
826 Rain 24 1011 88 0 3.06 136 22:37 24.03.2020
827 Rain 24 1011 88 0 3.06 136 22:19 24.03.2020
828 Rain 24 1011 88 0 3.06 136 21:54 24.03.2020
829 Rain 24 1011 88 0 3.06 136 21:36 24.03.2020
830 Rain 24 1011 88 0 3.06 136 21:36 24.03.2020
831 Rain 24 1011 88 0 3.06 136 21:18 24.03.2020
832 Rain 24 1011 88 0 3.06 136 20:41 24.03.2020
833 Rain 24 1011 88 0 3.06 136 20:23 24.03.2020
834 Rain 23 1011 89 0 3.43 145 19:54 24.03.2020
835 Rain 23 1011 89 0 3.43 145 19:36 24.03.2020
836 Rain 23 1011 89 0 3.43 145 19:18 24.03.2020
837 Rain 23 1011 89 0 3.43 145 18:54 24.03.2020
838 Rain 23 1011 89 0 3.43 145 18:36 24.03.2020
839 Rain 23 1011 89 0 3.43 145 18:36 24.03.2020
840 Rain 23 1011 89 0 3.43 145 18:18 24.03.2020
841 Rain 23 1011 89 0 3.43 145 17:41 24.03.2020
842 Clouds 23 1012 87 0 2.94 144 17:22 24.03.2020
843 Clouds 24 1011 88 8000 2.6 110 16:57 24.03.2020
844 Clouds 24 1011 88 9000 3.1 110 16:39 24.03.2020
845 Clouds 24 1011 88 9000 3.1 110 16:20 24.03.2020
846 Clouds 25 1011 83 9000 4.1 110 15:44 24.03.2020
847 Clouds 25 1011 83 9000 4.1 110 15:25 24.03.2020
848 Clouds 25 1011 83 10000 4.1 110 14:59 24.03.2020
849 Clouds 25 1010 83 10000 4.6 110 14:40 24.03.2020
850 Clouds 25 1010 73 0 6.31 143 14:18 24.03.2020
851 Clouds 25 1010 73 0 6.31 143 13:42 24.03.2020
852 Clouds 25 1010 74 0 5.41 144 13:22 24.03.2020
853 Clouds 25 1010 74 0 5.41 144 12:47 24.03.2020
854 Clouds 25 1010 74 0 5.41 144 12:28 24.03.2020
855 Clouds 25 1010 74 0 5.41 144 11:58 24.03.2020
856 Clouds 25 1010 74 0 5.41 144 11:39 24.03.2020
857 Clouds 28 1008 54 10000 6.2 120 11:19 24.03.2020
858 Clouds 29 1009 58 10000 5.7 140 10:42 24.03.2020
859 Clouds 29 1009 58 10000 5.7 140 10:19 24.03.2020
860 Clouds 29 1009 58 10000 5.7 150 09:55 24.03.2020
861 Clouds 28 1009 65 10000 5.7 130 09:37 24.03.2020
862 Clouds 28 1009 65 10000 5.7 130 09:19 24.03.2020
863 Clouds 29 1010 58 10000 6.7 150 08:38 24.03.2020
864 Clouds 29 1010 58 10000 6.7 150 08:20 24.03.2020
865 Clouds 29 1011 62 10000 6.2 140 07:47 24.03.2020
866 Clouds 29 1011 58 10000 6.2 150 07:23 24.03.2020
867 Clouds 29 1012 58 10000 5.7 170 06:50 24.03.2020
868 Clouds 29 1012 58 10000 5.7 170 06:24 24.03.2020
869 Clouds 27 1014 69 10000 4.1 170 04:57 24.03.2020
870 Clouds 25 1014 78 10000 4.1 140 03:46 24.03.2020
871 Clouds 25 1014 83 7000 3.1 120 02:45 24.03.2020
872 Mist 23 1013 94 2000 2.6 90 01:38 24.03.2020
873 Mist 23 1012 94 3000 3.1 100 00:42 24.03.2020
874 Mist 23 1012 94 3000 3.1 100 00:22 24.03.2020
875 Mist 23 1012 88 3000 2.6 110 23:39 23.03.2020
876 Mist 23 1012 88 3000 2.6 110 23:21 23.03.2020
877 Mist 23 1012 88 4000 2.6 70 22:45 23.03.2020
878 Mist 23 1012 88 3000 2.6 70 22:24 23.03.2020
879 Mist 23 1012 94 3300 2.1 70 21:58 23.03.2020
880 Mist 23 1012 94 3500 2.6 90 21:40 23.03.2020
881 Mist 23 1012 94 3500 2.6 90 21:20 23.03.2020
882 Mist 23 1012 94 3400 2.1 80 20:56 23.03.2020
883 Mist 22 1012 94 3000 2.1 80 20:38 23.03.2020
884 Mist 22 1012 94 3000 2.1 80 20:19 23.03.2020
885 Mist 23 1013 94 4100 2.1 100 19:44 23.03.2020
886 Mist 23 1013 94 4100 2.1 100 19:24 23.03.2020
887 Mist 23 1013 94 4000 2.1 100 18:56 23.03.2020
888 Mist 23 1013 94 4200 1.5 120 18:38 23.03.2020
889 Mist 23 1013 94 5000 1.5 140 18:20 23.03.2020
890 Mist 23 1013 94 5000 1.5 140 17:42 23.03.2020
891 Mist 24 1013 88 5000 3.6 140 17:21 23.03.2020
892 Mist 24 1013 88 5000 3.6 140 16:56 23.03.2020
893 Mist 24 1013 88 5000 3.1 120 16:38 23.03.2020
894 Mist 24 1013 88 5000 3.1 120 16:19 23.03.2020
895 Clouds 24 1012 88 7000 4.1 130 15:41 23.03.2020
896 Clouds 24 1012 88 7000 4.1 130 15:19 23.03.2020
897 Clouds 24 1012 88 10000 3.1 100 14:38 23.03.2020
898 Clouds 24 1012 88 10000 3.1 100 14:20 23.03.2020
899 Clouds 24 1012 88 10000 1.5 120 13:58 23.03.2020
900 Clouds 24 1012 83 10000 0.5 0 13:40 23.03.2020
901 Clouds 24 1012 83 10000 0.5 0 13:40 23.03.2020
902 Clouds 24 1012 83 10000 0.5 0 13:20 23.03.2020
903 Rain 25 1010 83 6000 5.1 160 12:44 23.03.2020
904 Rain 26 1010 78 4900 3.6 160 12:25 23.03.2020
905 Rain 26 1010 78 4900 3.6 160 11:58 23.03.2020
906 Clouds 27 1010 74 7000 2.6 100 11:39 23.03.2020
907 Clouds 27 1010 74 7000 3.1 90 11:19 23.03.2020
908 Clouds 27 1010 74 7000 3.1 90 10:56 23.03.2020
909 Clouds 27 1010 74 6000 3.1 80 10:37 23.03.2020
910 Clouds 27 1010 74 6000 3.1 80 10:19 23.03.2020
911 Clouds 27 1010 74 6000 3.6 80 09:43 23.03.2020
912 Mist 27 1010 74 5000 3.1 80 09:21 23.03.2020
913 Mist 28 1012 69 4800 3.6 90 08:40 23.03.2020
914 Mist 28 1012 69 4800 3.6 90 08:20 23.03.2020
915 Mist 27 1012 74 5000 2.6 80 07:59 23.03.2020
916 Mist 27 1012 74 5000 2.6 80 07:59 23.03.2020
917 Mist 27 1013 78 5000 2.1 80 07:40 23.03.2020
918 Mist 27 1013 78 5000 2.1 80 07:19 23.03.2020
919 Mist 26 1013 78 4700 1.5 90 06:48 23.03.2020
920 Mist 24 1015 88 3600 2.1 360 05:50 23.03.2020
921 Rain 23 1015 94 1600 2.6 330 04:41 23.03.2020
922 Mist 24 1014 88 2000 1.5 190 03:24 23.03.2020
923 Mist 23 1013 94 1600 2.1 140 01:50 23.03.2020
924 Mist 23 1011 94 2700 4.6 130 00:50 23.03.2020
925 Mist 23 1011 94 2700 4.6 130 00:31 23.03.2020
926 Mist 23 1011 94 3900 3.6 80 23:45 22.03.2020
927 Mist 23 1011 94 3900 3.6 80 23:25 22.03.2020
928 Thunderstorm 23 1011 94 3800 3.01 142 22:44 22.03.2020
929 Thunderstorm 23 1011 94 3800 3.01 142 22:22 22.03.2020
930 Clouds 24 1012 88 3900 2.6 260 21:55 22.03.2020
931 Clouds 24 1012 88 7000 1.5 250 21:37 22.03.2020
932 Clouds 24 1012 88 7000 1.5 250 21:18 22.03.2020
933 Clouds 24 1012 88 8000 1 0 20:45 22.03.2020
934 Clouds 24 1011 88 8000 3.1 0 20:24 22.03.2020
935 Clouds 24 1011 88 7000 5.1 140 19:57 22.03.2020
936 Clouds 24 1011 88 6000 6.7 130 19:39 22.03.2020
937 Clouds 24 1011 88 6000 6.7 130 19:20 22.03.2020
938 Clouds 24 1012 88 7000 4.6 130 18:58 22.03.2020
939 Clouds 24 1013 88 8000 3.6 130 18:40 22.03.2020
940 Clouds 24 1013 88 8000 3.6 130 18:21 22.03.2020
941 Clouds 24 1013 94 7000 2.1 160 17:57 22.03.2020
942 Clouds 25 1013 88 7000 3.1 150 17:38 22.03.2020
943 Rain 25 1013 88 7000 2.6 160 17:20 22.03.2020
944 Rain 25 1013 88 7000 2.6 160 16:57 22.03.2020
945 Clouds 25 1013 88 8000 2.6 170 16:39 22.03.2020
946 Clouds 25 1013 88 8000 2.6 170 16:39 22.03.2020
947 Clouds 25 1013 88 8000 2.6 170 16:20 22.03.2020
948 Rain 25 1013 88 8000 2.6 160 15:40 22.03.2020
949 Clouds 25 1012 88 8000 3.6 140 15:20 22.03.2020
950 Rain 25 1012 88 7000 2.1 160 14:46 22.03.2020
951 Rain 25 1012 88 7000 2.1 160 14:46 22.03.2020
952 Rain 25 1011 88 6000 2.6 130 14:19 22.03.2020
953 Rain 25 1010 88 6000 5.7 130 13:44 22.03.2020
954 Rain 25 1010 88 6000 5.7 130 13:20 22.03.2020
955 Rain 25 1011 88 6000 4.1 120 12:58 22.03.2020
956 Rain 26 1010 83 7000 3.6 110 12:39 22.03.2020
957 Clouds 26 1010 83 10000 5.1 130 12:19 22.03.2020
958 Clouds 26 1010 83 10000 3.1 130 11:43 22.03.2020
959 Clouds 26 1010 83 10000 3.1 130 11:25 22.03.2020
960 Clouds 26 1009 83 10000 4.6 120 10:58 22.03.2020
961 Clouds 27 1009 78 10000 5.1 110 10:40 22.03.2020
962 Clouds 27 1009 78 10000 5.1 110 10:21 22.03.2020
963 Clouds 27 1009 78 10000 5.7 110 09:45 22.03.2020
964 Clouds 28 1009 74 10000 5.1 130 09:27 22.03.2020
965 Clouds 28 1010 74 10000 4.6 100 08:48 22.03.2020
966 Clouds 28 1010 74 7000 3.1 120 08:29 22.03.2020
967 Clouds 28 1011 69 6000 3.1 100 07:54 22.03.2020
968 Clouds 28 1011 74 6000 2.1 0 07:36 22.03.2020
969 Clouds 27 1013 74 6000 2.1 0 06:41 22.03.2020
970 Mist 26 1014 78 4000 1.5 150 05:41 22.03.2020
971 Mist 25 1014 83 4200 2.1 170 04:34 22.03.2020
972 Mist 24 1012 88 3500 2.6 160 01:36 22.03.2020
973 Mist 24 1012 88 3400 2.6 130 00:49 22.03.2020
974 Mist 24 1011 88 4700 2.6 140 00:29 22.03.2020
975 Mist 24 1011 88 5000 2.6 140 23:45 21.03.2020
976 Mist 24 1011 88 5000 1.5 140 23:21 21.03.2020
977 Mist 24 1011 88 5000 1.5 40 22:58 21.03.2020
978 Mist 24 1011 88 4500 0.5 0 22:37 21.03.2020
979 Mist 24 1011 88 4500 0.5 0 22:18 21.03.2020
980 Mist 24 1010 88 4100 1.5 120 21:56 21.03.2020
981 Mist 24 1010 88 3500 1.5 100 21:37 21.03.2020
982 Mist 24 1010 88 3500 1.5 100 21:18 21.03.2020
983 Mist 24 1011 88 3300 2.1 100 20:42 21.03.2020
984 Mist 24 1011 94 3300 2.1 90 20:20 21.03.2020
985 Mist 24 1011 88 3500 2.1 100 19:45 21.03.2020
986 Mist 24 1012 94 3500 1.5 80 19:25 21.03.2020
987 Mist 24 1012 88 3600 3.1 110 18:59 21.03.2020
988 Mist 24 1012 88 4500 2.6 100 18:40 21.03.2020
989 Mist 24 1012 88 4400 3.6 100 18:20 21.03.2020
990 Mist 24 1012 88 4400 3.6 100 17:57 21.03.2020
991 Clouds 24 1012 88 6000 4.1 120 17:39 21.03.2020
992 Clouds 24 1013 88 8000 3.1 110 17:20 21.03.2020
993 Clouds 24 1012 88 9000 5.7 130 16:41 21.03.2020
994 Clouds 24 1012 88 9000 5.7 130 16:22 21.03.2020
995 Clouds 24 1013 88 7000 4.6 130 15:57 21.03.2020
996 Clouds 24 1012 88 7000 4.1 120 15:39 21.03.2020
997 Clouds 24 1012 88 7000 4.1 120 15:20 21.03.2020
998 Clouds 25 1011 78 7000 4.6 130 14:54 21.03.2020
999 Clouds 25 1011 83 7000 5.1 130 14:36 21.03.2020
1000 Clouds 25 1011 83 7000 5.1 130 14:36 21.03.2020
1001 Clouds 25 1011 83 7000 5.1 130 14:18 21.03.2020
1002 Clouds 25 1010 78 10000 5.7 130 13:57 21.03.2020
1003 Clouds 26 1010 74 8000 4.6 120 13:38 21.03.2020
1004 Clouds 26 1010 74 8000 4.6 120 13:19 21.03.2020
1005 Clouds 26 1009 78 6000 3.1 130 12:40 21.03.2020
1006 Clouds 26 1009 78 6000 3.6 130 12:20 21.03.2020
1007 Clouds 26 1009 78 6000 3.6 130 11:59 21.03.2020
1008 Clouds 26 1008 78 6000 4.1 120 11:39 21.03.2020
1009 Clouds 26 1009 74 6000 4.6 110 11:19 21.03.2020
1010 Clouds 26 1009 74 6000 4.6 110 11:19 21.03.2020
1011 Clouds 26 1009 74 6000 4.6 110 10:57 21.03.2020
1012 Clouds 26 1009 74 6000 4.6 110 10:57 21.03.2020
1013 Mist 27 1008 69 4600 4.1 110 10:39 21.03.2020
1014 Mist 27 1008 69 4600 4.1 110 10:21 21.03.2020
1015 Mist 27 1008 69 4600 4.1 110 10:20 21.03.2020
1016 Mist 27 1009 69 5000 5.1 110 09:58 21.03.2020
1017 Haze 27 1009 69 5000 4.1 120 09:37 21.03.2020
1018 Haze 27 1009 69 5000 4.1 120 09:19 21.03.2020
1019 Clouds 27 1009 69 7000 3.6 120 08:45 21.03.2020
1020 Clouds 27 1010 69 8000 2.6 160 08:25 21.03.2020
1021 Clouds 27 1011 65 8000 3.6 150 07:52 21.03.2020
1022 Clouds 27 1011 65 8000 1.5 0 07:32 21.03.2020
1023 Clouds 27 1012 69 7000 1.5 0 06:48 21.03.2020
1024 Clouds 26 1013 74 7000 1.5 200 06:29 21.03.2020
1025 Clouds 25 1014 73 7000 2.6 200 05:48 21.03.2020
1026 Clouds 26 1014 65 7000 2.1 190 05:18 21.03.2020
1027 Mist 24 1014 83 3700 1 0 03:26 21.03.2020
1028 Mist 22 1014 88 2400 1.5 170 02:34 21.03.2020
1029 Mist 21 1013 94 1500 3.1 110 01:38 21.03.2020
1030 Mist 21 1013 94 1500 3.1 110 01:18 21.03.2020
1031 Rain 21 1013 94 1600 1 60 00:38 21.03.2020
1032 Rain 21 1013 94 1400 2.1 340 23:58 20.03.2020
1033 Drizzle 21 1013 94 1600 2.6 340 23:40 20.03.2020
1034 Mist 21 1012 94 2900 0.5 0 23:18 20.03.2020
1035 Mist 21 1011 94 3200 1.5 100 22:41 20.03.2020
1036 Mist 21 1011 94 3200 1.5 100 22:22 20.03.2020
1037 Mist 21 1011 94 3700 2.1 120 21:56 20.03.2020
1038 Mist 21 1011 94 3700 2.6 110 21:38 20.03.2020
1039 Mist 21 1011 94 3700 2.6 110 21:18 20.03.2020
1040 Mist 21 1011 94 3700 2.6 110 20:57 20.03.2020
1041 Mist 21 1012 94 4000 2.1 100 20:38 20.03.2020
1042 Mist 21 1012 94 4000 2.1 100 20:18 20.03.2020
1043 Mist 21 1013 94 4200 0.5 0 19:45 20.03.2020
1044 Mist 21 1013 94 4200 0.5 0 19:19 20.03.2020
1045 Mist 21 1013 94 4200 0.5 0 19:19 20.03.2020
1046 Mist 21 1013 94 4100 1.5 0 18:55 20.03.2020
1047 Mist 21 1012 94 3400 2.6 110 18:37 20.03.2020
1048 Mist 21 1011 94 3300 5.1 120 18:19 20.03.2020
1049 Mist 21 1012 94 3100 5.1 110 17:39 20.03.2020
1050 Mist 22 1013 88 5000 3.1 90 17:21 20.03.2020
1051 Mist 22 1013 88 5000 3.1 90 17:21 20.03.2020
1052 Mist 22 1013 88 5000 3.1 90 16:59 20.03.2020
1053 Clouds 22 1015 88 6000 4.1 270 16:41 20.03.2020
1054 Clouds 22 1015 88 6000 4.1 270 16:19 20.03.2020
1055 Clouds 23 1013 78 7000 2.6 130 15:43 20.03.2020
1056 Clouds 23 1013 78 7000 2.6 130 15:22 20.03.2020
1057 Clouds 23 1012 78 8000 2.1 90 14:56 20.03.2020
1058 Clouds 23 1011 78 8000 4.1 110 14:38 20.03.2020
1059 Clouds 23 1011 78 8000 4.1 110 14:19 20.03.2020
1060 Clouds 23 1011 78 8000 2.1 100 13:45 20.03.2020
1061 Clouds 23 1011 78 9000 3.1 110 13:19 20.03.2020
1062 Clouds 23 1010 78 7000 3.6 100 12:41 20.03.2020
1063 Clouds 23 1010 78 7000 3.6 100 12:23 20.03.2020
1064 Clouds 23 1010 78 7000 4.1 100 11:58 20.03.2020
1065 Clouds 24 1010 69 7000 5.1 110 11:38 20.03.2020
1066 Clouds 24 1010 69 7000 4.1 120 11:19 20.03.2020
1067 Clouds 25 1010 65 7000 3.1 90 10:42 20.03.2020
1068 Clouds 25 1010 65 7000 3.1 90 10:21 20.03.2020
1069 Clouds 25 1010 65 9000 2.6 100 09:58 20.03.2020
1070 Clouds 25 1010 65 10000 2.1 80 09:39 20.03.2020
1071 Clouds 25 1010 65 10000 2.1 80 09:19 20.03.2020
1072 Clouds 25 1012 61 10000 1.5 90 08:42 20.03.2020
1073 Clouds 25 1012 61 10000 1.5 90 08:22 20.03.2020
1074 Clouds 25 1012 61 10000 1.5 0 07:54 20.03.2020
1075 Clouds 24 1013 64 10000 2.1 120 07:36 20.03.2020
1076 Clouds 24 1013 64 10000 2.1 120 07:18 20.03.2020
1077 Clouds 23 1015 69 10000 1.5 0 06:41 20.03.2020
1078 Clouds 23 1015 69 10000 1.5 0 06:41 20.03.2020
1079 Clouds 23 1016 64 10000 1 0 04:52 20.03.2020
1080 Clouds 21 1016 73 8000 1 0 03:40 20.03.2020
1081 Clouds 20 1016 82 7000 1 60 02:20 20.03.2020
1082 Clouds 19 1014 88 7000 1 60 00:59 20.03.2020
1083 Clouds 19 1014 88 9000 1 80 00:31 20.03.2020
1084 Clouds 19 1013 88 9000 1 50 23:49 19.03.2020
1085 Clouds 19 1013 88 9000 1 50 23:28 19.03.2020
1086 Clouds 19 1013 88 9000 1 100 22:57 19.03.2020
1087 Clouds 19 1013 88 10000 1 70 22:38 19.03.2020
1088 Clouds 19 1013 88 10000 1 70 22:19 19.03.2020
1089 Clouds 19 1013 88 10000 0.5 70 21:42 19.03.2020
1090 Clouds 19 1014 93 10000 1.08 8 21:20 19.03.2020
1091 Clouds 19 1014 93 9000 1.08 8 20:59 19.03.2020
1092 Clouds 20 1014 88 10000 1 330 20:41 19.03.2020
1093 Clouds 20 1015 88 10000 0.5 90 20:22 19.03.2020
1094 Clouds 20 1015 88 10000 0.5 90 19:55 19.03.2020
1095 Clouds 19 1015 88 10000 0.5 0 19:37 19.03.2020
1096 Clouds 19 1015 88 10000 0.5 0 19:19 19.03.2020
1097 Clouds 19 1015 93 8000 1.5 360 18:54 19.03.2020
1098 Clouds 20 1016 88 7000 0.36 15 18:36 19.03.2020
1099 Clouds 20 1016 88 6000 1 330 18:18 19.03.2020
1100 Clouds 20 1016 88 6000 1 330 17:41 19.03.2020
1101 Clouds 20 1017 88 8000 0.5 0 17:19 19.03.2020
1102 Clouds 20 1017 88 9000 1 290 16:44 19.03.2020
1103 Clouds 20 1017 88 9000 1 290 16:24 19.03.2020
1104 Clouds 20 1016 88 7000 1 0 15:46 19.03.2020
1105 Clouds 20 1016 88 6000 1.5 330 15:27 19.03.2020
1106 Clouds 20 1015 88 7000 1.5 300 14:58 19.03.2020
1107 Clouds 20 1015 88 9000 2.1 280 14:40 19.03.2020
1108 Clouds 20 1015 88 9000 2.1 280 14:19 19.03.2020
1109 Clouds 20 1014 72 10000 1.5 340 13:40 19.03.2020
1110 Clouds 20 1014 72 10000 1 0 13:19 19.03.2020
1111 Clouds 20 1014 72 10000 1 0 12:55 19.03.2020
1112 Clouds 20 1013 72 10000 1.5 360 12:37 19.03.2020
1113 Clouds 21 1013 68 10000 2.1 360 12:18 19.03.2020
1114 Clouds 21 1013 68 10000 2.1 360 11:41 19.03.2020
1115 Clouds 21 1013 73 10000 1.5 10 11:23 19.03.2020
1116 Clouds 21 1013 73 10000 1.5 10 10:56 19.03.2020
1117 Clouds 21 1012 73 10000 2.1 340 10:36 19.03.2020
1118 Clouds 21 1012 73 10000 2.1 340 10:18 19.03.2020
1119 Clouds 21 1012 73 10000 3.1 20 09:44 19.03.2020
1120 Clouds 21 1013 68 10000 3.1 10 09:25 19.03.2020
1121 Clouds 21 1013 68 10000 3.1 10 08:48 19.03.2020
1122 Clouds 21 1014 68 10000 1.5 10 08:23 19.03.2020
1123 Clouds 21 1014 68 10000 1.5 10 08:23 19.03.2020
1124 Clouds 21 1014 68 10000 2.1 350 07:59 19.03.2020
1125 Clouds 20 1015 77 10000 3.6 350 07:38 19.03.2020
1126 Clouds 20 1015 77 10000 3.6 350 07:19 19.03.2020
1127 Clouds 20 1016 77 10000 4.1 360 06:27 19.03.2020
1128 Clouds 20 1016 82 10000 4.1 360 05:25 19.03.2020
1129 Clouds 20 1016 82 10000 3.1 360 04:51 19.03.2020
1130 Clouds 19 1016 88 10000 4.1 30 04:21 19.03.2020
1131 Rain 18 1014 93 8000 3.6 10 01:58 19.03.2020
1132 Rain 18 1013 93 6000 2.1 360 00:53 19.03.2020
1133 Rain 18 1012 100 7000 1 0 00:19 19.03.2020
1134 Rain 18 1012 93 6000 2.21 39 23:43 18.03.2020
1135 Rain 18 1012 93 6000 2.21 39 23:23 18.03.2020
1136 Rain 18 1011 93 5000 0.5 360 22:43 18.03.2020
1137 Rain 18 1011 93 5000 0.5 360 22:23 18.03.2020
1138 Clouds 18 1011 93 9000 1 0 21:57 18.03.2020
1139 Rain 18 1011 93 7000 1.5 40 21:39 18.03.2020
1140 Rain 18 1011 93 7000 1.5 40 21:20 18.03.2020
1141 Rain 18 1012 93 7000 1 0 20:55 18.03.2020
1142 Rain 18 1012 93 6000 2.1 30 20:37 18.03.2020
1143 Rain 18 1012 93 6000 2.1 30 20:19 18.03.2020
1144 Rain 18 1013 93 6000 2.1 30 19:41 18.03.2020
1145 Rain 18 1013 93 6000 2.1 30 19:21 18.03.2020
1146 Rain 18 1013 93 6000 2.1 30 19:21 18.03.2020
1147 Rain 18 1013 93 5000 2.1 30 18:57 18.03.2020
1148 Rain 19 1013 93 6000 1.5 20 18:38 18.03.2020
1149 Rain 18 1013 93 5000 2.1 30 18:19 18.03.2020
1150 Drizzle 19 1013 93 4800 1.5 30 17:55 18.03.2020
1151 Drizzle 19 1013 93 4800 1.5 30 17:37 18.03.2020
1152 Rain 19 1013 88 7000 1 0 17:18 18.03.2020
1153 Clouds 19 1013 88 10000 2.1 20 16:42 18.03.2020
1154 Clouds 19 1013 88 10000 2.1 20 16:20 18.03.2020
1155 Clouds 19 1013 88 10000 2.1 20 16:20 18.03.2020
1156 Clouds 19 1013 88 10000 2.1 20 16:20 18.03.2020
1157 Clouds 18 1013 93 9000 1.5 60 15:57 18.03.2020
1158 Clouds 18 1013 93 8000 1.5 50 15:38 18.03.2020
1159 Clouds 18 1013 93 8000 1.5 50 15:19 18.03.2020
1160 Rain 18 1012 93 8000 1 30 14:42 18.03.2020
1161 Rain 18 1012 93 8000 1 30 14:21 18.03.2020
1162 Clouds 18 1012 93 9000 2.1 20 13:41 18.03.2020
1163 Clouds 18 1012 93 9000 2.1 20 13:19 18.03.2020
1164 Clouds 18 1011 93 8000 2.6 50 12:44 18.03.2020
1165 Clouds 18 1011 93 7000 3.1 50 12:21 18.03.2020
1166 Clouds 19 1011 88 10000 3.1 40 11:59 18.03.2020
1167 Clouds 19 1011 88 10000 3.1 40 11:37 18.03.2020
1168 Clouds 19 1011 88 10000 3.1 40 11:37 18.03.2020
1169 Clouds 19 1011 88 8000 2.6 50 11:18 18.03.2020
1170 Clouds 19 1011 88 8000 2.6 50 10:56 18.03.2020
1171 Clouds 19 1011 88 8000 2.6 50 10:56 18.03.2020
1172 Drizzle 19 1011 88 4100 3.1 50 10:36 18.03.2020
1173 Drizzle 19 1011 88 4100 3.1 50 10:18 18.03.2020
1174 Clouds 19 1011 88 8000 4.6 40 09:42 18.03.2020
1175 Drizzle 19 1011 88 7000 4.1 40 09:23 18.03.2020
1176 Drizzle 19 1011 88 8000 4.1 50 08:54 18.03.2020
1177 Drizzle 19 1012 88 8000 4.6 50 08:36 18.03.2020
1178 Drizzle 19 1012 88 8000 4.6 50 08:18 18.03.2020
1179 Drizzle 18 1013 93 4200 4.1 40 07:39 18.03.2020
1180 Drizzle 18 1013 93 4200 4.1 40 07:21 18.03.2020
1181 Clouds 19 1014 88 9000 4.1 40 06:42 18.03.2020
1182 Drizzle 19 1015 88 7000 4.6 40 05:43 18.03.2020
1183 Clouds 19 1016 88 10000 5.1 40 05:18 18.03.2020
1184 Drizzle 18 1016 93 5000 3.6 40 03:21 18.03.2020
1185 Drizzle 18 1016 93 4000 4.1 50 02:37 18.03.2020
1186 Drizzle 18 1016 93 4000 4.1 50 02:37 18.03.2020
1187 Drizzle 18 1016 93 4000 4.1 50 02:37 18.03.2020
1188 Clouds 19 1015 88 10000 4.6 50 01:45 18.03.2020
1189 Clouds 19 1014 88 10000 3.1 60 01:19 18.03.2020
1190 Clouds 18 1014 93 10000 3.6 70 00:21 18.03.2020
1191 Clouds 18 1014 93 8000 5.1 60 23:42 17.03.2020
1192 Clouds 18 1014 93 9000 4.6 50 23:21 17.03.2020
1193 Clouds 18 1014 93 10000 4.6 50 22:46 17.03.2020
1194 Clouds 18 1014 93 10000 4.6 50 22:28 17.03.2020
1195 Clouds 18 1013 93 10000 4.1 50 21:44 17.03.2020
1196 Clouds 19 1014 93 10000 4.6 70 21:25 17.03.2020
1197 Thunderstorm 19 1014 93 5000 4.6 60 20:58 17.03.2020
1198 Rain 19 1014 93 10000 6.7 40 20:38 17.03.2020
1199 Rain 19 1014 93 10000 6.7 40 20:19 17.03.2020
1200 Rain 19 1014 93 5000 5.7 50 19:42 17.03.2020
1201 Clouds 19 1015 93 10000 5.1 40 19:19 17.03.2020
1202 Clouds 19 1015 93 10000 5.1 40 18:57 17.03.2020
1203 Rain 20 1015 94 7000 6.2 40 18:39 17.03.2020
1204 Rain 20 1015 94 6000 5.1 70 18:21 17.03.2020
1205 Rain 20 1016 94 5000 5.7 50 17:56 17.03.2020
1206 Rain 20 1016 94 5000 5.7 50 17:37 17.03.2020
1207 Rain 20 1016 94 6000 4.6 40 17:18 17.03.2020
1208 Rain 20 1016 100 4500 4.1 50 16:41 17.03.2020
1209 Rain 20 1016 100 4500 4.1 50 16:19 17.03.2020
1210 Rain 21 1015 94 5000 5.7 50 15:45 17.03.2020
1211 Rain 21 1016 94 6000 5.1 40 15:22 17.03.2020
1212 Rain 21 1015 94 5000 5.1 50 14:44 17.03.2020
1213 Rain 22 1015 94 3000 4.6 60 14:25 17.03.2020
1214 Drizzle 23 1014 94 2000 3.6 80 13:57 17.03.2020
1215 Drizzle 23 1014 94 1900 3.6 90 13:39 17.03.2020
1216 Drizzle 23 1014 94 1900 3.6 90 13:21 17.03.2020
1217 Drizzle 23 1014 94 1900 3.6 90 13:21 17.03.2020
1218 Drizzle 23 1013 94 1700 3.6 100 12:43 17.03.2020
1219 Drizzle 23 1013 94 1700 3.6 100 12:24 17.03.2020
1220 Drizzle 23 1013 94 1500 3.6 100 11:48 17.03.2020
1221 Drizzle 23 1013 94 1500 3.6 100 11:29 17.03.2020
1222 Drizzle 23 1012 94 1100 2.6 90 10:58 17.03.2020
1223 Drizzle 23 1012 94 700 1.5 50 10:40 17.03.2020
1224 Drizzle 23 1012 94 700 1.5 50 10:22 17.03.2020
1225 Drizzle 23 1012 94 800 1.5 60 09:59 17.03.2020
1226 Drizzle 22 1013 94 900 5.36 139 09:40 17.03.2020
1227 Drizzle 22 1013 94 900 5.36 139 09:19 17.03.2020
1228 Drizzle 22 1013 94 800 1 330 08:48 17.03.2020
1229 Drizzle 23 1013 88 1200 0.5 0 08:23 17.03.2020
1230 Mist 23 1014 88 3700 1 0 07:50 17.03.2020
1231 Mist 23 1014 88 4100 1 0 07:28 17.03.2020
1232 Mist 23 1015 88 4400 0.5 0 06:59 17.03.2020
1233 Mist 23 1015 88 4400 0.5 0 06:34 17.03.2020
1234 Mist 21 1017 94 2100 1 0 05:49 17.03.2020
1235 Drizzle 21 1018 94 2600 2.1 280 03:43 17.03.2020
1236 Drizzle 21 1017 94 2000 2.6 270 02:46 17.03.2020
1237 Drizzle 21 1017 94 1400 2.1 270 01:43 17.03.2020
1238 Drizzle 21 1016 94 1400 1.5 280 01:24 17.03.2020
1239 Drizzle 21 1015 94 2600 2.6 280 00:31 17.03.2020
1240 Drizzle 21 1015 94 2000 1 240 23:45 16.03.2020
1241 Drizzle 21 1015 94 2000 1 240 23:25 16.03.2020
1242 Drizzle 21 1014 94 1700 2.52 155 22:41 16.03.2020
1243 Drizzle 21 1014 94 1700 2.52 155 22:23 16.03.2020
1244 Drizzle 21 1014 94 1400 2.52 155 21:57 16.03.2020
1245 Drizzle 21 1014 94 1400 2.52 155 21:57 16.03.2020
1246 Drizzle 21 1014 94 1600 1 0 21:38 16.03.2020
1247 Drizzle 21 1014 94 1600 1 0 21:20 16.03.2020
1248 Drizzle 21 1015 94 1600 1 90 20:55 16.03.2020
1249 Drizzle 21 1015 94 1500 1 50 20:37 16.03.2020
1250 Drizzle 21 1015 94 1500 1 50 20:18 16.03.2020
1251 Drizzle 21 1015 94 1500 1 50 20:18 16.03.2020
1252 Drizzle 21 1015 94 1800 1 40 19:40 16.03.2020
1253 Drizzle 21 1015 94 1800 1 40 19:20 16.03.2020
1254 Drizzle 21 1016 94 1400 1.5 50 18:41 16.03.2020
1255 Mist 21 1016 94 2100 1.5 40 18:20 16.03.2020
1256 Drizzle 21 1016 94 1700 1.5 70 17:47 16.03.2020
1257 Drizzle 21 1016 94 1600 1 0 17:26 16.03.2020
1258 Drizzle 21 1016 94 1600 1 0 16:58 16.03.2020
1259 Drizzle 21 1016 94 1500 1.5 90 16:40 16.03.2020
1260 Drizzle 21 1016 94 1500 1.5 90 16:22 16.03.2020
1261 Drizzle 21 1016 94 1500 2.1 70 15:43 16.03.2020
1262 Drizzle 21 1016 94 1400 1.5 70 15:24 16.03.2020
1263 Drizzle 21 1016 94 1800 2.1 80 14:48 16.03.2020
1264 Drizzle 21 1016 94 2100 2.1 70 14:24 16.03.2020
1265 Mist 21 1015 94 3100 2.1 40 13:51 16.03.2020
1266 Mist 21 1015 94 3100 2.1 40 13:29 16.03.2020
1267 Mist 21 1014 94 3300 2.1 50 12:58 16.03.2020
1268 Mist 21 1014 88 2400 2.1 60 12:39 16.03.2020
1269 Mist 21 1014 88 2100 2.6 80 12:20 16.03.2020
1270 Drizzle 21 1013 88 1900 2.6 80 11:43 16.03.2020
1271 Mist 21 1013 88 2100 3.1 70 11:25 16.03.2020
1272 Mist 21 1013 94 2600 2.6 70 10:45 16.03.2020
1273 Mist 21 1013 94 2600 2.6 70 10:24 16.03.2020
1274 Mist 21 1013 94 2700 2.6 80 09:56 16.03.2020
1275 Drizzle 21 1013 94 1800 2.6 70 09:37 16.03.2020
1276 Drizzle 21 1013 94 1800 2.6 70 09:19 16.03.2020
1277 Mist 21 1014 88 2600 1 0 08:41 16.03.2020
1278 Mist 21 1014 88 2600 1 0 08:21 16.03.2020
1279 Drizzle 20 1015 94 1600 1.5 20 07:42 16.03.2020
1280 Drizzle 20 1015 94 1600 1.5 20 07:19 16.03.2020
1281 Drizzle 20 1016 94 1300 1 330 06:29 16.03.2020
1282 Drizzle 20 1017 94 1000 1 350 05:59 16.03.2020
1283 Drizzle 20 1018 94 1200 1 0 04:21 16.03.2020
1284 Drizzle 19 1016 93 1400 1.5 50 01:46 16.03.2020
1285 Drizzle 19 1016 93 1700 1.5 70 00:45 16.03.2020
1286 Drizzle 19 1015 93 2700 1.5 70 00:25 16.03.2020
1287 Mist 19 1015 93 1900 2.6 30 23:39 15.03.2020
1288 Mist 19 1015 93 1900 2.6 30 23:18 15.03.2020
1289 Drizzle 19 1014 93 1800 1 50 22:41 15.03.2020
1290 Drizzle 19 1014 93 1800 1 50 22:20 15.03.2020
1291 Mist 19 1014 93 1600 1 50 21:39 15.03.2020
1292 Mist 19 1014 93 1600 1 50 21:21 15.03.2020
1293 Drizzle 19 1014 93 1400 1 80 20:55 15.03.2020
1294 Drizzle 19 1015 93 1400 1 70 20:36 15.03.2020
1295 Drizzle 19 1015 93 1400 1 70 20:18 15.03.2020
1296 Drizzle 19 1015 93 1800 1.5 50 19:42 15.03.2020
1297 Mist 19 1016 93 2500 1.5 40 19:24 15.03.2020
1298 Mist 19 1016 88 3000 2.1 60 18:59 15.03.2020
1299 Mist 19 1016 88 3700 2.1 80 18:39 15.03.2020
1300 Mist 19 1016 88 3700 2.1 80 18:21 15.03.2020
1301 Mist 19 1016 88 3800 2.6 80 17:55 15.03.2020
1302 Mist 20 1016 82 4500 2.1 70 17:36 15.03.2020
1303 Mist 20 1017 82 5000 1 0 17:18 15.03.2020
1304 Mist 20 1017 82 5000 1.5 70 16:42 15.03.2020
1305 Mist 20 1017 82 5000 1.5 70 16:24 15.03.2020
1306 Mist 20 1017 82 5000 1.5 60 15:57 15.03.2020
1307 Mist 20 1017 82 5000 1.5 60 15:57 15.03.2020
1308 Mist 20 1017 82 5000 1.5 70 15:38 15.03.2020
1309 Mist 20 1017 82 5000 1.5 70 15:19 15.03.2020
1310 Mist 20 1017 82 5000 1.5 60 14:46 15.03.2020
1311 Clouds 19 1016 88 6000 1.5 70 14:24 15.03.2020
1312 Mist 20 1016 82 5000 1.5 50 13:57 15.03.2020
1313 Mist 19 1015 82 5000 2.1 50 13:38 15.03.2020
1314 Mist 19 1015 82 5000 2.1 50 13:19 15.03.2020
1315 Mist 19 1015 82 4200 2.1 60 12:43 15.03.2020
1316 Mist 19 1015 82 4500 3.1 60 12:25 15.03.2020
1317 Mist 19 1015 82 4500 3.1 60 11:54 15.03.2020
1318 Mist 20 1015 77 4600 2.6 50 11:36 15.03.2020
1319 Mist 20 1015 77 4300 2.1 60 11:18 15.03.2020
1320 Mist 19 1015 82 4700 2.6 60 10:41 15.03.2020
1321 Mist 19 1015 82 4700 2.6 60 10:23 15.03.2020
1322 Mist 19 1015 82 4800 2.6 60 09:59 15.03.2020
1323 Mist 19 1015 82 4800 2.6 60 09:59 15.03.2020
1324 Mist 20 1015 77 5000 1.5 60 09:39 15.03.2020
1325 Mist 20 1015 77 5000 1.5 60 09:20 15.03.2020
1326 Mist 19 1016 82 5000 2.1 30 08:41 15.03.2020
1327 Mist 20 1016 77 5000 2.1 50 08:20 15.03.2020
1328 Mist 19 1017 82 5000 1.5 70 07:50 15.03.2020
1329 Rain 19 1017 82 4600 2.1 60 07:23 15.03.2020
1330 Mist 19 1018 82 5000 2.1 50 06:44 15.03.2020
1331 Clouds 20 1019 77 6000 2.6 50 05:49 15.03.2020
1332 Clouds 21 1020 68 8000 1.5 50 04:57 15.03.2020
1333 Clouds 21 1020 68 10000 2.1 90 04:39 15.03.2020
1334 Clouds 21 1020 68 10000 2.1 90 04:20 15.03.2020
1335 Clouds 21 1020 68 10000 2.6 70 03:19 15.03.2020
1336 Clouds 21 1020 68 8000 1.5 70 02:23 15.03.2020
1337 Clouds 21 1018 68 8000 1.96 44 00:59 15.03.2020
1338 Clouds 20 1018 77 9000 1.96 44 00:40 15.03.2020
1339 Clouds 20 1018 77 9000 1.96 44 00:19 15.03.2020
1340 Clouds 21 1017 73 9000 1 40 23:39 14.03.2020
1341 Clouds 21 1017 73 10000 0.5 0 23:20 14.03.2020
1342 Clouds 21 1017 73 10000 0.5 0 22:56 14.03.2020
1343 Clouds 21 1017 68 10000 1 120 22:38 14.03.2020
1344 Clouds 21 1017 68 10000 1 120 22:19 14.03.2020
1345 Clouds 21 1017 68 10000 1 50 21:55 14.03.2020
1346 Clouds 21 1017 73 9000 1.5 70 21:36 14.03.2020
1347 Clouds 21 1017 73 9000 1.5 70 21:36 14.03.2020
1348 Clouds 21 1017 73 9000 1.5 70 21:18 14.03.2020
1349 Clouds 20 1018 77 10000 1.5 70 20:56 14.03.2020
1350 Clouds 20 1018 77 10000 1.5 70 20:56 14.03.2020
1351 Clouds 21 1018 73 10000 1 0 20:38 14.03.2020
1352 Clouds 21 1018 73 10000 1 0 20:18 14.03.2020
1353 Clouds 21 1019 77 9000 1 0 19:41 14.03.2020
1354 Clouds 21 1019 77 9000 1.5 70 19:20 14.03.2020
1355 Clouds 21 1019 73 9000 1 80 18:40 14.03.2020
1356 Clouds 21 1019 73 9000 1 80 18:40 14.03.2020
1357 Clouds 21 1019 73 10000 1 0 18:20 14.03.2020
1358 Clouds 21 1020 73 10000 0.5 0 17:42 14.03.2020
1359 Clouds 21 1019 77 10000 1 0 17:23 14.03.2020
1360 Clouds 21 1019 77 10000 1 0 17:23 14.03.2020
1361 Clouds 21 1019 77 10000 1 0 16:58 14.03.2020
1362 Clouds 21 1019 77 10000 1 0 16:38 14.03.2020
1363 Clouds 21 1019 77 10000 1 0 16:19 14.03.2020
1364 Clouds 21 1019 77 10000 1 0 15:44 14.03.2020
1365 Clouds 21 1019 73 10000 1 0 15:22 14.03.2020
1366 Clouds 21 1018 77 10000 1.5 60 14:40 14.03.2020
1367 Clouds 21 1018 77 10000 1.5 60 14:21 14.03.2020
1368 Clouds 21 1017 73 10000 2.1 80 13:57 14.03.2020
1369 Clouds 21 1016 73 10000 2.1 80 13:38 14.03.2020
1370 Clouds 21 1016 77 10000 3.1 110 13:19 14.03.2020
1371 Clouds 22 1016 73 7000 1 0 12:44 14.03.2020
1372 Clouds 22 1016 73 7000 1 0 12:25 14.03.2020
1373 Rain 22 1016 78 6000 1 0 11:45 14.03.2020
1374 Clouds 22 1015 73 10000 1 0 11:26 14.03.2020
1375 Clouds 22 1015 68 10000 1.5 40 10:55 14.03.2020
1376 Clouds 22 1015 68 10000 1.5 40 10:36 14.03.2020
1377 Clouds 22 1015 68 10000 1.5 40 10:18 14.03.2020
1378 Clouds 22 1015 73 10000 2.6 360 09:41 14.03.2020
1379 Clouds 22 1015 73 10000 2.6 360 09:22 14.03.2020
1380 Clouds 22 1016 73 10000 3.1 360 08:47 14.03.2020
1381 Clouds 23 1016 69 10000 3.1 20 08:27 14.03.2020
1382 Clouds 22 1017 73 10000 2.6 360 07:48 14.03.2020
1383 Clouds 22 1017 73 10000 2.6 360 07:23 14.03.2020
1384 Clouds 22 1017 73 10000 3.1 30 06:59 14.03.2020
1385 Clouds 22 1018 73 10000 3.6 30 06:39 14.03.2020
1386 Clouds 23 1019 69 10000 3.6 50 04:57 14.03.2020
1387 Clouds 23 1018 64 10000 5.1 60 03:40 14.03.2020
1388 Clouds 23 1018 64 10000 5.7 60 02:53 14.03.2020
1389 Clouds 23 1017 69 10000 4.6 50 01:50 14.03.2020
1390 Rain 22 1016 88 8000 4.1 70 00:36 14.03.2020
1391 Clouds 22 1015 88 7000 4.1 60 23:44 13.03.2020
1392 Clouds 22 1015 88 7000 4.1 60 23:23 13.03.2020
1393 Clouds 22 1015 88 8000 4.6 70 22:46 13.03.2020
1394 Clouds 22 1015 94 8000 3.1 70 22:24 13.03.2020
1395 Rain 23 1015 83 7000 4.6 60 21:42 13.03.2020
1396 Rain 23 1015 83 7000 4.6 60 21:19 13.03.2020
1397 Clouds 24 1015 88 6000 2.1 50 20:43 13.03.2020
1398 Clouds 24 1014 88 6000 1.5 70 20:23 13.03.2020
1399 Clouds 24 1014 88 8000 0.5 0 19:59 13.03.2020
1400 Clouds 24 1015 88 8000 0.5 0 19:40 13.03.2020
1401 Clouds 24 1015 88 8000 0.5 0 19:22 13.03.2020
1402 Clouds 25 1015 83 7000 1 0 18:44 13.03.2020
1403 Clouds 24 1015 88 7000 1 80 18:23 13.03.2020
1404 Clouds 25 1015 83 8000 1 0 17:43 13.03.2020
1405 Clouds 24 1015 88 8000 1 80 17:21 13.03.2020
1406 Clouds 24 1015 88 8000 1 80 16:59 13.03.2020
1407 Clouds 24 1015 88 8000 1.5 100 16:39 13.03.2020
1408 Clouds 24 1015 88 8000 1.5 100 16:20 13.03.2020
1409 Clouds 25 1015 83 9000 2.6 130 15:46 13.03.2020
1410 Clouds 25 1014 83 9000 2.6 130 15:23 13.03.2020
1411 Clouds 25 1014 88 7000 3.6 140 14:59 13.03.2020
1412 Clouds 25 1014 88 6000 3.6 130 14:40 13.03.2020
1413 Clouds 25 1014 88 6000 3.6 130 14:21 13.03.2020
1414 Clouds 26 1012 83 10000 5.1 120 13:43 13.03.2020
1415 Clouds 26 1012 83 10000 5.1 120 13:24 13.03.2020
1416 Clouds 26 1012 83 10000 4.6 120 12:59 13.03.2020
1417 Clouds 26 1011 83 10000 4.6 110 12:38 13.03.2020
1418 Clouds 26 1011 83 10000 4.6 110 12:20 13.03.2020
1419 Mist 27 1010 78 5000 3.6 110 11:56 13.03.2020
1420 Mist 27 1010 78 5000 3.6 110 11:36 13.03.2020
1421 Mist 27 1010 78 5000 3.6 110 11:36 13.03.2020
1422 Mist 27 1010 78 5000 3.1 90 11:18 13.03.2020
1423 Mist 28 1010 69 4200 2.6 70 10:46 13.03.2020
1424 Mist 28 1010 69 4200 2.6 70 10:26 13.03.2020
1425 Mist 28 1010 74 4900 3.1 90 09:48 13.03.2020
1426 Mist 28 1010 69 5000 3.6 90 09:30 13.03.2020
1427 Mist 28 1011 69 4300 2.1 90 08:59 13.03.2020
1428 Mist 27 1011 74 4100 1.5 30 08:38 13.03.2020
1429 Mist 27 1011 74 4100 1.5 30 08:38 13.03.2020
1430 Mist 27 1011 74 4100 1.5 30 08:20 13.03.2020
1431 Mist 27 1012 74 3800 1.5 0 07:44 13.03.2020
1432 Mist 27 1012 74 3800 1.5 0 07:25 13.03.2020
1433 Mist 27 1013 74 3100 1.5 360 06:46 13.03.2020
1434 Mist 26 1014 78 3100 1 0 06:21 13.03.2020
1435 Mist 26 1014 78 3100 1 0 05:45 13.03.2020
1436 Mist 25 1015 83 2100 2.1 270 04:57 13.03.2020
1437 Mist 24 1015 88 1700 2.6 270 04:25 13.03.2020
1438 Mist 23 1014 94 1200 2.1 270 02:42 13.03.2020
1439 Mist 23 1013 94 1200 2.89 144 01:37 13.03.2020
1440 Mist 23 1013 94 1200 3.02 144 01:18 13.03.2020
1441 Rain 23 1012 94 1500 1 0 00:39 13.03.2020
1442 Rain 23 1012 94 1500 1 0 00:18 13.03.2020
1443 Drizzle 23 1011 94 1400 1 50 23:38 12.03.2020
1444 Drizzle 23 1011 94 1700 1 50 23:19 12.03.2020
1445 Drizzle 23 1011 94 1700 1 60 22:44 12.03.2020
1446 Drizzle 23 1011 94 1700 1 60 22:25 12.03.2020
1447 Drizzle 23 1011 94 1800 1 80 21:55 12.03.2020
1448 Drizzle 23 1011 94 1800 1.5 80 21:37 12.03.2020
1449 Drizzle 23 1011 94 1800 1.5 80 21:18 12.03.2020
1450 Drizzle 23 1011 94 2000 1 0 20:42 12.03.2020
1451 Drizzle 23 1011 94 2000 1 0 20:20 12.03.2020
1452 Rain 23 1012 94 1600 2.6 110 19:42 12.03.2020
1453 Rain 23 1012 94 1600 2.6 110 19:21 12.03.2020
1454 Rain 23 1012 94 2300 2.6 120 18:58 12.03.2020
1455 Mist 23 1012 94 4000 2.6 120 18:39 12.03.2020
1456 Mist 23 1012 94 4000 2.6 120 18:21 12.03.2020
1457 Mist 23 1012 88 4500 3.1 110 17:41 12.03.2020
1458 Mist 23 1012 88 4500 3.1 110 17:22 12.03.2020
1459 Rain 23 1012 88 4800 3.6 120 16:58 12.03.2020
1460 Rain 23 1012 88 4800 3.6 120 16:40 12.03.2020
1461 Rain 23 1012 88 4800 3.6 120 16:21 12.03.2020
1462 Mist 24 1012 83 5000 3.6 120 15:48 12.03.2020
1463 Clouds 24 1011 83 6000 3.6 120 15:28 12.03.2020
1464 Clouds 24 1011 83 6000 3.6 120 15:28 12.03.2020
1465 Clouds 24 1011 83 6000 4.1 120 14:54 12.03.2020
1466 Clouds 24 1011 83 6000 4.1 120 14:54 12.03.2020
1467 Clouds 24 1011 83 6000 4.1 120 14:54 12.03.2020
1468 Mist 24 1010 83 3900 2.6 100 14:36 12.03.2020
1469 Mist 24 1010 83 3900 2.6 100 14:18 12.03.2020
1470 Mist 24 1009 83 4800 2.6 90 13:38 12.03.2020
1471 Mist 24 1009 83 4800 2.6 90 13:20 12.03.2020
1472 Mist 24 1009 78 4300 3.1 110 12:43 12.03.2020
1473 Mist 24 1009 78 4300 3.1 110 12:22 12.03.2020
1474 Mist 24 1009 78 4300 3.1 110 11:58 12.03.2020
1475 Mist 24 1009 78 5000 3.1 110 11:39 12.03.2020
1476 Clouds 25 1009 69 7000 3.1 140 11:20 12.03.2020
1477 Clouds 25 1009 69 7000 3.1 140 10:59 12.03.2020
1478 Clouds 25 1009 69 9000 3.6 140 10:40 12.03.2020
1479 Clouds 25 1009 69 9000 3.6 140 10:22 12.03.2020
1480 Clouds 25 1009 69 10000 3.1 140 09:47 12.03.2020
1481 Clouds 25 1009 69 9000 2.6 70 09:28 12.03.2020
1482 Clouds 24 1010 73 7000 2.1 70 08:46 12.03.2020
1483 Clouds 25 1010 69 6000 1.5 130 08:21 12.03.2020
1484 Clouds 24 1011 73 6000 1.5 200 07:59 12.03.2020
1485 Clouds 24 1011 73 7000 2.1 180 07:41 12.03.2020
1486 Clouds 24 1012 69 8000 2.1 170 07:21 12.03.2020
1487 Clouds 24 1012 69 8000 2.1 170 07:21 12.03.2020
1488 Mist 23 1014 83 4100 2.1 120 05:55 12.03.2020
1489 Mist 23 1014 83 4100 2.1 120 05:27 12.03.2020
1490 Mist 21 1014 94 1800 2.1 100 02:43 12.03.2020
1491 Mist 20 1013 100 1800 1 80 01:38 12.03.2020
1492 Mist 20 1013 100 1800 1 80 01:20 12.03.2020
1493 Mist 20 1013 94 2300 1 80 00:41 12.03.2020
1494 Mist 20 1012 94 1800 2.1 100 23:56 11.03.2020
1495 Drizzle 20 1012 94 1500 1.5 80 23:26 11.03.2020
1496 Drizzle 20 1012 94 1500 1.5 80 22:55 11.03.2020
1497 Drizzle 20 1012 94 1500 2.1 90 22:37 11.03.2020
1498 Drizzle 20 1012 94 1500 2.1 90 22:18 11.03.2020
1499 Drizzle 20 1012 94 2400 2.1 110 21:41 11.03.2020
1500 Drizzle 20 1012 94 2400 2.1 110 21:23 11.03.2020
1501 Rain 20 1012 94 2300 2.6 130 20:59 11.03.2020
1502 Drizzle 20 1012 94 2000 2.1 120 20:40 11.03.2020
1503 Drizzle 20 1012 94 2000 2.1 120 20:20 11.03.2020
1504 Rain 20 1013 94 2200 2.1 120 19:57 11.03.2020
1505 Rain 20 1013 94 2000 1.5 120 19:38 11.03.2020
1506 Rain 20 1013 94 2000 1.5 120 19:38 11.03.2020
1507 Rain 20 1013 94 2000 1.5 120 19:20 11.03.2020
1508 Rain 20 1013 94 3400 2.1 100 18:43 11.03.2020
1509 Clouds 21 1014 83 5000 2.6 90 18:24 11.03.2020
1510 Clouds 21 1014 83 5000 2.6 90 17:59 11.03.2020
1511 Clouds 21 1014 83 6000 2.6 150 17:39 11.03.2020
1512 Clouds 21 1014 83 6000 3.1 150 17:21 11.03.2020
1513 Clouds 21 1014 77 7000 3.1 150 16:47 11.03.2020
1514 Clouds 21 1014 77 7000 3.1 150 16:23 11.03.2020
1515 Clouds 22 1014 73 8000 3.1 150 15:59 11.03.2020
1516 Clouds 22 1013 73 8000 3.1 140 15:41 11.03.2020
1517 Clouds 22 1013 73 8000 3.1 140 15:22 11.03.2020
1518 Clouds 22 1013 73 8000 3.6 150 14:42 11.03.2020
1519 Clouds 22 1012 73 8000 4.1 160 14:23 11.03.2020
1520 Clouds 22 1012 73 8000 4.1 160 14:23 11.03.2020
1521 Clouds 22 1012 73 8000 3.6 150 13:56 11.03.2020
1522 Clouds 22 1012 73 8000 3.6 150 13:37 11.03.2020
1523 Clouds 22 1012 73 8000 3.6 150 13:19 11.03.2020
1524 Clouds 23 1011 64 6000 4.6 130 12:40 11.03.2020
1525 Clouds 23 1011 64 6000 4.6 130 12:20 11.03.2020
1526 Clouds 23 1011 64 7000 4.6 130 11:56 11.03.2020
1527 Clouds 23 1011 64 8000 4.6 120 11:37 11.03.2020
1528 Clouds 23 1011 64 8000 4.6 120 11:18 11.03.2020
1529 Clouds 24 1012 60 7000 4.1 130 10:42 11.03.2020
1530 Clouds 24 1012 60 7000 4.1 130 10:42 11.03.2020
1531 Clouds 24 1012 60 7000 4.1 130 10:18 11.03.2020
1532 Clouds 24 1012 60 6000 3.6 150 09:43 11.03.2020
1533 Mist 24 1012 60 5000 3.1 150 09:25 11.03.2020
1534 Clouds 24 1013 60 6000 3.6 140 08:58 11.03.2020
1535 Clouds 24 1013 57 8000 2.6 110 08:39 11.03.2020
1536 Clouds 24 1013 57 8000 2.6 110 08:18 11.03.2020
1537 Clouds 24 1014 57 8000 3.1 90 07:42 11.03.2020
1538 Clouds 24 1015 53 10000 2.1 50 07:19 11.03.2020
1539 Clouds 24 1016 53 10000 2.6 70 06:43 11.03.2020
1540 Clouds 23 1017 56 10000 2.6 70 05:36 11.03.2020
1541 Clouds 23 1017 56 10000 3.1 90 04:29 11.03.2020
1542 Clouds 22 1017 64 10000 1.5 70 02:20 11.03.2020
1543 Clouds 21 1016 73 10000 1.5 50 01:27 11.03.2020
1544 Clouds 21 1015 83 6000 1 90 00:46 11.03.2020
1545 Clouds 21 1015 83 7000 1.5 90 23:58 10.03.2020
1546 Clouds 21 1014 83 7000 1.5 80 23:39 10.03.2020
1547 Clouds 21 1014 83 7000 1.5 80 23:20 10.03.2020
1548 Clouds 21 1014 77 9000 1.5 100 22:38 10.03.2020
1549 Clouds 21 1014 77 9000 1.5 100 22:20 10.03.2020
1550 Clouds 21 1014 77 9000 1.5 110 21:57 10.03.2020
1551 Clouds 22 1014 73 7000 2.6 110 21:38 10.03.2020
1552 Clouds 22 1014 73 7000 2.6 110 21:20 10.03.2020
1553 Clouds 22 1015 78 9000 1.5 80 20:58 10.03.2020
1554 Clouds 22 1015 78 9000 2.6 100 20:40 10.03.2020
1555 Clouds 22 1015 78 9000 2.6 100 20:18 10.03.2020
1556 Clouds 22 1015 73 10000 2.1 90 19:56 10.03.2020
1557 Clouds 22 1015 78 9000 2.1 90 19:37 10.03.2020
1558 Clouds 22 1015 73 9000 2.1 100 19:18 10.03.2020
1559 Clouds 22 1016 68 10000 2.6 90 18:44 10.03.2020
1560 Clouds 22 1016 68 10000 2.6 90 18:25 10.03.2020
1561 Clouds 22 1016 68 10000 3.1 70 17:57 10.03.2020
1562 Clouds 23 1016 60 10000 2.6 70 17:38 10.03.2020
1563 Clouds 22 1015 68 10000 2.6 80 17:20 10.03.2020
1564 Clouds 23 1015 60 10000 2.6 70 16:38 10.03.2020
1565 Clouds 23 1015 60 10000 2.6 70 16:18 10.03.2020
1566 Clouds 23 1015 60 10000 2.1 60 15:55 10.03.2020
1567 Clouds 23 1015 56 10000 1.5 60 15:37 10.03.2020
1568 Clouds 23 1015 56 10000 1.5 60 15:18 10.03.2020
1569 Clouds 23 1015 56 10000 1.5 60 15:18 10.03.2020
1570 Clouds 23 1014 60 10000 2.1 10 14:41 10.03.2020
1571 Clouds 23 1014 60 10000 2.1 10 14:20 10.03.2020
1572 Clouds 24 1013 57 10000 1.5 350 13:57 10.03.2020
1573 Clouds 24 1013 57 10000 2.1 30 13:37 10.03.2020
1574 Clouds 24 1013 57 10000 2.1 30 13:19 10.03.2020
1575 Clouds 24 1012 57 10000 2.1 30 12:39 10.03.2020
1576 Clouds 24 1012 57 10000 2.1 30 12:19 10.03.2020
1577 Clouds 25 1012 53 10000 2.6 20 11:43 10.03.2020
1578 Clouds 25 1012 53 10000 2.6 20 11:25 10.03.2020
1579 Clouds 25 1012 53 10000 2.6 30 10:59 10.03.2020
1580 Clouds 26 1012 47 10000 3.1 20 10:41 10.03.2020
1581 Clouds 26 1012 47 10000 3.1 20 10:22 10.03.2020
1582 Clouds 26 1012 50 10000 3.1 20 09:57 10.03.2020
1583 Clouds 26 1012 47 10000 3.6 30 09:38 10.03.2020
1584 Clouds 26 1012 47 10000 3.6 30 09:18 10.03.2020
1585 Clouds 25 1013 50 10000 4.6 20 08:45 10.03.2020
1586 Clouds 26 1013 47 10000 4.6 20 08:26 10.03.2020
1587 Clouds 26 1013 47 10000 4.6 40 07:46 10.03.2020
1588 Clouds 26 1014 47 10000 4.1 50 07:28 10.03.2020
1589 Clouds 26 1014 47 10000 6.2 30 06:42 10.03.2020
1590 Clouds 25 1015 47 10000 7.7 40 06:23 10.03.2020
1591 Clouds 25 1015 47 10000 6.2 40 05:39 10.03.2020
1592 Clouds 25 1015 50 10000 6.2 50 04:37 10.03.2020
1593 Clouds 24 1014 57 10000 6.7 50 03:35 10.03.2020
1594 Clouds 23 1014 69 10000 4.6 70 02:18 10.03.2020
1595 Mist 23 1011 88 2700 2.1 70 00:54 10.03.2020
1596 Clouds 23 1011 83 6000 3.6 60 00:30 10.03.2020
1597 Mist 23 1010 83 5000 3.1 80 23:57 09.03.2020
1598 Mist 23 1010 83 5000 3.1 80 23:57 09.03.2020
1599 Mist 23 1009 88 3100 2.1 90 23:38 09.03.2020
1600 Mist 23 1009 94 2100 1.5 90 23:20 09.03.2020
1601 Mist 23 1009 94 2500 2.1 90 22:40 09.03.2020
1602 Mist 23 1009 94 2500 2.1 90 22:22 09.03.2020
1603 Mist 23 1008 94 2500 2.1 70 21:57 09.03.2020
1604 Mist 23 1008 94 2100 2.1 60 21:38 09.03.2020
1605 Mist 23 1008 94 2100 2.1 60 21:20 09.03.2020
1606 Mist 23 1008 94 2700 3.1 80 20:55 09.03.2020
1607 Mist 23 1008 94 2700 3.1 80 20:36 09.03.2020
1608 Mist 23 1008 94 2700 3.1 80 20:18 09.03.2020
1609 Mist 24 1008 88 3600 3.1 70 19:42 09.03.2020
1610 Mist 24 1008 88 3600 3.1 70 19:20 09.03.2020
1611 Mist 24 1008 94 3300 3.1 80 18:57 09.03.2020
1612 Mist 25 1008 88 2700 4.1 60 18:38 09.03.2020
1613 Mist 25 1008 88 2500 3.1 90 18:19 09.03.2020
1614 Mist 25 1008 88 2500 3.1 90 17:57 09.03.2020
1615 Mist 25 1008 94 2900 1.5 100 17:37 09.03.2020
1616 Mist 26 1007 83 3800 3.1 110 17:19 09.03.2020
1617 Mist 26 1007 83 3800 3.1 110 16:57 09.03.2020
1618 Mist 27 1006 74 3800 3.1 120 16:39 09.03.2020
1619 Mist 27 1006 74 3800 3.1 120 16:20 09.03.2020
1620 Mist 27 1006 74 3800 3.1 120 16:20 09.03.2020
1621 Mist 27 1006 74 3800 3.1 120 15:56 09.03.2020
1622 Mist 27 1006 74 4100 1.5 100 15:38 09.03.2020
1623 Mist 27 1006 74 4100 1.5 100 15:18 09.03.2020
1624 Mist 27 1005 69 4700 2.1 80 14:39 09.03.2020
1625 Mist 27 1005 69 4700 2.1 80 14:21 09.03.2020
1626 Haze 28 1004 65 5000 2.1 80 13:59 09.03.2020
1627 Clear 28 1003 65 6000 2.1 80 13:39 09.03.2020
1628 Clear 28 1003 65 6000 2.1 80 13:20 09.03.2020
1629 Clear 29 1003 58 6000 2.1 70 12:58 09.03.2020
1630 Clear 30 1002 51 6000 2.6 70 12:39 09.03.2020
1631 Clear 30 1002 51 6000 2.6 70 12:19 09.03.2020
1632 Clear 32 1002 46 8000 3.1 60 11:40 09.03.2020
1633 Clear 32 1002 46 8000 3.1 60 11:20 09.03.2020
1634 Clear 32 1001 46 7000 3.1 70 10:57 09.03.2020
1635 Clear 33 1001 43 8000 3.1 60 10:39 09.03.2020
1636 Clear 33 1001 43 8000 3.1 60 10:18 09.03.2020
1637 Clear 33 1002 46 6000 2.6 90 09:42 09.03.2020
1638 Clear 33 1002 46 6000 2.6 90 09:24 09.03.2020
1639 Clear 33 1002 49 6000 2.6 70 08:46 09.03.2020
1640 Clear 32 1003 49 6000 2.6 70 08:28 09.03.2020
1641 Haze 32 1003 52 5000 1.5 0 07:45 09.03.2020
1642 Haze 32 1003 52 5000 1.5 0 07:45 09.03.2020
1643 Haze 31 1004 52 4600 1.5 0 07:23 09.03.2020
1644 Haze 31 1004 58 4000 2.1 80 06:59 09.03.2020
1645 Haze 30 1005 58 3900 2.1 60 06:39 09.03.2020
1646 Haze 30 1005 58 3900 2.1 60 06:21 09.03.2020
1647 Haze 29 1006 66 3300 2.1 290 05:41 09.03.2020
1648 Clear 27 1006 69 3200 2.1 250 04:56 09.03.2020
1649 Mist 27 1006 69 3200 3.1 270 04:37 09.03.2020
1650 Mist 27 1006 69 3200 3.1 270 04:37 09.03.2020
1651 Mist 27 1006 69 3200 3.1 270 04:18 09.03.2020
1652 Mist 24 1006 83 3000 3.1 280 02:50 09.03.2020
1653 Mist 22 1005 100 1800 1 0 00:42 09.03.2020
1654 Mist 23 1004 94 2900 1.5 330 00:24 09.03.2020
1655 Mist 23 1003 94 3300 1 360 23:55 08.03.2020
1656 Mist 23 1003 94 3600 1 0 23:29 08.03.2020
1657 Mist 24 1003 88 3400 0.5 10 22:59 08.03.2020
1658 Mist 23 1003 94 3800 1 20 22:40 08.03.2020
1659 Mist 23 1003 94 3800 1 20 22:22 08.03.2020
1660 Mist 24 1003 88 4000 1.5 40 21:57 08.03.2020
1661 Mist 24 1003 88 4200 1.5 40 21:39 08.03.2020
1662 Mist 24 1003 88 4200 1.5 40 21:19 08.03.2020
1663 Mist 24 1003 88 4500 2.1 40 20:56 08.03.2020
1664 Mist 24 1003 88 4900 1 0 20:37 08.03.2020
1665 Mist 24 1003 88 4800 2.6 100 20:18 08.03.2020
1666 Mist 24 1003 88 4800 2.6 100 19:38 08.03.2020
1667 Mist 24 1004 88 5000 1.5 60 19:19 08.03.2020
1668 Clouds 24 1004 88 6000 1.5 70 18:43 08.03.2020
1669 Clear 24 1003 78 0 1.98 125 18:24 08.03.2020
1670 Clouds 24 1004 88 6000 2.6 80 17:57 08.03.2020
1671 Clouds 24 1004 88 6000 2.6 80 17:38 08.03.2020
1672 Clouds 24 1004 88 6000 2.6 80 17:19 08.03.2020
1673 Clouds 24 1004 88 6000 2.6 80 16:47 08.03.2020
1674 Clouds 24 1004 88 6000 3.1 100 16:28 08.03.2020
1675 Clouds 24 1004 88 6000 4.6 120 15:58 08.03.2020
1676 Clouds 24 1004 88 6000 4.6 120 15:40 08.03.2020
1677 Clouds 24 1004 88 6000 4.6 120 15:20 08.03.2020
1678 Mist 24 1003 88 5000 4.6 110 14:42 08.03.2020
1679 Mist 25 1003 83 4900 4.6 100 14:21 08.03.2020
1680 Mist 25 1002 83 5000 4.1 100 13:58 08.03.2020
1681 Mist 25 1002 83 5000 4.1 100 13:39 08.03.2020
1682 Mist 26 1002 78 5000 4.6 110 13:19 08.03.2020
1683 Mist 27 1001 74 4500 4.1 100 12:41 08.03.2020
1684 Mist 27 1001 74 4500 4.1 100 12:23 08.03.2020
1685 Haze 28 1001 69 5000 3.6 90 11:55 08.03.2020
1686 Haze 29 1001 62 5000 4.1 120 11:37 08.03.2020
1687 Haze 29 1001 62 5000 4.1 120 11:37 08.03.2020
1688 Haze 29 1001 62 5000 4.1 120 11:37 08.03.2020
1689 Haze 29 1001 62 5000 4.1 120 11:19 08.03.2020
1690 Haze 29 1001 62 5000 4.1 120 10:41 08.03.2020
1691 Clear 29 1001 62 6000 3.6 120 10:23 08.03.2020
1692 Clouds 29 1001 66 6000 3.1 100 09:43 08.03.2020
1693 Clouds 29 1002 62 6000 2.6 90 09:24 08.03.2020
1694 Clouds 29 1003 62 6000 2.6 100 08:51 08.03.2020
1695 Clouds 29 1003 62 6000 2.6 100 08:28 08.03.2020
1696 Clouds 28 1003 65 6000 2.1 0 07:56 08.03.2020
1697 Clouds 28 1003 65 6000 2.1 0 07:37 08.03.2020
1698 Haze 27 1005 69 5000 2.6 80 07:18 08.03.2020
1699 Clouds 27 1006 69 6000 2.6 100 06:40 08.03.2020
1700 Clouds 26 1007 74 6000 1.5 130 06:22 08.03.2020
1701 Clouds 25 1008 73 6000 2.1 120 05:19 08.03.2020
1702 Mist 24 1009 83 5000 2.1 170 03:51 08.03.2020
1703 Mist 22 1008 94 2000 1.5 70 02:28 08.03.2020
1704 Mist 21 1008 94 1300 1.5 90 01:23 08.03.2020
1705 Mist 21 1008 94 1300 1.5 90 01:23 08.03.2020
1706 Mist 21 1007 94 1800 1 0 00:44 08.03.2020
1707 Mist 21 1007 94 2600 1 160 00:25 08.03.2020
1708 Mist 21 1007 94 2600 1 160 23:44 07.03.2020
1709 Mist 21 1006 94 1900 1 110 23:23 07.03.2020
1710 Drizzle 21 1007 94 1200 1 40 22:40 07.03.2020
1711 Drizzle 21 1007 94 1200 1 40 22:21 07.03.2020
1712 Mist 21 1007 94 1500 1.5 110 21:49 07.03.2020
1713 Mist 21 1007 94 1400 1.5 70 21:25 07.03.2020
1714 Drizzle 21 1007 94 1600 1.5 80 20:42 07.03.2020
1715 Drizzle 21 1007 94 1500 2.1 90 20:24 07.03.2020
1716 Drizzle 21 1007 94 1500 2.1 90 20:24 07.03.2020
1717 Drizzle 21 1008 94 1400 2.1 110 19:59 07.03.2020
1718 Mist 21 1008 94 2700 2.1 120 19:40 07.03.2020
1719 Mist 21 1008 94 2700 2.1 120 19:20 07.03.2020
1720 Mist 22 1009 83 4500 4.6 150 18:42 07.03.2020
1721 Mist 22 1009 83 4500 4.6 150 18:24 07.03.2020
1722 Clouds 22 1009 83 6000 4.1 140 17:56 07.03.2020
1723 Mist 23 1010 83 5000 2.6 140 17:38 07.03.2020
1724 Mist 23 1010 83 5000 2.6 140 17:18 07.03.2020
1725 Mist 23 1010 83 4800 2.1 120 16:42 07.03.2020
1726 Mist 23 1010 83 4800 2.1 120 16:23 07.03.2020
1727 Mist 23 1009 83 5000 2.6 120 15:57 07.03.2020
1728 Mist 23 1009 83 5000 2.6 110 15:39 07.03.2020
1729 Mist 23 1009 83 5000 2.6 110 15:39 07.03.2020
1730 Mist 23 1009 83 5000 2.6 110 15:21 07.03.2020
1731 Mist 23 1009 83 5000 1.5 100 14:56 07.03.2020
1732 Mist 23 1009 83 5000 1.5 100 14:37 07.03.2020
1733 Mist 23 1009 83 5000 1.5 100 14:18 07.03.2020
1734 Clouds 23 1008 83 6000 2.1 100 13:39 07.03.2020
1735 Clouds 23 1008 83 6000 2.1 100 13:20 07.03.2020
1736 Mist 23 1008 83 4200 2.6 100 12:42 07.03.2020
1737 Mist 23 1008 83 4200 2.6 100 12:20 07.03.2020
1738 Mist 23 1008 78 4700 3.6 120 11:58 07.03.2020
1739 Mist 23 1008 78 5000 3.1 100 11:39 07.03.2020
1740 Mist 23 1008 78 5000 3.1 100 11:21 07.03.2020
1741 Mist 24 1007 73 5000 3.6 100 10:41 07.03.2020
1742 Mist 24 1007 73 5000 3.6 100 10:21 07.03.2020
1743 Mist 24 1007 73 5000 3.6 100 10:21 07.03.2020
1744 Clouds 24 1008 73 6000 3.6 100 09:57 07.03.2020
1745 Clouds 24 1008 69 6000 3.1 80 09:38 07.03.2020
1746 Clouds 24 1008 69 6000 3.1 80 09:18 07.03.2020
1747 Clouds 24 1009 69 6000 3.1 110 08:44 07.03.2020
1748 Clouds 24 1009 69 6000 2.6 90 08:21 07.03.2020
1749 Clouds 23 1010 73 7000 2.6 130 07:51 07.03.2020
1750 Clouds 25 1010 74 0 3.21 161 07:23 07.03.2020
1751 Clouds 25 1010 74 0 3.21 161 06:56 07.03.2020
1752 Clouds 25 1010 74 0 3.21 161 06:30 07.03.2020
1753 Clouds 21 1014 83 6000 2.1 160 05:53 07.03.2020
1754 Clouds 21 1014 83 6000 2.1 160 04:43 07.03.2020
1755 Drizzle 20 1013 94 1700 2.19 161 02:47 07.03.2020
1756 Drizzle 20 1013 94 1700 2.19 161 02:24 07.03.2020
1757 Drizzle 19 1013 93 1800 0.5 0 01:26 07.03.2020
1758 Mist 19 1012 93 3300 1 0 00:38 07.03.2020
1759 Mist 19 1012 93 3300 1 0 00:20 07.03.2020
1760 Drizzle 19 1012 93 2700 1 100 23:44 06.03.2020
1761 Drizzle 19 1012 93 2200 1.5 90 23:25 06.03.2020
1762 Drizzle 19 1012 93 1800 1 0 22:48 06.03.2020
1763 Mist 19 1012 93 1800 1 40 22:21 06.03.2020
1764 Mist 19 1012 93 2300 1 0 21:55 06.03.2020
1765 Mist 19 1012 93 2800 1.5 130 21:37 06.03.2020
1766 Mist 19 1012 93 2800 1.5 130 21:18 06.03.2020
1767 Mist 20 1012 88 4900 2.1 150 20:37 06.03.2020
1768 Mist 20 1012 88 4900 2.1 150 20:19 06.03.2020
1769 Clouds 20 1012 82 6000 2.6 140 19:45 06.03.2020
1770 Clouds 20 1012 82 6000 2.6 140 19:26 06.03.2020
1771 Clouds 20 1013 82 6000 3.1 130 18:44 06.03.2020
1772 Clouds 20 1013 82 6000 3.1 130 18:22 06.03.2020
1773 Clouds 20 1013 82 7000 3.6 130 17:59 06.03.2020
1774 Clouds 20 1013 82 7000 3.6 130 17:41 06.03.2020
1775 Clouds 21 1013 83 6000 3.1 130 17:22 06.03.2020
1776 Clouds 21 1013 83 6000 3.1 130 16:58 06.03.2020
1777 Clouds 21 1013 83 6000 3.1 130 16:40 06.03.2020
1778 Clouds 21 1013 83 6000 3.1 130 16:19 06.03.2020
1779 Clouds 21 1013 83 6000 3.1 130 15:44 06.03.2020
1780 Clouds 21 1013 83 6000 3.6 140 15:24 06.03.2020
1781 Clouds 22 1012 78 6000 4.6 140 14:45 06.03.2020
1782 Clouds 22 1012 78 6000 4.1 120 14:24 06.03.2020
1783 Clouds 22 1012 78 7000 4.1 140 13:59 06.03.2020
1784 Clouds 22 1012 78 7000 4.1 110 13:40 06.03.2020
1785 Clouds 22 1012 78 7000 4.1 110 13:20 06.03.2020
1786 Clouds 22 1012 78 7000 3.1 120 12:55 06.03.2020
1787 Clouds 22 1011 78 6000 4.1 110 12:36 06.03.2020
1788 Clouds 22 1011 78 6000 4.1 110 12:18 06.03.2020
1789 Clouds 22 1011 78 6000 4.1 110 12:18 06.03.2020
1790 Mist 22 1011 78 5000 4.1 110 11:43 06.03.2020
1791 Mist 23 1011 73 4600 3.1 100 11:21 06.03.2020
1792 Mist 23 1011 73 4600 3.1 100 11:21 06.03.2020
1793 Mist 22 1011 73 3800 3.1 70 10:57 06.03.2020
1794 Mist 23 1011 69 3300 3.1 100 10:36 06.03.2020
1795 Mist 23 1011 69 3300 3.1 100 10:18 06.03.2020
1796 Mist 23 1011 69 3300 3.1 100 10:18 06.03.2020
1797 Mist 23 1011 69 3300 3.1 100 10:18 06.03.2020
1798 Haze 23 1012 69 3900 2.6 80 09:42 06.03.2020
1799 Haze 23 1012 69 3900 2.6 80 09:24 06.03.2020
1800 Haze 23 1012 69 4200 2.1 120 08:56 06.03.2020
1801 Haze 22 1013 73 5000 2.1 110 08:38 06.03.2020
1802 Haze 22 1013 73 5000 2.1 110 08:38 06.03.2020
1803 Haze 22 1013 73 5000 2.1 110 08:19 06.03.2020
1804 Haze 22 1013 68 5000 1 0 07:45 06.03.2020
1805 Haze 22 1014 68 5000 2.1 340 07:24 06.03.2020
1806 Haze 22 1015 68 5000 1 0 06:43 06.03.2020
1807 Clouds 21 1016 73 6000 1.5 0 06:22 06.03.2020
1808 Clouds 20 1017 77 6000 1 0 05:38 06.03.2020
1809 Clouds 20 1017 77 6000 1 0 05:19 06.03.2020
1810 Mist 19 1018 77 5000 1.5 330 04:35 06.03.2020
1811 Mist 17 1017 88 3300 0.5 0 01:43 06.03.2020
1812 Mist 16 1016 93 3500 1 330 01:25 06.03.2020
1813 Mist 16 1016 93 3600 1 0 00:49 06.03.2020
1814 Mist 16 1015 93 4800 2.1 70 00:30 06.03.2020
1815 Mist 16 1015 93 5000 2.1 60 23:43 05.03.2020
1816 Mist 16 1015 93 5000 2.6 70 23:24 05.03.2020
1817 Clouds 16 1015 93 6000 2.1 50 22:55 05.03.2020
1818 Clouds 16 1015 93 6000 2.1 50 22:55 05.03.2020
1819 Mist 16 1016 93 4800 2.1 60 22:36 05.03.2020
1820 Mist 16 1016 93 4800 2.1 60 22:18 05.03.2020
1821 Mist 16 1016 93 4700 2.1 40 21:54 05.03.2020
1822 Mist 16 1016 93 4600 1.5 40 21:36 05.03.2020
1823 Mist 16 1016 93 4600 1.5 40 21:18 05.03.2020
1824 Clouds 16 1016 93 6000 2.1 50 20:42 05.03.2020
1825 Clouds 16 1016 93 7000 1.5 60 20:20 05.03.2020
1826 Clouds 16 1017 87 7000 2.1 60 19:59 05.03.2020
1827 Clouds 16 1017 87 8000 2.6 70 19:39 05.03.2020
1828 Clouds 16 1017 87 8000 2.6 70 19:20 05.03.2020
1829 Clouds 16 1017 87 7000 2.1 70 18:58 05.03.2020
1830 Clouds 16 1018 87 8000 2.1 70 18:37 05.03.2020
1831 Clouds 16 1018 87 8000 2.1 70 18:18 05.03.2020
1832 Clouds 17 1018 82 10000 2.1 60 17:55 05.03.2020
1833 Clouds 17 1018 77 10000 2.1 70 17:36 05.03.2020
1834 Clouds 17 1018 77 10000 2.1 70 17:36 05.03.2020
1835 Clouds 17 1018 77 10000 2.1 70 17:18 05.03.2020
1836 Clouds 17 1018 77 10000 2.1 70 16:41 05.03.2020
1837 Clouds 17 1018 77 10000 2.1 70 16:22 05.03.2020
1838 Clouds 17 1018 82 10000 1.5 90 15:46 05.03.2020
1839 Clouds 17 1018 82 10000 3.1 90 15:24 05.03.2020
1840 Clouds 17 1017 82 10000 2.6 90 14:59 05.03.2020
1841 Clouds 17 1017 82 10000 2.1 90 14:41 05.03.2020
1842 Clouds 17 1017 82 10000 2.1 90 14:22 05.03.2020
1843 Clouds 17 1017 82 10000 2.6 110 13:57 05.03.2020
1844 Clouds 17 1017 82 10000 2.6 100 13:38 05.03.2020
1845 Clouds 17 1017 82 10000 2.6 100 13:20 05.03.2020
1846 Clouds 17 1016 82 10000 2.1 80 12:42 05.03.2020
1847 Clouds 17 1016 82 10000 2.1 80 12:21 05.03.2020
1848 Clouds 18 1016 77 10000 2.6 90 11:58 05.03.2020
1849 Clouds 18 1016 77 10000 2.1 70 11:38 05.03.2020
1850 Clouds 18 1016 77 10000 2.1 70 11:19 05.03.2020
1851 Clouds 18 1016 77 10000 2.1 40 10:58 05.03.2020
1852 Clouds 18 1016 77 10000 2.6 20 10:40 05.03.2020
1853 Clouds 18 1016 77 10000 2.6 20 10:40 05.03.2020
1854 Clouds 18 1016 77 10000 2.6 20 10:21 05.03.2020
1855 Clouds 18 1016 77 10000 2.6 20 10:21 05.03.2020
1856 Clouds 18 1016 77 10000 2.6 50 09:49 05.03.2020
1857 Clouds 17 1017 82 10000 2.6 50 09:28 05.03.2020
1858 Clouds 18 1017 77 10000 2.6 50 08:59 05.03.2020
1859 Clouds 17 1018 82 10000 3.1 30 08:41 05.03.2020
1860 Clouds 17 1018 82 10000 3.1 30 08:22 05.03.2020
1861 Clouds 17 1018 82 10000 3.6 30 07:42 05.03.2020
1862 Clouds 17 1018 82 10000 3.6 30 07:42 05.03.2020
1863 Clouds 17 1019 82 10000 3.6 40 07:21 05.03.2020
1864 Clouds 17 1020 82 10000 4.1 30 06:44 05.03.2020
1865 Clouds 17 1019 82 10000 3.6 30 06:44 05.03.2020
1866 Clouds 17 1020 82 10000 4.1 30 06:20 05.03.2020
1867 Clouds 17 1021 77 10000 4.1 30 05:35 05.03.2020
1868 Clouds 17 1021 77 10000 4.1 30 05:35 05.03.2020
1869 Clouds 17 1022 77 10000 4.6 20 04:23 05.03.2020
1870 Clouds 17 1021 77 10000 4.1 30 03:58 05.03.2020
1871 Clouds 15 1021 93 10000 4.1 40 02:32 05.03.2020
1872 Rain 15 1020 87 10000 3.6 40 01:26 05.03.2020
1873 Rain 15 1020 93 10000 4.1 50 00:49 05.03.2020
1874 Clouds 15 1019 87 10000 4.6 40 23:57 04.03.2020
1875 Clouds 15 1019 87 10000 4.6 40 23:57 04.03.2020
1876 Rain 15 1018 87 10000 5.1 50 23:39 04.03.2020
1877 Rain 15 1018 87 10000 5.1 50 23:21 04.03.2020
1878 Rain 15 1019 93 10000 3.6 20 22:55 04.03.2020
1879 Rain 15 1019 93 7000 3.6 30 22:36 04.03.2020
1880 Rain 15 1019 93 7000 3.6 30 22:18 04.03.2020
1881 Rain 16 1019 87 10000 3.6 20 21:41 04.03.2020
1882 Rain 16 1019 87 10000 3.6 20 21:41 04.03.2020
1883 Rain 16 1019 87 10000 3.6 20 21:21 04.03.2020
1884 Clouds 16 1019 87 10000 3.1 10 20:58 04.03.2020
1885 Clouds 16 1019 87 10000 3.1 10 20:58 04.03.2020
1886 Clouds 17 1019 82 10000 3.6 30 20:39 04.03.2020
1887 Clouds 17 1019 82 10000 3.6 30 20:21 04.03.2020
1888 Clouds 17 1019 82 10000 3.1 30 19:43 04.03.2020
1889 Clouds 17 1019 88 10000 2.6 50 19:24 04.03.2020
1890 Clouds 16 1020 87 10000 3.6 30 18:59 04.03.2020
1891 Clouds 17 1020 82 10000 3.6 20 18:41 04.03.2020
1892 Clouds 17 1020 82 10000 3.6 20 18:22 04.03.2020
1893 Rain 17 1019 88 10000 2.1 60 17:57 04.03.2020
1894 Rain 17 1020 88 10000 1.5 20 17:38 04.03.2020
1895 Rain 17 1020 88 10000 1.5 20 17:19 04.03.2020
1896 Rain 17 1020 88 10000 2.6 350 16:44 04.03.2020
1897 Rain 17 1020 82 10000 3.1 50 16:26 04.03.2020
1898 Rain 18 1020 77 10000 1.5 60 15:59 04.03.2020
1899 Rain 18 1020 82 10000 1 0 15:41 04.03.2020
1900 Rain 18 1020 82 10000 1 0 15:23 04.03.2020
1901 Clouds 18 1019 77 10000 1.5 60 14:55 04.03.2020
1902 Clouds 18 1019 77 10000 2.1 50 14:37 04.03.2020
1903 Clouds 18 1019 77 10000 2.1 50 14:18 04.03.2020
1904 Clouds 18 1018 77 10000 2.1 40 13:56 04.03.2020
1905 Clouds 18 1017 77 10000 3.1 40 13:38 04.03.2020
1906 Clouds 18 1017 77 10000 3.1 40 13:19 04.03.2020
1907 Clouds 18 1018 77 10000 2.6 20 12:44 04.03.2020
1908 Clouds 18 1017 77 10000 3.1 40 12:26 04.03.2020
1909 Clouds 18 1017 77 10000 3.1 40 11:56 04.03.2020
1910 Clouds 18 1017 77 10000 3.1 40 11:38 04.03.2020
1911 Clouds 18 1017 77 10000 3.1 40 11:38 04.03.2020
1912 Clouds 18 1017 77 10000 3.1 40 11:19 04.03.2020
1913 Clouds 18 1017 82 10000 3.6 10 10:47 04.03.2020
1914 Clouds 18 1017 82 10000 2.6 40 10:26 04.03.2020
1915 Clouds 18 1017 82 10000 2.6 10 09:58 04.03.2020
1916 Clouds 18 1017 82 10000 2.6 10 09:58 04.03.2020
1917 Clouds 18 1016 88 10000 2.1 70 09:40 04.03.2020
1918 Clouds 18 1016 88 10000 2.1 70 09:20 04.03.2020
1919 Clouds 18 1017 88 10000 2.6 60 08:43 04.03.2020
1920 Rain 17 1017 93 10000 2.6 50 08:25 04.03.2020
1921 Rain 17 1018 93 7000 2.6 40 07:52 04.03.2020
1922 Rain 17 1018 88 10000 3.1 40 07:33 04.03.2020
1923 Rain 17 1018 93 5000 2.6 30 06:54 04.03.2020
1924 Rain 17 1018 93 5000 2.6 30 06:54 04.03.2020
1925 Rain 17 1019 93 6000 4.6 40 06:27 04.03.2020
1926 Clouds 17 1019 88 2300 5.7 50 05:59 04.03.2020
1927 Rain 17 1020 88 6000 3.6 10 05:41 04.03.2020
1928 Clouds 18 1018 82 10000 8.7 30 03:58 04.03.2020
1929 Clouds 18 1018 88 10000 8.7 40 03:37 04.03.2020
1930 Rain 18 1017 88 10000 6.7 30 02:59 04.03.2020
1931 Rain 18 1017 88 10000 6.7 30 02:31 04.03.2020
1932 Rain 18 1017 88 10000 8.7 40 01:57 04.03.2020
1933 Clouds 21 1015 88 8000 5.1 50 01:37 04.03.2020
1934 Rain 21 1014 94 8000 2.1 40 00:42 04.03.2020
1935 Rain 21 1014 94 8000 2.1 40 00:22 04.03.2020
1936 Thunderstorm 22 1013 88 7000 3.6 90 23:43 03.03.2020
1937 Thunderstorm 22 1013 88 7000 3.6 90 23:24 03.03.2020
1938 Clouds 22 1012 88 10000 4.1 70 22:56 03.03.2020
1939 Clouds 22 1012 88 8000 2.6 70 22:37 03.03.2020
1940 Clouds 22 1012 88 8000 2.6 70 22:19 03.03.2020
1941 Clouds 22 1012 88 8000 3.1 70 21:43 03.03.2020
1942 Clouds 22 1013 88 8000 2.6 60 21:22 03.03.2020
1943 Clouds 22 1013 88 8000 2.6 80 20:59 03.03.2020
1944 Clouds 22 1013 94 8000 2.6 70 20:39 03.03.2020
1945 Clouds 22 1013 94 8000 2.6 70 20:19 03.03.2020
1946 Clouds 22 1013 94 8000 2.6 80 19:56 03.03.2020
1947 Clouds 23 1014 88 10000 3.1 110 19:37 03.03.2020
1948 Clouds 23 1014 88 10000 3.1 110 19:18 03.03.2020
1949 Clouds 23 1014 88 10000 2.1 90 18:56 03.03.2020
1950 Clouds 23 1014 88 10000 2.1 90 18:56 03.03.2020
1951 Clouds 23 1014 83 10000 3.1 80 18:38 03.03.2020
1952 Clouds 23 1014 83 10000 3.1 80 18:19 03.03.2020
1953 Clouds 23 1014 88 10000 3.6 80 17:54 03.03.2020
1954 Clouds 23 1014 83 10000 4.6 110 17:36 03.03.2020
1955 Clouds 23 1014 83 10000 4.6 110 17:36 03.03.2020
1956 Clouds 23 1014 83 10000 4.6 110 17:18 03.03.2020
1957 Clouds 23 1015 88 10000 3.6 110 16:39 03.03.2020
1958 Clouds 23 1015 88 10000 3.6 110 16:21 03.03.2020
1959 Clouds 23 1015 88 10000 3.1 110 15:58 03.03.2020
1960 Clouds 23 1014 88 10000 4.1 120 15:40 03.03.2020
1961 Clouds 23 1014 88 10000 4.1 120 15:20 03.03.2020
1962 Clouds 23 1014 88 10000 4.1 120 14:43 03.03.2020
1963 Clouds 23 1013 88 10000 3.1 100 14:21 03.03.2020
1964 Clouds 23 1013 88 10000 1.5 70 13:59 03.03.2020
1965 Clouds 23 1012 88 10000 2.6 80 13:41 03.03.2020
1966 Clouds 23 1012 88 10000 2.6 80 13:22 03.03.2020
1967 Clouds 23 1012 88 10000 3.1 110 12:49 03.03.2020
1968 Clouds 23 1011 88 10000 3.6 100 12:27 03.03.2020
1969 Clouds 23 1011 83 10000 4.6 110 11:59 03.03.2020
1970 Clouds 23 1011 83 10000 4.1 140 11:38 03.03.2020
1971 Clouds 23 1011 83 10000 4.1 140 11:19 03.03.2020
1972 Clouds 23 1011 83 10000 3.6 130 10:56 03.03.2020
1973 Clouds 22 1011 88 10000 3.6 130 10:38 03.03.2020
1974 Clouds 22 1011 88 10000 3.6 130 10:19 03.03.2020
1975 Clouds 22 1011 88 10000 5.1 130 09:44 03.03.2020
1976 Clouds 21 1011 94 10000 6.7 160 09:23 03.03.2020
1977 Thunderstorm 22 1011 100 6000 7.7 80 08:58 03.03.2020
1978 Thunderstorm 23 1013 88 1600 2.6 330 08:39 03.03.2020
1979 Thunderstorm 23 1013 88 1600 2.6 330 08:20 03.03.2020
1980 Thunderstorm 25 1012 73 10000 2.6 100 07:44 03.03.2020
1981 Clouds 25 1013 73 10000 3.1 100 07:22 03.03.2020
1982 Clouds 25 1013 73 10000 3.6 130 06:49 03.03.2020
1983 Clouds 25 1013 73 10000 3.6 130 06:49 03.03.2020
1984 Clouds 25 1014 73 10000 5.7 140 06:23 03.03.2020
1985 Clouds 25 1015 73 10000 5.1 140 05:47 03.03.2020
1986 Clouds 25 1015 73 10000 5.1 140 05:47 03.03.2020
1987 Clouds 25 1016 73 10000 6.2 140 05:19 03.03.2020
1988 Clouds 23 1016 88 7000 5.1 130 04:25 03.03.2020
1989 Rain 21 1014 94 4400 2.1 60 01:40 03.03.2020
1990 Mist 21 1014 94 4200 2.1 70 00:49 03.03.2020
1991 Clouds 21 1014 94 8000 3.1 120 00:27 03.03.2020
1992 Clouds 21 1013 94 8000 2.6 100 23:57 02.03.2020
1993 Clouds 21 1013 94 8000 2.6 90 23:38 02.03.2020
1994 Clouds 21 1013 94 8000 2.6 90 23:19 02.03.2020
1995 Thunderstorm 21 1013 94 9000 3.1 80 22:54 02.03.2020
1996 Thunderstorm 21 1012 94 6000 5.7 110 22:36 02.03.2020
1997 Thunderstorm 21 1012 94 6000 5.7 110 22:18 02.03.2020
1998 Thunderstorm 21 1013 94 5000 1.5 0 21:41 02.03.2020
1999 Thunderstorm 21 1013 94 5000 1.5 0 21:23 02.03.2020
2000 Rain 21 1013 94 9000 4.1 130 20:58 02.03.2020
2001 Rain 20 1013 94 9000 7.7 140 20:39 02.03.2020
2002 Rain 20 1013 94 9000 7.7 140 20:20 02.03.2020
2003 Thunderstorm 21 1013 94 3400 6.7 150 19:55 02.03.2020
2004 Clouds 21 1014 88 10000 3.6 140 19:37 02.03.2020
2005 Clouds 21 1014 88 10000 3.6 140 19:18 02.03.2020
2006 Rain 21 1014 94 8000 2.6 70 18:44 02.03.2020
2007 Clouds 22 1014 88 7000 2.6 110 18:20 02.03.2020
2008 Clouds 22 1014 88 10000 5.7 130 17:59 02.03.2020
2009 Rain 22 1014 94 5000 2.6 110 17:40 02.03.2020
2010 Rain 22 1014 94 5000 2.6 110 17:21 02.03.2020
2011 Rain 22 1014 94 5000 2.6 110 17:21 02.03.2020
2012 Rain 22 1014 94 5000 2.6 110 17:21 02.03.2020
2013 Thunderstorm 22 1014 94 5000 4.6 120 16:55 02.03.2020
2014 Thunderstorm 23 1014 88 4600 5.1 110 16:36 02.03.2020
2015 Thunderstorm 23 1014 88 4600 5.1 110 16:18 02.03.2020
2016 Thunderstorm 24 1014 83 9000 3.6 130 15:42 02.03.2020
2017 Thunderstorm 24 1014 83 9000 3.6 130 15:20 02.03.2020
2018 Clouds 24 1013 78 9000 5.1 140 14:41 02.03.2020
2019 Clouds 24 1013 78 9000 5.1 140 14:20 02.03.2020
2020 Clouds 24 1013 78 10000 4.6 130 13:59 02.03.2020
2021 Clouds 24 1012 78 10000 5.7 130 13:38 02.03.2020
2022 Clouds 24 1012 78 10000 5.7 130 13:18 02.03.2020
2023 Clouds 25 1012 73 10000 4.1 130 12:43 02.03.2020
2024 Clouds 25 1012 73 10000 4.1 150 12:19 02.03.2020
2025 Clouds 25 1011 73 10000 4.6 140 11:55 02.03.2020
2026 Clouds 25 1011 73 10000 5.1 150 11:36 02.03.2020
2027 Clouds 25 1011 73 10000 5.1 150 11:18 02.03.2020
2028 Clouds 25 1011 73 10000 5.1 140 10:42 02.03.2020
2029 Clouds 25 1011 73 10000 5.1 140 10:42 02.03.2020
2030 Clouds 25 1011 73 10000 4.1 160 10:20 02.03.2020
2031 Clouds 25 1011 73 10000 4.6 130 09:56 02.03.2020
2032 Clouds 25 1011 73 10000 4.6 130 09:37 02.03.2020
2033 Clouds 25 1011 73 10000 4.6 130 09:18 02.03.2020
2034 Clouds 25 1012 73 10000 5.1 130 08:41 02.03.2020
2035 Clouds 25 1012 73 10000 5.1 130 08:19 02.03.2020
2036 Clouds 25 1013 73 10000 4.6 150 07:41 02.03.2020
2037 Clouds 25 1014 73 10000 3.1 140 06:57 02.03.2020
2038 Clouds 24 1014 78 10000 3.6 130 06:37 02.03.2020
2039 Clouds 24 1015 78 10000 3.6 130 05:52 02.03.2020
2040 Clouds 23 1015 83 10000 3.6 110 04:21 02.03.2020
2041 Clouds 23 1015 83 10000 4.1 120 03:20 02.03.2020
2042 Clouds 23 1015 83 7000 3.6 150 02:36 02.03.2020
2043 Clouds 22 1014 88 6000 2.6 100 01:42 02.03.2020
2044 Clouds 22 1014 88 6000 2.6 100 01:23 02.03.2020
2045 Clouds 22 1013 88 9000 2.6 120 00:23 02.03.2020
2046 Clouds 22 1013 88 8000 2.1 110 23:56 01.03.2020
2047 Clouds 22 1013 88 8000 2.1 110 23:56 01.03.2020
2048 Clouds 22 1012 88 9000 2.1 110 23:37 01.03.2020
2049 Clouds 22 1012 88 9000 2.1 110 23:18 01.03.2020
2050 Clouds 22 1012 94 8000 2.6 110 22:38 01.03.2020
2051 Clouds 22 1012 94 8000 2.6 110 22:19 01.03.2020
2052 Clouds 22 1012 94 8000 2.1 100 21:43 01.03.2020
2053 Clouds 22 1013 94 8000 2.6 90 21:25 01.03.2020
2054 Clouds 23 1013 83 10000 3.6 100 20:59 01.03.2020
2055 Clouds 23 1013 83 10000 3.6 110 20:41 01.03.2020
2056 Clouds 23 1013 83 10000 3.6 110 20:22 01.03.2020
2057 Clouds 23 1013 83 10000 3.6 100 19:42 01.03.2020
2058 Clouds 23 1013 83 10000 3.1 100 19:23 01.03.2020
2059 Clouds 23 1013 83 8000 4.1 110 18:58 01.03.2020
2060 Clouds 23 1014 83 9000 4.1 120 18:39 01.03.2020
2061 Clouds 23 1014 83 9000 4.1 120 18:19 01.03.2020
2062 Clouds 23 1014 83 10000 4.1 130 17:57 01.03.2020
2063 Clouds 23 1014 83 10000 4.1 120 17:38 01.03.2020
2064 Clouds 23 1014 83 10000 4.1 120 17:20 01.03.2020
2065 Clouds 24 1014 78 10000 4.6 120 16:55 01.03.2020
2066 Clouds 24 1014 78 10000 4.1 120 16:36 01.03.2020
2067 Clouds 24 1014 78 10000 4.1 120 16:36 01.03.2020
2068 Clouds 24 1014 78 10000 4.1 120 16:18 01.03.2020
2069 Clouds 24 1013 78 10000 4.1 130 15:55 01.03.2020
2070 Clouds 24 1013 78 10000 4.1 130 15:37 01.03.2020
2071 Clouds 24 1013 78 10000 4.1 130 15:18 01.03.2020
2072 Clouds 24 1013 78 10000 4.1 120 14:55 01.03.2020
2073 Clouds 24 1012 83 10000 5.1 120 14:36 01.03.2020
2074 Clouds 24 1012 83 10000 5.1 120 14:36 01.03.2020
2075 Clouds 24 1012 83 10000 5.1 120 14:18 01.03.2020
2076 Clouds 24 1012 78 10000 5.7 120 13:43 01.03.2020
2077 Clouds 25 1011 73 10000 5.1 120 13:21 01.03.2020
2078 Clouds 25 1011 78 10000 4.6 120 12:59 01.03.2020
2079 Clouds 25 1011 78 10000 5.1 130 12:40 01.03.2020
2080 Clouds 25 1011 78 10000 5.1 130 12:20 01.03.2020
2081 Clouds 26 1010 74 10000 6.2 110 11:40 01.03.2020
2082 Clouds 26 1010 74 10000 6.2 110 11:21 01.03.2020
2083 Clouds 26 1010 74 10000 2.6 0 10:57 01.03.2020
2084 Clouds 26 1010 74 10000 3.6 120 10:37 01.03.2020
2085 Clouds 26 1010 74 10000 3.6 120 10:19 01.03.2020
2086 Clouds 27 1010 65 10000 4.1 110 09:46 01.03.2020
2087 Clouds 26 1010 69 10000 3.6 110 09:26 01.03.2020
2088 Clouds 26 1011 69 9000 4.1 110 08:52 01.03.2020
2089 Clouds 26 1011 69 9000 4.1 120 08:29 01.03.2020
2090 Clouds 26 1012 69 8000 3.6 120 07:59 01.03.2020
2091 Clouds 26 1012 69 10000 3.1 130 07:40 01.03.2020
2092 Clouds 26 1012 69 10000 3.1 130 07:22 01.03.2020
2093 Clouds 26 1013 69 7000 4.1 140 06:44 01.03.2020
2094 Clouds 26 1013 69 7000 4.1 140 06:23 01.03.2020
2095 Clouds 23 1015 88 6000 3.6 120 03:40 01.03.2020
2096 Mist 23 1014 88 4800 3.6 110 02:23 01.03.2020
2097 Mist 22 1014 94 4100 2.6 120 01:46 01.03.2020
2098 Mist 22 1013 94 3500 2.1 90 01:20 01.03.2020
2099 Mist 22 1012 88 4100 2.6 80 00:41 01.03.2020
2100 Mist 22 1012 88 4100 2.6 80 00:20 01.03.2020
2101 Mist 22 1012 88 4100 2.6 80 00:20 01.03.2020
2102 Mist 22 1012 88 4000 2.6 80 23:42 29.02.2020
2103 Mist 22 1012 88 4500 2.6 80 23:23 29.02.2020
2104 Mist 22 1012 88 4700 2.6 70 22:40 29.02.2020
2105 Mist 22 1012 88 4700 2.6 70 22:22 29.02.2020
2106 Mist 22 1012 88 4100 2.6 80 21:42 29.02.2020
2107 Mist 22 1012 88 4000 2.6 90 21:22 29.02.2020
2108 Mist 22 1012 88 5000 2.6 90 20:43 29.02.2020
2109 Clouds 22 1012 88 6000 2.6 100 20:21 29.02.2020
2110 Clouds 22 1012 88 6000 2.1 110 19:56 29.02.2020
2111 Clouds 22 1012 88 6000 2.1 110 19:56 29.02.2020
2112 Clouds 22 1012 88 6000 2.1 110 19:37 29.02.2020
2113 Clouds 22 1012 88 6000 2.1 110 19:19 29.02.2020
2114 Clouds 22 1013 88 6000 3.1 120 18:42 29.02.2020
2115 Clouds 22 1013 88 6000 3.1 120 18:23 29.02.2020
2116 Clouds 22 1013 88 6000 3.1 120 17:57 29.02.2020
2117 Clouds 22 1013 88 7000 3.1 110 17:39 29.02.2020
2118 Clouds 22 1013 88 7000 3.1 110 17:39 29.02.2020
2119 Clouds 22 1013 88 7000 3.1 110 17:19 29.02.2020
2120 Clouds 23 1013 83 8000 3.1 110 16:45 29.02.2020
2121 Clouds 23 1013 83 8000 3.1 110 16:20 29.02.2020
2122 Clouds 23 1013 83 9000 3.1 120 15:58 29.02.2020
2123 Clouds 23 1012 83 10000 4.1 130 15:38 29.02.2020
2124 Clouds 23 1012 83 10000 4.1 130 15:20 29.02.2020
2125 Clouds 24 1012 78 10000 4.6 130 14:40 29.02.2020
2126 Clouds 24 1012 78 10000 4.6 130 14:22 29.02.2020
2127 Clouds 24 1012 78 10000 4.6 130 13:46 29.02.2020
2128 Clouds 25 1011 73 10000 4.6 120 13:28 29.02.2020
2129 Clouds 25 1011 73 10000 4.6 120 13:28 29.02.2020
2130 Clouds 25 1011 73 10000 4.6 110 12:58 29.02.2020
2131 Clouds 26 1011 65 10000 4.6 130 12:38 29.02.2020
2132 Clouds 26 1011 65 10000 4.6 130 12:20 29.02.2020
2133 Clouds 27 1010 57 10000 3.1 160 11:45 29.02.2020
2134 Clouds 27 1010 57 10000 3.6 160 11:27 29.02.2020
2135 Clouds 27 1010 57 10000 4.1 150 10:55 29.02.2020
2136 Clouds 27 1010 57 10000 3.6 160 10:36 29.02.2020
2137 Clouds 27 1010 57 10000 3.6 160 10:18 29.02.2020
2138 Clouds 27 1010 57 10000 3.1 140 09:46 29.02.2020
2139 Clouds 27 1010 57 10000 3.1 160 09:18 29.02.2020
2140 Clouds 27 1011 57 10000 3.6 150 08:40 29.02.2020
2141 Clouds 27 1011 57 10000 3.6 150 08:21 29.02.2020
2142 Clouds 26 1012 61 10000 4.1 150 07:53 29.02.2020
2143 Clouds 26 1012 61 10000 4.1 150 07:53 29.02.2020
2144 Clouds 26 1013 61 10000 4.1 140 07:25 29.02.2020
2145 Clouds 26 1013 61 10000 4.1 150 06:56 29.02.2020
2146 Clouds 26 1014 65 10000 4.1 160 06:30 29.02.2020
2147 Clouds 26 1014 69 10000 4.1 140 05:52 29.02.2020
2148 Clouds 24 1015 73 10000 4.1 120 05:32 29.02.2020
2149 Clouds 23 1015 78 7000 4.1 120 04:18 29.02.2020
2150 Clouds 22 1015 83 6000 4.1 120 03:24 29.02.2020
2151 Clouds 22 1015 83 7000 3.6 130 02:59 29.02.2020
2152 Clouds 22 1014 83 8000 3.6 130 02:26 29.02.2020
2153 Clouds 21 1014 88 7000 4.1 110 00:52 29.02.2020
2154 Clouds 21 1013 88 8000 2.6 110 00:28 29.02.2020
2155 Clouds 21 1013 88 6000 2.1 120 23:41 28.02.2020
2156 Clouds 21 1013 88 6000 2.1 120 23:23 28.02.2020
2157 Clouds 21 1013 88 6000 2.1 120 23:23 28.02.2020
2158 Clouds 21 1013 88 6000 2.1 120 23:23 28.02.2020
2159 Clouds 21 1013 88 7000 2.1 110 22:43 28.02.2020
2160 Clouds 22 1013 83 8000 3.1 130 22:23 28.02.2020
2161 Mist 22 1013 88 5000 3.6 120 21:43 28.02.2020
2162 Clouds 22 1013 83 6000 4.1 130 21:22 28.02.2020
2163 Clouds 22 1013 88 7000 3.6 120 20:59 28.02.2020
2164 Clouds 22 1013 88 7000 4.1 130 20:39 28.02.2020
2165 Clouds 22 1013 88 7000 4.1 130 20:20 28.02.2020
2166 Clouds 22 1014 88 7000 3.1 130 19:57 28.02.2020
2167 Clouds 22 1014 88 7000 4.1 130 19:39 28.02.2020
2168 Clouds 22 1014 88 7000 4.1 130 19:20 28.02.2020
2169 Clouds 22 1015 88 6000 3.1 130 18:47 28.02.2020
2170 Mist 22 1015 88 5000 2.6 110 18:27 28.02.2020
2171 Clouds 22 1015 83 7000 2.1 120 17:57 28.02.2020
2172 Clouds 22 1015 83 9000 2.6 130 17:38 28.02.2020
2173 Clouds 22 1015 83 9000 2.6 130 17:20 28.02.2020
2174 Clouds 23 1015 78 10000 3.6 130 16:41 28.02.2020
2175 Clouds 23 1015 78 10000 3.6 130 16:20 28.02.2020
2176 Clouds 23 1015 73 10000 2.6 130 15:57 28.02.2020
2177 Clouds 23 1015 73 10000 3.1 130 15:38 28.02.2020
2178 Clouds 24 1014 69 10000 3.1 130 15:19 28.02.2020
2179 Clouds 24 1014 69 10000 3.1 130 14:46 28.02.2020
2180 Clouds 24 1014 64 10000 4.1 140 14:20 28.02.2020
2181 Clouds 25 1014 65 10000 3.6 140 13:59 28.02.2020
2182 Clouds 25 1013 65 10000 3.6 140 13:40 28.02.2020
2183 Clouds 25 1013 65 10000 3.6 140 13:20 28.02.2020
2184 Clouds 26 1013 61 10000 4.1 130 12:46 28.02.2020
2185 Clouds 26 1013 61 10000 4.1 130 12:27 28.02.2020
2186 Clouds 26 1013 61 10000 4.1 130 12:27 28.02.2020
2187 Clouds 26 1013 57 10000 3.6 160 11:56 28.02.2020
2188 Clouds 27 1013 54 10000 4.6 150 11:37 28.02.2020
2189 Clouds 27 1013 54 10000 4.6 150 11:19 28.02.2020
2190 Clouds 27 1013 57 10000 4.1 120 10:43 28.02.2020
2191 Clouds 27 1013 57 10000 4.1 120 10:24 28.02.2020
2192 Clouds 27 1013 57 10000 5.1 130 09:49 28.02.2020
2193 Clouds 27 1013 57 10000 5.1 130 09:49 28.02.2020
2194 Clouds 27 1013 57 10000 5.1 130 09:49 28.02.2020
2195 Clouds 27 1013 57 10000 5.1 130 09:49 28.02.2020
2196 Clouds 27 1013 57 10000 5.1 130 09:49 28.02.2020
2197 Clouds 27 1013 57 10000 4.6 110 09:22 28.02.2020
2198 Clouds 27 1013 57 10000 5.1 160 08:59 28.02.2020
2199 Clouds 27 1014 57 10000 4.1 140 08:41 28.02.2020
2200 Clouds 27 1014 57 10000 4.1 140 08:41 28.02.2020
2201 Clouds 27 1014 57 10000 4.1 140 08:20 28.02.2020
2202 Clouds 27 1014 61 10000 3.6 120 07:45 28.02.2020
2203 Clouds 26 1015 65 10000 2.6 140 07:25 28.02.2020
2204 Clouds 25 1016 69 9000 2.1 0 06:48 28.02.2020
2205 Clouds 25 1016 69 9000 2.1 0 06:28 28.02.2020
2206 Clouds 24 1018 73 7000 2.1 140 04:50 28.02.2020
2207 Clouds 24 1018 73 7000 2.6 100 04:20 28.02.2020
2208 Clouds 23 1017 78 7000 3.1 90 02:47 28.02.2020
2209 Clouds 22 1017 83 7000 3.1 100 02:28 28.02.2020
2210 Clouds 22 1016 83 8000 3.1 120 01:26 28.02.2020
2211 Clouds 21 1015 83 9000 3.6 110 00:30 28.02.2020
2212 Clouds 22 1015 78 10000 3.6 130 23:42 27.02.2020
2213 Clouds 22 1015 78 10000 3.6 130 23:21 27.02.2020
2214 Clouds 22 1015 78 10000 3.6 130 22:46 27.02.2020
2215 Clouds 22 1015 78 10000 4.6 130 22:27 27.02.2020
2216 Clouds 22 1015 78 10000 3.1 140 21:59 27.02.2020
2217 Clouds 22 1015 78 10000 3.6 160 21:41 27.02.2020
2218 Clouds 22 1015 78 10000 3.6 160 21:19 27.02.2020
2219 Clouds 22 1015 78 10000 4.6 140 20:57 27.02.2020
2220 Clouds 22 1016 83 10000 4.1 140 20:38 27.02.2020
2221 Clouds 22 1016 83 10000 4.1 140 20:20 27.02.2020
2222 Clouds 22 1016 83 10000 4.1 140 20:20 27.02.2020
2223 Clouds 22 1016 83 10000 4.1 140 20:20 27.02.2020
2224 Clouds 21 1016 83 10000 3.1 120 19:55 27.02.2020
2225 Clouds 22 1016 83 10000 3.6 150 19:37 27.02.2020
2226 Clouds 22 1016 83 10000 3.6 150 19:18 27.02.2020
2227 Clouds 22 1017 83 10000 3.6 140 18:40 27.02.2020
2228 Clouds 22 1017 83 10000 3.6 140 18:22 27.02.2020
2229 Clouds 22 1017 83 9000 4.6 130 17:58 27.02.2020
2230 Clouds 23 1017 83 8000 4.6 150 17:39 27.02.2020
2231 Clouds 23 1017 83 8000 4.6 150 17:19 27.02.2020
2232 Clouds 23 1017 83 7000 4.1 160 16:56 27.02.2020
2233 Clouds 23 1017 83 7000 4.6 150 16:37 27.02.2020
2234 Clouds 23 1017 83 7000 4.6 150 16:18 27.02.2020
2235 Clouds 23 1017 83 8000 4.1 150 15:56 27.02.2020
2236 Clouds 24 1017 78 9000 3.6 140 15:36 27.02.2020
2237 Clouds 24 1017 78 9000 3.6 140 15:18 27.02.2020
2238 Clouds 24 1017 78 9000 3.6 140 15:18 27.02.2020
2239 Clouds 24 1016 73 10000 5.1 160 14:40 27.02.2020
2240 Clouds 24 1016 73 10000 5.1 160 14:22 27.02.2020
2241 Clouds 25 1016 69 10000 5.1 160 13:56 27.02.2020
2242 Clouds 26 1015 65 10000 4.6 160 13:38 27.02.2020
2243 Clouds 26 1015 65 10000 4.6 160 13:19 27.02.2020
2244 Clouds 26 1015 61 10000 4.1 160 12:45 27.02.2020
2245 Clouds 26 1015 61 10000 2.6 160 12:22 27.02.2020
2246 Clouds 27 1015 54 10000 4.1 150 11:47 27.02.2020
2247 Clouds 28 1015 51 10000 4.1 140 11:23 27.02.2020
2248 Clouds 27 1015 54 10000 3.1 120 10:58 27.02.2020
2249 Clouds 28 1014 54 10000 3.6 150 10:40 27.02.2020
2250 Clouds 28 1014 54 10000 3.6 150 10:20 27.02.2020
2251 Clouds 28 1015 51 10000 2.6 130 09:42 27.02.2020
2252 Clouds 28 1015 51 10000 2.6 130 09:23 27.02.2020
2253 Clouds 28 1015 54 10000 3.1 110 08:55 27.02.2020
2254 Clouds 28 1015 54 10000 3.1 110 08:55 27.02.2020
2255 Clouds 28 1016 51 10000 2.6 150 08:37 27.02.2020
2256 Clouds 28 1016 51 10000 2.6 150 08:18 27.02.2020
2257 Clouds 28 1017 54 10000 2.6 210 07:41 27.02.2020
2258 Clouds 28 1017 54 10000 2.6 210 07:20 27.02.2020
2259 Clouds 27 1018 57 8000 2.1 0 06:21 27.02.2020
2260 Clouds 25 1019 65 8000 2.6 120 04:48 27.02.2020
2261 Clouds 23 1019 73 7000 1.5 20 02:58 27.02.2020
2262 Mist 21 1018 83 3900 1.5 60 01:28 27.02.2020
2263 Mist 20 1017 88 4800 1.5 50 00:41 27.02.2020
2264 Clouds 20 1016 82 6000 1.5 70 23:41 26.02.2020
2265 Clouds 20 1016 82 6000 1.5 70 23:21 26.02.2020
2266 Clouds 20 1016 82 7000 2.1 80 22:59 26.02.2020
2267 Clouds 20 1016 82 8000 1.5 70 22:40 26.02.2020
2268 Clouds 20 1016 82 8000 1.5 70 22:22 26.02.2020
2269 Clouds 20 1016 82 9000 2.1 100 21:58 26.02.2020
2270 Clouds 20 1016 82 9000 2.6 130 21:38 26.02.2020
2271 Clouds 20 1016 82 9000 2.6 130 21:19 26.02.2020
2272 Clouds 20 1016 82 8000 2.6 110 20:56 26.02.2020
2273 Clouds 21 1016 73 10000 2.1 120 20:38 26.02.2020
2274 Clouds 21 1016 73 10000 2.1 120 20:18 26.02.2020
2275 Clouds 21 1016 77 10000 2.6 140 19:47 26.02.2020
2276 Clouds 22 1017 68 10000 3.1 150 19:21 26.02.2020
2277 Clouds 22 1017 73 10000 3.1 150 18:59 26.02.2020
2278 Clouds 22 1017 73 10000 3.6 150 18:41 26.02.2020
2279 Clouds 22 1017 73 10000 3.6 150 18:22 26.02.2020
2280 Clouds 22 1017 73 10000 3.1 160 17:56 26.02.2020
2281 Clouds 22 1018 73 10000 2.1 140 17:37 26.02.2020
2282 Clouds 22 1018 73 10000 2.1 140 17:18 26.02.2020
2283 Clouds 22 1018 73 10000 3.1 140 16:43 26.02.2020
2284 Clouds 22 1017 78 10000 2.1 120 16:22 26.02.2020
2285 Clouds 22 1017 78 10000 2.6 140 15:56 26.02.2020
2286 Clouds 23 1017 73 8000 3.1 140 15:37 26.02.2020
2287 Clouds 23 1017 73 8000 3.1 140 15:18 26.02.2020
2288 Clouds 24 1017 69 9000 3.6 140 14:42 26.02.2020
2289 Clouds 24 1017 69 9000 3.6 140 14:22 26.02.2020
2290 Clouds 24 1016 69 10000 4.1 130 13:43 26.02.2020
2291 Clouds 24 1015 69 10000 3.6 120 13:22 26.02.2020
2292 Clouds 24 1015 69 10000 2.6 90 12:42 26.02.2020
2293 Clouds 24 1015 69 10000 2.6 90 12:22 26.02.2020
2294 Clouds 26 1015 61 10000 3.6 100 11:59 26.02.2020
2295 Clouds 26 1015 61 10000 4.1 130 11:40 26.02.2020
2296 Clouds 26 1015 61 10000 4.1 130 11:22 26.02.2020
2297 Clouds 26 1015 61 10000 4.1 130 11:22 26.02.2020
2298 Clouds 26 1015 61 9000 4.1 110 10:43 26.02.2020
2299 Clouds 27 1015 57 9000 4.6 120 10:24 26.02.2020
2300 Clouds 27 1015 54 9000 3.6 120 09:59 26.02.2020
2301 Clouds 27 1015 57 8000 4.6 90 09:40 26.02.2020
2302 Clouds 27 1015 57 8000 4.6 90 09:40 26.02.2020
2303 -273 0 0 0 0 0 09:21 26.02.2020
2304 Clouds 27 1016 57 7000 3.1 100 08:41 26.02.2020
2305 Clouds 27 1016 57 7000 3.1 100 08:23 26.02.2020
2306 Clouds 27 1016 57 7000 3.6 100 07:59 26.02.2020
2307 Clouds 26 1017 65 5000 3.6 70 07:40 26.02.2020
2308 Clouds 26 1017 65 5000 3.6 70 07:20 26.02.2020
2309 Clouds 25 1017 65 6000 3.1 90 06:45 26.02.2020
2310 Clouds 25 1018 65 7000 3.1 100 06:22 26.02.2020
2311 Clouds 25 1019 65 6000 2.6 120 05:48 26.02.2020
2312 Haze 24 1019 69 5000 3.6 120 05:18 26.02.2020
2313 Mist 21 1019 83 2100 3.1 110 03:27 26.02.2020
2314 Mist 19 1019 100 1000 2.1 70 01:58 26.02.2020
2315 Mist 19 1018 93 1000 1.5 80 01:25 26.02.2020
2316 Mist 19 1017 93 2600 2.1 70 00:40 26.02.2020
2317 Mist 19 1017 93 2600 2.1 70 00:20 26.02.2020
2318 Mist 18 1017 100 2700 2.1 60 23:42 25.02.2020
2319 Mist 18 1017 100 2700 2.1 60 23:22 25.02.2020
2320 Mist 19 1016 93 3600 2.6 90 22:56 25.02.2020
2321 Mist 19 1016 93 3300 2.6 80 22:36 25.02.2020
2322 Mist 19 1016 93 3300 2.6 80 22:18 25.02.2020
2323 Mist 19 1016 100 4000 2.6 80 21:38 25.02.2020
2324 Mist 19 1016 100 4000 2.6 80 21:20 25.02.2020
2325 Mist 19 1016 100 4200 2.1 90 20:57 25.02.2020
2326 Mist 19 1016 93 4200 2.1 90 20:38 25.02.2020
2327 Mist 19 1016 93 4200 2.1 90 20:38 25.02.2020
2328 Mist 19 1016 93 4200 2.1 90 20:19 25.02.2020
2329 Mist 19 1016 93 5000 2.1 90 19:45 25.02.2020
2330 Mist 20 1017 88 5000 2.6 90 19:23 25.02.2020
2331 Clouds 20 1017 88 6000 2.6 100 18:59 25.02.2020
2332 Clouds 19 1017 93 6000 2.6 90 18:40 25.02.2020
2333 Clouds 19 1017 93 6000 2.6 90 18:20 25.02.2020
2334 Clouds 20 1017 88 7000 2.1 90 17:56 25.02.2020
2335 Clouds 21 1017 77 8000 2.1 130 17:37 25.02.2020
2336 Clouds 21 1017 77 8000 2.1 130 17:18 25.02.2020
2337 Clouds 21 1017 77 9000 2.6 130 16:55 25.02.2020
2338 Clouds 21 1017 83 9000 2.1 120 16:36 25.02.2020
2339 Clouds 21 1017 83 9000 2.1 120 16:18 25.02.2020
2340 Clouds 22 1017 78 8000 2.6 130 15:44 25.02.2020
2341 Clouds 22 1017 78 9000 2.6 110 15:20 25.02.2020
2342 Clouds 23 1016 73 10000 2.1 110 14:59 25.02.2020
2343 Clouds 23 1016 73 10000 3.1 120 14:39 25.02.2020
2344 Clouds 23 1016 73 10000 3.1 120 14:18 25.02.2020
2345 Clouds 23 1015 73 10000 3.6 120 13:58 25.02.2020
2346 Clouds 23 1015 73 10000 3.6 130 13:39 25.02.2020
2347 Clouds 23 1015 73 10000 3.6 130 13:20 25.02.2020
2348 Clouds 24 1015 69 10000 4.1 130 12:55 25.02.2020
2349 Clouds 24 1015 69 8000 4.1 130 12:37 25.02.2020
2350 Clouds 24 1015 69 8000 4.1 130 12:18 25.02.2020
2351 Clouds 25 1014 61 8000 3.1 110 11:42 25.02.2020
2352 Clouds 25 1014 61 8000 3.1 110 11:20 25.02.2020
2353 Clouds 25 1014 61 10000 2.6 110 10:59 25.02.2020
2354 Clouds 25 1014 61 10000 3.1 150 10:41 25.02.2020
2355 Clouds 25 1014 61 10000 3.1 150 10:22 25.02.2020
2356 Clouds 26 1014 54 10000 3.1 130 09:42 25.02.2020
2357 Clouds 26 1014 54 10000 3.1 130 09:42 25.02.2020
2358 Clouds 26 1014 54 10000 3.1 130 09:22 25.02.2020
2359 Clouds 26 1015 54 10000 3.1 130 08:55 25.02.2020
2360 Clouds 26 1015 54 10000 2.6 160 08:37 25.02.2020
2361 Clouds 26 1015 54 10000 2.6 160 08:19 25.02.2020
2362 Clouds 25 1016 61 10000 2.6 180 07:40 25.02.2020
2363 Clouds 25 1016 61 10000 2.6 180 07:20 25.02.2020
2364 Clouds 24 1017 64 8000 3.1 170 06:37 25.02.2020
2365 Clouds 24 1018 69 6000 2.6 140 05:29 25.02.2020
2366 Mist 21 1018 88 4000 3.1 100 03:30 25.02.2020
2367 Mist 18 1017 100 1600 2.1 100 01:32 25.02.2020
2368 Mist 18 1017 100 2200 1.5 100 00:43 25.02.2020
2369 Mist 19 1017 100 3500 2.1 90 00:25 25.02.2020
2370 Mist 19 1016 100 2300 2.6 90 23:40 24.02.2020
2371 Mist 19 1016 100 2300 2.6 90 23:20 24.02.2020
2372 Mist 19 1016 100 3200 3.1 110 22:39 24.02.2020
2373 Mist 19 1016 100 3200 3.1 110 22:19 24.02.2020
2374 Mist 19 1016 100 3200 3.1 110 21:57 24.02.2020
2375 Mist 19 1016 100 3500 3.1 110 21:39 24.02.2020
2376 Mist 19 1016 100 3500 3.1 110 21:19 24.02.2020
2377 Mist 19 1016 100 3100 3.1 110 20:57 24.02.2020
2378 Mist 19 1016 100 3700 3.6 100 20:38 24.02.2020
2379 Mist 19 1016 100 3700 3.6 100 20:19 24.02.2020
2380 Mist 19 1016 100 4200 2.6 100 19:56 24.02.2020
2381 Mist 19 1017 100 3600 2.6 90 19:37 24.02.2020
2382 Mist 19 1017 100 3600 2.6 90 19:19 24.02.2020
2383 Mist 20 1017 94 4300 2.6 100 18:42 24.02.2020
2384 Mist 20 1017 94 4300 2.6 100 18:24 24.02.2020
2385 Mist 20 1017 94 5000 3.1 110 17:57 24.02.2020
2386 Mist 20 1017 100 5000 3.1 110 17:38 24.02.2020
2387 Mist 20 1017 100 5000 3.1 110 17:19 24.02.2020
2388 Clouds 21 1017 88 6000 3.1 110 16:55 24.02.2020
2389 Clouds 21 1017 88 6000 3.1 110 16:55 24.02.2020
2390 Clouds 21 1017 83 7000 3.6 120 16:37 24.02.2020
2391 Clouds 21 1017 83 7000 3.6 120 16:18 24.02.2020
2392 Clouds 22 1017 78 8000 4.1 130 15:56 24.02.2020
2393 Clouds 23 1017 73 8000 4.1 130 15:38 24.02.2020
2394 Clouds 23 1017 73 8000 4.1 130 15:19 24.02.2020
2395 Clouds 23 1016 73 10000 4.6 130 14:41 24.02.2020
2396 Clouds 23 1016 73 10000 4.6 130 14:23 24.02.2020
2397 Clouds 23 1016 69 10000 4.1 130 13:59 24.02.2020
2398 Clouds 24 1016 64 10000 3.6 120 13:41 24.02.2020
2399 Clouds 24 1016 64 10000 3.6 120 13:22 24.02.2020
2400 Clouds 25 1015 57 10000 4.6 130 12:58 24.02.2020
2401 Clouds 25 1015 57 10000 4.1 130 12:39 24.02.2020
2402 Clouds 25 1015 57 10000 4.1 130 12:21 24.02.2020
2403 Clouds 25 1015 57 10000 4.6 130 11:47 24.02.2020
2404 Clouds 25 1015 57 10000 5.7 120 11:29 24.02.2020
2405 Clouds 26 1015 54 10000 5.1 120 10:51 24.02.2020
2406 Clouds 26 1015 54 10000 3.1 140 10:31 24.02.2020
2407 Clouds 26 1015 50 10000 3.6 150 09:55 24.02.2020
2408 Clouds 26 1016 50 10000 3.6 140 09:37 24.02.2020
2409 Clouds 26 1016 50 10000 3.6 140 09:18 24.02.2020
2410 Clouds 26 1016 54 10000 2.1 140 08:48 24.02.2020
2411 Clouds 26 1017 50 10000 3.1 160 08:28 24.02.2020
2412 Clouds 25 1017 53 10000 3.6 140 07:48 24.02.2020
2413 Clouds 25 1018 57 10000 3.6 130 07:30 24.02.2020
2414 Clouds 25 1019 61 9000 3.1 150 06:45 24.02.2020
2415 Clouds 25 1019 57 9000 3.1 130 06:21 24.02.2020
2416 Clouds 23 1020 64 8000 3.1 130 05:30 24.02.2020
2417 Clouds 22 1021 64 8000 3.1 170 04:42 24.02.2020
2418 Mist 19 1021 100 1700 2.1 70 02:56 24.02.2020
2419 Mist 18 1020 100 1000 1.5 70 01:47 24.02.2020
2420 Mist 18 1020 100 1100 2.1 70 01:18 24.02.2020
2421 Mist 18 1019 100 2800 2.6 100 00:36 24.02.2020
2422 Mist 18 1019 100 2800 2.6 100 00:18 24.02.2020
2423 Mist 18 1019 100 3400 1.5 60 23:41 23.02.2020
2424 Mist 18 1019 100 3400 1.5 60 23:19 23.02.2020
2425 Mist 18 1019 100 3700 1.5 80 22:56 23.02.2020
2426 Mist 18 1019 100 3700 1.5 90 22:37 23.02.2020
2427 Mist 18 1019 100 3700 1.5 90 22:18 23.02.2020
2428 Mist 17 1019 100 2800 1.5 80 21:45 23.02.2020
2429 Mist 17 1019 100 2800 1.5 80 21:20 23.02.2020
2430 Mist 17 1020 100 2900 1.5 80 20:57 23.02.2020
2431 Mist 18 1020 100 5000 1.5 120 20:38 23.02.2020
2432 Mist 18 1020 100 5000 1.5 120 20:20 23.02.2020
2433 Clear 19 1020 88 6000 2.1 130 19:56 23.02.2020
2434 Clouds 19 1021 82 7000 2.6 150 19:38 23.02.2020
2435 Clouds 19 1021 82 7000 2.6 150 19:38 23.02.2020
2436 Clouds 19 1021 82 7000 2.6 150 19:18 23.02.2020
2437 Clear 19 1021 82 7000 2.1 140 18:54 23.02.2020
2438 Clear 19 1021 82 8000 2.6 150 18:36 23.02.2020
2439 Clear 20 1021 77 8000 2.1 170 18:18 23.02.2020
2440 Clear 20 1021 77 8000 2.1 170 18:18 23.02.2020
2441 Clear 20 1021 77 8000 2.1 170 17:54 23.02.2020
2442 Clear 20 1021 77 8000 2.6 170 17:36 23.02.2020
2443 Clear 20 1021 77 8000 2.6 170 17:18 23.02.2020
2444 Clear 20 1021 77 9000 4.1 160 16:42 23.02.2020
2445 Clear 20 1021 77 9000 4.1 160 16:23 23.02.2020
2446 Clear 20 1021 72 9000 3.6 160 15:56 23.02.2020
2447 Clear 21 1021 68 10000 3.1 150 15:37 23.02.2020
2448 Clear 21 1021 68 10000 3.1 150 15:19 23.02.2020
2449 Clear 21 1021 68 10000 3.6 150 14:55 23.02.2020
2450 Clear 21 1021 73 10000 3.1 160 14:37 23.02.2020
2451 Clouds 21 1021 73 10000 3.1 160 14:19 23.02.2020
2452 Clouds 22 1020 68 10000 3.1 160 13:55 23.02.2020
2453 Clouds 23 1020 60 10000 3.1 150 13:36 23.02.2020
2454 Clear 23 1020 60 10000 3.1 150 13:18 23.02.2020
2455 Clear 23 1020 60 10000 3.6 130 12:40 23.02.2020
2456 Clear 23 1020 60 10000 3.6 130 12:20 23.02.2020
2457 Clear 25 1020 53 10000 3.6 140 11:39 23.02.2020
2458 Clear 25 1020 53 10000 3.6 140 11:20 23.02.2020
2459 Clouds 25 1020 53 10000 3.6 130 10:58 23.02.2020
2460 Clouds 25 1020 53 10000 4.1 130 10:40 23.02.2020
2461 Clouds 25 1020 53 10000 4.1 130 10:21 23.02.2020
2462 Clouds 25 1020 53 10000 3.6 120 09:56 23.02.2020
2463 Clouds 25 1020 53 8000 3.1 80 09:37 23.02.2020
2464 Clouds 25 1020 53 8000 3.1 80 09:18 23.02.2020
2465 Clouds 26 1021 50 8000 2.1 130 08:44 23.02.2020
2466 Clouds 25 1022 53 7000 3.1 120 08:25 23.02.2020
2467 Haze 25 1023 53 5000 1.5 50 07:44 23.02.2020
2468 Haze 25 1023 53 5000 1.5 50 07:26 23.02.2020
2469 Haze 24 1025 57 4700 1.5 70 06:20 23.02.2020
2470 Mist 22 1026 73 2600 1.5 90 04:59 23.02.2020
2471 Mist 20 1026 77 2700 0.5 0 03:53 23.02.2020
2472 Mist 17 1025 100 1600 0.5 0 02:44 23.02.2020
2473 Mist 16 1024 100 1000 0.5 40 01:28 23.02.2020
2474 Mist 16 1024 100 1000 0.5 340 00:59 23.02.2020
2475 Mist 16 1023 100 3000 1 310 00:41 23.02.2020
2476 Mist 16 1023 100 3000 1 310 00:19 23.02.2020
2477 Mist 15 1023 100 2100 1.5 320 23:42 22.02.2020
2478 Mist 16 1023 100 1800 1 340 23:20 22.02.2020
2479 Mist 16 1023 100 1200 0.65 173 22:45 22.02.2020
2480 Mist 16 1023 100 2000 0.65 173 22:20 22.02.2020
2481 Mist 16 1023 100 1900 0.65 173 21:43 22.02.2020
2482 Mist 17 1023 100 2000 0.5 0 21:25 22.02.2020
2483 Mist 17 1023 100 2200 1 0 20:57 22.02.2020
2484 Mist 17 1023 100 2300 1 0 20:38 22.02.2020
2485 Mist 17 1023 100 2300 1 0 20:38 22.02.2020
2486 Mist 17 1023 100 2300 1 0 20:20 22.02.2020
2487 Mist 17 1023 100 2300 1 40 19:42 22.02.2020
2488 Mist 18 1024 100 2500 1 0 19:23 22.02.2020
2489 Mist 18 1024 100 3700 1.44 198 18:54 22.02.2020
2490 Mist 18 1024 100 2700 1.44 198 18:36 22.02.2020
2491 Mist 18 1024 100 2700 1.44 198 18:18 22.02.2020
2492 Mist 18 1025 100 2900 1 330 17:43 22.02.2020
2493 Mist 18 1025 100 2900 1 330 17:25 22.02.2020
2494 Mist 19 1025 100 2500 2.22 179 16:58 22.02.2020
2495 Mist 19 1025 100 3200 1 330 16:40 22.02.2020
2496 Mist 19 1025 100 3200 1 330 16:20 22.02.2020
2497 Mist 19 1025 100 3600 0.5 0 15:46 22.02.2020
2498 Mist 19 1025 93 3700 1 0 15:27 22.02.2020
2499 Mist 20 1025 88 3600 1 0 14:58 22.02.2020
2500 Mist 20 1024 82 2800 1.5 350 14:39 22.02.2020
2501 Mist 20 1024 82 2800 1.5 350 14:20 22.02.2020
2502 Mist 21 1023 73 4900 0.5 0 13:42 22.02.2020
2503 Mist 21 1023 73 4900 0.5 0 13:20 22.02.2020
2504 Haze 22 1023 68 5000 0.5 0 12:48 22.02.2020
2505 Haze 22 1023 68 3400 1 0 12:26 22.02.2020
2506 Haze 23 1023 64 3800 1.5 220 11:56 22.02.2020
2507 Haze 23 1023 64 3900 2.6 210 11:38 22.02.2020
2508 Haze 23 1023 64 3900 2.6 210 11:20 22.02.2020
2509 Haze 24 1023 60 4200 2.1 250 10:41 22.02.2020
2510 Haze 24 1023 60 4200 2.1 250 10:20 22.02.2020
2511 Haze 24 1024 60 3700 3.1 240 09:59 22.02.2020
2512 Haze 23 1024 64 3500 2.6 260 09:39 22.02.2020
2513 Haze 23 1024 64 3500 2.6 260 09:21 22.02.2020
2514 Haze 23 1024 64 3500 2.6 260 09:21 22.02.2020
2515 Haze 23 1024 69 2800 2.6 280 08:50 22.02.2020
2516 Haze 23 1025 69 2800 2.1 220 08:28 22.02.2020
2517 Haze 23 1026 69 2700 2.6 210 07:50 22.02.2020
2518 Mist 23 1026 69 2400 2.1 200 07:20 22.02.2020
2519 Mist 22 1027 73 2100 2.6 190 06:48 22.02.2020
2520 Mist 21 1028 77 2200 2.1 200 06:29 22.02.2020
2521 Mist 19 1029 88 1900 1 0 04:33 22.02.2020
2522 Mist 18 1028 93 1000 1 0 03:24 22.02.2020
2523 Fog 18 1027 93 700 2.1 310 02:31 22.02.2020
2524 Fog 17 1027 100 750 2.1 310 01:46 22.02.2020
2525 Mist 17 1026 100 1200 2.1 310 01:25 22.02.2020
2526 Mist 17 1026 100 1400 2.1 300 00:45 22.02.2020
2527 Mist 17 1026 100 1600 2.6 320 00:26 22.02.2020
2528 Fog 17 1025 100 900 2.6 320 23:47 21.02.2020
2529 Fog 17 1025 100 400 3.1 320 23:22 21.02.2020
2530 Mist 17 1025 100 1100 3.1 300 22:54 21.02.2020
2531 Mist 17 1025 100 1000 2.6 300 22:36 21.02.2020
2532 Mist 17 1025 100 1000 2.6 300 22:18 21.02.2020
2533 Fog 18 1025 93 550 3.1 310 21:41 21.02.2020
2534 Fog 18 1025 93 550 3.1 310 21:23 21.02.2020
2535 Fog 18 1025 93 750 3.6 300 20:48 21.02.2020
2536 Fog 17 1025 100 900 2.6 280 20:29 21.02.2020
2537 Fog 17 1025 93 800 2.1 290 19:44 21.02.2020
2538 Mist 18 1026 93 1400 2.6 280 19:24 21.02.2020
2539 Mist 18 1026 93 1400 2.1 270 18:56 21.02.2020
2540 Mist 18 1026 93 1400 2.6 280 18:38 21.02.2020
2541 Mist 18 1026 93 1400 2.6 280 18:19 21.02.2020
2542 Mist 18 1027 93 1300 2.6 280 17:40 21.02.2020
2543 Mist 18 1027 93 1300 2.6 280 17:21 21.02.2020
2544 Mist 18 1027 93 1300 2.6 280 17:21 21.02.2020
2545 Mist 18 1027 93 1700 3.1 290 16:57 21.02.2020
2546 Mist 18 1027 93 1500 2.6 280 16:39 21.02.2020
2547 Mist 18 1027 93 1500 2.6 280 16:20 21.02.2020
2548 Mist 19 1026 88 2000 2.6 280 15:45 21.02.2020
2549 Mist 19 1026 88 2400 2.1 290 15:19 21.02.2020
2550 Mist 19 1026 88 2600 2.1 300 14:57 21.02.2020
2551 Mist 19 1026 88 2700 2.1 300 14:39 21.02.2020
2552 Mist 19 1026 88 2700 2.1 300 14:19 21.02.2020
2553 Mist 20 1025 82 2900 3.6 300 13:42 21.02.2020
2554 Mist 20 1025 82 2900 3.6 300 13:23 21.02.2020
2555 Mist 20 1024 82 3300 3.1 290 12:54 21.02.2020
2556 Mist 21 1024 77 1900 3.6 270 12:36 21.02.2020
2557 Mist 21 1024 77 1900 3.6 270 12:18 21.02.2020
2558 Mist 22 1024 73 2500 3.1 300 11:40 21.02.2020
2559 Mist 22 1024 73 2500 3.1 300 11:21 21.02.2020
2560 Mist 22 1024 73 2400 3.6 300 10:56 21.02.2020
2561 Mist 22 1024 73 2300 3.6 300 10:38 21.02.2020
2562 Mist 22 1024 73 2300 3.6 300 10:38 21.02.2020
2563 Mist 22 1024 73 2300 3.6 300 10:18 21.02.2020
2564 Mist 22 1024 73 2300 3.6 300 10:18 21.02.2020
2565 Mist 22 1024 73 2300 3.1 280 09:42 21.02.2020
2566 Mist 22 1024 73 2300 3.1 280 09:24 21.02.2020
2567 Mist 22 1024 73 2200 4.1 280 08:58 21.02.2020
2568 Mist 21 1025 77 2000 3.6 260 08:39 21.02.2020
2569 Mist 21 1025 77 2000 3.6 260 08:21 21.02.2020
2570 Mist 21 1025 77 1900 3.6 240 07:55 21.02.2020
2571 Mist 22 1026 73 2000 3.1 280 07:36 21.02.2020
2572 Mist 22 1026 73 2000 3.1 280 07:18 21.02.2020
2573 Mist 21 1027 77 1800 2.6 330 06:39 21.02.2020
2574 Mist 21 1027 77 1800 2.6 330 06:21 21.02.2020
2575 Mist 20 1027 82 1600 3.1 310 05:35 21.02.2020
2576 Mist 19 1028 88 1300 2.6 280 04:26 21.02.2020
2577 Mist 19 1028 88 1200 1.5 310 03:52 21.02.2020
2578 Mist 18 1027 93 1100 2.1 290 02:59 21.02.2020
2579 Mist 18 1026 93 1200 1 0 01:44 21.02.2020
2580 Mist 18 1025 93 1300 1.5 290 01:22 21.02.2020
2581 Mist 18 1024 88 2100 2.1 290 00:39 21.02.2020
2582 Mist 18 1024 88 2100 2.1 290 00:20 21.02.2020
2583 Mist 17 1023 93 1600 1.5 290 23:41 20.02.2020
2584 Mist 17 1023 93 1600 1.5 290 23:22 20.02.2020
2585 Mist 17 1023 93 1500 2.1 290 22:42 20.02.2020
2586 Mist 17 1023 93 1500 2.1 290 22:24 20.02.2020
2587 Mist 17 1022 93 1700 2.1 290 21:58 20.02.2020
2588 Mist 17 1023 93 1600 2.6 290 21:40 20.02.2020
2589 Mist 17 1023 93 1600 2.6 290 21:20 20.02.2020
2590 Mist 17 1023 93 1400 2.6 290 20:57 20.02.2020
2591 Mist 17 1023 93 1400 2.6 280 20:39 20.02.2020
2592 Mist 17 1023 93 1400 2.6 280 20:39 20.02.2020
2593 Mist 17 1023 93 1400 2.6 280 20:20 20.02.2020
2594 Mist 17 1023 93 1300 2.6 290 19:59 20.02.2020
2595 Mist 17 1023 93 1300 2.6 280 19:41 20.02.2020
2596 Mist 17 1023 93 1300 2.6 280 19:23 20.02.2020
2597 Mist 18 1023 88 1300 2.1 280 18:55 20.02.2020
2598 Mist 18 1024 88 1600 2.6 290 18:37 20.02.2020
2599 Mist 18 1024 88 1600 2.6 290 18:18 20.02.2020
2600 Mist 18 1024 88 1900 1 0 17:39 20.02.2020
2601 Mist 18 1024 93 1800 1.5 290 17:19 20.02.2020
2602 Mist 18 1024 93 1800 1.5 290 16:56 20.02.2020
2603 Mist 18 1024 93 1900 1 0 16:38 20.02.2020
2604 Mist 18 1024 93 1900 1 0 16:19 20.02.2020
2605 Mist 18 1023 93 2000 1 0 15:43 20.02.2020
2606 Mist 18 1023 93 2000 1 300 15:24 20.02.2020
2607 Mist 18 1023 93 1900 3.38 128 14:58 20.02.2020
2608 Mist 18 1023 93 1900 3.38 128 14:58 20.02.2020
2609 Mist 18 1023 93 1900 1 0 14:40 20.02.2020
2610 Mist 18 1023 93 1900 1 0 14:21 20.02.2020
2611 Mist 18 1022 93 2100 2.1 290 13:55 20.02.2020
2612 Mist 18 1022 88 2600 1.5 290 13:37 20.02.2020
2613 Mist 18 1022 88 2600 1.5 290 13:18 20.02.2020
2614 Mist 18 1022 88 2600 1.5 290 13:18 20.02.2020
2615 Rain 18 1021 93 1800 1.5 290 12:42 20.02.2020
2616 Rain 18 1021 93 1800 1.5 290 12:21 20.02.2020
2617 Rain 18 1021 88 1400 2.6 290 11:58 20.02.2020
2618 Rain 19 1020 82 1700 3.1 280 11:39 20.02.2020
2619 Rain 19 1020 82 1700 3.1 280 11:20 20.02.2020
2620 Mist 19 1020 77 1700 2.6 290 10:56 20.02.2020
2621 Mist 19 1020 77 1700 3.1 290 10:37 20.02.2020
2622 Mist 19 1020 77 1700 3.1 290 10:19 20.02.2020
2623 Mist 19 1020 77 1700 2.1 290 09:39 20.02.2020
2624 Mist 19 1020 77 1700 2.1 290 09:20 20.02.2020
2625 Rain 22 1020 74 0 3.48 125 08:42 20.02.2020
2626 Mist 19 1022 77 1700 3.1 310 08:24 20.02.2020
2627 Mist 19 1022 77 1700 3.1 310 07:48 20.02.2020
2628 Mist 19 1022 77 1700 3.1 310 07:27 20.02.2020
2629 Mist 19 1023 77 1600 3.1 280 06:57 20.02.2020
2630 Mist 19 1023 77 1600 3.1 280 06:38 20.02.2020
2631 Mist 18 1024 82 1500 3.1 290 05:47 20.02.2020
2632 Mist 18 1024 82 1200 3.6 280 05:24 20.02.2020
2633 Mist 19 1025 82 1600 2.1 300 04:47 20.02.2020
2634 Mist 18 1024 88 1300 1.5 320 03:46 20.02.2020
2635 Mist 18 1023 88 1100 2.1 40 02:46 20.02.2020
2636 Mist 18 1022 88 1500 2.1 30 01:24 20.02.2020
2637 Mist 18 1021 88 3700 1.5 70 00:42 20.02.2020
2638 Mist 18 1021 88 3700 1.5 70 00:19 20.02.2020
2639 Mist 18 1021 88 4200 1 0 23:42 19.02.2020
2640 Mist 18 1021 88 4200 1 0 23:18 19.02.2020
2641 Mist 18 1020 88 3800 1 0 22:41 19.02.2020
2642 Mist 18 1020 88 3800 1 0 22:41 19.02.2020
2643 Mist 18 1020 88 3800 1 0 22:21 19.02.2020
2644 Mist 18 1020 88 5000 2.1 80 21:57 19.02.2020
2645 Mist 19 1021 82 5000 1.5 100 21:38 19.02.2020
2646 Mist 19 1021 82 5000 1.5 100 21:18 19.02.2020
2647 Mist 19 1021 82 5000 1.5 100 21:18 19.02.2020
2648 Mist 19 1021 82 5000 1.5 100 21:18 19.02.2020
2649 Mist 19 1021 82 5000 2.6 130 20:56 19.02.2020
2650 Mist 19 1021 82 4900 2.6 130 20:37 19.02.2020
2651 Mist 19 1021 82 4900 2.6 130 20:18 19.02.2020
2652 Mist 19 1021 82 4800 3.1 120 19:56 19.02.2020
2653 Mist 19 1021 77 4200 3.1 120 19:37 19.02.2020
2654 Mist 19 1021 77 4200 3.1 120 19:18 19.02.2020
2655 Mist 19 1021 77 5000 2.6 110 18:56 19.02.2020
2656 Mist 19 1021 77 5000 2.1 80 18:38 19.02.2020
2657 Mist 19 1021 77 5000 2.1 80 18:38 19.02.2020
2658 Mist 19 1021 77 5000 2.1 80 18:20 19.02.2020
2659 Clouds 19 1021 72 6000 2.1 90 17:42 19.02.2020
2660 Clouds 19 1021 72 6000 2.1 90 17:19 19.02.2020
2661 Clouds 19 1022 72 6000 1.5 80 16:44 19.02.2020
2662 Clouds 19 1021 72 6000 2.1 70 16:20 19.02.2020
2663 Clouds 19 1021 72 6000 1.5 80 15:58 19.02.2020
2664 Clouds 19 1021 72 7000 1 0 15:39 19.02.2020
2665 Clouds 19 1021 72 7000 1 0 15:20 19.02.2020
2666 Clouds 19 1020 68 7000 1.5 70 14:42 19.02.2020
2667 Clouds 19 1020 68 7000 1.5 70 14:42 19.02.2020
2668 Clouds 19 1020 68 7000 1.5 70 14:23 19.02.2020
2669 Clouds 18 1020 68 6000 2.1 70 13:59 19.02.2020
2670 Clouds 18 1020 68 8000 2.1 80 13:40 19.02.2020
2671 Clouds 18 1020 68 8000 2.1 80 13:20 19.02.2020
2672 Clouds 19 1019 63 7000 2.1 80 12:40 19.02.2020
2673 Clouds 19 1019 63 7000 2.1 80 12:19 19.02.2020
2674 Clouds 20 1019 56 7000 2.6 80 11:55 19.02.2020
2675 Clouds 21 1019 56 8000 3.1 70 11:37 19.02.2020
2676 Clouds 21 1019 56 8000 3.1 70 11:18 19.02.2020
2677 Clouds 21 1019 52 8000 2.1 80 10:56 19.02.2020
2678 Clouds 21 1019 52 9000 2.6 100 10:37 19.02.2020
2679 Clouds 21 1019 52 9000 2.6 100 10:18 19.02.2020
2680 Clouds 21 1020 56 10000 3.1 70 09:54 19.02.2020
2681 Clouds 21 1020 52 10000 2.1 100 09:36 19.02.2020
2682 Clouds 21 1020 52 10000 2.1 100 09:18 19.02.2020
2683 Clouds 21 1021 49 10000 1 0 08:42 19.02.2020
2684 Clouds 21 1021 49 10000 1 0 08:42 19.02.2020
2685 Clouds 21 1021 49 10000 1 0 08:23 19.02.2020
2686 Clouds 20 1023 49 10000 1.5 340 07:41 19.02.2020
2687 Clouds 20 1023 49 10000 1.5 340 07:20 19.02.2020
2688 Clouds 20 1024 49 10000 1.5 0 06:47 19.02.2020
2689 Clouds 19 1025 45 10000 1.5 350 05:40 19.02.2020
2690 Clouds 18 1025 48 10000 1 0 03:59 19.02.2020
2691 Clouds 17 1025 55 9000 1.5 360 02:49 19.02.2020
2692 Clouds 16 1024 67 10000 1 0 01:54 19.02.2020
2693 Clouds 15 1024 72 9000 1 0 01:23 19.02.2020
2694 Clouds 16 1023 63 10000 1.5 50 00:43 19.02.2020
2695 Clouds 16 1023 63 10000 2.1 50 00:23 19.02.2020
2696 Clouds 16 1022 63 10000 2.1 40 23:41 18.02.2020
2697 Clouds 16 1022 63 10000 2.1 40 23:20 18.02.2020
2698 Clear 15 1022 72 10000 2.1 40 22:56 18.02.2020
2699 Clear 15 1022 72 10000 2.1 40 22:37 18.02.2020
2700 Clear 15 1022 72 10000 2.1 40 22:19 18.02.2020
2701 Clear 15 1022 72 10000 2.1 40 21:55 18.02.2020
2702 Clear 15 1022 77 10000 2.1 60 21:36 18.02.2020
2703 Clear 15 1022 77 10000 2.1 60 21:18 18.02.2020
2704 Clear 15 1023 77 10000 1.5 40 20:54 18.02.2020
2705 Clear 15 1023 77 10000 2.1 40 20:36 18.02.2020
2706 Clear 15 1023 77 10000 2.1 40 20:18 18.02.2020
2707 Clear 15 1023 77 10000 2.1 50 19:42 18.02.2020
2708 Clear 15 1023 72 9000 2.1 90 19:19 18.02.2020
2709 Clear 16 1024 67 10000 2.1 120 18:57 18.02.2020
2710 Clear 16 1024 67 10000 2.1 150 18:39 18.02.2020
2711 Clear 16 1024 67 10000 2.1 150 18:18 18.02.2020
2712 Clear 16 1024 67 10000 3.1 150 17:41 18.02.2020
2713 Clear 16 1024 67 10000 3.1 150 17:19 18.02.2020
2714 Clear 17 1024 63 10000 4.1 140 16:40 18.02.2020
2715 Clear 17 1024 63 10000 4.1 140 16:22 18.02.2020
2716 Clear 17 1024 63 10000 4.1 140 16:22 18.02.2020
2717 Clear 17 1024 63 10000 4.6 140 15:56 18.02.2020
2718 Clear 17 1024 63 10000 4.6 140 15:56 18.02.2020
2719 Clear 18 1023 55 10000 4.6 150 15:37 18.02.2020
2720 Clear 18 1023 55 10000 4.6 150 15:18 18.02.2020
2721 Clear 18 1023 48 10000 4.1 140 14:55 18.02.2020
2722 Clear 19 1022 39 10000 2.6 140 14:37 18.02.2020
2723 Clouds 19 1022 39 10000 2.6 120 14:18 18.02.2020
2724 Clouds 18 1022 42 10000 2.1 100 13:41 18.02.2020
2725 -273 0 0 0 0 0 13:21 18.02.2020
2726 Clear 18 1021 42 10000 1.5 90 12:49 18.02.2020
2727 Clear 18 1021 39 10000 3.1 100 12:30 18.02.2020
2728 Clear 19 1021 32 10000 2.1 90 11:59 18.02.2020
2729 Clear 20 1021 28 10000 2.1 90 11:41 18.02.2020
2730 Clear 20 1021 28 10000 2.1 90 11:22 18.02.2020
2731 Clouds 21 1021 26 10000 2.6 60 10:45 18.02.2020
2732 Clouds 21 1021 26 10000 1.5 0 10:24 18.02.2020
2733 Clouds 21 1022 28 10000 1.5 60 09:57 18.02.2020
2734 Clouds 21 1022 28 10000 2.1 0 09:39 18.02.2020
2735 Clouds 21 1022 28 10000 2.1 0 09:20 18.02.2020
2736 Clouds 21 1022 28 10000 2.1 0 09:20 18.02.2020
2737 Clouds 21 1022 28 10000 3.1 80 08:57 18.02.2020
2738 Clouds 21 1023 28 10000 2.6 0 08:38 18.02.2020
2739 Clouds 21 1023 28 10000 2.6 0 08:19 18.02.2020
2740 Clouds 21 1023 26 10000 2.1 0 07:48 18.02.2020
2741 Clouds 21 1024 28 10000 2.6 70 07:25 18.02.2020
2742 Clouds 20 1025 28 10000 2.1 30 06:55 18.02.2020
2743 Clouds 20 1026 30 10000 2.1 0 06:29 18.02.2020
2744 Clouds 20 1026 28 10000 2.6 90 05:48 18.02.2020
2745 Clouds 19 1027 32 10000 2.6 60 05:21 18.02.2020
2746 Clouds 19 1028 34 10000 3.6 20 03:52 18.02.2020
2747 Clouds 17 1028 42 10000 3.1 30 02:58 18.02.2020
2748 Clouds 15 1027 54 10000 2.1 40 01:27 18.02.2020
2749 Clouds 15 1026 54 10000 2.1 40 00:43 18.02.2020
2750 Clouds 15 1026 58 10000 2.1 50 00:18 18.02.2020
2751 Clouds 16 1026 51 10000 2.6 30 23:39 17.02.2020
2752 Clouds 16 1026 51 10000 2.6 30 23:20 17.02.2020
2753 Clouds 16 1026 59 10000 0.5 20 22:58 17.02.2020
2754 Clouds 16 1026 59 10000 2.1 40 22:39 17.02.2020
2755 Clouds 16 1026 59 10000 2.1 40 22:18 17.02.2020
2756 Clouds 16 1026 59 10000 2.1 40 22:18 17.02.2020
2757 Clouds 16 1026 55 10000 1 0 21:39 17.02.2020
2758 Clouds 16 1026 55 10000 1 0 21:19 17.02.2020
2759 Clouds 16 1026 55 10000 1.5 90 20:55 17.02.2020
2760 Clouds 16 1027 51 10000 1.5 60 20:37 17.02.2020
2761 Clouds 16 1027 51 10000 1.5 60 20:19 17.02.2020
2762 Clouds 16 1027 51 10000 1.5 70 19:43 17.02.2020
2763 Clouds 16 1027 51 10000 1.5 70 19:21 17.02.2020
2764 Clouds 16 1027 51 10000 1.5 70 18:56 17.02.2020
2765 Clouds 16 1027 51 10000 2.1 80 18:36 17.02.2020
2766 Clouds 16 1027 51 10000 2.1 80 18:36 17.02.2020
2767 Clouds 16 1027 51 10000 2.1 80 18:36 17.02.2020
2768 Clouds 16 1027 51 10000 2.1 80 18:36 17.02.2020
2769 Clouds 16 1027 51 10000 2.1 80 18:18 17.02.2020
2770 Clouds 17 1027 51 10000 2.1 70 17:38 17.02.2020
2771 Clouds 17 1027 51 10000 2.1 70 17:19 17.02.2020
2772 Clouds 17 1027 48 10000 2.6 90 16:58 17.02.2020
2773 Clouds 17 1027 51 10000 1.5 90 16:40 17.02.2020
2774 Clouds 17 1027 51 10000 1.5 90 16:22 17.02.2020
2775 Clouds 17 1027 48 10000 3.1 110 15:46 17.02.2020
2776 Clouds 17 1027 48 10000 3.1 110 15:46 17.02.2020
2777 Clouds 17 1027 48 10000 2.6 100 15:27 17.02.2020
2778 Clouds 17 1027 45 10000 2.6 100 14:58 17.02.2020
2779 Clouds 17 1026 45 10000 3.1 110 14:39 17.02.2020
2780 Clouds 17 1026 45 10000 3.1 110 14:20 17.02.2020
2781 Clouds 18 1026 45 10000 3.1 110 13:55 17.02.2020
2782 Clouds 18 1025 45 10000 4.1 110 13:36 17.02.2020
2783 Clouds 18 1025 45 10000 4.1 110 13:36 17.02.2020
2784 Clouds 18 1025 45 10000 4.1 110 13:36 17.02.2020
2785 Clouds 18 1025 45 10000 4.1 110 13:18 17.02.2020
2786 Clouds 18 1025 45 10000 4.1 110 13:18 17.02.2020
2787 Clouds 19 1024 42 10000 3.6 100 12:42 17.02.2020
2788 Clouds 19 1024 42 10000 3.6 100 12:23 17.02.2020
2789 Clouds 19 1024 42 10000 3.1 90 11:50 17.02.2020
2790 Clouds 19 1024 42 10000 3.1 80 11:29 17.02.2020
2791 Clouds 20 1024 37 10000 3.1 90 10:58 17.02.2020
2792 Clouds 20 1023 37 10000 2.6 80 10:40 17.02.2020
2793 Clouds 20 1023 37 10000 2.6 80 10:21 17.02.2020
2794 Clouds 20 1023 37 10000 2.6 70 09:58 17.02.2020
2795 Clouds 20 1024 37 10000 3.6 50 09:40 17.02.2020
2796 Clouds 20 1024 37 10000 3.6 50 09:20 17.02.2020
2797 Clouds 21 1024 35 10000 3.6 50 08:56 17.02.2020
2798 Clouds 20 1024 37 10000 4.1 60 08:38 17.02.2020
2799 Clouds 20 1024 37 10000 4.1 60 08:19 17.02.2020
2800 Clouds 20 1026 37 10000 3.6 360 07:40 17.02.2020
2801 Clouds 20 1026 37 10000 3.6 360 07:22 17.02.2020
2802 Clouds 20 1027 37 10000 5.1 40 06:49 17.02.2020
2803 Clouds 19 1027 37 10000 5.1 30 06:30 17.02.2020
2804 Clouds 18 1029 39 10000 5.7 360 05:40 17.02.2020
2805 Clouds 17 1029 45 10000 4.1 360 04:40 17.02.2020
2806 Clouds 17 1029 48 10000 3.6 10 03:18 17.02.2020
2807 Clouds 16 1027 55 10000 3.1 30 01:36 17.02.2020
2808 Clouds 16 1026 55 10000 2.1 40 00:41 17.02.2020
2809 Clouds 16 1026 55 10000 2.1 40 00:19 17.02.2020
2810 Clouds 16 1026 55 10000 2.1 40 23:52 16.02.2020
2811 Clouds 16 1026 55 10000 2.6 30 23:28 16.02.2020
2812 Clouds 16 1025 55 10000 3.1 20 22:56 16.02.2020
2813 Clouds 16 1025 59 10000 2.6 10 22:38 16.02.2020
2814 Clouds 16 1025 59 10000 2.6 10 22:20 16.02.2020
2815 Clouds 16 1025 55 10000 1.5 10 21:55 16.02.2020
2816 Clouds 16 1025 51 10000 3.1 30 21:36 16.02.2020
2817 Clouds 16 1025 51 10000 3.1 30 21:18 16.02.2020
2818 Clouds 16 1025 51 10000 3.1 40 20:54 16.02.2020
2819 Clouds 16 1025 55 10000 2.1 10 20:36 16.02.2020
2820 Clouds 16 1025 55 10000 2.1 10 20:18 16.02.2020
2821 Clouds 16 1025 55 10000 2.1 10 20:18 16.02.2020
2822 Clouds 16 1025 55 10000 2.1 30 19:54 16.02.2020
2823 Clouds 16 1025 55 10000 2.1 30 19:36 16.02.2020
2824 Clouds 16 1025 55 10000 2.1 30 19:18 16.02.2020
2825 Clouds 17 1025 51 10000 2.1 50 18:41 16.02.2020
2826 Clouds 17 1025 51 10000 2.1 50 18:22 16.02.2020
2827 Clouds 17 1025 51 10000 2.1 50 18:22 16.02.2020
2828 Clouds 17 1025 51 10000 2.1 50 17:44 16.02.2020
2829 Clear 17 1025 55 10000 2.1 50 17:21 16.02.2020
2830 Clear 17 1025 55 10000 1.5 60 16:57 16.02.2020
2831 Clear 17 1025 51 10000 3.1 40 16:39 16.02.2020
2832 Clear 17 1025 51 10000 3.1 40 16:21 16.02.2020
2833 Clear 17 1024 48 10000 2.6 40 15:56 16.02.2020
2834 Clear 17 1024 48 10000 2.6 40 15:56 16.02.2020
2835 Clear 17 1024 51 10000 3.1 40 15:37 16.02.2020
2836 Clear 17 1024 51 10000 3.1 40 15:18 16.02.2020
2837 Clear 18 1023 45 10000 3.6 30 14:39 16.02.2020
2838 Clouds 18 1023 45 10000 3.6 30 14:21 16.02.2020
2839 Clouds 18 1023 48 10000 3.1 30 13:46 16.02.2020
2840 Clouds 18 1022 48 10000 2.1 10 13:24 16.02.2020
2841 Clouds 18 1021 52 10000 1.5 360 12:55 16.02.2020
2842 Clouds 18 1021 48 10000 2.1 360 12:36 16.02.2020
2843 Clouds 18 1021 48 10000 2.1 360 12:18 16.02.2020
2844 Clouds 19 1021 45 10000 3.1 20 11:39 16.02.2020
2845 Clouds 19 1021 45 10000 3.1 20 11:18 16.02.2020
2846 Clouds 19 1020 45 10000 3.1 10 10:56 16.02.2020
2847 Clouds 19 1020 45 10000 3.1 20 10:38 16.02.2020
2848 Clouds 19 1020 45 10000 3.1 20 10:20 16.02.2020
2849 Clouds 19 1020 42 10000 3.6 30 09:55 16.02.2020
2850 Clouds 20 1020 40 10000 4.1 40 09:36 16.02.2020
2851 Clouds 20 1020 40 10000 4.1 40 09:18 16.02.2020
2852 Clouds 20 1020 40 10000 4.6 30 08:45 16.02.2020
2853 Clouds 20 1021 40 10000 4.1 20 08:21 16.02.2020
2854 Clouds 20 1021 40 10000 4.1 20 08:21 16.02.2020
2855 Clouds 19 1021 42 10000 5.1 30 07:52 16.02.2020
2856 Clouds 19 1022 42 10000 6.7 40 07:34 16.02.2020
2857 Clouds 19 1023 39 10000 7.2 20 06:33 16.02.2020
2858 Clouds 18 1024 42 10000 7.7 30 04:44 16.02.2020
2859 Clouds 18 1024 45 10000 7.2 20 03:31 16.02.2020
2860 Clouds 18 1023 45 10000 5.7 30 02:32 16.02.2020
2861 Rain 18 1022 45 10000 6.2 30 01:43 16.02.2020
2862 Rain 18 1021 48 10000 6.2 20 01:23 16.02.2020
2863 Clouds 18 1020 48 10000 5.7 20 00:53 16.02.2020
2864 Clouds 18 1020 48 10000 6.7 20 00:31 16.02.2020
2865 Clouds 18 1019 52 10000 6.7 30 23:54 15.02.2020
2866 Clouds 19 1018 48 10000 6.2 30 23:36 15.02.2020
2867 Clouds 19 1018 48 10000 6.2 30 23:18 15.02.2020
2868 Clouds 19 1016 52 10000 9.3 40 22:41 15.02.2020
2869 Clouds 19 1016 52 10000 9.3 40 22:22 15.02.2020
2870 Clouds 20 1016 56 10000 6.7 40 21:59 15.02.2020
2871 Clouds 20 1016 60 10000 7.7 50 21:40 15.02.2020
2872 Clouds 20 1016 60 10000 7.7 50 21:21 15.02.2020
2873 Clouds 21 1015 60 10000 7.7 40 20:40 15.02.2020
2874 Clouds 21 1015 60 10000 7.7 40 20:21 15.02.2020
2875 Clouds 21 1015 60 10000 8.7 40 19:44 15.02.2020
2876 Clouds 21 1015 73 10000 7.2 50 19:23 15.02.2020
2877 Rain 21 1015 77 10000 6.7 50 18:55 15.02.2020
2878 Clouds 23 1015 73 10000 8.2 50 18:36 15.02.2020
2879 Clouds 23 1015 73 10000 8.2 50 18:18 15.02.2020
2880 Clouds 23 1014 94 6000 2.1 70 17:43 15.02.2020
2881 Clouds 23 1013 94 6000 1 0 17:22 15.02.2020
2882 Clouds 24 1013 88 6000 1.5 80 16:58 15.02.2020
2883 Mist 24 1013 88 5000 2.1 80 16:39 15.02.2020
2884 Mist 24 1013 88 5000 2.1 80 16:19 15.02.2020
2885 Rain 24 1012 88 7000 2.6 100 15:42 15.02.2020
2886 Rain 24 1012 88 7000 2.6 100 15:23 15.02.2020
2887 Rain 24 1011 88 8000 2.6 120 14:45 15.02.2020
2888 Rain 24 1012 88 9000 2.6 120 14:45 15.02.2020
2889 Clouds 24 1011 88 8000 2.6 120 14:23 15.02.2020
2890 Clouds 24 1011 88 8000 3.1 100 13:57 15.02.2020
2891 Clouds 25 1010 83 10000 3.1 120 13:38 15.02.2020
2892 Clouds 25 1010 83 10000 3.1 120 13:20 15.02.2020
2893 Clouds 25 1009 83 10000 4.6 110 12:43 15.02.2020
2894 Clouds 25 1009 83 10000 4.6 110 12:25 15.02.2020
2895 Clouds 26 1008 78 10000 5.1 120 11:54 15.02.2020
2896 Clouds 27 1008 74 10000 5.7 110 11:36 15.02.2020
2897 Clouds 27 1008 74 10000 5.7 110 11:18 15.02.2020
2898 Clouds 28 1007 65 10000 5.1 110 10:39 15.02.2020
2899 Clouds 28 1007 65 10000 5.1 110 10:20 15.02.2020
2900 Clouds 28 1007 65 10000 4.6 120 09:44 15.02.2020
2901 Clouds 28 1007 65 10000 3.6 70 09:25 15.02.2020
2902 Clouds 29 1007 66 9000 4.1 100 08:46 15.02.2020
2903 Clouds 28 1007 65 9000 3.6 80 08:26 15.02.2020
2904 Clouds 28 1007 65 9000 3.6 70 07:59 15.02.2020
2905 Clouds 28 1007 65 9000 3.6 70 07:59 15.02.2020
2906 Clouds 28 1008 69 9000 3.6 80 07:39 15.02.2020
2907 Clouds 28 1008 69 9000 3.6 80 07:20 15.02.2020
2908 Clouds 28 1009 69 8000 3.1 80 06:37 15.02.2020
2909 Clouds 27 1010 74 6000 3.6 90 05:55 15.02.2020
2910 Mist 26 1011 78 4800 3.1 100 04:49 15.02.2020
2911 Mist 24 1011 88 4300 3.1 100 03:58 15.02.2020
2912 Mist 24 1010 88 4000 2.6 80 02:58 15.02.2020
2913 Mist 23 1010 94 3500 2.1 90 02:24 15.02.2020
2914 Mist 23 1009 94 3300 3.1 90 01:43 15.02.2020
2915 Mist 23 1009 94 4000 2.6 80 00:58 15.02.2020
2916 Mist 23 1008 94 4500 2.6 90 00:27 15.02.2020
2917 Mist 23 1008 94 4500 3.1 80 23:44 14.02.2020
2918 Mist 23 1008 94 3800 3.1 100 23:21 14.02.2020
2919 Mist 23 1008 94 3100 2.6 100 22:54 14.02.2020
2920 Mist 23 1008 94 3200 2.6 100 22:36 14.02.2020
2921 Mist 23 1008 94 3200 2.6 100 22:18 14.02.2020
2922 Mist 23 1008 94 3700 1.5 80 21:40 14.02.2020
2923 Mist 23 1008 94 3700 1.5 80 21:20 14.02.2020
2924 Mist 23 1008 94 3700 1.5 110 20:43 14.02.2020
2925 Mist 23 1008 94 3900 2.1 110 20:20 14.02.2020
2926 Mist 23 1009 94 4100 2.6 120 19:57 14.02.2020
2927 Mist 23 1009 94 5000 4.1 120 19:38 14.02.2020
2928 Mist 23 1009 94 5000 4.1 120 19:19 14.02.2020
2929 Mist 23 1009 88 5000 3.6 110 18:56 14.02.2020
2930 Mist 23 1009 94 5000 3.1 120 18:37 14.02.2020
2931 Mist 23 1009 94 5000 3.1 120 18:18 14.02.2020
2932 Mist 23 1009 94 4700 3.1 110 17:41 14.02.2020
2933 Mist 23 1009 94 4700 3.1 110 17:19 14.02.2020
2934 Mist 23 1009 94 4500 4.1 100 16:57 14.02.2020
2935 Mist 23 1009 94 4900 4.1 100 16:38 14.02.2020
2936 Mist 23 1009 94 4900 4.1 100 16:19 14.02.2020
2937 Clouds 23 1009 88 6000 5.1 110 15:54 14.02.2020
2938 -273 0 0 0 0 0 15:36 14.02.2020
2939 Clouds 23 1008 88 8000 4.6 110 15:18 14.02.2020
2940 Clouds 23 1007 88 9000 3.6 100 14:42 14.02.2020
2941 Clouds 23 1007 88 9000 3.6 100 14:23 14.02.2020
2942 Clouds 24 1007 83 9000 3.6 90 13:59 14.02.2020
2943 Clouds 24 1006 83 8000 4.1 110 13:39 14.02.2020
2944 Clouds 24 1006 83 8000 4.1 110 13:20 14.02.2020
2945 Clouds 24 1006 83 8000 4.1 110 13:20 14.02.2020
2946 Clouds 24 1006 83 8000 4.1 110 13:20 14.02.2020
2947 Clouds 24 1006 83 10000 4.6 110 12:57 14.02.2020
2948 Clouds 24 1005 83 10000 6.2 110 12:38 14.02.2020
2949 Clouds 24 1005 83 10000 6.2 110 12:20 14.02.2020
2950 Clouds 24 1005 88 7000 6.2 100 11:58 14.02.2020
2951 Clouds 25 1004 83 8000 6.2 100 11:39 14.02.2020
2952 Clouds 25 1004 83 8000 6.2 100 11:20 14.02.2020
2953 Clouds 26 1004 78 8000 5.1 100 10:44 14.02.2020
2954 Clouds 26 1004 83 8000 5.7 90 10:25 14.02.2020
2955 Clouds 26 1004 78 9000 5.7 100 09:56 14.02.2020
2956 Clouds 27 1004 78 9000 4.6 100 09:37 14.02.2020
2957 Clouds 27 1004 78 9000 4.6 100 09:19 14.02.2020
2958 Clouds 26 1005 78 7000 5.1 120 08:40 14.02.2020
2959 Clouds 26 1005 78 7000 5.1 120 08:22 14.02.2020
2960 Clouds 25 1006 83 6000 4.6 120 07:50 14.02.2020
2961 Clouds 25 1007 83 6000 4.6 120 07:31 14.02.2020
2962 Mist 24 1007 88 5000 4.6 120 06:54 14.02.2020
2963 Mist 24 1008 88 5000 4.6 120 06:22 14.02.2020
2964 Mist 24 1009 88 5000 4.6 120 05:42 14.02.2020
2965 Mist 23 1010 94 1900 2.6 110 03:52 14.02.2020
2966 Drizzle 23 1010 94 1300 2.6 100 03:24 14.02.2020
2967 Drizzle 22 1009 100 1000 2.6 70 02:18 14.02.2020
2968 Drizzle 22 1009 94 1100 1.5 30 01:18 14.02.2020
2969 Mist 22 1008 94 1100 1 80 00:32 14.02.2020
2970 Fog 22 1008 94 750 2.1 90 23:59 13.02.2020
2971 Mist 22 1008 94 1500 2.1 120 23:41 13.02.2020
2972 Mist 22 1008 94 1500 2.1 120 23:19 13.02.2020
2973 Mist 22 1007 94 2000 2.6 140 22:41 13.02.2020
2974 Mist 22 1007 94 2000 2.6 140 22:20 13.02.2020
2975 Drizzle 22 1008 94 600 2.1 110 21:59 13.02.2020
2976 Drizzle 22 1008 94 350 2.6 100 21:40 13.02.2020
2977 Drizzle 22 1008 94 350 2.6 100 21:20 13.02.2020
2978 Fog 22 1008 94 550 2.1 110 20:43 13.02.2020
2979 Fog 22 1008 94 550 1 80 20:23 13.02.2020
2980 Drizzle 22 1009 94 1300 1.5 150 19:58 13.02.2020
2981 Mist 22 1009 94 2200 2.1 150 19:39 13.02.2020
2982 Mist 22 1009 94 2200 2.1 150 19:21 13.02.2020
2983 Mist 22 1009 94 2900 2.1 120 18:58 13.02.2020
2984 Mist 22 1009 94 2900 2.1 120 18:58 13.02.2020
2985 Mist 22 1009 94 2900 2.1 110 18:39 13.02.2020
2986 Mist 22 1009 94 2900 2.1 110 18:21 13.02.2020
2987 Drizzle 22 1010 94 2500 1 0 17:57 13.02.2020
2988 Drizzle 22 1010 94 2800 1.5 100 17:37 13.02.2020
2989 Drizzle 22 1010 94 2800 1.5 100 17:19 13.02.2020
2990 Rain 22 1010 94 2900 2.1 100 16:43 13.02.2020
2991 Rain 22 1010 94 2900 2.1 100 16:21 13.02.2020
2992 Rain 22 1010 94 2700 1.5 90 15:58 13.02.2020
2993 Rain 22 1010 94 2800 1 0 15:40 13.02.2020
2994 Rain 22 1010 94 2800 1 0 15:20 13.02.2020
2995 Drizzle 22 1009 94 4300 2.6 120 14:59 13.02.2020
2996 Drizzle 22 1009 94 4100 2.6 100 14:40 13.02.2020
2997 Drizzle 22 1009 94 4100 2.6 100 14:40 13.02.2020
2998 Drizzle 22 1009 94 4100 2.6 100 14:22 13.02.2020
2999 Rain 22 1009 94 4200 2.1 100 13:54 13.02.2020
3000 Drizzle 22 1008 94 5000 3.6 110 13:36 13.02.2020
3001 Drizzle 22 1008 94 5000 3.6 110 13:18 13.02.2020
3002 Rain 22 1008 94 4700 3.6 110 12:48 13.02.2020
3003 Mist 22 1007 94 3900 4.6 110 12:30 13.02.2020
3004 Drizzle 22 1007 94 3200 3.6 110 11:57 13.02.2020
3005 Drizzle 22 1007 94 1300 3.1 110 11:39 13.02.2020
3006 Drizzle 22 1007 94 1300 3.1 110 11:18 13.02.2020
3007 Drizzle 22 1007 94 1400 3.1 110 10:43 13.02.2020
3008 Mist 22 1007 94 2200 3.6 120 10:23 13.02.2020
3009 Drizzle 22 1008 94 1500 2.6 100 09:46 13.02.2020
3010 Drizzle 22 1008 94 1500 2.6 100 09:24 13.02.2020
3011 Drizzle 22 1008 94 1500 2.6 100 09:24 13.02.2020
3012 Drizzle 22 1008 94 1500 2.6 100 08:47 13.02.2020
3013 Drizzle 22 1009 94 1100 1.5 120 08:20 13.02.2020
3014 Drizzle 22 1010 94 750 1.5 150 07:44 13.02.2020
3015 Drizzle 22 1010 94 750 1.5 150 07:44 13.02.2020
3016 Drizzle 22 1010 88 800 2.1 0 07:24 13.02.2020
3017 Drizzle 22 1010 88 800 2.1 0 07:24 13.02.2020
3018 Drizzle 22 1011 88 1400 2.1 130 06:54 13.02.2020
3019 Mist 22 1012 88 2100 0.5 0 06:36 13.02.2020
3020 Mist 21 1012 94 1800 1 0 05:52 13.02.2020
3021 Mist 21 1014 94 1000 2.1 290 04:48 13.02.2020
3022 Fog 21 1014 94 700 2.1 280 04:23 13.02.2020
3023 Fog 20 1014 94 500 2.1 280 03:41 13.02.2020
3024 Fog 20 1014 100 200 2.6 290 02:58 13.02.2020
3025 Fog 20 1014 100 650 1.5 250 02:20 13.02.2020
3026 Fog 20 1013 94 1100 1.5 250 01:41 13.02.2020
3027 Mist 20 1013 94 1300 0.5 0 00:57 13.02.2020
3028 Mist 20 1013 94 2400 0.5 310 00:27 13.02.2020
3029 Mist 20 1012 94 2900 1 0 23:43 12.02.2020
3030 Mist 20 1012 94 2900 1 0 23:23 12.02.2020
3031 Mist 20 1012 94 2800 0.5 0 22:57 12.02.2020
3032 Mist 20 1012 94 3000 3.28 143 22:39 12.02.2020
3033 Mist 20 1012 94 3000 3.28 143 22:21 12.02.2020
3034 Mist 20 1013 94 2600 0.5 0 21:55 12.02.2020
3035 Mist 20 1012 94 3000 1 0 21:36 12.02.2020
3036 Mist 20 1012 94 3000 1 0 21:18 12.02.2020
3037 Mist 20 1013 94 2600 1 270 20:42 12.02.2020
3038 Mist 20 1013 94 2600 1.5 290 20:24 12.02.2020
3039 Mist 20 1013 94 2400 2.1 290 19:57 12.02.2020
3040 Drizzle 20 1014 94 2600 4.1 260 19:38 12.02.2020
3041 Drizzle 20 1014 94 2600 4.1 260 19:19 12.02.2020
3042 Mist 21 1014 94 3700 2.6 140 18:47 12.02.2020
3043 Mist 21 1014 94 3700 2.6 140 18:19 12.02.2020
3044 Mist 21 1014 94 4700 3.1 130 17:56 12.02.2020
3045 Rain 21 1014 94 4000 2.6 100 17:37 12.02.2020
3046 Rain 21 1014 94 4000 2.6 100 17:37 12.02.2020
3047 Rain 21 1014 94 4000 2.6 100 17:19 12.02.2020
3048 Mist 21 1014 94 3200 2.6 120 16:40 12.02.2020
3049 Mist 21 1014 94 3200 2.6 120 16:20 12.02.2020
3050 Rain 21 1014 94 3600 4.1 110 15:57 12.02.2020
3051 Rain 21 1014 94 4300 3.1 110 15:36 12.02.2020
3052 Rain 21 1014 94 4300 3.1 110 15:18 12.02.2020
3053 Mist 22 1014 88 5000 2.6 90 14:42 12.02.2020
3054 Mist 22 1014 88 5000 2.6 90 14:21 12.02.2020
3055 Drizzle 22 1013 88 4600 2.6 70 13:57 12.02.2020
3056 Mist 22 1013 88 4600 2.1 50 13:39 12.02.2020
3057 Mist 22 1013 88 4600 2.1 50 13:20 12.02.2020
3058 Mist 22 1013 88 4600 2.1 50 13:20 12.02.2020
3059 Mist 22 1012 88 4600 2.1 60 12:57 12.02.2020
3060 Mist 22 1012 83 3100 1.5 60 12:38 12.02.2020
3061 Mist 22 1012 83 3100 1.5 60 12:18 12.02.2020
3062 Mist 22 1012 83 3000 2.6 90 11:57 12.02.2020
3063 Mist 22 1012 83 3200 2.1 80 11:38 12.02.2020
3064 Mist 22 1012 83 3200 2.1 80 11:20 12.02.2020
3065 Mist 23 1012 78 3000 2.6 80 10:55 12.02.2020
3066 Mist 23 1012 83 2300 3.6 80 10:36 12.02.2020
3067 Mist 23 1012 83 2300 3.6 80 10:18 12.02.2020
3068 Mist 23 1013 78 4400 2.1 110 09:41 12.02.2020
3069 Mist 23 1013 78 4400 2.1 110 09:22 12.02.2020
3070 Mist 23 1013 73 4600 2.1 120 08:57 12.02.2020
3071 Mist 23 1013 73 4400 2.1 140 08:37 12.02.2020
3072 Mist 23 1013 73 4400 2.1 140 08:19 12.02.2020
3073 Mist 22 1014 78 4100 2.1 140 07:44 12.02.2020
3074 Mist 22 1015 78 4300 2.6 0 07:23 12.02.2020
3075 Mist 22 1016 78 4400 2.6 170 06:53 12.02.2020
3076 Mist 22 1016 83 3400 1.5 200 06:23 12.02.2020
3077 Mist 20 1017 94 1900 3.1 280 05:37 12.02.2020
3078 Fog 19 1018 93 800 2.6 290 04:57 12.02.2020
3079 Fog 19 1018 93 550 2.6 270 04:39 12.02.2020
3080 Fog 19 1018 93 800 2.6 280 03:33 12.02.2020
3081 Mist 19 1018 93 1200 2.1 260 02:58 12.02.2020
3082 Mist 18 1017 100 1300 1.5 280 02:28 12.02.2020
3083 Mist 18 1017 93 1300 2.1 290 01:50 12.02.2020
3084 Drizzle 18 1016 93 2200 1.5 220 00:45 12.02.2020
3085 Drizzle 18 1016 93 2000 0.5 0 00:26 12.02.2020
3086 Drizzle 18 1016 93 1600 2.1 300 23:55 11.02.2020
3087 Drizzle 18 1016 93 1700 1.5 290 23:37 11.02.2020
3088 Drizzle 18 1016 93 1700 1.5 290 23:18 11.02.2020
3089 Drizzle 18 1016 93 1700 1 0 22:55 11.02.2020
3090 Drizzle 18 1016 93 1800 1 290 22:36 11.02.2020
3091 Drizzle 18 1016 93 2000 1 0 22:18 11.02.2020
3092 Drizzle 18 1016 93 2000 1 0 21:55 11.02.2020
3093 Drizzle 18 1016 93 2100 1.5 280 21:36 11.02.2020
3094 Drizzle 18 1016 93 2100 1.5 280 21:18 11.02.2020
3095 Drizzle 18 1016 93 2100 1.5 280 21:18 11.02.2020
3096 Mist 18 1017 93 4100 1 0 20:39 11.02.2020
3097 Mist 18 1017 93 4100 1 0 20:39 11.02.2020
3098 Mist 18 1017 93 4100 1 0 20:20 11.02.2020
3099 Mist 19 1017 88 4500 1 0 19:59 11.02.2020
3100 Rain 19 1017 88 3900 2.96 136 19:41 11.02.2020
3101 Rain 19 1017 88 3900 2.96 136 19:23 11.02.2020
3102 Mist 19 1017 88 5000 1 310 18:55 11.02.2020
3103 Mist 19 1018 88 5000 1 0 18:37 11.02.2020
3104 Mist 19 1018 88 5000 1 0 18:18 11.02.2020
3105 Mist 19 1018 88 5000 1 0 17:40 11.02.2020
3106 Mist 19 1018 88 5000 1 0 17:21 11.02.2020
3107 Mist 19 1018 88 4800 1 0 16:59 11.02.2020
3108 Mist 19 1018 88 4400 0.5 0 16:40 11.02.2020
3109 Mist 19 1018 88 4400 0.5 0 16:22 11.02.2020
3110 Mist 20 1018 82 4500 3.07 131 15:59 11.02.2020
3111 Mist 20 1017 88 4700 1 0 15:41 11.02.2020
3112 Mist 20 1017 88 4700 1 0 15:21 11.02.2020
3113 Mist 20 1017 88 5000 1.5 50 14:43 11.02.2020
3114 Mist 20 1017 82 4800 1.5 50 14:43 11.02.2020
3115 Mist 20 1017 82 4800 1.5 50 14:19 11.02.2020
3116 Mist 20 1016 82 4800 2.1 60 13:58 11.02.2020
3117 Mist 20 1016 82 4800 2.1 60 13:58 11.02.2020
3118 Mist 20 1016 82 4700 2.1 50 13:39 11.02.2020
3119 Mist 20 1016 82 4700 2.1 50 13:20 11.02.2020
3120 Mist 20 1016 82 4700 2.1 50 13:20 11.02.2020
3121 Mist 20 1016 82 4700 2.1 60 12:55 11.02.2020
3122 Mist 20 1015 82 3200 2.1 40 12:36 11.02.2020
3123 Mist 20 1015 82 3200 2.1 40 12:18 11.02.2020
3124 Mist 21 1015 77 3700 3.6 60 11:41 11.02.2020
3125 Mist 21 1015 77 3700 3.6 60 11:20 11.02.2020
3126 Mist 22 1015 78 5000 3.6 70 10:55 11.02.2020
3127 Mist 22 1015 73 4500 4.6 70 10:36 11.02.2020
3128 Mist 22 1015 73 4500 4.6 70 10:18 11.02.2020
3129 Mist 21 1016 77 3400 4.1 60 09:44 11.02.2020
3130 Mist 21 1016 77 3400 4.1 60 09:22 11.02.2020
3131 Mist 22 1016 73 3800 4.1 60 08:56 11.02.2020
3132 Clouds 22 1016 73 6000 3.6 90 08:38 11.02.2020
3133 Clouds 22 1016 73 6000 3.6 90 08:19 11.02.2020
3134 Clouds 22 1017 68 8000 2.1 150 07:45 11.02.2020
3135 Clouds 22 1017 68 6000 2.6 130 07:24 11.02.2020
3136 Mist 20 1019 77 3800 2.6 140 06:42 11.02.2020
3137 Mist 20 1019 77 3800 2.6 140 06:20 11.02.2020
3138 Mist 20 1019 77 3400 1.5 100 05:47 11.02.2020
3139 Mist 19 1020 82 3600 2.1 150 05:21 11.02.2020
3140 Mist 18 1021 82 3400 2.1 140 04:35 11.02.2020
3141 Mist 17 1020 88 2100 1.5 120 02:40 11.02.2020
3142 Mist 17 1020 88 2100 1.5 120 02:22 11.02.2020
3143 Mist 17 1019 88 2200 1.5 140 01:32 11.02.2020
3144 Mist 16 1019 93 2700 1 0 00:28 11.02.2020
3145 Mist 16 1018 93 3100 1.5 50 23:50 10.02.2020
3146 Mist 16 1018 93 3400 1 0 23:30 10.02.2020
3147 Mist 16 1018 93 2800 1 80 22:58 10.02.2020
3148 Mist 16 1018 93 2600 1 50 22:37 10.02.2020
3149 Mist 16 1018 93 2600 1 50 22:37 10.02.2020
3150 Mist 16 1018 93 2600 1 50 22:19 10.02.2020
3151 Mist 16 1019 93 3300 0.5 290 21:41 10.02.2020
3152 Mist 16 1019 93 3300 0.5 290 21:23 10.02.2020
3153 Rain 16 1019 93 3100 0.5 0 20:56 10.02.2020
3154 Mist 16 1019 93 3500 1.5 240 20:38 10.02.2020
3155 Mist 16 1019 93 3500 1.5 240 20:38 10.02.2020
3156 Mist 16 1019 93 3500 1.5 240 20:19 10.02.2020
3157 Mist 17 1020 88 3600 1 0 19:58 10.02.2020
3158 Mist 16 1020 93 3700 1 0 19:37 10.02.2020
3159 Mist 16 1020 93 3700 1 0 19:18 10.02.2020
3160 Mist 17 1020 88 3800 1.5 190 18:58 10.02.2020
3161 Mist 17 1020 88 4000 1.5 210 18:39 10.02.2020
3162 Mist 17 1020 88 4000 1.5 210 18:20 10.02.2020
3163 Mist 17 1020 88 4000 1.5 210 18:20 10.02.2020
3164 Mist 17 1021 88 4200 2.1 190 17:55 10.02.2020
3165 Mist 17 1021 88 4200 1.5 220 17:37 10.02.2020
3166 Mist 17 1021 88 4200 1.5 220 17:18 10.02.2020
3167 Mist 17 1021 88 4300 1.5 160 16:56 10.02.2020
3168 Mist 17 1021 88 4300 1.5 160 16:56 10.02.2020
3169 Mist 17 1021 82 4800 2.1 170 16:37 10.02.2020
3170 Mist 17 1021 82 4800 2.1 170 16:18 10.02.2020
3171 Mist 17 1021 82 5000 2.1 180 15:41 10.02.2020
3172 Mist 17 1021 82 5000 2.1 180 15:22 10.02.2020
3173 Mist 17 1021 82 5000 1.5 180 14:58 10.02.2020
3174 Mist 17 1020 82 5000 2.1 170 14:40 10.02.2020
3175 Mist 17 1020 82 5000 2.1 170 14:19 10.02.2020
3176 Mist 17 1020 82 5000 2.1 170 14:19 10.02.2020
3177 Clouds 17 1020 82 6000 1 0 13:55 10.02.2020
3178 Clouds 17 1020 82 6000 3.1 140 13:37 10.02.2020
3179 Clouds 17 1020 82 6000 3.1 140 13:18 10.02.2020
3180 Clouds 18 1019 72 7000 3.6 130 12:43 10.02.2020
3181 Mist 18 1019 72 5000 3.1 110 12:24 10.02.2020
3182 Clouds 18 1019 72 6000 2.1 120 11:54 10.02.2020
3183 Clouds 18 1019 72 6000 2.1 120 11:54 10.02.2020
3184 Mist 18 1019 72 5000 2.1 100 11:36 10.02.2020
3185 Mist 18 1019 72 5000 2.1 100 11:18 10.02.2020
3186 Clouds 18 1019 72 6000 2.6 120 10:42 10.02.2020
3187 Clouds 18 1019 72 6000 2.6 120 10:23 10.02.2020
3188 Clouds 18 1019 72 7000 2.1 80 09:44 10.02.2020
3189 Clouds 18 1019 68 7000 1.5 70 09:23 10.02.2020
3190 Clouds 18 1020 68 8000 2.1 110 08:41 10.02.2020
3191 Clouds 18 1020 68 8000 2.1 110 08:22 10.02.2020
3192 Clouds 19 1020 63 8000 2.1 70 07:55 10.02.2020
3193 Clouds 18 1021 68 9000 2.1 120 07:35 10.02.2020
3194 Clouds 18 1022 68 10000 1.5 60 06:53 10.02.2020
3195 Clouds 17 1023 72 10000 3.1 50 05:40 10.02.2020
3196 Clouds 16 1024 72 10000 4.1 40 03:59 10.02.2020
3197 Clouds 16 1024 72 10000 2.6 80 03:23 10.02.2020
3198 Clouds 15 1023 77 10000 2.6 60 02:51 10.02.2020
3199 Clouds 14 1023 82 10000 2.6 90 01:25 10.02.2020
3200 Clouds 14 1022 82 10000 2.1 70 00:45 10.02.2020
3201 Clouds 14 1022 82 10000 2.1 50 00:27 10.02.2020
3202 Clouds 14 1022 82 10000 2.6 40 23:42 09.02.2020
3203 Clouds 14 1022 82 10000 2.6 40 23:24 09.02.2020
3204 Clouds 14 1022 82 10000 2.1 20 22:45 09.02.2020
3205 Clouds 14 1022 82 10000 1.5 30 22:23 09.02.2020
3206 Clouds 14 1023 82 10000 1.5 40 21:59 09.02.2020
3207 Clouds 15 1023 77 10000 2.1 10 21:40 09.02.2020
3208 Clouds 15 1023 77 10000 2.1 10 21:21 09.02.2020
3209 Clouds 15 1023 77 10000 2.1 360 20:45 09.02.2020
3210 Clouds 15 1023 77 10000 2.1 350 20:22 09.02.2020
3211 Clouds 15 1024 77 10000 1.5 350 19:55 09.02.2020
3212 Clouds 15 1024 72 10000 2.1 50 19:37 09.02.2020
3213 Clouds 15 1024 72 10000 2.1 50 19:18 09.02.2020
3214 Clouds 15 1024 77 10000 1.5 50 18:42 09.02.2020
3215 Clouds 15 1024 77 10000 1.5 50 18:23 09.02.2020
3216 Clouds 15 1024 77 10000 1.5 50 18:23 09.02.2020
3217 Clouds 15 1025 77 10000 2.1 30 17:56 09.02.2020
3218 Clouds 15 1025 77 10000 2.1 40 17:38 09.02.2020
3219 Clouds 15 1025 77 10000 2.1 40 17:19 09.02.2020
3220 Clouds 15 1025 77 10000 2.1 80 16:41 09.02.2020
3221 Clouds 15 1025 77 10000 2.1 80 16:22 09.02.2020
3222 Clouds 15 1025 77 10000 2.1 70 15:58 09.02.2020
3223 Clouds 15 1025 77 10000 2.1 40 15:40 09.02.2020
3224 Clouds 15 1025 77 10000 2.1 40 15:21 09.02.2020
3225 Clouds 15 1025 82 10000 1.5 60 14:56 09.02.2020
3226 Clouds 15 1025 82 10000 1.5 60 14:37 09.02.2020
3227 Clouds 15 1025 82 10000 1.5 60 14:18 09.02.2020
3228 Clouds 16 1025 72 10000 1 0 13:42 09.02.2020
3229 Clouds 16 1025 72 10000 1 0 13:23 09.02.2020
3230 Clouds 16 1024 72 10000 1.5 20 12:54 09.02.2020
3231 Clouds 16 1024 77 10000 1.5 20 12:36 09.02.2020
3232 Clouds 16 1024 77 10000 1.5 20 12:18 09.02.2020
3233 Clouds 16 1024 72 10000 2.1 20 11:39 09.02.2020
3234 Clouds 16 1024 72 10000 2.1 20 11:19 09.02.2020
3235 Clouds 16 1024 72 10000 2.6 40 10:43 09.02.2020
3236 Clouds 16 1024 72 10000 2.6 50 10:23 09.02.2020
3237 Clouds 16 1024 72 10000 3.6 40 09:57 09.02.2020
3238 Clouds 16 1024 72 10000 4.1 40 09:38 09.02.2020
3239 Clouds 16 1024 72 10000 4.1 40 09:19 09.02.2020
3240 Clouds 16 1025 72 10000 4.6 30 08:40 09.02.2020
3241 Clouds 16 1025 72 10000 4.6 30 08:22 09.02.2020
3242 Clouds 15 1025 77 10000 5.7 40 07:51 09.02.2020
3243 Clouds 15 1026 77 10000 4.6 30 07:26 09.02.2020
3244 Clouds 15 1027 82 10000 5.1 40 06:37 09.02.2020
3245 Clouds 14 1028 87 10000 5.1 40 05:55 09.02.2020
3246 Rain 14 1028 87 10000 4.6 40 05:32 09.02.2020
3247 Rain 14 1028 87 10000 5.1 40 04:43 09.02.2020
3248 Drizzle 14 1027 87 10000 4.6 40 02:50 09.02.2020
3249 Clouds 14 1027 87 10000 4.1 30 02:32 09.02.2020
3250 Clouds 14 1026 87 10000 4.1 30 01:38 09.02.2020
3251 Rain 14 1026 87 8000 4.1 40 00:56 09.02.2020
3252 Clouds 14 1025 87 10000 4.1 30 00:29 09.02.2020
3253 Clouds 14 1025 87 10000 3.6 30 23:50 08.02.2020
3254 Clouds 14 1024 93 10000 4.1 40 23:25 08.02.2020
3255 Clouds 14 1024 93 10000 3.6 40 22:58 08.02.2020
3256 Clouds 14 1024 93 10000 4.1 30 22:39 08.02.2020
3257 Clouds 14 1024 93 10000 4.1 30 22:20 08.02.2020
3258 Rain 15 1025 87 8000 4.1 30 21:45 08.02.2020
3259 Rain 15 1025 82 10000 4.6 20 21:26 08.02.2020
3260 Rain 15 1025 87 10000 3.6 30 20:59 08.02.2020
3261 Clouds 16 1024 77 10000 4.6 30 20:40 08.02.2020
3262 Clouds 16 1024 77 10000 4.6 30 20:19 08.02.2020
3263 Clouds 16 1025 77 10000 4.1 30 19:56 08.02.2020
3264 Clouds 16 1025 77 10000 4.1 30 19:56 08.02.2020
3265 Clouds 16 1025 77 10000 2.6 20 19:38 08.02.2020
3266 Clouds 16 1025 77 10000 2.6 20 19:19 08.02.2020
3267 Clouds 16 1025 77 10000 3.1 10 18:44 08.02.2020
3268 Clouds 16 1025 77 10000 3.6 20 18:25 08.02.2020
3269 Clouds 16 1025 82 10000 4.1 30 17:59 08.02.2020
3270 Clouds 17 1025 77 10000 3.6 40 17:40 08.02.2020
3271 Clouds 17 1025 77 10000 3.6 40 17:18 08.02.2020
3272 Clouds 17 1025 72 10000 4.1 40 16:40 08.02.2020
3273 Clouds 17 1025 72 10000 4.1 40 16:22 08.02.2020
3274 Clouds 17 1024 77 10000 4.1 50 15:57 08.02.2020
3275 Clouds 17 1024 72 10000 5.1 60 15:39 08.02.2020
3276 Clouds 17 1024 72 10000 5.1 60 15:18 08.02.2020
3277 Clouds 17 1023 77 10000 4.6 50 14:43 08.02.2020
3278 Clouds 17 1023 77 10000 4.6 50 14:19 08.02.2020
3279 Clouds 17 1023 77 10000 5.1 50 13:55 08.02.2020
3280 Clouds 18 1023 72 10000 5.1 60 13:37 08.02.2020
3281 Clouds 18 1023 72 10000 5.1 60 13:18 08.02.2020
3282 Clouds 17 1022 82 10000 3.6 50 12:39 08.02.2020
3283 Clouds 17 1022 82 10000 3.6 50 12:20 08.02.2020
3284 Clouds 18 1022 77 10000 3.6 50 11:47 08.02.2020
3285 Clouds 18 1021 77 10000 4.6 50 11:22 08.02.2020
3286 Clouds 18 1021 77 10000 4.6 40 10:59 08.02.2020
3287 Clouds 18 1021 77 10000 4.6 40 10:59 08.02.2020
3288 Clouds 18 1021 77 10000 4.6 50 10:40 08.02.2020
3289 Clouds 18 1021 77 10000 4.6 50 10:20 08.02.2020
3290 Clouds 18 1021 77 10000 5.7 30 09:50 08.02.2020
3291 Clouds 18 1021 77 10000 4.6 40 09:26 08.02.2020
3292 Clouds 18 1021 77 10000 5.1 40 08:47 08.02.2020
3293 Clouds 18 1021 82 10000 6.2 30 08:27 08.02.2020
3294 Clouds 18 1022 82 10000 6.2 40 07:53 08.02.2020
3295 Clouds 18 1022 82 10000 5.1 40 07:34 08.02.2020
3296 Clouds 18 1022 88 10000 5.1 30 06:55 08.02.2020
3297 Clouds 17 1023 93 10000 4.1 40 06:22 08.02.2020
3298 Clouds 17 1023 93 10000 4.1 40 05:34 08.02.2020
3299 Rain 17 1023 93 8000 4.1 40 04:55 08.02.2020
3300 Rain 17 1023 93 6000 3.6 50 04:24 08.02.2020
3301 Rain 17 1023 100 2000 3.6 50 03:37 08.02.2020
3302 Rain 17 1022 100 2500 3.6 70 02:29 08.02.2020
3303 Drizzle 17 1021 100 3200 3.6 60 01:33 08.02.2020
3304 Drizzle 17 1020 100 4800 3.1 70 00:47 08.02.2020
3305 Drizzle 17 1020 100 4400 2.6 40 00:25 08.02.2020
3306 Drizzle 18 1020 93 3600 3.1 50 23:58 07.02.2020
3307 Clouds 18 1019 93 6000 2.6 60 23:39 07.02.2020
3308 Clouds 18 1019 93 6000 2.6 60 23:20 07.02.2020
3309 Rain 18 1019 93 6000 3.1 70 22:42 07.02.2020
3310 Rain 18 1019 93 6000 3.1 70 22:42 07.02.2020
3311 Rain 18 1019 93 6000 3.1 70 22:20 07.02.2020
3312 Rain 18 1019 93 6000 3.1 50 21:58 07.02.2020
3313 Rain 18 1019 93 8000 3.6 60 21:40 07.02.2020
3314 Rain 18 1019 93 8000 3.6 60 21:19 07.02.2020
3315 Clouds 18 1020 88 10000 3.1 40 20:39 07.02.2020
3316 Clouds 18 1020 88 10000 3.1 40 20:19 07.02.2020
3317 Clouds 18 1020 88 10000 3.1 70 19:55 07.02.2020
3318 Clouds 19 1020 82 10000 3.1 70 19:36 07.02.2020
3319 Clouds 19 1020 82 10000 3.1 70 19:18 07.02.2020
3320 Clouds 19 1020 82 10000 3.1 60 18:43 07.02.2020
3321 Clouds 19 1020 82 10000 3.6 70 18:25 07.02.2020
3322 Clouds 19 1020 82 10000 3.1 60 17:55 07.02.2020
3323 Clouds 19 1020 88 10000 4.1 50 17:37 07.02.2020
3324 Clouds 19 1020 88 10000 4.1 50 17:18 07.02.2020
3325 Clouds 19 1020 88 10000 4.6 40 16:42 07.02.2020
3326 Clouds 19 1020 88 10000 4.6 40 16:23 07.02.2020
3327 Rain 19 1020 88 10000 3.1 50 15:53 07.02.2020
3328 Clouds 19 1020 88 10000 3.1 60 15:28 07.02.2020
3329 Clouds 19 1020 93 10000 2.6 70 14:55 07.02.2020
3330 Clouds 19 1019 93 8000 2.6 70 14:37 07.02.2020
3331 Clouds 19 1019 93 8000 2.6 70 14:19 07.02.2020
3332 Clouds 19 1019 93 6000 2.6 60 13:56 07.02.2020
3333 Mist 20 1018 94 2400 2.1 50 13:37 07.02.2020
3334 Mist 20 1018 94 2400 2.1 50 13:18 07.02.2020
3335 Rain 20 1018 88 3200 1 0 12:41 07.02.2020
3336 Rain 20 1018 88 3200 1 0 12:22 07.02.2020
3337 Mist 20 1018 88 2900 1.5 130 11:45 07.02.2020
3338 Rain 20 1017 88 2800 1 0 11:22 07.02.2020
3339 Mist 20 1017 88 2500 1 0 10:57 07.02.2020
3340 Mist 20 1017 88 2500 1 0 10:38 07.02.2020
3341 Mist 20 1017 88 2500 1 0 10:19 07.02.2020
3342 Mist 20 1017 88 2500 1 0 10:19 07.02.2020
3343 Mist 20 1017 88 2200 1.5 220 09:41 07.02.2020
3344 Mist 20 1017 88 2200 1.5 220 09:22 07.02.2020
3345 Mist 20 1017 88 1800 1.5 300 08:45 07.02.2020
3346 Mist 20 1018 88 1900 1.5 310 08:21 07.02.2020
3347 Mist 20 1018 88 1900 1.5 310 08:21 07.02.2020
3348 Mist 19 1018 93 1900 1.5 310 07:53 07.02.2020
3349 Mist 19 1018 93 1900 1.5 310 07:32 07.02.2020
3350 Mist 19 1019 93 2000 2.1 310 06:57 07.02.2020
3351 Mist 19 1019 93 2300 2.1 310 06:38 07.02.2020
3352 Mist 19 1019 93 2300 2.1 310 06:18 07.02.2020
3353 Mist 19 1020 88 2800 2.1 270 05:37 07.02.2020
3354 Mist 18 1020 93 3500 1.5 270 03:43 07.02.2020
3355 Drizzle 18 1019 93 1900 2.1 290 01:53 07.02.2020
3356 Drizzle 18 1018 93 3000 2.1 300 00:59 07.02.2020
3357 Drizzle 17 1018 100 2200 2.1 290 00:26 07.02.2020
3358 Drizzle 17 1017 100 2800 1.5 290 23:38 06.02.2020
3359 Drizzle 17 1017 100 2800 1.5 290 23:19 06.02.2020
3360 Drizzle 17 1017 100 2800 1.5 290 22:47 06.02.2020
3361 Drizzle 18 1016 93 2800 1.5 310 22:26 06.02.2020
3362 Drizzle 18 1016 93 2500 1.5 310 21:57 06.02.2020
3363 Drizzle 18 1017 93 2900 2.1 300 21:36 06.02.2020
3364 Drizzle 18 1017 93 2900 2.1 300 21:18 06.02.2020
3365 Drizzle 18 1017 93 3800 2.1 290 20:54 06.02.2020
3366 Mist 18 1017 88 5000 2.1 290 20:36 06.02.2020
3367 Mist 18 1017 88 5000 2.1 290 20:18 06.02.2020
3368 Mist 18 1017 93 5000 2.1 290 19:55 06.02.2020
3369 Mist 18 1017 93 5000 1 320 19:36 06.02.2020
3370 Mist 18 1017 93 5000 1 320 19:18 06.02.2020
3371 Clouds 18 1017 88 7000 1.5 300 18:40 06.02.2020
3372 Clouds 18 1017 88 7000 1.5 300 18:22 06.02.2020
3373 Clouds 18 1017 88 7000 1.5 300 18:22 06.02.2020
3374 Clouds 18 1017 88 7000 1.5 290 17:55 06.02.2020
3375 Clouds 18 1017 88 7000 1 300 17:37 06.02.2020
3376 Clouds 18 1017 88 7000 1 300 17:18 06.02.2020
3377 Clouds 17 1017 93 7000 1.5 290 16:41 06.02.2020
3378 Clouds 17 1017 93 7000 1.5 290 16:23 06.02.2020
3379 Clouds 17 1017 93 8000 2.1 290 15:43 06.02.2020
3380 Clouds 18 1017 88 8000 2.1 280 15:22 06.02.2020
3381 Clouds 18 1016 88 8000 1 270 14:51 06.02.2020
3382 Clouds 18 1016 88 8000 1 270 14:51 06.02.2020
3383 Clouds 18 1016 88 9000 1 0 14:29 06.02.2020
3384 Clouds 18 1016 88 9000 1 0 13:59 06.02.2020
3385 Clouds 18 1015 88 9000 1.5 280 13:41 06.02.2020
3386 Clouds 18 1015 88 9000 1.5 280 13:20 06.02.2020
3387 Clouds 18 1014 88 8000 1 0 12:44 06.02.2020
3388 Clouds 18 1014 88 8000 1 0 12:19 06.02.2020
3389 Clouds 18 1014 88 8000 1 0 12:19 06.02.2020
3390 Clouds 19 1014 82 7000 1.5 290 11:57 06.02.2020
3391 Clouds 19 1014 82 7000 1.5 290 11:39 06.02.2020
3392 Clouds 19 1014 82 7000 1.5 290 11:19 06.02.2020
3393 Clouds 19 1014 82 7000 2.1 260 10:56 06.02.2020
3394 Clouds 19 1014 82 7000 2.6 260 10:38 06.02.2020
3395 Clouds 19 1014 82 7000 2.6 260 10:19 06.02.2020
3396 Clouds 19 1014 82 7000 2.6 260 10:19 06.02.2020
3397 Clouds 19 1014 82 6000 2.1 270 09:56 06.02.2020
3398 Mist 20 1014 77 5000 2.1 280 09:36 06.02.2020
3399 Mist 20 1014 77 5000 2.1 280 09:18 06.02.2020
3400 Mist 19 1015 82 3600 2.1 290 08:41 06.02.2020
3401 Mist 19 1015 82 3600 2.1 290 08:20 06.02.2020
3402 Mist 19 1015 82 3700 2.1 310 07:46 06.02.2020
3403 Mist 18 1016 88 3200 2.1 300 07:25 06.02.2020
3404 Mist 17 1017 93 1900 2.6 290 06:21 06.02.2020
3405 Mist 17 1017 93 1900 2.6 290 06:21 06.02.2020
3406 Mist 17 1017 93 1900 2.6 290 06:21 06.02.2020
3407 Mist 17 1017 93 1900 2.6 290 06:21 06.02.2020
3408 Mist 17 1017 93 1600 2.6 280 05:54 06.02.2020
3409 Mist 16 1018 100 1800 1.5 280 04:22 06.02.2020
3410 Mist 16 1018 100 1100 2.6 280 03:19 06.02.2020
3411 Drizzle 16 1018 93 1500 1 0 02:28 06.02.2020
3412 Fog 15 1017 100 900 0.78 352 01:26 06.02.2020
3413 Fog 15 1016 93 900 1.5 90 00:57 06.02.2020
3414 Mist 15 1016 93 1200 1 0 00:25 06.02.2020
3415 Mist 15 1015 93 1300 2.1 70 23:44 05.02.2020
3416 Mist 15 1015 93 1300 2.1 70 23:25 05.02.2020
3417 Mist 15 1015 93 2400 2.1 60 22:57 05.02.2020
3418 Drizzle 15 1016 93 2700 1.5 60 22:39 05.02.2020
3419 Drizzle 15 1016 93 2700 1.5 60 22:20 05.02.2020
3420 Drizzle 15 1016 93 2600 1 0 21:41 05.02.2020
3421 Drizzle 15 1016 93 2600 1 0 21:23 05.02.2020
3422 Rain 15 1016 93 3800 2.1 80 20:57 05.02.2020
3423 Mist 15 1016 93 4700 1.5 50 20:38 05.02.2020
3424 Mist 15 1016 93 4700 1.5 50 20:18 05.02.2020
3425 Mist 15 1017 93 5000 1.5 50 19:55 05.02.2020
3426 Mist 15 1017 93 5000 2.1 80 19:37 05.02.2020
3427 Mist 15 1017 93 5000 2.1 80 19:18 05.02.2020
3428 Mist 15 1017 93 5000 1.5 40 18:43 05.02.2020
3429 Mist 15 1017 93 5000 1.5 40 18:21 05.02.2020
3430 Rain 15 1017 93 4000 2.1 90 17:58 05.02.2020
3431 Clouds 15 1017 93 8000 2.1 60 17:37 05.02.2020
3432 Clouds 15 1017 93 8000 2.1 50 17:18 05.02.2020
3433 Rain 15 1017 93 7000 2.6 70 16:43 05.02.2020
3434 Rain 15 1017 93 7000 2.6 70 16:25 05.02.2020
3435 Drizzle 15 1017 87 4300 2.1 70 15:59 05.02.2020
3436 Clouds 15 1017 87 10000 1.5 60 15:39 05.02.2020
3437 Clouds 15 1017 87 9000 2.6 80 15:18 05.02.2020
3438 Clouds 15 1017 87 10000 2.6 80 14:43 05.02.2020
3439 Clouds 15 1017 87 10000 2.6 80 14:24 05.02.2020
3440 Clouds 14 1016 93 10000 2.6 70 13:58 05.02.2020
3441 Clouds 14 1016 93 10000 2.6 80 13:38 05.02.2020
3442 Clouds 14 1016 93 10000 2.6 80 13:19 05.02.2020
3443 Clouds 14 1016 93 8000 3.1 80 12:42 05.02.2020
3444 Clouds 14 1016 93 8000 3.1 80 12:22 05.02.2020
3445 Clouds 15 1016 93 7000 3.1 70 11:54 05.02.2020
3446 Drizzle 14 1016 93 6000 2.6 80 11:36 05.02.2020
3447 Drizzle 15 1016 93 4800 2.6 70 11:18 05.02.2020
3448 Rain 15 1016 93 3200 1.5 30 10:42 05.02.2020
3449 Rain 15 1016 93 3200 1.5 30 10:23 05.02.2020
3450 Rain 15 1016 93 3200 1.5 30 10:23 05.02.2020
3451 Clouds 14 1016 93 8000 1.5 360 09:44 05.02.2020
3452 Clouds 14 1016 93 6000 1.5 360 09:23 05.02.2020
3453 Clouds 14 1016 93 8000 1.5 50 08:59 05.02.2020
3454 Clouds 14 1017 93 8000 1.5 10 08:41 05.02.2020
3455 Clouds 14 1017 93 8000 1.5 10 08:22 05.02.2020
3456 Rain 14 1017 93 10000 1.5 20 07:44 05.02.2020
3457 Rain 14 1018 93 10000 1 0 07:26 05.02.2020
3458 Rain 14 1019 93 10000 2.6 10 06:42 05.02.2020
3459 Rain 14 1019 93 10000 2.6 10 06:22 05.02.2020
3460 Clouds 14 1020 93 10000 2.1 10 05:48 05.02.2020
3461 Rain 14 1021 93 3000 2.6 360 05:18 05.02.2020
3462 Rain 14 1021 93 10000 2.6 30 04:41 05.02.2020
3463 Rain 14 1021 93 6000 2.1 30 03:18 05.02.2020
3464 Clouds 14 1020 93 10000 2.6 40 02:23 05.02.2020
3465 Rain 14 1019 93 10000 2.1 10 01:35 05.02.2020
3466 Clouds 14 1019 93 7000 1.5 350 00:25 05.02.2020
3467 Clouds 14 1019 87 8000 2.1 10 23:42 04.02.2020
3468 Clouds 14 1019 87 8000 2.1 10 23:23 04.02.2020
3469 Clouds 14 1018 93 10000 1.5 20 22:58 04.02.2020
3470 Clouds 14 1018 93 10000 2.6 20 22:40 04.02.2020
3471 Clouds 14 1018 93 10000 2.6 20 22:21 04.02.2020
3472 Rain 14 1019 93 9000 1.5 30 21:57 04.02.2020
3473 Rain 14 1019 93 5000 2.6 10 21:38 04.02.2020
3474 Rain 14 1019 93 5000 2.6 10 21:19 04.02.2020
3475 Drizzle 14 1019 93 4200 1.5 20 20:55 04.02.2020
3476 Clouds 14 1019 93 7000 2.6 30 20:37 04.02.2020
3477 Clouds 14 1019 93 7000 2.6 30 20:18 04.02.2020
3478 Clouds 14 1019 93 9000 2.6 40 19:43 04.02.2020
3479 Clouds 14 1020 93 10000 3.6 30 19:25 04.02.2020
3480 Clouds 14 1020 93 10000 3.1 30 18:59 04.02.2020
3481 Clouds 14 1020 93 7000 3.1 40 18:40 04.02.2020
3482 Clouds 14 1020 93 7000 3.1 40 18:21 04.02.2020
3483 Clouds 14 1020 93 8000 2.6 20 17:56 04.02.2020
3484 Clouds 14 1020 93 8000 3.1 20 17:38 04.02.2020
3485 Clouds 14 1020 93 10000 3.1 30 17:19 04.02.2020
3486 Clouds 14 1020 87 10000 3.1 20 16:39 04.02.2020
3487 Clouds 14 1020 87 10000 3.1 20 16:20 04.02.2020
3488 Clouds 14 1020 87 10000 3.1 30 15:57 04.02.2020
3489 Clouds 14 1020 87 10000 2.1 30 15:39 04.02.2020
3490 Clouds 14 1020 87 10000 2.1 30 15:20 04.02.2020
3491 Clouds 14 1020 93 10000 2.1 20 14:45 04.02.2020
3492 Clouds 14 1020 87 10000 2.1 30 14:26 04.02.2020
3493 Clouds 14 1019 87 10000 2.1 20 13:59 04.02.2020
3494 Clouds 14 1019 87 10000 2.1 30 13:40 04.02.2020
3495 Clouds 14 1019 87 10000 2.1 30 13:22 04.02.2020
3496 Clouds 14 1018 87 10000 3.1 40 12:55 04.02.2020
3497 Clouds 14 1018 87 10000 2.1 10 12:37 04.02.2020
3498 Clouds 14 1018 87 10000 2.1 10 12:18 04.02.2020
3499 Clouds 14 1018 87 10000 2.1 20 11:54 04.02.2020
3500 Clouds 14 1018 87 10000 2.1 20 11:54 04.02.2020
3501 Clouds 14 1018 87 10000 3.1 30 11:36 04.02.2020
3502 Clouds 14 1018 87 10000 3.1 30 11:18 04.02.2020
3503 Clouds 14 1018 93 10000 3.6 10 10:42 04.02.2020
3504 Clouds 14 1018 93 10000 3.6 10 10:22 04.02.2020
3505 Drizzle 14 1018 93 3300 3.1 360 09:42 04.02.2020
3506 Drizzle 14 1018 93 3300 3.1 360 09:24 04.02.2020
3507 Clouds 14 1018 93 9000 3.6 10 08:59 04.02.2020
3508 Clouds 14 1018 93 10000 3.6 40 08:41 04.02.2020
3509 Clouds 14 1018 93 10000 3.6 40 08:22 04.02.2020
3510 Drizzle 14 1019 93 7000 3.1 10 07:46 04.02.2020
3511 Drizzle 14 1019 87 4500 3.1 10 07:23 04.02.2020
3512 Drizzle 14 1020 87 5000 4.1 10 06:44 04.02.2020
3513 Clouds 14 1020 87 10000 4.6 20 06:21 04.02.2020
3514 Clouds 14 1021 87 10000 4.1 30 05:29 04.02.2020
3515 Clouds 14 1021 87 10000 4.6 40 03:53 04.02.2020
3516 Clouds 14 1021 87 10000 3.6 30 03:34 04.02.2020
3517 Clouds 14 1021 87 10000 3.6 40 02:56 04.02.2020
3518 Clouds 14 1020 87 10000 3.1 40 02:32 04.02.2020
3519 Rain 14 1020 87 6000 3.1 40 01:54 04.02.2020
3520 Clouds 14 1020 87 10000 3.1 30 01:35 04.02.2020
3521 Clouds 14 1019 87 10000 3.1 20 00:45 04.02.2020
3522 Rain 14 1019 87 10000 4.1 30 00:21 04.02.2020
3523 Rain 13 1018 93 7000 3.1 20 23:40 03.02.2020
3524 Rain 13 1018 93 7000 3.1 20 23:20 03.02.2020
3525 Clouds 14 1018 87 10000 5.1 20 22:39 03.02.2020
3526 Clouds 14 1018 87 10000 5.1 20 22:39 03.02.2020
3527 Clouds 14 1018 87 10000 5.1 20 22:20 03.02.2020
3528 Rain 14 1018 93 10000 4.6 30 21:55 03.02.2020
3529 Rain 14 1018 93 10000 5.1 10 21:37 03.02.2020
3530 Rain 14 1018 93 10000 5.1 10 21:18 03.02.2020
3531 Rain 14 1018 93 7000 4.1 40 20:41 03.02.2020
3532 Rain 14 1018 93 7000 4.1 40 20:19 03.02.2020
3533 Clouds 14 1018 93 10000 3.6 30 19:56 03.02.2020
3534 Clouds 14 1018 93 10000 4.6 40 19:38 03.02.2020
3535 Clouds 14 1018 93 10000 4.6 40 19:19 03.02.2020
3536 Clouds 14 1018 93 10000 4.6 40 19:19 03.02.2020
3537 Clouds 15 1019 82 10000 4.6 30 18:43 03.02.2020
3538 Clouds 15 1019 82 10000 4.6 30 18:24 03.02.2020
3539 Clouds 15 1019 82 10000 4.6 40 17:59 03.02.2020
3540 Clouds 15 1018 87 10000 5.7 30 17:39 03.02.2020
3541 Clouds 15 1018 87 10000 5.7 30 17:20 03.02.2020
3542 Clouds 15 1019 87 10000 5.7 30 16:54 03.02.2020
3543 Clouds 15 1019 87 10000 7.2 30 16:36 03.02.2020
3544 Clouds 15 1018 87 10000 6.7 40 16:18 03.02.2020
3545 Clouds 15 1018 87 10000 6.7 40 15:54 03.02.2020
3546 Clouds 15 1018 87 10000 6.2 40 15:36 03.02.2020
3547 Clouds 15 1018 87 10000 6.2 40 15:18 03.02.2020
3548 Clouds 16 1018 87 10000 6.7 40 14:39 03.02.2020
3549 Clouds 16 1018 87 10000 6.7 40 14:21 03.02.2020
3550 Rain 16 1018 87 10000 6.2 40 13:54 03.02.2020
3551 Rain 16 1017 87 10000 7.7 50 13:36 03.02.2020
3552 Rain 16 1017 87 10000 7.7 50 13:18 03.02.2020
3553 Rain 16 1016 93 10000 6.7 50 12:40 03.02.2020
3554 Rain 16 1016 93 10000 6.7 50 12:21 03.02.2020
3555 Clouds 17 1016 88 10000 6.7 50 11:56 03.02.2020
3556 Clouds 17 1016 88 10000 6.7 50 11:37 03.02.2020
3557 Clouds 17 1016 88 10000 6.7 50 11:18 03.02.2020
3558 Rain 17 1015 88 7000 7.2 60 10:41 03.02.2020
3559 Rain 17 1015 88 7000 7.2 60 10:22 03.02.2020
3560 Clouds 18 1015 88 10000 7.2 50 09:48 03.02.2020
3561 Mist 20 1015 94 2600 3.6 70 09:24 03.02.2020
3562 Mist 20 1015 94 2400 2.1 70 08:56 03.02.2020
3563 Mist 20 1015 94 2400 2.1 70 08:56 03.02.2020
3564 Mist 20 1015 88 2600 1 0 08:37 03.02.2020
3565 Mist 20 1015 88 2600 1 0 08:19 03.02.2020
3566 Mist 19 1016 93 2000 1 0 07:40 03.02.2020
3567 Mist 19 1016 93 2000 1 0 07:21 03.02.2020
3568 Mist 19 1017 93 1300 1.5 310 06:51 03.02.2020
3569 Mist 18 1017 93 1000 1.5 300 06:28 03.02.2020
3570 Rain 18 1018 93 1000 1.5 260 05:37 03.02.2020
3571 Rain 18 1018 93 1000 1.5 260 05:18 03.02.2020
3572 Rain 18 1018 93 1100 1.5 290 03:42 03.02.2020
3573 Rain 18 1018 93 1000 1.5 320 02:35 03.02.2020
3574 Mist 18 1018 93 1400 0.5 0 01:42 03.02.2020
3575 Mist 18 1017 93 2500 3.15 137 00:47 03.02.2020
3576 Mist 18 1017 93 2500 3.15 137 00:24 03.02.2020
3577 Rain 17 1016 100 1900 1 330 23:39 02.02.2020
3578 Rain 17 1016 100 1900 1 330 23:21 02.02.2020
3579 Rain 17 1016 100 2000 1.5 290 22:57 02.02.2020
3580 Rain 17 1016 100 2000 1.5 290 22:38 02.02.2020
3581 Rain 17 1016 100 2000 1.5 290 22:19 02.02.2020
3582 Mist 17 1017 100 2100 2.1 300 21:55 02.02.2020
3583 Rain 17 1017 93 2400 2.1 290 21:37 02.02.2020
3584 Rain 17 1017 93 2400 2.1 290 21:18 02.02.2020
3585 Mist 18 1017 93 2800 2.1 300 20:55 02.02.2020
3586 Rain 18 1017 93 2200 2.1 290 20:36 02.02.2020
3587 Rain 18 1017 93 2200 2.1 290 20:18 02.02.2020
3588 Mist 19 1018 88 2700 1 0 19:55 02.02.2020
3589 Mist 18 1018 93 2700 1 0 19:36 02.02.2020
3590 Mist 18 1018 93 2700 1 0 19:18 02.02.2020
3591 Mist 18 1018 93 2700 0.5 0 18:39 02.02.2020
3592 Mist 18 1018 93 2700 0.5 0 18:20 02.02.2020
3593 Mist 18 1018 93 2700 2.85 113 17:58 02.02.2020
3594 Mist 18 1019 93 2800 1 0 17:38 02.02.2020
3595 Mist 18 1019 93 2800 1 0 17:19 02.02.2020
3596 Mist 19 1019 88 3200 0.5 0 16:58 02.02.2020
3597 Mist 19 1019 88 3200 0.5 0 16:58 02.02.2020
3598 Mist 19 1019 88 2800 1 0 16:39 02.02.2020
3599 Mist 19 1019 88 2800 1 0 16:39 02.02.2020
3600 Mist 19 1019 88 2800 1 0 16:19 02.02.2020
3601 Mist 19 1018 88 3100 1 0 15:57 02.02.2020
3602 Mist 19 1018 88 3100 1 0 15:38 02.02.2020
3603 Mist 19 1018 88 3100 1 0 15:19 02.02.2020
3604 Mist 18 1018 93 2900 1 0 14:45 02.02.2020
3605 Mist 19 1018 88 3200 1 0 14:45 02.02.2020
3606 Mist 18 1018 93 2900 1 0 14:20 02.02.2020
3607 Mist 18 1017 88 2900 1.5 40 14:00 02.02.2020
3608 Mist 18 1017 88 3000 1.5 60 13:41 02.02.2020
3609 Mist 18 1017 88 3000 1.5 60 13:23 02.02.2020
3610 Mist 18 1017 88 3000 1.5 60 13:23 02.02.2020
3611 Mist 19 1017 82 3300 2.1 50 12:58 02.02.2020
3612 Mist 19 1017 82 2500 2.1 50 12:40 02.02.2020
3613 Mist 19 1017 82 2500 2.1 50 12:22 02.02.2020
3614 Mist 19 1017 82 2200 2.1 60 11:54 02.02.2020
3615 Mist 19 1017 82 2200 2.1 60 11:54 02.02.2020
3616 Mist 19 1017 82 2400 2.1 50 11:36 02.02.2020
3617 Mist 19 1017 82 2400 2.1 50 11:18 02.02.2020
3618 Mist 20 1016 77 2400 2.6 90 10:54 02.02.2020
3619 Mist 19 1016 82 2500 2.6 80 10:36 02.02.2020
3620 Mist 19 1016 82 2500 2.6 80 10:18 02.02.2020
3621 Mist 20 1016 77 2300 1 0 09:40 02.02.2020
3622 Mist 20 1016 77 2300 1 0 09:21 02.02.2020
3623 Mist 19 1017 77 2200 1 0 08:50 02.02.2020
3624 Mist 19 1018 77 2400 1 0 08:31 02.02.2020
3625 Mist 18 1018 82 2100 0.5 0 07:49 02.02.2020
3626 Mist 18 1018 82 2100 0.5 0 07:49 02.02.2020
3627 Mist 18 1019 82 2000 1 0 07:31 02.02.2020
3628 Mist 18 1019 82 1800 1 0 06:57 02.02.2020
3629 Mist 18 1020 82 1800 1 0 06:38 02.02.2020
3630 Mist 18 1020 82 1800 1 0 06:18 02.02.2020
3631 Mist 18 1020 82 1800 1 0 05:20 02.02.2020
3632 Mist 18 1021 82 1900 1.5 330 04:21 02.02.2020
3633 Mist 17 1021 88 1900 1 0 03:23 02.02.2020
3634 Mist 16 1020 87 2000 1.5 310 02:20 02.02.2020
3635 Mist 16 1020 93 2200 2.07 141 01:50 02.02.2020
3636 Mist 16 1019 93 2600 1.5 300 00:51 02.02.2020
3637 Mist 16 1019 93 2800 1 0 00:25 02.02.2020
3638 Drizzle 16 1018 93 2200 1 310 23:57 01.02.2020
3639 Drizzle 16 1018 93 2000 1.5 280 23:38 01.02.2020
3640 Drizzle 16 1018 93 2000 1.5 280 23:19 01.02.2020
3641 Mist 16 1018 93 1700 0.5 0 22:43 01.02.2020
3642 Mist 16 1018 93 1700 0.5 0 22:18 01.02.2020
3643 Mist 16 1018 93 2200 0.5 0 21:41 01.02.2020
3644 Mist 16 1018 93 2200 0.5 0 21:19 01.02.2020
3645 Mist 16 1018 93 2200 0.5 0 21:19 01.02.2020
3646 Mist 16 1018 93 2800 0.5 0 20:55 01.02.2020
3647 Mist 16 1019 87 2800 0.5 0 20:36 01.02.2020
3648 Mist 16 1019 87 2800 0.5 0 20:18 01.02.2020
3649 Mist 16 1019 87 2800 1.5 320 19:54 01.02.2020
3650 Mist 16 1019 87 3400 1 320 19:36 01.02.2020
3651 Mist 16 1019 87 3400 1 320 19:18 01.02.2020
3652 Mist 16 1019 87 4000 1 300 18:55 01.02.2020
3653 Mist 16 1019 87 4300 1 300 18:36 01.02.2020
3654 Mist 16 1019 87 4300 1 300 18:18 01.02.2020
3655 Mist 16 1019 87 4500 1 0 17:44 01.02.2020
3656 Mist 16 1019 87 4800 1.5 330 17:20 01.02.2020
3657 Mist 16 1019 87 4900 0.5 0 16:58 01.02.2020
3658 Mist 16 1019 87 4900 1 0 16:38 01.02.2020
3659 Mist 16 1019 87 4900 1 0 16:20 01.02.2020
3660 Mist 16 1019 82 4700 1 0 15:43 01.02.2020
3661 Mist 16 1019 82 4700 1.5 50 15:25 01.02.2020
3662 Mist 16 1019 82 4600 1.5 70 14:58 01.02.2020
3663 Mist 16 1019 82 4800 1.5 40 14:39 01.02.2020
3664 Mist 16 1019 82 4800 1.5 40 14:20 01.02.2020
3665 Mist 16 1018 82 4200 2.1 40 13:43 01.02.2020
3666 Mist 16 1018 82 4200 2.1 40 13:21 01.02.2020
3667 Mist 16 1018 82 4200 2.1 50 12:44 01.02.2020
3668 Mist 16 1018 82 3300 2.1 50 12:25 01.02.2020
3669 Mist 16 1018 82 2600 2.6 40 11:56 01.02.2020
3670 Mist 16 1017 82 2800 2.6 40 11:37 01.02.2020
3671 Mist 16 1017 82 2800 2.6 40 11:18 01.02.2020
3672 Mist 16 1017 82 3000 2.6 50 10:55 01.02.2020
3673 Mist 16 1017 82 2800 2.6 50 10:37 01.02.2020
3674 Mist 16 1017 82 2800 2.6 50 10:18 01.02.2020
3675 Mist 16 1017 82 3400 1.5 60 09:41 01.02.2020
3676 Mist 16 1017 82 3400 1.5 60 09:22 01.02.2020
3677 Mist 16 1017 82 3000 2.1 80 08:58 01.02.2020
3678 Mist 15 1018 87 2500 1 0 08:27 01.02.2020
3679 Mist 15 1019 87 3700 1 0 07:46 01.02.2020
3680 Mist 15 1019 87 3700 1 0 07:24 01.02.2020
3681 Mist 16 1019 82 4900 1 0 06:49 01.02.2020
3682 Mist 15 1020 82 4500 1.5 360 05:54 01.02.2020
3683 Rain 16 1021 82 2500 2.1 320 04:58 01.02.2020
3684 Mist 17 1021 72 5000 1 0 03:26 01.02.2020
3685 Mist 16 1020 82 4400 1 0 02:59 01.02.2020
3686 Mist 16 1020 77 5000 1 0 02:40 01.02.2020
3687 Mist 16 1020 77 5000 0.5 0 02:20 01.02.2020
3688 Mist 16 1020 77 5000 0.5 0 01:46 01.02.2020
3689 Clouds 16 1019 77 7000 1 0 01:27 01.02.2020
3690 Clouds 16 1019 77 7000 1 10 00:24 01.02.2020
3691 Clouds 16 1019 77 7000 1 360 23:41 31.01.2020
3692 Clouds 16 1019 77 7000 1 360 23:19 31.01.2020
3693 Clouds 16 1018 77 7000 1.5 40 22:57 31.01.2020
3694 Clouds 16 1018 77 7000 2.1 70 22:38 31.01.2020
3695 Clouds 16 1018 77 7000 2.1 70 22:20 31.01.2020
3696 Clouds 16 1018 87 7000 1.5 40 21:55 31.01.2020
3697 Clouds 16 1019 82 8000 0.5 0 21:37 31.01.2020
3698 Clouds 16 1019 82 8000 0.5 0 21:18 31.01.2020
3699 Clouds 16 1019 82 8000 1 0 20:54 31.01.2020
3700 Clouds 16 1019 82 8000 1 0 20:54 31.01.2020
3701 Clouds 16 1019 77 9000 0.5 0 20:36 31.01.2020
3702 Clouds 16 1019 77 9000 0.5 0 20:36 31.01.2020
3703 Clouds 16 1019 82 8000 0.5 0 20:18 31.01.2020
3704 Clouds 15 1019 87 8000 1 0 19:41 31.01.2020
3705 Clouds 15 1019 87 8000 1 0 19:22 31.01.2020
3706 Clouds 16 1020 82 10000 1 0 18:58 31.01.2020
3707 Clouds 17 1020 72 10000 0.5 0 18:38 31.01.2020
3708 Clouds 17 1020 72 10000 0.5 0 18:19 31.01.2020
3709 Clouds 17 1020 72 10000 1.5 160 17:43 31.01.2020
3710 Clouds 17 1020 72 10000 0.5 0 17:25 31.01.2020
3711 Clouds 17 1020 72 10000 2.1 180 16:57 31.01.2020
3712 Clouds 17 1020 72 10000 1.5 150 16:38 31.01.2020
3713 Clouds 17 1020 72 10000 1.5 150 16:19 31.01.2020
3714 Clouds 18 1020 68 10000 2.6 160 15:57 31.01.2020
3715 Clouds 18 1020 68 10000 2.6 160 15:57 31.01.2020
3716 Clouds 18 1020 68 10000 2.1 150 15:38 31.01.2020
3717 Clouds 18 1020 68 10000 2.1 150 15:19 31.01.2020
3718 Clouds 19 1020 63 10000 2.6 160 14:42 31.01.2020
3719 Clouds 19 1020 63 10000 2.6 160 14:23 31.01.2020
3720 Clouds 19 1019 59 10000 2.6 170 13:53 31.01.2020
3721 Clouds 19 1019 59 10000 3.1 160 13:33 31.01.2020
3722 Clouds 19 1019 59 10000 2.6 150 12:56 31.01.2020
3723 Clouds 19 1019 59 10000 2.6 150 12:56 31.01.2020
3724 Clouds 19 1018 55 10000 2.6 160 12:38 31.01.2020
3725 Clouds 19 1018 55 10000 2.6 160 12:20 31.01.2020
3726 Clouds 20 1018 52 10000 2.6 170 11:42 31.01.2020
3727 Clouds 20 1018 52 10000 2.6 170 11:23 31.01.2020
3728 Clouds 20 1018 49 10000 2.6 160 10:58 31.01.2020
3729 Clouds 20 1018 49 10000 2.6 160 10:58 31.01.2020
3730 Clouds 20 1018 49 10000 2.6 130 10:39 31.01.2020
3731 Clouds 20 1018 49 10000 2.6 130 10:20 31.01.2020
3732 Clouds 20 1018 49 10000 3.1 130 09:55 31.01.2020
3733 Clouds 20 1018 49 10000 3.1 130 09:37 31.01.2020
3734 Clouds 20 1018 49 10000 3.1 130 09:37 31.01.2020
3735 Clouds 20 1018 49 10000 3.1 130 09:18 31.01.2020
3736 Clouds 20 1018 45 10000 4.1 110 08:42 31.01.2020
3737 Clouds 20 1018 45 10000 4.1 110 08:23 31.01.2020
3738 Clouds 20 1019 45 10000 2.1 120 07:52 31.01.2020
3739 Clouds 20 1020 49 10000 2.1 0 07:20 31.01.2020
3740 Clouds 19 1021 48 10000 3.1 80 06:38 31.01.2020
3741 Clouds 19 1022 52 10000 2.6 80 05:58 31.01.2020
3742 Clouds 19 1022 45 9000 2.1 0 05:33 31.01.2020
3743 Clear 16 1023 59 8000 2.6 60 04:41 31.01.2020
3744 Clear 14 1022 67 6000 2.1 60 02:55 31.01.2020
3745 Clear 13 1021 76 6000 2.1 50 01:32 31.01.2020
3746 Clear 12 1020 87 6000 1.5 50 00:42 31.01.2020
3747 Clear 12 1020 87 6000 1.5 50 00:23 31.01.2020
3748 Clear 12 1020 87 6000 1.5 80 23:44 30.01.2020
3749 Clear 13 1020 82 6000 2.6 70 23:23 30.01.2020
3750 Clear 12 1020 87 6000 1.5 50 22:40 30.01.2020
3751 Clear 12 1020 87 6000 1.5 50 22:21 30.01.2020
3752 Clear 13 1020 76 7000 2.1 60 21:59 30.01.2020
3753 Clear 13 1020 76 7000 1.5 70 21:41 30.01.2020
3754 Clear 13 1020 76 7000 1.5 70 21:19 30.01.2020
3755 Clear 12 1020 81 6000 1.5 40 20:59 30.01.2020
3756 Clear 13 1020 76 7000 1 0 20:38 30.01.2020
3757 Clear 13 1020 76 7000 1 0 20:20 30.01.2020
3758 Clear 13 1021 76 7000 2.1 110 19:44 30.01.2020
3759 Clear 13 1021 76 7000 2.1 110 19:19 30.01.2020
3760 Clear 13 1021 76 8000 2.1 90 18:59 30.01.2020
3761 Clear 14 1021 67 8000 2.6 120 18:38 30.01.2020
3762 Clear 14 1021 67 8000 2.6 120 18:19 30.01.2020
3763 Clear 14 1021 67 8000 3.1 130 17:54 30.01.2020
3764 Clear 14 1021 67 8000 2.1 130 17:36 30.01.2020
3765 Clear 14 1021 67 8000 2.1 130 17:18 30.01.2020
3766 Clear 13 1021 82 9000 0.5 0 16:40 30.01.2020
3767 Clear 13 1021 82 9000 0.5 0 16:21 30.01.2020
3768 Clear 14 1021 71 9000 0.5 0 15:45 30.01.2020
3769 Clear 14 1021 71 9000 0.5 0 15:45 30.01.2020
3770 Clear 14 1021 71 10000 1.5 330 15:22 30.01.2020
3771 Clear 14 1021 71 10000 1.5 330 15:22 30.01.2020
3772 Clear 14 1021 71 9000 1 320 14:58 30.01.2020
3773 Clear 14 1020 82 7000 2.1 330 14:40 30.01.2020
3774 Clear 14 1020 82 7000 2.1 330 14:22 30.01.2020
3775 Clear 18 1020 36 10000 1.5 160 13:42 30.01.2020
3776 Clear 18 1020 36 10000 1.5 160 13:24 30.01.2020
3777 Clear 18 1020 36 10000 2.1 140 12:57 30.01.2020
3778 Clear 17 1019 42 10000 2.1 110 12:38 30.01.2020
3779 Clear 17 1019 42 10000 2.1 110 12:19 30.01.2020
3780 Clear 20 1019 30 10000 1.5 60 11:41 30.01.2020
3781 Clear 20 1019 30 10000 1.5 60 11:41 30.01.2020
3782 Clear 20 1019 30 10000 1.5 60 11:22 30.01.2020
3783 Clear 20 1019 28 10000 1.5 90 10:59 30.01.2020
3784 Clear 20 1019 30 10000 1 0 10:40 30.01.2020
3785 Clear 20 1019 30 10000 1 0 10:20 30.01.2020
3786 Clear 20 1019 30 10000 1.5 90 09:45 30.01.2020
3787 Clear 20 1019 30 10000 1 0 09:25 30.01.2020
3788 Clear 20 1020 34 10000 1.5 0 08:43 30.01.2020
3789 Clear 20 1020 32 10000 2.6 90 08:22 30.01.2020
3790 Clear 20 1021 34 10000 2.6 80 07:58 30.01.2020
3791 Clear 20 1022 34 10000 2.6 30 07:39 30.01.2020
3792 Clear 20 1022 34 10000 2.6 30 07:18 30.01.2020
3793 Clear 19 1023 37 10000 2.6 70 06:43 30.01.2020
3794 Clear 19 1023 37 10000 2.6 70 06:25 30.01.2020
3795 Clear 18 1024 39 10000 3.6 40 05:29 30.01.2020
3796 Clouds 18 1025 39 10000 4.6 30 04:50 30.01.2020
3797 Clouds 17 1025 55 10000 2.1 10 03:47 30.01.2020
3798 Clouds 15 1025 72 10000 3.69 14 02:56 30.01.2020
3799 Clouds 11 1023 93 6000 1.5 340 01:23 30.01.2020
3800 Clouds 11 1023 93 7000 1.5 330 00:30 30.01.2020
3801 Clouds 11 1022 93 6000 1.5 340 23:56 29.01.2020
3802 Mist 10 1022 93 4800 2.1 310 23:38 29.01.2020
3803 Mist 10 1022 93 4800 2.1 310 23:20 29.01.2020
3804 Clouds 11 1022 93 7000 2.1 300 22:55 29.01.2020
3805 Clouds 12 1022 87 6000 2.1 320 22:37 29.01.2020
3806 Clouds 12 1022 87 6000 2.1 320 22:18 29.01.2020
3807 Clouds 12 1022 87 7000 1.5 280 21:54 29.01.2020
3808 Clouds 12 1022 87 7000 1 310 21:36 29.01.2020
3809 Clouds 12 1022 87 7000 1 310 21:36 29.01.2020
3810 Clouds 12 1022 87 7000 1 310 21:18 29.01.2020
3811 Clouds 12 1022 87 7000 1 310 21:18 29.01.2020
3812 Clouds 13 1022 87 8000 1 320 20:40 29.01.2020
3813 Clouds 13 1022 87 8000 1 320 20:21 29.01.2020
3814 Clouds 13 1022 87 8000 1 320 20:21 29.01.2020
3815 Clouds 13 1022 82 9000 1 320 19:58 29.01.2020
3816 Clouds 13 1023 87 7000 0.5 310 19:38 29.01.2020
3817 Clouds 13 1023 87 7000 0.5 310 19:38 29.01.2020
3818 Clouds 13 1023 87 7000 0.5 310 19:20 29.01.2020
3819 Clouds 13 1023 87 6000 1.5 300 18:56 29.01.2020
3820 Clouds 13 1023 87 6000 1 320 18:37 29.01.2020
3821 Clouds 13 1023 87 6000 1 320 18:18 29.01.2020
3822 Clouds 14 1023 82 6000 1.5 330 17:40 29.01.2020
3823 Clouds 14 1023 82 6000 1.5 330 17:22 29.01.2020
3824 Clouds 14 1023 82 6000 1.5 330 17:22 29.01.2020
3825 Clouds 14 1023 82 6000 1.5 330 17:22 29.01.2020
3826 Clouds 14 1023 82 6000 1.5 330 17:22 29.01.2020
3827 Clouds 14 1023 76 7000 2.1 310 16:42 29.01.2020
3828 Clouds 14 1023 76 7000 2.1 310 16:23 29.01.2020
3829 Clouds 14 1023 76 8000 2.6 300 15:56 29.01.2020
3830 Clouds 14 1023 76 8000 2.6 300 15:56 29.01.2020
3831 Clouds 14 1023 76 8000 2.6 300 15:37 29.01.2020
3832 Clouds 14 1023 76 8000 2.6 300 15:19 29.01.2020
3833 Clouds 14 1023 76 9000 2.6 300 14:43 29.01.2020
3834 Clouds 14 1022 76 8000 1.5 320 14:21 29.01.2020
3835 Clouds 14 1022 76 8000 1.5 320 14:21 29.01.2020
3836 Clouds 15 1022 67 10000 1.5 320 13:55 29.01.2020
3837 Clouds 15 1022 67 10000 1.5 330 13:37 29.01.2020
3838 Clouds 15 1022 67 10000 1.5 330 13:19 29.01.2020
3839 Clouds 15 1021 62 10000 1 360 12:55 29.01.2020
3840 Clouds 15 1021 58 10000 1 0 12:37 29.01.2020
3841 Clouds 15 1021 58 10000 1 0 12:18 29.01.2020
3842 Clouds 15 1021 58 10000 1.5 20 11:45 29.01.2020
3843 Clouds 15 1021 54 10000 1.5 330 11:21 29.01.2020
3844 Clouds 18 1021 47 0 4.04 19 10:47 29.01.2020
3845 Clouds 16 1020 51 10000 3.6 360 10:26 29.01.2020
3846 Clouds 16 1020 51 10000 3.6 360 10:26 29.01.2020
3847 Clouds 16 1020 51 10000 3.6 360 09:58 29.01.2020
3848 Clouds 16 1020 51 10000 3.6 360 09:40 29.01.2020
3849 Clouds 16 1020 51 10000 3.6 360 09:20 29.01.2020
3850 Clouds 16 1021 55 10000 3.6 10 08:56 29.01.2020
3851 Clouds 16 1021 51 10000 3.1 360 08:37 29.01.2020
3852 Clouds 16 1021 51 10000 3.1 360 08:18 29.01.2020
3853 Clouds 16 1022 51 10000 3.6 360 07:43 29.01.2020
3854 Clouds 16 1022 48 10000 4.6 10 07:21 29.01.2020
3855 Clouds 16 1023 51 10000 3.1 10 06:38 29.01.2020
3856 Clouds 16 1023 51 10000 3.1 10 06:19 29.01.2020
3857 Clouds 16 1024 51 10000 4.1 30 05:52 29.01.2020
3858 Clouds 15 1024 54 10000 4.1 10 05:33 29.01.2020
3859 Clouds 15 1025 58 10000 3.6 40 04:39 29.01.2020
3860 Clouds 14 1025 58 10000 3.6 30 03:59 29.01.2020
3861 Clouds 14 1023 62 10000 3.1 30 02:38 29.01.2020
3862 Clouds 14 1023 62 10000 2.1 20 01:18 29.01.2020
3863 Clouds 14 1023 62 10000 2.1 20 01:18 29.01.2020
3864 Clouds 14 1022 62 10000 2.1 340 00:39 29.01.2020
3865 Clouds 14 1022 62 10000 2.1 340 00:20 29.01.2020
3866 Clouds 14 1021 62 10000 3.1 10 23:40 28.01.2020
3867 Rain 14 1021 62 10000 3.1 10 23:19 28.01.2020
3868 Rain 14 1021 62 10000 2.1 360 22:49 28.01.2020
3869 Rain 14 1021 62 10000 2.6 10 22:27 28.01.2020
3870 Rain 14 1021 62 10000 2.6 10 21:57 28.01.2020
3871 Rain 14 1021 67 10000 2.1 360 21:38 28.01.2020
3872 Rain 14 1021 67 10000 2.1 360 21:19 28.01.2020
3873 Rain 14 1021 67 10000 2.1 350 20:46 28.01.2020
3874 Rain 14 1021 67 10000 2.1 20 20:26 28.01.2020
3875 Clouds 14 1021 67 10000 2.1 10 19:55 28.01.2020
3876 Clouds 14 1021 67 10000 2.1 360 19:37 28.01.2020
3877 Clouds 14 1021 67 10000 2.1 360 19:19 28.01.2020
3878 Clouds 14 1022 71 10000 2.6 350 18:42 28.01.2020
3879 Clouds 14 1022 71 10000 2.6 350 18:23 28.01.2020
3880 Clouds 14 1021 71 10000 2.1 360 17:59 28.01.2020
3881 Clouds 14 1022 71 10000 1.5 360 17:40 28.01.2020
3882 Clouds 14 1022 71 10000 1.5 360 17:21 28.01.2020
3883 Clouds 15 1022 67 10000 1.5 30 16:59 28.01.2020
3884 Clouds 15 1022 67 10000 1.5 30 16:59 28.01.2020
3885 Rain 15 1021 62 10000 1.5 30 16:40 28.01.2020
3886 Rain 15 1021 62 10000 1.5 30 16:22 28.01.2020
3887 Rain 15 1021 62 10000 2.6 10 15:48 28.01.2020
3888 Rain 15 1021 62 10000 2.1 360 15:19 28.01.2020
3889 Rain 15 1020 62 10000 1.5 10 14:59 28.01.2020
3890 Rain 15 1020 62 10000 2.1 360 14:41 28.01.2020
3891 Clouds 15 1020 62 10000 2.1 360 14:18 28.01.2020
3892 Clouds 15 1019 62 10000 1.5 10 13:41 28.01.2020
3893 Clouds 15 1019 62 10000 1.5 10 13:23 28.01.2020
3894 Clouds 15 1019 62 10000 2.1 350 12:44 28.01.2020
3895 Clouds 15 1018 62 10000 2.1 350 12:24 28.01.2020
3896 Clouds 15 1018 62 10000 2.1 360 11:58 28.01.2020
3897 Clouds 15 1017 58 10000 2.6 40 11:39 28.01.2020
3898 Clouds 15 1017 58 10000 2.6 40 11:20 28.01.2020
3899 Clouds 16 1017 59 10000 2.6 10 10:42 28.01.2020
3900 Clouds 16 1017 59 10000 2.6 10 10:24 28.01.2020
3901 Clouds 16 1017 55 10000 2.6 10 09:58 28.01.2020
3902 Clouds 16 1017 55 10000 3.1 10 09:38 28.01.2020
3903 Clouds 16 1017 55 10000 3.1 10 09:19 28.01.2020
3904 Clouds 16 1017 55 10000 3.1 20 08:43 28.01.2020
3905 Clouds 16 1017 55 10000 4.1 20 08:21 28.01.2020
3906 Clouds 16 1018 55 10000 4.1 60 07:39 28.01.2020
3907 Clouds 16 1019 55 10000 4.1 30 06:52 28.01.2020
3908 Clouds 16 1019 51 10000 4.1 40 06:29 28.01.2020
3909 Clouds 16 1019 51 10000 4.1 40 06:29 28.01.2020
3910 Clouds 15 1020 54 10000 4.6 40 05:56 28.01.2020
3911 Clouds 15 1020 54 10000 4.6 50 05:34 28.01.2020
3912 Clouds 15 1021 58 10000 4.1 40 04:39 28.01.2020
3913 Clouds 14 1020 58 10000 3.6 40 03:36 28.01.2020
3914 Clouds 14 1019 58 10000 3.6 40 02:32 28.01.2020
3915 Clouds 14 1019 62 10000 3.6 40 01:58 28.01.2020
3916 Clouds 14 1018 62 10000 4.1 40 01:40 28.01.2020
3917 Clouds 14 1018 62 10000 3.6 40 00:51 28.01.2020
3918 Clouds 14 1018 62 10000 4.1 40 00:30 28.01.2020
3919 Clouds 14 1018 62 10000 4.1 40 23:53 27.01.2020
3920 Clouds 14 1017 67 10000 3.6 40 23:30 27.01.2020
3921 Clouds 14 1017 67 10000 4.1 40 22:59 27.01.2020
3922 Clouds 14 1017 67 10000 3.1 50 22:41 27.01.2020
3923 Clouds 14 1017 67 10000 3.1 50 22:20 27.01.2020
3924 Clouds 14 1017 67 10000 3.1 60 21:56 27.01.2020
3925 Clouds 14 1017 62 10000 3.1 50 21:37 27.01.2020
3926 Clouds 14 1017 62 10000 3.1 50 21:18 27.01.2020
3927 Clouds 14 1017 62 10000 3.6 30 20:54 27.01.2020
3928 Clouds 14 1017 62 10000 3.1 30 20:36 27.01.2020
3929 Clouds 14 1017 62 10000 3.1 30 20:18 27.01.2020
3930 Clouds 14 1018 67 10000 3.1 50 19:41 27.01.2020
3931 Clouds 14 1018 67 10000 3.1 50 19:22 27.01.2020
3932 Clouds 14 1018 67 10000 2.6 50 18:56 27.01.2020
3933 Clouds 15 1018 62 10000 3.1 40 18:38 27.01.2020
3934 Clouds 15 1018 62 10000 3.1 40 18:19 27.01.2020
3935 Clouds 15 1018 67 10000 2.1 360 17:39 27.01.2020
3936 Clouds 15 1018 67 10000 2.1 360 17:21 27.01.2020
3937 Clouds 15 1018 67 10000 2.1 360 16:59 27.01.2020
3938 Clouds 15 1018 67 10000 1.5 10 16:40 27.01.2020
3939 Clouds 15 1018 67 10000 1.5 10 16:22 27.01.2020
3940 Clouds 15 1018 62 10000 2.6 360 15:55 27.01.2020
3941 Clouds 15 1017 62 10000 3.1 10 15:36 27.01.2020
3942 Clouds 15 1017 62 10000 3.1 10 15:18 27.01.2020
3943 Clouds 15 1016 67 10000 1.5 360 14:41 27.01.2020
3944 Clouds 15 1016 67 10000 1.5 360 14:22 27.01.2020
3945 Clouds 15 1016 62 10000 2.1 20 13:55 27.01.2020
3946 Clouds 15 1016 62 10000 1.5 40 13:37 27.01.2020
3947 Clouds 15 1016 62 10000 1.5 40 13:18 27.01.2020
3948 Clouds 15 1015 62 10000 1.5 50 12:43 27.01.2020
3949 Clouds 15 1015 62 10000 2.1 40 12:23 27.01.2020
3950 Clouds 15 1015 58 10000 2.6 70 11:55 27.01.2020
3951 Clouds 16 1015 55 10000 3.1 50 11:36 27.01.2020
3952 Clouds 16 1015 55 10000 3.1 50 11:18 27.01.2020
3953 Clouds 16 1014 51 10000 3.6 50 10:42 27.01.2020
3954 Clouds 16 1014 51 10000 3.6 50 10:23 27.01.2020
3955 Clouds 16 1015 51 10000 3.6 30 09:40 27.01.2020
3956 Clouds 16 1015 51 10000 3.6 30 09:19 27.01.2020
3957 Clouds 16 1015 51 10000 3.6 40 08:58 27.01.2020
3958 Clouds 16 1016 51 10000 3.6 50 08:40 27.01.2020
3959 Clouds 16 1016 51 10000 3.6 50 08:19 27.01.2020
3960 Clouds 16 1016 51 10000 2.6 30 07:50 27.01.2020
3961 Clouds 16 1016 51 10000 4.1 40 07:32 27.01.2020
3962 Clouds 16 1018 51 10000 4.1 10 06:39 27.01.2020
3963 Clouds 15 1018 54 10000 4.6 20 05:51 27.01.2020
3964 Clouds 15 1019 54 10000 4.1 20 05:18 27.01.2020
3965 Clouds 14 1019 54 10000 4.1 40 03:35 27.01.2020
3966 Clouds 13 1018 62 10000 3.6 50 01:56 27.01.2020
3967 Clouds 13 1018 66 10000 4.1 50 01:27 27.01.2020
3968 Clouds 13 1017 66 10000 4.1 70 00:42 27.01.2020
3969 Clouds 13 1017 66 10000 4.1 70 00:22 27.01.2020
3970 Clouds 13 1017 66 10000 3.1 80 23:44 26.01.2020
3971 Clouds 13 1016 66 10000 4.1 70 23:26 26.01.2020
3972 Clouds 13 1016 71 10000 3.1 60 22:59 26.01.2020
3973 Clouds 13 1016 76 10000 2.6 50 22:39 26.01.2020
3974 Clouds 13 1016 76 10000 2.6 50 22:20 26.01.2020
3975 Clouds 13 1016 76 10000 1.5 50 21:58 26.01.2020
3976 Clouds 13 1017 76 10000 2.1 100 21:39 26.01.2020
3977 Clouds 13 1017 76 10000 2.1 100 21:21 26.01.2020
3978 Clouds 13 1017 71 10000 1.5 70 20:58 26.01.2020
3979 Clouds 13 1017 71 10000 1.5 50 20:38 26.01.2020
3980 Clouds 13 1017 71 10000 1.5 50 20:38 26.01.2020
3981 Clouds 13 1017 71 10000 1.5 50 20:19 26.01.2020
3982 Clouds 13 1017 71 10000 2.1 40 19:58 26.01.2020
3983 Clouds 14 1017 67 10000 2.6 70 19:38 26.01.2020
3984 Clouds 14 1017 67 10000 2.6 70 19:19 26.01.2020
3985 Clouds 15 1018 67 10000 2.6 70 18:56 26.01.2020
3986 Clouds 15 1018 67 10000 2.6 90 18:37 26.01.2020
3987 Clouds 15 1018 67 10000 2.6 90 18:19 26.01.2020
3988 Clouds 15 1018 67 10000 3.1 80 17:55 26.01.2020
3989 Clouds 16 1018 63 10000 2.6 70 17:36 26.01.2020
3990 Clouds 16 1018 63 10000 2.6 70 17:18 26.01.2020
3991 Clouds 16 1018 63 10000 2.6 80 16:55 26.01.2020
3992 Clouds 16 1018 63 10000 1.5 70 16:37 26.01.2020
3993 Clouds 16 1018 63 10000 1.5 70 16:18 26.01.2020
3994 Clouds 15 1017 70 0 3.31 53 15:42 26.01.2020
3995 Clouds 15 1017 70 0 3.31 53 15:19 26.01.2020
3996 Clouds 15 1017 70 0 3.31 53 14:55 26.01.2020
3997 Clouds 15 1017 70 0 3.31 53 14:37 26.01.2020
3998 Clouds 16 1016 60 0 3.23 28 14:18 26.01.2020
3999 Clouds 16 1016 60 0 3.23 28 13:39 26.01.2020
4000 Clouds 16 1016 60 0 3.05 24 13:18 26.01.2020
4001 Clouds 16 1016 60 0 3.05 24 12:43 26.01.2020
4002 Clouds 16 1016 60 0 3.05 24 12:25 26.01.2020
4003 Clouds 16 1016 60 0 3.05 24 11:59 26.01.2020
4004 Clouds 16 1016 60 0 3.05 24 11:40 26.01.2020
4005 Clouds 18 1015 52 10000 2.6 10 11:19 26.01.2020
4006 Clouds 18 1015 52 10000 2.6 10 10:59 26.01.2020
4007 Clouds 18 1015 52 10000 2.6 10 10:39 26.01.2020
4008 Clouds 18 1015 52 10000 2.6 10 10:21 26.01.2020
4009 Clouds 18 1015 52 10000 2.6 30 09:59 26.01.2020
4010 Clouds 18 1016 52 10000 2.6 360 09:41 26.01.2020
4011 Clouds 18 1016 52 10000 2.6 360 09:22 26.01.2020
4012 Clouds 19 1016 48 10000 3.6 10 08:45 26.01.2020
4013 Clouds 19 1017 45 10000 3.6 20 08:24 26.01.2020
4014 Clouds 19 1017 45 10000 3.6 20 07:59 26.01.2020
4015 Clouds 18 1018 52 10000 3.1 360 07:41 26.01.2020
4016 Clouds 18 1018 52 10000 3.1 360 07:22 26.01.2020
4017 Clouds 18 1019 52 10000 5.1 20 06:32 26.01.2020
4018 Clouds 18 1020 48 10000 5.7 10 05:35 26.01.2020
4019 Clouds 17 1021 55 10000 5.7 30 04:52 26.01.2020
4020 Clouds 15 1020 62 10000 4.6 20 02:59 26.01.2020
4021 Clouds 14 1019 67 10000 3.6 360 01:57 26.01.2020
4022 Clouds 14 1019 67 10000 4.1 10 01:37 26.01.2020
4023 Clouds 14 1019 67 10000 4.1 10 01:18 26.01.2020
4024 Clouds 14 1018 71 10000 3.1 10 00:38 26.01.2020
4025 Clouds 14 1018 71 10000 3.1 10 00:20 26.01.2020
4026 Clouds 13 1019 70 0 4.86 2 23:37 25.01.2020
4027 Clouds 13 1017 70 0 5.67 9 23:18 25.01.2020
4028 Clouds 13 1017 70 0 5.67 9 22:41 25.01.2020
4029 Clouds 13 1017 70 0 5.67 9 22:19 25.01.2020
4030 Clouds 13 1017 70 0 5.67 9 21:57 25.01.2020
4031 Clouds 13 1017 70 0 5.67 9 21:39 25.01.2020
4032 Clouds 13 1017 70 0 5.67 9 21:20 25.01.2020
4033 Clouds 13 1017 70 0 5.67 9 21:20 25.01.2020
4034 Clouds 13 1017 70 0 5.67 9 20:44 25.01.2020
4035 Clouds 13 1017 70 0 5.67 9 20:44 25.01.2020
4036 Clouds 13 1017 70 0 5.67 9 20:25 25.01.2020
4037 Clouds 13 1017 70 0 5.67 9 20:25 25.01.2020
4038 Rain 13 1017 79 0 7.81 10 19:55 25.01.2020
4039 Rain 13 1017 74 0 6.15 5 19:37 25.01.2020
4040 Rain 13 1017 74 0 6.15 5 19:18 25.01.2020
4041 Rain 13 1017 74 0 6.15 5 18:42 25.01.2020
4042 Rain 13 1017 74 0 6.15 5 18:22 25.01.2020
4043 Rain 13 1017 74 0 6.15 5 17:58 25.01.2020
4044 Rain 13 1017 74 0 6.15 5 17:38 25.01.2020
4045 Rain 13 1018 79 0 6.88 13 17:18 25.01.2020
4046 Rain 13 1018 79 0 6.88 13 16:42 25.01.2020
4047 Rain 13 1018 79 0 6.88 13 16:23 25.01.2020
4048 Rain 13 1018 79 0 6.88 13 15:58 25.01.2020
4049 Rain 13 1018 79 0 6.88 13 15:39 25.01.2020
4050 Rain 13 1018 79 0 6.88 13 15:20 25.01.2020
4051 Rain 13 1018 79 0 6.88 13 14:43 25.01.2020
4052 Rain 13 1015 82 0 8.83 23 14:19 25.01.2020
4053 Rain 13 1015 82 0 8.83 23 13:45 25.01.2020
4054 Rain 13 1015 82 0 8.83 23 13:27 25.01.2020
4055 Clouds 15 1014 72 10000 6.2 30 12:58 25.01.2020
4056 Clouds 15 1014 72 10000 6.2 30 12:39 25.01.2020
4057 Clouds 15 1014 72 10000 6.2 30 12:20 25.01.2020
4058 Clouds 15 1015 72 10000 7.2 330 11:40 25.01.2020
4059 Clouds 15 1015 72 10000 7.2 330 11:20 25.01.2020
4060 Clouds 15 1013 77 10000 7.2 30 10:56 25.01.2020
4061 Clouds 15 1013 82 10000 7.7 30 10:38 25.01.2020
4062 Clouds 15 1013 82 10000 7.7 30 10:18 25.01.2020
4063 Clouds 16 1012 77 10000 6.7 40 09:40 25.01.2020
4064 Clouds 16 1012 77 10000 6.7 40 09:19 25.01.2020
4065 Clouds 16 1012 82 10000 6.7 30 08:43 25.01.2020
4066 Thunderstorm 17 1013 82 10000 7.7 40 07:58 25.01.2020
4067 Clouds 17 1012 82 10000 9.3 50 07:36 25.01.2020
4068 Clouds 17 1012 82 10000 9.3 50 07:36 25.01.2020
4069 Thunderstorm 18 1014 72 10000 6.7 40 06:33 25.01.2020
4070 Thunderstorm 18 1014 72 10000 6.7 40 06:33 25.01.2020
4071 Clouds 19 1014 72 10000 6.7 50 05:57 25.01.2020
4072 Clouds 19 1015 77 10000 6.7 50 05:38 25.01.2020
4073 Clouds 20 1015 82 10000 6.7 70 04:19 25.01.2020
4074 Clouds 21 1014 88 10000 4.1 70 03:49 25.01.2020
4075 Clouds 20 1013 94 7000 3.6 60 02:37 25.01.2020
4076 Clouds 20 1013 94 9000 3.1 70 01:57 25.01.2020
4077 Clouds 20 1012 94 8000 3.6 60 01:21 25.01.2020
4078 Clouds 20 1012 94 6000 2.6 50 00:37 25.01.2020
4079 Clouds 20 1012 94 6000 2.6 50 00:18 25.01.2020
4080 Mist 20 1012 94 5000 2.6 70 23:41 24.01.2020
4081 Mist 20 1012 94 5000 2.6 70 23:41 24.01.2020
4082 Mist 20 1012 94 5000 2.6 70 23:41 24.01.2020
4083 Mist 20 1012 94 5000 2.6 70 23:41 24.01.2020
4084 Mist 20 1012 94 5000 2.6 70 23:23 24.01.2020
4085 Clouds 20 1012 94 9000 3.6 70 22:46 24.01.2020
4086 Clouds 20 1012 94 7000 3.6 70 22:27 24.01.2020
4087 Thunderstorm 20 1012 94 4000 2.6 30 21:58 24.01.2020
4088 Rain 20 1012 94 4100 3.1 70 21:39 24.01.2020
4089 Rain 20 1012 94 4100 3.1 70 21:18 24.01.2020
4090 Mist 20 1013 94 5000 3.6 70 20:43 24.01.2020
4091 Mist 20 1013 94 5000 3.6 70 20:22 24.01.2020
4092 Rain 20 1013 94 4300 3.1 70 19:58 24.01.2020
4093 Clouds 20 1013 94 7000 3.6 70 19:40 24.01.2020
4094 Clouds 20 1013 94 7000 3.6 70 19:21 24.01.2020
4095 Clouds 20 1014 94 7000 3.1 90 18:44 24.01.2020
4096 Clouds 20 1014 94 7000 3.1 90 18:25 24.01.2020
4097 Mist 21 1014 94 5000 2.6 80 17:59 24.01.2020
4098 Clouds 21 1014 94 6000 3.1 70 17:41 24.01.2020
4099 Clouds 21 1014 94 6000 3.1 70 17:20 24.01.2020
4100 Clouds 21 1014 94 6000 3.1 80 16:40 24.01.2020
4101 Clouds 21 1014 94 6000 3.1 80 16:21 24.01.2020
4102 Clouds 21 1014 94 7000 2.1 60 15:56 24.01.2020
4103 Clouds 21 1014 94 6000 2.6 70 15:38 24.01.2020
4104 Clouds 21 1014 94 6000 2.6 70 15:19 24.01.2020
4105 Clouds 21 1013 94 7000 4.1 100 14:41 24.01.2020
4106 Clouds 21 1013 94 7000 4.1 100 14:22 24.01.2020
4107 Clouds 21 1013 94 8000 2.6 90 13:45 24.01.2020
4108 Rain 21 1013 94 10000 4.1 130 13:24 24.01.2020
4109 Thunderstorm 21 1013 94 2000 2.1 0 12:45 24.01.2020
4110 Thunderstorm 21 1013 94 2000 2.1 0 12:45 24.01.2020
4111 Thunderstorm 21 1013 94 3200 2.6 70 12:24 24.01.2020
4112 Rain 21 1012 94 3200 4.6 80 11:59 24.01.2020
4113 Thunderstorm 22 1012 88 800 6.7 360 11:40 24.01.2020
4114 Thunderstorm 22 1012 88 800 6.7 360 11:18 24.01.2020
4115 Clouds 22 1011 94 7000 4.6 120 10:43 24.01.2020
4116 Clouds 22 1011 94 7000 4.6 120 10:21 24.01.2020
4117 Mist 22 1011 94 4900 5.7 110 09:55 24.01.2020
4118 Mist 22 1012 94 3900 4.6 120 09:37 24.01.2020
4119 Mist 22 1012 94 3900 4.6 120 09:18 24.01.2020
4120 Rain 22 1013 94 8000 4.1 130 08:39 24.01.2020
4121 Rain 22 1013 94 8000 4.1 130 08:19 24.01.2020
4122 Rain 21 1013 94 6000 4.6 130 07:49 24.01.2020
4123 Thunderstorm 22 1014 94 1500 2.6 280 07:24 24.01.2020
4124 Drizzle 22 1013 94 1900 5.1 140 06:45 24.01.2020
4125 Drizzle 22 1014 94 1500 4.1 140 06:24 24.01.2020
4126 Clouds 23 1015 83 9000 5.7 120 05:37 24.01.2020
4127 Clouds 23 1016 88 8000 5.1 110 03:47 24.01.2020
4128 Drizzle 22 1016 94 3700 2.6 100 02:41 24.01.2020
4129 Drizzle 22 1016 94 3700 2.6 100 02:22 24.01.2020
4130 Drizzle 22 1015 88 4500 3.1 110 01:39 24.01.2020
4131 Drizzle 21 1014 94 4000 2.6 100 00:52 24.01.2020
4132 Clouds 22 1014 88 6000 2.6 90 00:19 24.01.2020
4133 Clouds 22 1013 94 6000 2.1 90 23:42 23.01.2020
4134 Clouds 22 1013 94 6000 2.1 90 23:23 23.01.2020
4135 Clouds 22 1013 94 6000 2.1 90 22:58 23.01.2020
4136 Mist 22 1013 88 6000 2.6 100 22:37 23.01.2020
4137 Mist 22 1013 88 6000 2.6 100 22:37 23.01.2020
4138 Mist 22 1013 88 6000 2.6 100 22:18 23.01.2020
4139 Clouds 22 1013 88 6000 2.6 100 21:55 23.01.2020
4140 Clouds 22 1013 88 7000 2.6 120 21:37 23.01.2020
4141 Clouds 22 1013 88 7000 2.6 120 21:19 23.01.2020
4142 Clouds 22 1013 88 7000 2.6 120 21:19 23.01.2020
4143 Clouds 22 1014 88 6000 1.5 120 20:55 23.01.2020
4144 Clouds 21 1014 94 5000 3.1 80 20:37 23.01.2020
4145 Clouds 21 1014 94 5000 3.1 80 20:18 23.01.2020
4146 Clouds 22 1014 88 7000 2.1 80 19:42 23.01.2020
4147 Clouds 22 1014 88 7000 3.6 100 19:23 23.01.2020
4148 Clouds 22 1015 88 6000 4.1 120 18:57 23.01.2020
4149 Rain 21 1015 94 6000 3.6 120 18:38 23.01.2020
4150 Rain 21 1015 94 6000 3.6 120 18:19 23.01.2020
4151 Drizzle 22 1015 88 4200 2.6 120 17:45 23.01.2020
4152 Drizzle 22 1015 88 4200 2.6 120 17:21 23.01.2020
4153 Clouds 22 1015 88 6000 4.1 140 16:59 23.01.2020
4154 Clouds 23 1015 83 9000 4.6 130 16:39 23.01.2020
4155 Clouds 23 1015 83 9000 4.6 130 16:20 23.01.2020
4156 Clouds 23 1015 88 8000 3.1 150 15:58 23.01.2020
4157 Clouds 23 1015 83 10000 4.6 120 15:39 23.01.2020
4158 Clouds 23 1015 83 10000 4.6 120 15:19 23.01.2020
4159 Clouds 23 1014 83 10000 4.1 120 14:58 23.01.2020
4160 Clouds 23 1014 83 10000 4.1 120 14:40 23.01.2020
4161 Clouds 23 1014 83 10000 4.1 120 14:22 23.01.2020
4162 Clouds 24 1014 78 10000 4.6 130 13:54 23.01.2020
4163 Clouds 24 1013 78 10000 5.7 120 13:36 23.01.2020
4164 Clouds 24 1013 78 10000 5.7 120 13:18 23.01.2020
4165 Clouds 24 1012 78 10000 6.7 120 12:40 23.01.2020
4166 Clouds 24 1012 78 10000 6.7 120 12:22 23.01.2020
4167 Clouds 25 1012 73 10000 4.6 120 11:54 23.01.2020
4168 Clouds 25 1011 73 10000 5.7 130 11:36 23.01.2020
4169 Clouds 25 1011 73 10000 5.7 130 11:18 23.01.2020
4170 Clouds 25 1011 73 10000 6.7 130 10:41 23.01.2020
4171 Clouds 25 1011 73 10000 6.7 130 10:19 23.01.2020
4172 Clouds 25 1011 73 10000 6.7 130 10:19 23.01.2020
4173 Clouds 27 1011 61 10000 5.7 160 09:41 23.01.2020
4174 Clouds 27 1011 61 10000 5.7 160 09:22 23.01.2020
4175 Clouds 27 1011 61 10000 5.1 160 08:56 23.01.2020
4176 Clouds 27 1012 61 10000 5.1 170 08:38 23.01.2020
4177 Clouds 27 1012 61 10000 5.1 170 08:19 23.01.2020
4178 Clouds 27 1013 65 10000 4.6 150 07:39 23.01.2020
4179 Clouds 27 1013 65 10000 4.6 150 07:18 23.01.2020
4180 Clouds 26 1014 69 10000 5.1 170 06:44 23.01.2020
4181 Clouds 26 1015 65 10000 5.7 170 06:18 23.01.2020
4182 Clouds 24 1017 78 7000 4.1 130 04:25 23.01.2020
4183 Clouds 23 1016 83 6000 4.1 120 03:36 23.01.2020
4184 Mist 21 1015 94 4100 2.6 100 01:55 23.01.2020
4185 Clouds 22 1014 88 6000 2.6 100 00:44 23.01.2020
4186 Clouds 22 1014 88 6000 2.6 100 00:24 23.01.2020
4187 Clouds 21 1013 94 6000 3.6 100 23:46 22.01.2020
4188 Clouds 21 1013 94 6000 3.6 100 23:28 22.01.2020
4189 Clouds 21 1013 94 6000 2.6 110 22:43 22.01.2020
4190 Clouds 22 1013 88 6000 2.1 110 22:25 22.01.2020
4191 Clouds 22 1014 88 6000 2.6 120 21:59 22.01.2020
4192 Clouds 21 1014 94 6000 3.6 110 21:38 22.01.2020
4193 Clouds 21 1014 94 6000 3.6 110 21:38 22.01.2020
4194 Clouds 21 1014 94 6000 3.6 110 21:19 22.01.2020
4195 Clouds 21 1014 94 6000 3.6 110 21:19 22.01.2020
4196 Clouds 22 1015 88 6000 3.6 110 20:42 22.01.2020
4197 Clouds 22 1015 88 6000 3.6 110 20:23 22.01.2020
4198 Clouds 22 1015 88 6000 4.1 110 19:59 22.01.2020
4199 Clouds 22 1015 88 6000 3.6 100 19:41 22.01.2020
4200 Clouds 22 1015 88 6000 3.6 100 19:21 22.01.2020
4201 Clouds 22 1015 88 6000 4.1 100 18:59 22.01.2020
4202 Clouds 22 1015 88 6000 4.1 110 18:40 22.01.2020
4203 Clouds 22 1015 88 6000 4.1 110 18:21 22.01.2020
4204 Clouds 22 1016 88 7000 3.6 110 17:57 22.01.2020
4205 Clouds 22 1016 88 7000 3.6 110 17:57 22.01.2020
4206 Clouds 22 1016 88 6000 3.6 110 17:39 22.01.2020
4207 Clouds 22 1016 88 6000 3.6 110 17:19 22.01.2020
4208 Clouds 22 1016 88 7000 4.1 120 16:54 22.01.2020
4209 Clouds 22 1016 88 7000 3.6 110 16:36 22.01.2020
4210 Clouds 22 1016 88 7000 3.6 110 16:18 22.01.2020
4211 Clouds 23 1015 83 8000 3.6 120 15:41 22.01.2020
4212 Clouds 23 1015 83 8000 3.6 120 15:23 22.01.2020
4213 Clouds 23 1015 83 7000 4.1 120 14:58 22.01.2020
4214 Clouds 23 1015 83 7000 3.6 110 14:37 22.01.2020
4215 Clouds 23 1015 83 7000 3.6 110 14:19 22.01.2020
4216 Clouds 23 1014 83 8000 3.6 110 13:55 22.01.2020
4217 Clouds 24 1014 73 10000 3.6 130 13:36 22.01.2020
4218 Clouds 24 1014 73 10000 3.6 130 13:18 22.01.2020
4219 Clouds 24 1014 73 10000 4.1 140 12:56 22.01.2020
4220 Clouds 24 1014 73 10000 3.1 140 12:37 22.01.2020
4221 Clouds 24 1014 73 10000 3.1 140 12:18 22.01.2020
4222 Mist 24 1013 73 4000 2.1 120 11:56 22.01.2020
4223 Mist 24 1013 73 4000 2.1 120 11:56 22.01.2020
4224 Mist 24 1013 78 2600 2.1 90 11:37 22.01.2020
4225 Mist 24 1013 78 2600 2.1 90 11:18 22.01.2020
4226 Mist 24 1013 73 4100 2.6 170 10:44 22.01.2020
4227 Mist 24 1013 73 4300 2.6 190 10:20 22.01.2020
4228 Mist 24 1013 73 4200 2.1 210 09:44 22.01.2020
4229 Mist 24 1013 73 3800 2.1 200 09:25 22.01.2020
4230 Mist 24 1014 73 3800 2.1 180 08:58 22.01.2020
4231 Mist 23 1014 78 3800 2.1 170 08:40 22.01.2020
4232 Mist 23 1014 78 3800 2.1 170 08:21 22.01.2020
4233 Mist 22 1015 83 3300 0.5 0 07:54 22.01.2020
4234 Mist 21 1016 83 3100 0.5 0 07:36 22.01.2020
4235 Mist 21 1016 83 3100 0.5 0 07:18 22.01.2020
4236 Mist 20 1017 88 3200 2.1 320 06:30 22.01.2020
4237 Mist 19 1018 93 2900 2.1 240 05:41 22.01.2020
4238 Mist 18 1019 100 2000 2.6 260 04:18 22.01.2020
4239 Drizzle 18 1019 100 1500 2.6 270 03:22 22.01.2020
4240 Drizzle 18 1017 93 1000 2.6 290 01:44 22.01.2020
4241 Mist 18 1017 93 2200 2.1 260 00:44 22.01.2020
4242 Mist 18 1016 93 1900 2.1 260 00:26 22.01.2020
4243 Mist 18 1016 93 1900 1.5 270 23:39 21.01.2020
4244 Mist 18 1016 93 1900 1.5 270 23:21 21.01.2020
4245 Mist 18 1016 93 1400 1.5 300 22:59 21.01.2020
4246 Mist 18 1016 93 1600 1 0 22:39 21.01.2020
4247 Mist 18 1016 93 1600 1 0 22:20 21.01.2020
4248 Mist 18 1016 93 1300 2.6 280 21:56 21.01.2020
4249 Rain 18 1016 93 1900 1 280 21:37 21.01.2020
4250 Rain 18 1016 93 1900 1 280 21:19 21.01.2020
4251 Mist 18 1017 93 2800 2.1 300 20:55 21.01.2020
4252 Mist 19 1017 88 3700 1.5 290 20:37 21.01.2020
4253 Mist 19 1017 88 3700 1.5 290 20:18 21.01.2020
4254 Mist 19 1017 88 3700 1.5 290 20:18 21.01.2020
4255 Mist 19 1017 88 4000 2.1 310 19:55 21.01.2020
4256 Mist 19 1017 88 4400 1 0 19:36 21.01.2020
4257 Mist 19 1017 88 4400 1 0 19:18 21.01.2020
4258 Mist 19 1018 88 4300 2.1 230 18:54 21.01.2020
4259 Mist 19 1018 88 3100 2.1 0 18:36 21.01.2020
4260 Mist 19 1018 88 3100 2.1 0 18:18 21.01.2020
4261 Mist 20 1018 88 2900 1.5 180 17:42 21.01.2020
4262 Mist 20 1018 88 2900 1.5 180 17:19 21.01.2020
4263 Mist 20 1019 88 2800 1 0 16:56 21.01.2020
4264 Mist 20 1019 94 3100 1.5 150 16:36 21.01.2020
4265 Mist 20 1019 94 3100 1.5 150 16:18 21.01.2020
4266 Mist 20 1018 88 2700 1 0 15:40 21.01.2020
4267 Mist 20 1018 88 2700 1 0 15:20 21.01.2020
4268 Mist 20 1018 88 2500 3.1 120 14:55 21.01.2020
4269 Mist 19 1017 88 2000 2.1 90 14:36 21.01.2020
4270 Mist 19 1017 88 2000 2.1 90 14:18 21.01.2020
4271 Mist 19 1017 88 2600 2.6 100 13:38 21.01.2020
4272 Mist 19 1017 88 2600 2.6 100 13:18 21.01.2020
4273 Mist 19 1017 88 3000 1.5 80 12:43 21.01.2020
4274 Mist 19 1017 88 3000 1.5 80 12:43 21.01.2020
4275 Mist 20 1017 82 2500 2.6 110 12:24 21.01.2020
4276 Mist 21 1017 77 2000 3.6 120 11:56 21.01.2020
4277 Mist 21 1016 77 2100 4.1 110 11:38 21.01.2020
4278 Mist 21 1016 77 2100 4.1 110 11:38 21.01.2020
4279 Mist 21 1016 77 2100 4.1 110 11:38 21.01.2020
4280 Mist 21 1016 77 2100 4.1 110 11:19 21.01.2020
4281 Mist 21 1016 77 2300 4.6 120 10:43 21.01.2020
4282 Mist 21 1016 77 2400 4.1 120 10:23 21.01.2020
4283 Mist 22 1016 73 2500 3.6 100 09:57 21.01.2020
4284 Mist 21 1017 77 2300 3.1 100 09:39 21.01.2020
4285 Mist 21 1017 77 2300 3.1 100 09:21 21.01.2020
4286 Mist 20 1017 77 2500 3.1 110 08:45 21.01.2020
4287 Mist 20 1017 77 2500 3.1 120 08:27 21.01.2020
4288 Mist 20 1018 77 2800 2.6 120 07:44 21.01.2020
4289 Mist 19 1019 82 3100 2.1 140 07:25 21.01.2020
4290 Mist 19 1019 82 3000 1.5 220 06:58 21.01.2020
4291 Mist 19 1020 82 3100 1 0 06:38 21.01.2020
4292 Mist 19 1021 82 2900 1.5 270 05:55 21.01.2020
4293 Mist 19 1021 82 2900 1.5 270 05:55 21.01.2020
4294 Mist 18 1021 82 3100 1 0 05:32 21.01.2020
4295 Mist 17 1022 93 2600 1.5 200 04:38 21.01.2020
4296 Mist 16 1020 93 1300 0.5 0 02:27 21.01.2020
4297 Drizzle 15 1020 100 700 1 340 01:36 21.01.2020
4298 Drizzle 15 1020 100 700 0.5 310 00:45 21.01.2020
4299 Drizzle 15 1019 100 650 0.5 330 00:25 21.01.2020
4300 Fog 15 1019 93 500 1 290 23:56 20.01.2020
4301 Fog 15 1019 93 500 1 310 23:36 20.01.2020
4302 Fog 15 1019 93 500 1 310 23:18 20.01.2020
4303 Fog 15 1019 93 750 0.5 0 22:40 20.01.2020
4304 Fog 15 1019 93 750 0.5 0 22:21 20.01.2020
4305 Mist 15 1019 93 1200 0.5 0 21:58 20.01.2020
4306 Mist 15 1019 93 1400 1 0 21:38 20.01.2020
4307 Mist 15 1019 93 1400 1 0 21:20 20.01.2020
4308 Mist 15 1019 93 2400 1 0 20:58 20.01.2020
4309 Mist 15 1019 93 2700 1.5 30 20:39 20.01.2020
4310 Mist 15 1019 93 2700 1.5 30 20:20 20.01.2020
4311 Mist 15 1020 93 3100 1 0 19:58 20.01.2020
4312 Mist 15 1020 93 3000 1 0 19:40 20.01.2020
4313 Mist 15 1020 93 3000 1 0 19:19 20.01.2020
4314 Mist 15 1020 93 3400 0.5 0 18:45 20.01.2020
4315 Mist 15 1020 93 3000 1 0 18:24 20.01.2020
4316 Mist 15 1021 93 3000 0.5 0 17:59 20.01.2020
4317 Mist 15 1021 93 3100 1 0 17:38 20.01.2020
4318 Mist 15 1021 93 3100 1 0 17:18 20.01.2020
4319 Mist 15 1021 93 2700 1 360 16:45 20.01.2020
4320 Mist 15 1021 93 3700 1.5 20 16:25 20.01.2020
4321 Mist 15 1021 93 5000 1.5 30 15:58 20.01.2020
4322 Mist 15 1021 93 5000 1.5 30 15:58 20.01.2020
4323 Mist 15 1021 93 4400 2.1 40 15:40 20.01.2020
4324 Mist 15 1021 93 4400 2.1 40 15:21 20.01.2020
4325 Mist 15 1020 93 4600 2.1 60 14:55 20.01.2020
4326 Mist 15 1020 93 5000 1.5 60 14:36 20.01.2020
4327 Mist 15 1020 93 5000 1.5 60 14:18 20.01.2020
4328 Drizzle 15 1019 93 3700 2.1 60 13:41 20.01.2020
4329 Drizzle 15 1019 93 3700 2.1 60 13:23 20.01.2020
4330 Drizzle 15 1019 87 2900 2.1 80 12:56 20.01.2020
4331 Mist 15 1019 87 5000 2.6 70 12:38 20.01.2020
4332 Mist 15 1019 87 5000 2.6 70 12:19 20.01.2020
4333 Mist 15 1019 87 3700 3.1 80 11:43 20.01.2020
4334 Mist 15 1019 87 3700 3.1 80 11:43 20.01.2020
4335 Mist 15 1018 87 2600 2.6 80 11:24 20.01.2020
4336 Mist 15 1018 87 3100 2.6 70 10:57 20.01.2020
4337 Mist 15 1018 87 4000 2.6 50 10:39 20.01.2020
4338 Mist 15 1018 87 4000 2.6 50 10:19 20.01.2020
4339 Mist 15 1019 87 4800 2.6 40 09:41 20.01.2020
4340 Mist 15 1019 87 4800 2.6 40 09:41 20.01.2020
4341 Mist 15 1019 87 4800 2.6 40 09:21 20.01.2020
4342 Mist 15 1019 87 3400 2.1 50 08:49 20.01.2020
4343 Mist 15 1019 82 5000 2.1 50 08:30 20.01.2020
4344 Mist 15 1020 87 4600 1.5 60 07:54 20.01.2020
4345 Clouds 15 1020 82 6000 2.1 20 07:30 20.01.2020
4346 Mist 14 1021 93 5000 2.6 20 06:59 20.01.2020
4347 Mist 14 1021 93 3000 2.6 10 06:30 20.01.2020
4348 Mist 14 1022 93 3800 1.5 10 05:44 20.01.2020
4349 Drizzle 14 1022 93 3200 1.5 40 05:25 20.01.2020
4350 Drizzle 14 1023 93 3200 1.5 30 04:49 20.01.2020
4351 Clouds 14 1022 87 6000 2.6 360 02:59 20.01.2020
4352 Clouds 14 1021 82 7000 2.1 50 01:57 20.01.2020
4353 Clouds 14 1021 82 7000 2.1 10 01:37 20.01.2020
4354 Clouds 14 1020 82 9000 2.1 10 00:45 20.01.2020
4355 Clouds 14 1020 87 9000 2.6 40 00:25 20.01.2020
4356 Clouds 14 1019 87 8000 2.1 40 23:40 19.01.2020
4357 Clouds 14 1019 87 8000 2.1 40 23:20 19.01.2020
4358 Clouds 14 1019 82 9000 2.6 50 22:58 19.01.2020
4359 Clouds 14 1019 82 9000 1.5 40 22:40 19.01.2020
4360 Clouds 14 1019 82 9000 1.5 40 22:21 19.01.2020
4361 Clouds 14 1019 82 9000 1.5 40 22:21 19.01.2020
4362 Clouds 14 1019 82 8000 1.5 40 21:57 19.01.2020
4363 Clouds 13 1019 87 7000 2.6 40 21:39 19.01.2020
4364 Clouds 13 1019 87 7000 2.6 40 21:20 19.01.2020
4365 Clouds 13 1020 93 7000 2.6 10 20:57 19.01.2020
4366 Clouds 13 1020 93 7000 2.6 10 20:57 19.01.2020
4367 Clouds 13 1020 93 6000 2.1 360 20:39 19.01.2020
4368 Clouds 13 1020 93 6000 2.1 360 20:21 19.01.2020
4369 Mist 13 1020 93 5000 2.6 50 19:57 19.01.2020
4370 Clouds 13 1020 93 6000 2.1 40 19:39 19.01.2020
4371 Clouds 13 1020 93 6000 2.1 40 19:21 19.01.2020
4372 Clouds 13 1021 93 6000 2.6 50 18:59 19.01.2020
4373 Clouds 13 1021 93 7000 1.5 40 18:41 19.01.2020
4374 Clouds 13 1021 93 7000 1.5 40 18:41 19.01.2020
4375 Clouds 13 1021 93 7000 1.5 40 18:21 19.01.2020
4376 Drizzle 13 1021 93 6000 2.6 10 17:58 19.01.2020
4377 Clouds 14 1022 82 7000 2.6 30 17:40 19.01.2020
4378 Clouds 14 1022 82 7000 2.6 30 17:40 19.01.2020
4379 Clouds 14 1022 82 7000 2.6 30 17:21 19.01.2020
4380 Clouds 14 1021 82 10000 2.1 40 16:59 19.01.2020
4381 Clouds 14 1021 82 10000 2.6 30 16:40 19.01.2020
4382 Clouds 14 1021 82 10000 2.6 30 16:21 19.01.2020
4383 Clouds 15 1021 77 10000 2.6 30 15:59 19.01.2020
4384 Clouds 15 1021 77 10000 2.1 30 15:39 19.01.2020
4385 Clouds 15 1021 77 10000 2.1 30 15:20 19.01.2020
4386 Clouds 15 1021 77 10000 3.1 360 14:58 19.01.2020
4387 Clouds 15 1021 72 10000 2.1 30 14:39 19.01.2020
4388 Clouds 15 1021 72 10000 2.1 30 14:18 19.01.2020
4389 Clouds 15 1021 72 10000 2.1 40 13:57 19.01.2020
4390 Clouds 15 1021 72 10000 2.6 40 13:38 19.01.2020
4391 Clouds 15 1021 72 10000 2.6 40 13:19 19.01.2020
4392 Clouds 15 1020 72 10000 2.6 40 12:55 19.01.2020
4393 Clouds 15 1020 72 10000 3.1 30 12:37 19.01.2020
4394 Clouds 15 1020 72 10000 3.1 30 12:19 19.01.2020
4395 Clouds 16 1020 67 10000 3.6 30 11:42 19.01.2020
4396 Clouds 16 1020 67 10000 3.6 30 11:20 19.01.2020
4397 Clouds 16 1020 67 10000 4.1 50 10:56 19.01.2020
4398 Clouds 16 1020 67 10000 3.6 40 10:38 19.01.2020
4399 Clouds 16 1020 67 10000 3.6 40 10:19 19.01.2020
4400 Clouds 16 1019 63 10000 3.6 40 09:55 19.01.2020
4401 Clouds 16 1019 63 10000 3.6 40 09:55 19.01.2020
4402 Clouds 16 1020 63 10000 4.6 30 09:36 19.01.2020
4403 Clouds 16 1020 63 10000 4.6 30 09:18 19.01.2020
4404 Clouds 16 1020 63 10000 4.6 20 08:44 19.01.2020
4405 Clouds 15 1020 72 10000 4.1 20 08:26 19.01.2020
4406 Clouds 15 1021 67 10000 4.6 30 07:42 19.01.2020
4407 Clouds 15 1021 67 10000 4.6 30 07:22 19.01.2020
4408 Clouds 15 1021 67 10000 4.6 30 07:22 19.01.2020
4409 Clouds 15 1021 72 10000 4.6 30 06:51 19.01.2020
4410 Clouds 14 1023 76 10000 4.1 30 05:41 19.01.2020
4411 Clouds 14 1022 82 10000 4.6 30 02:44 19.01.2020
4412 Clouds 14 1022 82 10000 4.6 30 02:21 19.01.2020
4413 Clouds 14 1021 87 10000 5.1 30 01:25 19.01.2020
4414 Clouds 14 1021 87 10000 5.1 30 01:25 19.01.2020
4415 Clouds 14 1020 87 10000 3.6 30 00:46 19.01.2020
4416 Clouds 14 1019 87 10000 4.1 30 00:28 19.01.2020
4417 Clouds 14 1019 87 10000 4.1 30 23:56 18.01.2020
4418 Clouds 14 1019 87 10000 3.6 40 23:38 18.01.2020
4419 Clouds 14 1019 87 10000 3.6 40 23:19 18.01.2020
4420 Clouds 14 1019 93 10000 3.6 30 22:55 18.01.2020
4421 Clouds 14 1018 93 10000 2.6 10 22:36 18.01.2020
4422 Clouds 14 1018 93 10000 2.6 10 22:18 18.01.2020
4423 Clouds 15 1018 87 9000 4.1 20 21:56 18.01.2020
4424 Clouds 15 1018 87 9000 3.6 30 21:37 18.01.2020
4425 Clouds 15 1018 87 9000 3.6 30 21:18 18.01.2020
4426 Clouds 15 1018 87 8000 3.6 40 20:42 18.01.2020
4427 Clouds 15 1018 93 7000 3.1 40 20:21 18.01.2020
4428 Mist 15 1018 93 5000 2.6 50 19:55 18.01.2020
4429 Mist 15 1018 93 5000 2.6 40 19:37 18.01.2020
4430 Mist 15 1018 93 5000 2.6 40 19:19 18.01.2020
4431 Drizzle 15 1019 93 3800 3.1 40 18:41 18.01.2020
4432 Drizzle 15 1019 93 3800 3.1 40 18:21 18.01.2020
4433 Mist 15 1019 93 4200 2.6 40 17:41 18.01.2020
4434 Mist 15 1019 93 4200 2.6 40 17:21 18.01.2020
4435 Rain 15 1019 93 4000 2.6 40 16:59 18.01.2020
4436 Rain 15 1018 93 3700 2.6 40 16:41 18.01.2020
4437 Rain 15 1018 93 3700 2.6 40 16:22 18.01.2020
4438 Drizzle 15 1018 87 3500 2.1 40 15:57 18.01.2020
4439 Mist 15 1018 87 5000 2.6 30 15:39 18.01.2020
4440 Mist 15 1018 87 5000 2.6 30 15:20 18.01.2020
4441 Mist 15 1017 87 5000 2.1 40 14:42 18.01.2020
4442 Mist 15 1017 87 5000 2.1 40 14:20 18.01.2020
4443 Mist 15 1017 87 5000 2.1 40 13:58 18.01.2020
4444 Mist 15 1017 87 5000 3.1 60 13:39 18.01.2020
4445 Mist 15 1017 87 5000 3.1 60 13:20 18.01.2020
4446 Mist 15 1016 93 5000 3.1 50 12:43 18.01.2020
4447 Mist 15 1016 93 4700 3.1 60 12:22 18.01.2020
4448 Mist 15 1016 93 4700 3.1 60 12:22 18.01.2020
4449 Mist 15 1016 93 2900 3.1 70 11:58 18.01.2020
4450 Mist 15 1016 93 1800 2.6 50 11:40 18.01.2020
4451 Mist 15 1016 93 1800 2.6 50 11:20 18.01.2020
4452 Drizzle 15 1016 93 1700 3.1 50 10:43 18.01.2020
4453 Drizzle 15 1016 93 1900 3.1 40 10:22 18.01.2020
4454 Mist 15 1016 93 2600 3.6 40 09:56 18.01.2020
4455 Mist 15 1016 93 2600 3.6 40 09:38 18.01.2020
4456 Mist 15 1016 93 2600 3.6 40 09:18 18.01.2020
4457 Mist 15 1016 93 5000 3.1 50 08:42 18.01.2020
4458 Mist 15 1016 93 5000 3.1 50 08:20 18.01.2020
4459 Clouds 15 1017 87 6000 3.6 50 07:56 18.01.2020
4460 Clouds 15 1017 87 6000 3.1 50 07:37 18.01.2020
4461 Mist 15 1018 87 4600 2.6 40 06:50 18.01.2020
4462 Mist 15 1018 87 4500 3.1 40 06:22 18.01.2020
4463 Mist 15 1019 87 5000 3.1 30 05:45 18.01.2020
4464 Mist 15 1020 87 4000 3.1 50 04:19 18.01.2020
4465 Drizzle 14 1019 93 4000 3.1 50 02:33 18.01.2020
4466 Drizzle 14 1019 93 4500 3.6 50 01:36 18.01.2020
4467 Drizzle 14 1018 93 5000 3.1 50 00:39 18.01.2020
4468 Drizzle 14 1018 93 5000 3.1 50 00:19 18.01.2020
4469 Drizzle 14 1018 93 6000 3.1 50 23:45 17.01.2020
4470 Drizzle 14 1018 93 4700 2.6 50 23:21 17.01.2020
4471 Drizzle 14 1018 93 3800 3.1 50 22:59 17.01.2020
4472 Drizzle 14 1018 93 4500 3.1 50 22:40 17.01.2020
4473 Drizzle 14 1018 93 4500 3.1 50 22:19 17.01.2020
4474 Rain 14 1017 93 3500 3.6 60 21:42 17.01.2020
4475 Rain 14 1017 93 3500 3.6 60 21:24 17.01.2020
4476 Mist 14 1018 93 4100 3.6 50 20:59 17.01.2020
4477 Mist 14 1018 93 4600 3.1 40 20:41 17.01.2020
4478 Mist 14 1018 93 4600 3.1 40 20:20 17.01.2020
4479 Mist 14 1018 93 4600 3.1 40 20:20 17.01.2020
4480 Mist 14 1019 93 4700 2.6 50 19:57 17.01.2020
4481 Mist 14 1019 93 4600 2.6 50 19:38 17.01.2020
4482 Mist 14 1019 93 4600 2.6 50 19:19 17.01.2020
4483 Mist 14 1019 93 4200 3.1 50 18:57 17.01.2020
4484 Mist 14 1019 93 3700 2.6 50 18:37 17.01.2020
4485 Mist 14 1019 93 3700 2.6 50 18:19 17.01.2020
4486 Mist 14 1020 93 4800 3.1 40 17:39 17.01.2020
4487 Mist 14 1020 93 4800 3.1 40 17:21 17.01.2020
4488 Mist 15 1020 87 5000 3.1 40 16:44 17.01.2020
4489 Clouds 15 1020 87 7000 3.1 50 16:21 17.01.2020
4490 Clouds 15 1020 87 6000 2.6 40 15:58 17.01.2020
4491 Clouds 15 1020 87 6000 2.6 40 15:58 17.01.2020
4492 Clouds 15 1020 82 6000 2.6 40 15:40 17.01.2020
4493 Clouds 15 1020 82 6000 2.6 40 15:22 17.01.2020
4494 Clouds 15 1020 82 6000 3.1 40 14:43 17.01.2020
4495 Clouds 15 1019 82 6000 2.6 40 14:25 17.01.2020
4496 Clouds 15 1019 82 6000 3.1 40 13:46 17.01.2020
4497 Clouds 15 1019 82 7000 3.6 40 13:23 17.01.2020
4498 Clouds 15 1018 82 7000 3.6 40 12:48 17.01.2020
4499 Clouds 15 1018 82 7000 3.1 30 12:23 17.01.2020
4500 Mist 15 1018 82 5000 3.1 30 11:44 17.01.2020
4501 Mist 16 1018 77 5000 3.1 30 11:20 17.01.2020
4502 Mist 16 1018 77 5000 3.1 30 11:20 17.01.2020
4503 Mist 16 1018 77 5000 3.1 30 11:20 17.01.2020
4504 Clouds 16 1018 77 7000 4.1 60 10:58 17.01.2020
4505 Clouds 16 1018 77 9000 4.1 50 10:40 17.01.2020
4506 Clouds 16 1018 77 9000 4.1 50 10:21 17.01.2020
4507 Clouds 16 1017 77 9000 4.1 40 09:56 17.01.2020
4508 Clouds 16 1018 72 8000 4.1 50 09:37 17.01.2020
4509 Clouds 16 1018 72 8000 4.1 50 09:18 17.01.2020
4510 Clouds 16 1018 77 9000 3.6 30 08:42 17.01.2020
4511 Clouds 16 1018 77 9000 3.6 30 08:23 17.01.2020
4512 Clouds 16 1019 77 9000 4.6 40 07:49 17.01.2020
4513 Clouds 16 1019 77 9000 3.6 30 07:30 17.01.2020
4514 Clouds 16 1020 72 10000 5.7 40 06:56 17.01.2020
4515 Clouds 16 1021 72 10000 5.1 50 06:37 17.01.2020
4516 Clouds 15 1021 75 0 3.4 27 05:22 17.01.2020
4517 Clouds 15 1021 75 0 3.4 27 03:38 17.01.2020
4518 Clouds 15 1021 75 0 3.4 27 02:43 17.01.2020
4519 Rain 14 1019 82 0 4.09 31 01:45 17.01.2020
4520 Rain 14 1019 82 0 4.09 31 01:27 17.01.2020
4521 Clouds 15 1019 77 0 4.23 34 00:43 17.01.2020
4522 Clouds 17 1018 72 10000 6.7 50 00:19 17.01.2020
4523 Clouds 17 1018 72 10000 6.7 50 23:41 16.01.2020
4524 Clouds 17 1018 72 10000 6.7 50 23:23 16.01.2020
4525 Clouds 17 1017 72 10000 6.2 50 22:43 16.01.2020
4526 Clouds 17 1017 72 10000 6.2 50 22:22 16.01.2020
4527 Clouds 17 1017 72 10000 6.2 50 22:22 16.01.2020
4528 Clouds 17 1017 72 10000 5.7 60 21:57 16.01.2020
4529 Clouds 17 1017 72 10000 6.7 50 21:38 16.01.2020
4530 Clouds 17 1017 72 10000 6.7 50 21:38 16.01.2020
4531 Clouds 17 1017 72 10000 6.7 50 21:19 16.01.2020
4532 -273 0 0 0 0 0 20:58 16.01.2020
4533 Clouds 18 1018 72 10000 6.2 50 20:39 16.01.2020
4534 Clouds 18 1018 72 10000 6.2 50 20:19 16.01.2020
4535 Clouds 18 1018 72 10000 5.7 50 19:56 16.01.2020
4536 Clouds 18 1018 72 10000 6.2 50 19:37 16.01.2020
4537 Clouds 18 1018 72 10000 6.2 50 19:19 16.01.2020
4538 Clouds 18 1018 72 10000 6.7 60 18:55 16.01.2020
4539 Clouds 18 1018 72 10000 5.1 50 18:37 16.01.2020
4540 Clouds 18 1018 72 10000 5.1 50 18:18 16.01.2020
4541 Clouds 19 1018 77 10000 6.2 60 17:42 16.01.2020
4542 Clouds 19 1018 77 10000 6.2 60 17:23 16.01.2020
4543 Clouds 19 1018 77 10000 6.2 60 16:57 16.01.2020
4544 Rain 19 1018 77 10000 5.1 50 16:38 16.01.2020
4545 Rain 19 1018 77 10000 5.1 50 16:19 16.01.2020
4546 Rain 19 1018 77 10000 5.1 50 16:19 16.01.2020
4547 Clouds 21 1017 73 10000 6.2 70 15:44 16.01.2020
4548 Clouds 21 1017 73 10000 6.2 70 15:22 16.01.2020
4549 Clouds 22 1017 83 8000 4.6 100 14:57 16.01.2020
4550 Clouds 22 1016 83 8000 5.1 110 14:38 16.01.2020
4551 Clouds 22 1016 83 8000 5.1 110 14:20 16.01.2020
4552 Rain 23 1016 78 8000 4.1 130 13:44 16.01.2020
4553 Clouds 23 1015 78 8000 4.6 130 13:25 16.01.2020
4554 Rain 24 1015 73 10000 5.7 130 12:46 16.01.2020
4555 Rain 24 1014 73 9000 4.6 130 12:28 16.01.2020
4556 Clouds 25 1013 69 10000 5.1 130 11:58 16.01.2020
4557 Clouds 25 1013 69 10000 5.1 120 11:39 16.01.2020
4558 Clouds 25 1013 69 10000 5.1 120 11:21 16.01.2020
4559 Clouds 26 1013 61 10000 5.1 110 10:40 16.01.2020
4560 Clouds 26 1013 61 10000 5.1 110 10:21 16.01.2020
4561 Clouds 26 1013 65 10000 5.1 110 09:58 16.01.2020
4562 Clouds 26 1013 65 10000 4.1 110 09:40 16.01.2020
4563 Clouds 26 1013 65 10000 4.1 110 09:22 16.01.2020
4564 Clouds 26 1013 65 10000 4.1 110 08:53 16.01.2020
4565 Clouds 26 1013 65 10000 4.1 120 08:35 16.01.2020
4566 Clouds 26 1014 69 10000 3.1 100 07:59 16.01.2020
4567 Clouds 25 1014 73 10000 3.1 110 07:39 16.01.2020
4568 Clouds 25 1015 69 10000 4.1 90 07:21 16.01.2020
4569 Clouds 25 1015 69 10000 4.1 90 06:43 16.01.2020
4570 Clouds 26 1016 69 10000 4.6 100 06:21 16.01.2020
4571 Clouds 24 1017 73 7000 3.6 80 05:45 16.01.2020
4572 Rain 22 1017 83 7000 3.1 70 04:40 16.01.2020
4573 Clouds 22 1017 83 8000 4.1 120 03:28 16.01.2020
4574 Clouds 22 1016 83 8000 4.1 100 02:43 16.01.2020
4575 Clouds 21 1015 88 8000 3.1 110 00:54 16.01.2020
4576 Clouds 21 1014 88 7000 3.6 110 00:24 16.01.2020
4577 Clouds 21 1014 88 6000 3.6 120 23:50 15.01.2020
4578 Clouds 21 1013 88 8000 4.1 130 23:23 15.01.2020
4579 Clouds 21 1013 88 9000 3.6 120 22:58 15.01.2020
4580 Clouds 22 1013 83 9000 3.6 120 22:40 15.01.2020
4581 Clouds 22 1013 83 9000 3.6 120 22:19 15.01.2020
4582 Clouds 22 1013 83 9000 4.6 120 21:58 15.01.2020
4583 Clouds 22 1013 83 10000 4.6 110 21:39 15.01.2020
4584 Clouds 22 1013 83 10000 4.6 110 21:20 15.01.2020
4585 Clouds 22 1013 83 10000 5.1 120 20:58 15.01.2020
4586 Clouds 22 1013 83 10000 5.1 110 20:40 15.01.2020
4587 Clouds 22 1013 83 10000 5.1 110 20:20 15.01.2020
4588 Clouds 22 1013 83 10000 5.1 110 19:55 15.01.2020
4589 Clouds 22 1013 83 10000 5.1 120 19:37 15.01.2020
4590 Clouds 22 1013 83 10000 5.1 120 19:19 15.01.2020
4591 Clouds 22 1013 83 10000 5.7 130 18:57 15.01.2020
4592 Clouds 22 1013 83 10000 5.7 110 18:38 15.01.2020
4593 Clouds 22 1013 83 10000 5.7 110 18:20 15.01.2020
4594 Clouds 22 1013 83 10000 4.1 100 17:58 15.01.2020
4595 Clouds 22 1013 83 10000 4.6 110 17:38 15.01.2020
4596 Clouds 22 1013 83 10000 4.6 110 17:19 15.01.2020
4597 Clouds 23 1013 78 10000 4.1 130 16:41 15.01.2020
4598 Clouds 23 1013 78 10000 4.1 130 16:41 15.01.2020
4599 Clouds 23 1013 78 10000 4.1 130 16:22 15.01.2020
4600 Clouds 23 1013 78 10000 4.1 120 15:58 15.01.2020
4601 Clouds 22 1013 78 10000 4.6 120 15:39 15.01.2020
4602 Clouds 22 1013 78 10000 4.6 120 15:20 15.01.2020
4603 Clouds 23 1013 73 10000 4.6 120 14:43 15.01.2020
4604 Clouds 23 1012 73 10000 5.1 140 14:20 15.01.2020
4605 Clouds 23 1012 73 10000 5.1 130 13:46 15.01.2020
4606 Clouds 24 1012 69 10000 5.1 130 13:27 15.01.2020
4607 Clouds 24 1011 69 10000 5.1 130 12:59 15.01.2020
4608 Clouds 24 1011 69 10000 4.6 140 12:40 15.01.2020
4609 Clouds 24 1011 69 10000 4.6 140 12:20 15.01.2020
4610 Clouds 25 1011 65 10000 6.2 150 11:58 15.01.2020
4611 Clouds 25 1011 65 10000 6.7 150 11:37 15.01.2020
4612 Clouds 25 1011 65 10000 6.7 150 11:19 15.01.2020
4613 Clouds 25 1011 65 10000 6.2 150 10:46 15.01.2020
4614 Clouds 25 1010 65 10000 6.2 150 10:27 15.01.2020
4615 Clouds 25 1010 65 10000 6.2 150 09:46 15.01.2020
4616 Clouds 26 1011 61 10000 6.2 150 09:26 15.01.2020
4617 Clouds 26 1011 61 10000 7.2 160 08:59 15.01.2020
4618 Clouds 26 1011 61 10000 7.2 160 08:59 15.01.2020
4619 Clouds 27 1012 61 10000 7.2 160 08:41 15.01.2020
4620 Clouds 27 1012 61 10000 7.2 160 08:22 15.01.2020
4621 Clouds 27 1012 61 10000 7.2 160 07:52 15.01.2020
4622 Clouds 26 1012 65 10000 6.2 160 07:32 15.01.2020
4623 Clouds 25 1013 69 10000 6.7 150 06:46 15.01.2020
4624 Clouds 25 1014 73 10000 6.2 150 06:20 15.01.2020
4625 Clouds 24 1015 78 10000 5.7 160 04:44 15.01.2020
4626 Clouds 21 1015 88 6000 4.6 130 02:38 15.01.2020
4627 Clouds 21 1014 88 7000 4.1 130 01:28 15.01.2020
4628 Clouds 21 1014 88 9000 4.1 120 00:46 15.01.2020
4629 Clouds 21 1014 88 7000 3.1 120 00:27 15.01.2020
4630 Clouds 21 1013 88 7000 4.1 120 23:56 14.01.2020
4631 Clouds 21 1013 94 6000 3.6 110 23:38 14.01.2020
4632 Clouds 21 1013 94 6000 3.6 110 23:19 14.01.2020
4633 Mist 20 1013 94 2900 3.1 100 22:41 14.01.2020
4634 Mist 20 1013 94 2900 3.1 100 22:19 14.01.2020
4635 Mist 20 1013 94 2500 3.6 100 21:58 14.01.2020
4636 Mist 20 1013 94 2500 3.6 100 21:58 14.01.2020
4637 Mist 20 1013 94 1900 3.6 100 21:40 14.01.2020
4638 Mist 20 1013 94 1900 3.6 100 21:21 14.01.2020
4639 Mist 20 1013 94 2300 4.1 120 20:58 14.01.2020
4640 Mist 20 1013 94 2500 2.6 110 20:40 14.01.2020
4641 Mist 20 1013 94 2500 2.6 110 20:19 14.01.2020
4642 Mist 20 1013 94 2500 2.6 110 19:56 14.01.2020
4643 Mist 21 1014 88 3300 3.1 100 19:37 14.01.2020
4644 Mist 21 1014 88 3300 3.1 100 19:18 14.01.2020
4645 Mist 20 1014 94 3400 3.6 110 18:41 14.01.2020
4646 Mist 20 1014 94 3400 3.6 110 18:21 14.01.2020
4647 Mist 20 1014 94 3400 3.6 110 17:59 14.01.2020
4648 Mist 20 1014 94 2600 2.6 120 17:37 14.01.2020
4649 Mist 20 1014 94 2600 2.6 120 17:19 14.01.2020
4650 Mist 20 1014 88 2500 1 0 16:55 14.01.2020
4651 Mist 19 1014 93 2400 1.5 100 16:37 14.01.2020
4652 Mist 19 1014 93 2400 1.5 100 16:18 14.01.2020
4653 Mist 20 1014 88 2700 1 100 15:42 14.01.2020
4654 Mist 20 1014 88 2700 1 100 15:19 14.01.2020
4655 Mist 20 1014 88 2800 0.5 0 14:47 14.01.2020
4656 Mist 20 1014 88 2800 0.5 0 14:23 14.01.2020
4657 Mist 20 1014 88 3000 1 0 13:59 14.01.2020
4658 Mist 20 1014 88 3000 1 0 13:59 14.01.2020
4659 Mist 20 1013 88 3000 1 0 13:40 14.01.2020
4660 Mist 20 1013 88 3000 1 0 13:19 14.01.2020
4661 Mist 21 1013 83 3100 1 300 12:42 14.01.2020
4662 Mist 21 1013 83 3100 1 300 12:23 14.01.2020
4663 Mist 21 1013 83 2100 1 0 11:57 14.01.2020
4664 Mist 21 1012 83 1800 1.5 330 11:38 14.01.2020
4665 Mist 21 1012 83 1800 1.5 330 11:20 14.01.2020
4666 Mist 21 1012 77 1900 1.5 330 10:55 14.01.2020
4667 Mist 21 1013 77 1900 1.5 210 10:36 14.01.2020
4668 Mist 21 1013 77 1900 1.5 210 10:18 14.01.2020
4669 Mist 21 1013 77 1900 1.5 210 10:18 14.01.2020
4670 Mist 22 1013 78 1900 1.5 0 09:42 14.01.2020
4671 Mist 22 1013 78 1900 1.5 0 09:21 14.01.2020
4672 Mist 21 1013 77 1900 1.5 280 08:57 14.01.2020
4673 Mist 21 1013 83 1900 2.1 240 08:39 14.01.2020
4674 Mist 21 1013 83 1900 2.1 240 08:20 14.01.2020
4675 Mist 21 1014 83 1700 2.6 260 07:38 14.01.2020
4676 Mist 21 1015 83 1500 2.1 280 06:59 14.01.2020
4677 Mist 20 1015 82 1300 1.5 290 06:40 14.01.2020
4678 Mist 19 1017 88 1300 2.1 290 05:33 14.01.2020
4679 Mist 19 1017 88 1500 1.5 300 04:22 14.01.2020
4680 Mist 18 1017 93 1800 1 0 03:35 14.01.2020
4681 Mist 18 1016 93 1300 1 0 02:26 14.01.2020
4682 Mist 18 1016 88 1700 1 50 01:18 14.01.2020
4683 Mist 18 1015 88 2400 1.5 80 00:39 14.01.2020
4684 Mist 18 1015 88 2600 1 0 23:59 13.01.2020
4685 Mist 18 1014 88 2800 1 70 23:37 13.01.2020
4686 Mist 18 1014 88 2800 1 70 23:18 13.01.2020
4687 Mist 18 1014 88 2900 0.5 60 22:45 13.01.2020
4688 Mist 17 1014 93 2900 0.5 0 22:22 13.01.2020
4689 Mist 17 1014 93 3000 1 50 21:58 13.01.2020
4690 Mist 18 1015 88 3300 0.5 0 21:39 13.01.2020
4691 Mist 18 1015 88 3300 0.5 0 21:19 13.01.2020
4692 Mist 18 1015 88 4100 1 0 20:59 13.01.2020
4693 Mist 18 1015 88 4200 0.5 0 20:41 13.01.2020
4694 Mist 18 1015 88 4200 0.5 0 20:22 13.01.2020
4695 Mist 18 1015 88 4200 0.5 0 20:22 13.01.2020
4696 Mist 18 1015 88 4200 0.5 0 20:22 13.01.2020
4697 Mist 18 1015 88 4100 1.5 70 19:59 13.01.2020
4698 Mist 17 1015 93 4400 1.5 80 19:40 13.01.2020
4699 Mist 17 1015 93 4400 1.5 80 19:20 13.01.2020
4700 Mist 17 1015 93 4400 2.1 90 18:57 13.01.2020
4701 Mist 18 1015 88 4500 1.5 80 18:37 13.01.2020
4702 Mist 18 1015 88 4500 1.5 80 18:37 13.01.2020
4703 Mist 18 1015 88 4500 1.5 80 18:19 13.01.2020
4704 Mist 18 1016 88 5000 1 0 17:44 13.01.2020
4705 Mist 17 1016 93 4100 1.5 350 17:25 13.01.2020
4706 Clouds 20 1016 87 0 2.82 117 16:58 13.01.2020
4707 Clouds 20 1016 87 0 2.82 117 16:38 13.01.2020
4708 Clouds 20 1016 87 0 2.82 117 16:20 13.01.2020
4709 Clouds 20 1016 87 0 2.82 117 15:54 13.01.2020
4710 Clouds 20 1016 87 0 2.82 117 15:36 13.01.2020
4711 Clouds 20 1016 87 0 2.82 117 15:18 13.01.2020
4712 Clouds 20 1016 87 0 2.82 117 14:40 13.01.2020
4713 Clouds 20 1014 84 0 3.33 122 14:22 13.01.2020
4714 Clouds 20 1014 84 0 3.33 122 13:56 13.01.2020
4715 Clouds 20 1014 84 0 3.33 122 13:56 13.01.2020
4716 Clouds 20 1014 84 0 3.33 122 13:37 13.01.2020
4717 Clouds 20 1014 81 0 3.38 126 13:19 13.01.2020
4718 Mist 18 1014 82 3800 1 0 12:43 13.01.2020
4719 Mist 18 1014 82 3800 1 0 12:23 13.01.2020
4720 Mist 18 1014 82 3800 1 0 12:23 13.01.2020
4721 Mist 18 1014 82 3800 1 0 11:58 13.01.2020
4722 Mist 17 1014 82 3400 1 0 11:38 13.01.2020
4723 Mist 17 1014 82 3400 1 0 11:38 13.01.2020
4724 Mist 17 1014 82 3400 1 0 11:19 13.01.2020
4725 Mist 17 1013 88 3200 1.5 10 10:56 13.01.2020
4726 Mist 17 1014 88 3800 1 0 10:38 13.01.2020
4727 Mist 17 1014 88 3800 1 0 10:19 13.01.2020
4728 Mist 17 1013 88 3600 1.5 70 09:44 13.01.2020
4729 Mist 17 1013 88 4200 1.5 70 09:24 13.01.2020
4730 Mist 17 1014 88 3500 1.5 50 08:57 13.01.2020
4731 Mist 17 1014 88 3500 1.5 50 08:57 13.01.2020
4732 Mist 17 1014 88 3400 1.5 50 08:37 13.01.2020
4733 Mist 17 1014 88 3400 1.5 50 08:18 13.01.2020
4734 Mist 16 1015 93 2800 2.1 50 07:43 13.01.2020
4735 Mist 16 1015 93 2700 2.1 50 07:24 13.01.2020
4736 Drizzle 16 1016 87 2000 1 0 06:37 13.01.2020
4737 Drizzle 16 1016 87 2000 1 0 06:37 13.01.2020
4738 Drizzle 16 1018 93 1700 1.5 50 05:37 13.01.2020
4739 Drizzle 16 1018 93 1700 1.5 50 05:37 13.01.2020
4740 Drizzle 16 1018 93 1700 1.5 50 05:18 13.01.2020
4741 Drizzle 15 1018 93 1200 0.5 0 03:41 13.01.2020
4742 Drizzle 15 1017 93 1700 1 0 02:50 13.01.2020
4743 Drizzle 15 1017 93 1600 1.5 60 02:30 13.01.2020
4744 Drizzle 15 1017 93 1600 1.5 60 02:30 13.01.2020
4745 Drizzle 15 1017 87 2900 2.6 40 01:33 13.01.2020
4746 Mist 15 1016 87 5000 2.1 50 00:44 13.01.2020
4747 Mist 15 1016 87 5000 1.5 50 00:26 13.01.2020
4748 Clouds 15 1016 87 7000 2.6 40 23:57 12.01.2020
4749 Clouds 16 1016 77 8000 3.1 40 23:39 12.01.2020
4750 Clouds 16 1016 77 8000 3.1 40 23:21 12.01.2020
4751 Clouds 16 1016 77 9000 2.6 50 22:45 12.01.2020
4752 Clouds 16 1016 77 10000 1.5 30 22:27 12.01.2020
4753 Clouds 16 1016 77 10000 1 0 21:59 12.01.2020
4754 Clouds 16 1016 77 10000 1 360 21:40 12.01.2020
4755 Clouds 16 1016 77 10000 1 360 21:20 12.01.2020
4756 Clouds 17 1016 72 10000 1.5 360 20:58 12.01.2020
4757 Clouds 17 1016 72 10000 1.5 360 20:39 12.01.2020
4758 Clouds 17 1016 72 10000 1.5 360 20:21 12.01.2020
4759 Clouds 17 1016 77 10000 1 0 19:56 12.01.2020
4760 Clouds 17 1016 77 10000 1 0 19:56 12.01.2020
4761 Clouds 17 1016 77 10000 1 0 19:56 12.01.2020
4762 Clouds 17 1016 72 10000 1 0 19:38 12.01.2020
4763 Clouds 17 1016 72 10000 1 0 19:38 12.01.2020
4764 Clouds 17 1016 72 10000 1 0 19:19 12.01.2020
4765 Clouds 17 1017 72 9000 1 50 18:58 12.01.2020
4766 Clouds 17 1017 72 9000 1 50 18:58 12.01.2020
4767 Clouds 17 1017 72 8000 1 0 18:40 12.01.2020
4768 Clouds 17 1017 72 8000 1 0 18:40 12.01.2020
4769 Clouds 17 1017 72 8000 1 0 18:21 12.01.2020
4770 Clouds 17 1017 67 9000 1.5 120 17:58 12.01.2020
4771 Clouds 17 1017 67 8000 2.1 100 17:38 12.01.2020
4772 Clouds 17 1017 67 8000 2.1 100 17:19 12.01.2020
4773 Clouds 17 1017 67 9000 1.5 90 16:55 12.01.2020
4774 Clouds 17 1017 72 9000 1.5 70 16:37 12.01.2020
4775 Clouds 17 1017 72 9000 1.5 70 16:18 12.01.2020
4776 Clouds 17 1017 67 10000 1 0 15:42 12.01.2020
4777 Clouds 17 1017 67 10000 1 0 15:24 12.01.2020
4778 Clouds 17 1017 67 10000 2.1 110 14:57 12.01.2020
4779 Clouds 17 1016 67 10000 2.1 90 14:38 12.01.2020
4780 Clouds 17 1016 67 10000 2.1 90 14:19 12.01.2020
4781 Clouds 17 1016 63 10000 2.1 120 13:43 12.01.2020
4782 Clouds 17 1016 63 10000 2.1 150 13:24 12.01.2020
4783 Clouds 17 1016 67 10000 1.5 100 12:58 12.01.2020
4784 Clouds 17 1016 67 10000 1.5 90 12:38 12.01.2020
4785 Clouds 17 1016 67 10000 1.5 90 12:20 12.01.2020
4786 Clouds 17 1016 67 10000 1.5 80 11:57 12.01.2020
4787 Clouds 17 1016 67 10000 1.5 70 11:38 12.01.2020
4788 Clouds 17 1016 67 10000 1.5 70 11:19 12.01.2020
4789 Clouds 18 1015 59 10000 2.1 90 10:41 12.01.2020
4790 Clouds 18 1015 59 10000 2.1 90 10:21 12.01.2020
4791 Clouds 18 1015 59 10000 2.1 80 09:56 12.01.2020
4792 Clouds 18 1015 59 10000 2.6 80 09:38 12.01.2020
4793 Clouds 18 1015 59 10000 2.6 80 09:18 12.01.2020
4794 Clouds 18 1016 55 10000 2.6 50 08:42 12.01.2020
4795 Clouds 18 1016 55 10000 2.6 50 08:19 12.01.2020
4796 Clouds 18 1017 55 10000 3.6 40 07:40 12.01.2020
4797 Clouds 18 1017 55 10000 3.6 40 07:21 12.01.2020
4798 Clouds 18 1019 55 10000 3.6 10 06:43 12.01.2020
4799 Clouds 18 1019 55 10000 3.6 10 06:19 12.01.2020
4800 Clouds 16 1021 63 10000 3.6 360 05:23 12.01.2020
4801 Clouds 16 1021 67 10000 3.6 10 03:47 12.01.2020
4802 Clouds 16 1021 67 10000 3.1 360 03:22 12.01.2020
4803 Clouds 15 1020 72 10000 3.1 10 02:30 12.01.2020
4804 Clouds 15 1019 77 10000 2.6 20 01:42 12.01.2020
4805 Clouds 15 1019 77 10000 2.6 20 01:21 12.01.2020
4806 Clouds 15 1019 77 10000 2.6 20 01:21 12.01.2020
4807 Clouds 15 1019 72 10000 3.6 10 00:40 12.01.2020
4808 Clouds 15 1019 72 10000 3.6 10 00:19 12.01.2020
4809 Clouds 15 1018 72 10000 4.6 10 23:42 11.01.2020
4810 Clouds 15 1018 72 10000 4.6 10 23:19 11.01.2020
4811 Clouds 15 1018 77 10000 2.6 30 22:57 11.01.2020
4812 Rain 15 1018 77 10000 4.1 40 22:39 11.01.2020
4813 Rain 15 1018 77 10000 4.1 40 22:20 11.01.2020
4814 Rain 15 1018 77 10000 3.6 30 21:54 11.01.2020
4815 Clouds 15 1018 77 10000 3.6 20 21:36 11.01.2020
4816 Clouds 15 1018 77 10000 3.6 20 21:18 11.01.2020
4817 Rain 14 1018 82 10000 4.6 30 20:40 11.01.2020
4818 Rain 14 1018 82 10000 4.6 30 20:20 11.01.2020
4819 Clouds 15 1017 77 10000 5.7 40 19:58 11.01.2020
4820 Clouds 14 1018 82 10000 5.1 10 19:38 11.01.2020
4821 Clouds 14 1018 82 10000 5.1 10 19:38 11.01.2020
4822 Clouds 14 1018 82 10000 5.1 10 19:20 11.01.2020
4823 Rain 14 1018 82 10000 4.6 20 18:56 11.01.2020
4824 Clouds 17 1017 63 10000 3.6 40 18:37 11.01.2020
4825 Clouds 17 1017 63 10000 3.6 40 18:19 11.01.2020
4826 Clouds 17 1017 63 10000 3.6 40 17:57 11.01.2020
4827 Clouds 17 1017 67 10000 3.1 50 17:39 11.01.2020
4828 Clouds 17 1017 67 10000 3.1 50 17:18 11.01.2020
4829 Clouds 17 1017 63 10000 4.1 50 16:44 11.01.2020
4830 Clouds 17 1016 63 10000 5.7 50 16:25 11.01.2020
4831 Clouds 17 1016 67 10000 6.2 50 15:56 11.01.2020
4832 Clouds 17 1016 67 10000 7.2 50 15:38 11.01.2020
4833 Clouds 17 1016 67 10000 7.2 50 15:19 11.01.2020
4834 Clouds 17 1016 67 10000 6.2 50 14:46 11.01.2020
4835 Clouds 18 1016 68 10000 6.7 50 14:25 11.01.2020
4836 Clouds 18 1015 68 10000 7.2 50 13:57 11.01.2020
4837 Clouds 18 1015 72 10000 7.7 50 13:37 11.01.2020
4838 Clouds 18 1015 72 10000 7.7 50 13:19 11.01.2020
4839 Rain 18 1014 77 10000 7.2 50 12:44 11.01.2020
4840 Rain 18 1014 77 10000 7.2 50 12:26 11.01.2020
4841 Rain 19 1014 82 10000 6.7 50 11:56 11.01.2020
4842 Rain 21 1013 73 7000 7.7 70 11:38 11.01.2020
4843 Rain 21 1013 73 7000 7.7 70 11:18 11.01.2020
4844 Clouds 23 1013 78 8000 4.6 70 10:44 11.01.2020
4845 Clouds 23 1012 78 8000 5.1 80 10:24 11.01.2020
4846 Clouds 23 1012 78 9000 5.1 70 09:42 11.01.2020
4847 Clouds 23 1012 78 9000 5.1 70 09:21 11.01.2020
4848 Clouds 24 1012 73 7000 5.1 80 08:43 11.01.2020
4849 Clouds 24 1012 73 8000 5.7 80 08:23 11.01.2020
4850 Clouds 25 1013 69 9000 4.6 90 07:45 11.01.2020
4851 Clouds 25 1013 69 9000 4.6 90 07:26 11.01.2020
4852 Clouds 26 1013 61 10000 3.6 130 06:56 11.01.2020
4853 Clouds 26 1014 61 10000 3.6 160 06:28 11.01.2020
4854 Clouds 25 1015 69 10000 3.1 130 04:49 11.01.2020
4855 Clouds 24 1016 73 8000 3.6 120 04:30 11.01.2020
4856 Mist 24 1016 78 5000 2.6 120 03:58 11.01.2020
4857 Mist 22 1015 88 3000 3.6 110 02:43 11.01.2020
4858 Mist 21 1014 94 2500 3.1 90 01:44 11.01.2020
4859 Mist 21 1014 94 4000 3.1 110 01:21 11.01.2020
4860 Mist 21 1014 94 4000 3.1 110 01:21 11.01.2020
4861 Mist 21 1014 88 5000 2.6 100 00:47 11.01.2020
4862 Clouds 21 1013 88 6000 2.6 100 00:20 11.01.2020
4863 Clouds 21 1013 94 6000 3.1 130 23:41 10.01.2020
4864 Clouds 21 1013 94 6000 3.1 130 23:22 10.01.2020
4865 Clouds 21 1013 94 7000 3.6 130 22:59 10.01.2020
4866 Clouds 21 1013 94 6000 3.6 130 22:40 10.01.2020
4867 Clouds 21 1013 94 6000 3.6 130 22:21 10.01.2020
4868 Mist 21 1013 94 5000 3.1 110 21:58 10.01.2020
4869 Mist 21 1013 94 5000 4.1 130 21:39 10.01.2020
4870 Mist 21 1013 94 5000 4.1 130 21:19 10.01.2020
4871 Mist 21 1013 94 4200 4.1 120 20:55 10.01.2020
4872 Mist 21 1013 94 3300 3.1 100 20:37 10.01.2020
4873 Mist 21 1013 94 3300 3.1 100 20:18 10.01.2020
4874 Mist 20 1013 94 4200 2.1 80 19:39 10.01.2020
4875 Mist 20 1013 94 4200 2.1 80 19:20 10.01.2020
4876 Mist 21 1013 88 4700 3.1 100 18:44 10.01.2020
4877 Mist 21 1013 88 4700 2.1 80 18:20 10.01.2020
4878 Clear 21 1013 88 8000 3.6 100 17:58 10.01.2020
4879 Clear 21 1013 88 9000 3.6 110 17:39 10.01.2020
4880 Clear 21 1013 88 9000 3.6 110 17:21 10.01.2020
4881 Clear 22 1013 83 10000 4.1 120 16:59 10.01.2020
4882 Clear 22 1013 83 10000 4.6 130 16:40 10.01.2020
4883 Clear 22 1013 83 10000 4.6 130 16:21 10.01.2020
4884 Clear 22 1013 83 10000 4.6 130 16:21 10.01.2020
4885 Clear 23 1013 78 10000 4.6 130 15:56 10.01.2020
4886 Clear 23 1013 78 10000 4.6 120 15:37 10.01.2020
4887 Clear 23 1013 78 10000 4.6 120 15:18 10.01.2020
4888 Clear 23 1013 78 10000 4.1 120 14:56 10.01.2020
4889 Clear 24 1012 69 10000 4.1 120 14:38 10.01.2020
4890 Clouds 24 1012 64 10000 4.6 130 14:18 10.01.2020
4891 Clouds 25 1012 61 10000 3.1 130 13:44 10.01.2020
4892 Clouds 25 1012 61 10000 3.1 130 13:26 10.01.2020
4893 Clouds 26 1011 57 10000 3.6 130 12:59 10.01.2020
4894 Clouds 26 1011 57 10000 3.1 140 12:39 10.01.2020
4895 Clouds 26 1011 57 10000 3.1 140 12:21 10.01.2020
4896 Clouds 27 1011 54 10000 4.1 150 11:56 10.01.2020
4897 Clouds 27 1011 54 10000 4.6 160 11:38 10.01.2020
4898 Clouds 27 1011 54 10000 4.6 160 11:38 10.01.2020
4899 Clouds 27 1011 54 10000 4.6 160 11:18 10.01.2020
4900 Clouds 28 1011 51 10000 5.7 140 10:58 10.01.2020
4901 Clouds 27 1011 54 10000 5.7 160 10:36 10.01.2020
4902 Clouds 27 1011 54 10000 5.7 160 10:18 10.01.2020
4903 Clouds 28 1011 51 10000 5.1 160 09:43 10.01.2020
4904 Clouds 28 1011 51 10000 5.7 150 09:24 10.01.2020
4905 Clouds 27 1012 54 10000 4.1 170 08:43 10.01.2020
4906 Clouds 27 1012 54 10000 4.1 170 08:24 10.01.2020
4907 Clouds 27 1012 57 10000 4.1 160 07:48 10.01.2020
4908 Clouds 28 1013 54 10000 4.1 170 07:30 10.01.2020
4909 Clouds 27 1013 57 10000 4.6 160 06:56 10.01.2020
4910 Clouds 27 1014 57 10000 4.6 160 06:27 10.01.2020
4911 Clouds 26 1015 65 10000 4.6 170 05:59 10.01.2020
4912 Clouds 25 1016 69 10000 4.6 160 03:50 10.01.2020
4913 Clouds 24 1016 78 8000 4.6 140 03:31 10.01.2020
4914 Clouds 24 1015 78 6000 3.6 130 02:51 10.01.2020
4915 Mist 22 1015 88 3200 4.1 120 01:53 10.01.2020
4916 Mist 22 1014 88 2600 3.6 130 01:29 10.01.2020
4917 Mist 21 1014 94 3900 4.1 130 00:48 10.01.2020
4918 Mist 21 1014 94 3600 3.1 110 00:30 10.01.2020
4919 Mist 21 1013 94 4900 3.6 130 23:40 09.01.2020
4920 Mist 21 1013 94 4900 3.6 130 23:21 09.01.2020
4921 Mist 21 1013 94 4900 3.6 130 23:21 09.01.2020
4922 Mist 22 1013 88 5000 3.1 140 22:58 09.01.2020
4923 Clouds 22 1013 88 6000 3.6 130 22:39 09.01.2020
4924 Clouds 22 1013 88 6000 3.6 130 22:19 09.01.2020
4925 Clouds 22 1013 88 6000 3.6 130 22:19 09.01.2020
4926 Clouds 22 1013 88 6000 3.1 120 21:57 09.01.2020
4927 Clouds 22 1013 88 6000 3.1 120 21:57 09.01.2020
4928 Clouds 22 1013 88 6000 3.1 140 21:39 09.01.2020
4929 Clouds 22 1013 88 6000 3.1 140 21:20 09.01.2020
4930 Clouds 22 1013 88 7000 3.1 140 20:58 09.01.2020
4931 Clouds 22 1013 88 7000 3.1 140 20:39 09.01.2020
4932 Clouds 22 1013 88 7000 4.1 130 20:20 09.01.2020
4933 Clouds 22 1013 88 7000 4.1 130 20:20 09.01.2020
4934 Clouds 22 1013 88 7000 4.1 130 19:59 09.01.2020
4935 Clouds 22 1013 88 8000 4.1 140 19:39 09.01.2020
4936 Clouds 22 1013 88 8000 4.1 140 19:20 09.01.2020
4937 Clouds 22 1014 88 8000 4.1 140 18:56 09.01.2020
4938 Clouds 22 1014 88 9000 4.1 140 18:38 09.01.2020
4939 Clouds 22 1014 88 9000 4.1 140 18:20 09.01.2020
4940 Clouds 23 1014 83 9000 4.1 150 17:41 09.01.2020
4941 Clouds 23 1013 83 7000 3.6 130 17:19 09.01.2020
4942 Clouds 22 1013 88 8000 4.1 120 16:56 09.01.2020
4943 Clouds 23 1013 83 9000 4.1 130 16:37 09.01.2020
4944 Clouds 23 1013 83 9000 4.1 130 16:19 09.01.2020
4945 Clouds 23 1013 78 8000 4.6 130 15:41 09.01.2020
4946 Clear 23 1014 83 7000 4.1 120 15:21 09.01.2020
4947 Clear 23 1013 83 9000 4.6 120 14:55 09.01.2020
4948 Clear 24 1013 78 9000 4.6 120 14:37 09.01.2020
4949 Clouds 24 1013 78 9000 4.6 120 14:18 09.01.2020
4950 Clouds 24 1013 78 10000 5.1 130 13:55 09.01.2020
4951 Clouds 25 1013 73 10000 4.1 110 13:36 09.01.2020
4952 Clouds 25 1013 73 10000 4.1 110 13:18 09.01.2020
4953 Clouds 25 1013 73 10000 4.1 130 12:42 09.01.2020
4954 Clouds 26 1012 65 10000 4.1 130 12:42 09.01.2020
4955 Clouds 26 1012 65 10000 4.1 130 12:23 09.01.2020
4956 Clouds 26 1012 65 10000 4.6 130 11:59 09.01.2020
4957 Clouds 26 1012 65 10000 4.6 130 11:41 09.01.2020
4958 Clouds 27 1012 57 10000 4.1 140 11:22 09.01.2020
4959 Clouds 27 1012 57 10000 3.1 0 10:45 09.01.2020
4960 Clouds 28 1012 54 10000 3.6 140 10:23 09.01.2020
4961 Clouds 28 1012 54 10000 2.6 170 09:59 09.01.2020
4962 Clouds 28 1012 54 10000 2.6 190 09:40 09.01.2020
4963 Clouds 28 1012 54 10000 2.6 190 09:21 09.01.2020
4964 Clouds 27 1013 57 10000 3.6 200 08:56 09.01.2020
4965 Clouds 28 1013 54 10000 3.1 210 08:37 09.01.2020
4966 Clouds 28 1013 54 10000 3.1 210 08:19 09.01.2020
4967 Clouds 26 1014 65 9000 3.6 150 07:42 09.01.2020
4968 Clouds 26 1014 65 9000 3.6 150 07:24 09.01.2020
4969 Clouds 25 1017 69 6000 2.1 130 06:39 09.01.2020
4970 Clouds 25 1017 69 6000 2.1 130 06:20 09.01.2020
4971 Clouds 25 1017 69 6000 2.1 130 05:50 09.01.2020
4972 Clouds 25 1017 69 6000 2.1 130 05:50 09.01.2020
4973 Mist 23 1018 73 4700 3.1 100 04:44 09.01.2020
4974 Mist 22 1018 78 4700 2.6 70 03:54 09.01.2020
4975 Mist 21 1017 88 3500 2.6 70 02:54 09.01.2020
4976 Mist 21 1017 88 3400 2.1 60 02:28 09.01.2020
4977 Mist 21 1016 88 4400 2.1 70 01:39 09.01.2020
4978 Mist 21 1016 88 5000 1.5 70 00:43 09.01.2020
4979 Mist 21 1016 88 5000 1.5 70 00:21 09.01.2020
4980 Clouds 21 1015 88 7000 1.5 80 23:44 08.01.2020
4981 Clouds 21 1015 88 8000 1 90 23:25 08.01.2020
4982 Clouds 21 1015 83 7000 1.5 70 22:59 08.01.2020
4983 Clouds 21 1015 83 7000 2.1 80 22:39 08.01.2020
4984 Clouds 21 1015 83 7000 2.1 80 22:20 08.01.2020
4985 Clouds 21 1015 83 9000 2.6 80 21:57 08.01.2020
4986 Clouds 21 1015 83 8000 2.6 80 21:38 08.01.2020
4987 Clouds 21 1015 83 8000 2.6 80 21:19 08.01.2020
4988 Clouds 21 1015 83 10000 2.6 100 20:58 08.01.2020
4989 Clouds 22 1016 78 9000 3.1 130 20:38 08.01.2020
4990 Clouds 22 1016 78 9000 3.1 130 20:20 08.01.2020
4991 Clouds 22 1016 78 8000 3.6 130 19:56 08.01.2020
4992 Clouds 22 1016 78 8000 3.6 130 19:56 08.01.2020
4993 Clouds 22 1016 78 8000 3.6 140 19:36 08.01.2020
4994 Clouds 22 1016 78 8000 3.6 140 19:36 08.01.2020
4995 Clouds 22 1016 78 8000 3.6 140 19:18 08.01.2020
4996 Clouds 22 1016 78 8000 3.1 140 18:55 08.01.2020
4997 Clouds 22 1016 78 8000 3.1 140 18:55 08.01.2020
4998 Clouds 22 1016 78 8000 3.1 140 18:55 08.01.2020
4999 Clouds 22 1016 78 9000 4.1 130 18:36 08.01.2020
5000 Clouds 22 1016 78 9000 4.1 130 18:18 08.01.2020
5001 Clouds 21 1016 83 7000 2.6 150 17:45 08.01.2020
5002 Clouds 21 1016 83 8000 4.1 150 17:24 08.01.2020
5003 Clouds 21 1016 88 10000 3.6 140 16:57 08.01.2020
5004 Clouds 22 1016 78 10000 2.6 0 16:39 08.01.2020
5005 Clouds 22 1016 78 10000 2.6 0 16:19 08.01.2020
5006 Clouds 22 1016 78 10000 2.6 0 16:19 08.01.2020
5007 Clouds 22 1016 73 9000 4.1 150 15:56 08.01.2020
5008 Clouds 22 1016 73 10000 4.1 140 15:38 08.01.2020
5009 Clouds 22 1016 73 10000 4.1 140 15:18 08.01.2020
5010 Clouds 23 1016 69 10000 4.1 130 14:41 08.01.2020
5011 Clouds 23 1016 64 10000 3.1 120 14:21 08.01.2020
5012 Clouds 23 1015 64 10000 4.1 130 13:56 08.01.2020
5013 Clouds 24 1015 64 10000 5.1 130 13:37 08.01.2020
5014 Clouds 24 1015 64 10000 5.1 130 13:18 08.01.2020
5015 Clouds 25 1014 65 10000 5.1 140 12:40 08.01.2020
5016 Clouds 25 1014 65 10000 5.1 140 12:18 08.01.2020
5017 Clouds 25 1014 65 10000 6.7 130 11:48 08.01.2020
5018 Clouds 26 1014 61 10000 7.2 130 11:20 08.01.2020
5019 Clouds 26 1014 61 10000 6.2 140 10:59 08.01.2020
5020 Clouds 28 1014 51 10000 4.1 170 10:40 08.01.2020
5021 Clouds 28 1014 51 10000 4.1 170 10:21 08.01.2020
5022 Clouds 28 1014 54 10000 5.1 150 09:43 08.01.2020
5023 Clouds 28 1014 54 10000 4.6 160 09:20 08.01.2020
5024 Clouds 28 1014 58 10000 4.6 160 08:59 08.01.2020
5025 Clouds 28 1014 58 10000 4.6 160 08:41 08.01.2020
5026 Clouds 28 1015 58 10000 4.6 150 08:22 08.01.2020
5027 Clouds 27 1015 61 10000 4.6 160 07:52 08.01.2020
5028 Clouds 27 1015 61 10000 4.6 160 07:52 08.01.2020
5029 Clouds 27 1016 61 10000 4.1 150 07:34 08.01.2020
5030 Clouds 27 1017 61 10000 3.6 150 06:58 08.01.2020
5031 Clouds 26 1017 69 9000 3.6 120 06:40 08.01.2020
5032 Clouds 26 1018 65 8000 4.1 140 05:55 08.01.2020
5033 Clouds 25 1019 73 6000 2.6 130 05:25 08.01.2020
5034 Clouds 24 1019 78 6000 3.1 110 04:36 08.01.2020
5035 Mist 22 1019 88 3100 3.1 90 02:46 08.01.2020
5036 Mist 21 1018 94 2800 3.1 90 02:28 08.01.2020
5037 Mist 21 1018 94 2100 2.1 80 01:55 08.01.2020
5038 Mist 21 1017 94 2200 1.5 70 01:29 08.01.2020
5039 Mist 21 1017 94 3500 2.1 80 00:42 08.01.2020
5040 Mist 21 1017 88 3900 2.1 80 00:21 08.01.2020
5041 Mist 21 1017 88 3900 2.6 80 23:45 07.01.2020
5042 Mist 21 1016 88 4100 2.6 80 23:20 07.01.2020
5043 Mist 21 1016 88 4100 2.6 80 22:41 07.01.2020
5044 Mist 21 1016 88 4100 2.6 80 22:21 07.01.2020
5045 Clouds 21 1016 88 6000 2.6 80 21:58 07.01.2020
5046 Clouds 21 1017 88 6000 1 0 21:40 07.01.2020
5047 Clouds 21 1017 88 6000 1 0 21:21 07.01.2020
5048 Clouds 21 1017 88 7000 1 0 20:57 07.01.2020
5049 Clouds 21 1017 88 8000 2.1 90 20:38 07.01.2020
5050 Clouds 21 1017 88 8000 2.1 90 20:20 07.01.2020
5051 Clouds 22 1017 83 8000 1.5 90 19:56 07.01.2020
5052 Clouds 22 1017 83 9000 2.1 120 19:37 07.01.2020
5053 Clouds 22 1017 83 9000 2.1 120 19:18 07.01.2020
5054 Clouds 22 1017 83 9000 2.1 120 19:18 07.01.2020
5055 Clouds 22 1017 83 9000 2.1 150 18:55 07.01.2020
5056 Clouds 22 1017 83 8000 3.1 150 18:36 07.01.2020
5057 Clouds 22 1017 83 8000 3.1 150 18:18 07.01.2020
5058 Mist 22 1017 88 4000 2.6 120 17:40 07.01.2020
5059 Mist 22 1017 88 4000 2.6 120 17:22 07.01.2020
5060 Mist 22 1017 88 3500 2.1 120 16:57 07.01.2020
5061 Mist 21 1017 94 3200 1.5 90 16:38 07.01.2020
5062 Mist 21 1017 94 3200 1.5 90 16:19 07.01.2020
5063 Mist 22 1017 88 3800 2.6 110 15:58 07.01.2020
5064 Mist 21 1016 88 3900 1.5 90 15:40 07.01.2020
5065 Mist 21 1016 88 3900 1.5 90 15:22 07.01.2020
5066 Mist 21 1016 94 4700 2.1 90 14:55 07.01.2020
5067 Mist 22 1016 88 4700 1 80 14:36 07.01.2020
5068 Mist 22 1016 88 4700 1 80 14:18 07.01.2020
5069 Mist 22 1016 88 5000 2.1 100 13:39 07.01.2020
5070 Mist 22 1016 88 5000 2.1 100 13:19 07.01.2020
5071 Clouds 23 1015 83 6000 1.5 70 12:41 07.01.2020
5072 Mist 23 1015 83 5000 1.5 50 12:19 07.01.2020
5073 Mist 24 1015 78 5000 2.1 50 11:45 07.01.2020
5074 Clouds 25 1015 69 6000 1.5 50 11:24 07.01.2020
5075 Clouds 25 1015 69 8000 1.5 120 10:59 07.01.2020
5076 Clouds 25 1015 69 6000 0.5 0 10:41 07.01.2020
5077 Clouds 25 1015 69 6000 0.5 0 10:41 07.01.2020
5078 Clouds 25 1015 69 6000 0.5 0 10:23 07.01.2020
5079 Clouds 25 1015 73 6000 1 0 09:57 07.01.2020
5080 Mist 25 1015 69 5000 1 0 09:38 07.01.2020
5081 Mist 25 1015 69 5000 1 0 09:20 07.01.2020
5082 Mist 24 1015 78 5000 1 0 08:42 07.01.2020
5083 Mist 24 1015 78 5000 2.1 220 08:22 07.01.2020
5084 Mist 24 1016 78 4600 1.5 0 07:54 07.01.2020
5085 Mist 24 1016 78 4700 2.1 170 07:27 07.01.2020
5086 Mist 23 1017 83 4600 2.6 190 06:53 07.01.2020
5087 Mist 23 1017 83 5000 1 0 06:32 07.01.2020
5088 Mist 22 1019 88 3500 1 0 05:49 07.01.2020
5089 Mist 21 1019 94 2700 2.1 60 04:33 07.01.2020
5090 Drizzle 21 1018 94 2100 2.6 70 03:26 07.01.2020
5091 Rain 20 1017 94 1300 2.6 60 02:21 07.01.2020
5092 Mist 20 1017 94 1900 3.6 50 01:51 07.01.2020
5093 Drizzle 20 1016 94 1700 2.1 50 01:26 07.01.2020
5094 Drizzle 20 1016 100 2700 2.6 70 00:23 07.01.2020
5095 Mist 21 1015 94 3400 3.1 80 23:59 06.01.2020
5096 Drizzle 21 1015 94 2900 3.1 80 23:39 06.01.2020
5097 Drizzle 21 1015 94 2900 3.1 80 23:21 06.01.2020
5098 Mist 21 1015 94 3500 2.6 80 22:56 06.01.2020
5099 Mist 21 1015 94 4000 2.6 80 22:37 06.01.2020
5100 Mist 21 1015 94 4000 2.6 80 22:19 06.01.2020
5101 Mist 21 1015 88 4700 2.6 70 21:55 06.01.2020
5102 Mist 21 1015 88 3700 2.1 60 21:36 06.01.2020
5103 Mist 21 1015 88 3700 2.1 60 21:36 06.01.2020
5104 Mist 21 1015 88 3700 2.1 60 21:18 06.01.2020
5105 Mist 21 1015 88 4100 2.6 80 20:54 06.01.2020
5106 Mist 21 1015 88 4100 2.6 80 20:54 06.01.2020
5107 Mist 21 1015 94 5000 3.6 110 20:36 06.01.2020
5108 Mist 21 1015 94 5000 3.6 110 20:18 06.01.2020
5109 Mist 21 1015 94 5000 4.1 100 19:55 06.01.2020
5110 Clouds 21 1015 88 6000 4.1 100 19:36 06.01.2020
5111 Clouds 21 1015 88 6000 4.1 100 19:36 06.01.2020
5112 Clouds 21 1015 88 6000 4.1 100 19:18 06.01.2020
5113 Clouds 21 1016 88 6000 3.6 110 18:43 06.01.2020
5114 Clouds 21 1016 88 6000 3.6 110 18:20 06.01.2020
5115 Mist 21 1016 94 5000 4.1 130 17:39 06.01.2020
5116 Mist 21 1016 94 5000 4.1 130 17:20 06.01.2020
5117 Clouds 21 1016 88 6000 4.1 130 16:57 06.01.2020
5118 Clouds 21 1016 94 6000 4.6 110 16:38 06.01.2020
5119 Clouds 21 1016 94 6000 4.6 110 16:19 06.01.2020
5120 Clouds 22 1016 88 7000 4.1 110 15:43 06.01.2020
5121 Clouds 22 1016 88 8000 5.1 140 15:21 06.01.2020
5122 Clouds 22 1015 88 8000 5.1 120 14:59 06.01.2020
5123 Clear 22 1014 83 7000 4.1 100 14:41 06.01.2020
5124 Clouds 22 1014 83 7000 4.1 100 14:22 06.01.2020
5125 Clouds 22 1014 83 8000 5.1 110 13:58 06.01.2020
5126 Clouds 24 1015 69 10000 4.1 120 13:38 06.01.2020
5127 Clouds 24 1015 69 10000 4.1 120 13:20 06.01.2020
5128 Clouds 24 1014 69 10000 3.6 120 12:44 06.01.2020
5129 Clouds 24 1014 69 10000 3.6 130 12:21 06.01.2020
5130 Clouds 25 1013 65 10000 5.1 140 11:59 06.01.2020
5131 Clouds 26 1013 61 10000 5.1 150 11:41 06.01.2020
5132 Clouds 26 1013 61 10000 5.1 150 11:23 06.01.2020
5133 Clouds 26 1013 61 10000 6.2 150 10:57 06.01.2020
5134 Clouds 26 1013 65 10000 5.7 140 10:39 06.01.2020
5135 Clouds 26 1013 65 10000 5.7 140 10:20 06.01.2020
5136 Clouds 26 1013 65 10000 5.7 130 09:39 06.01.2020
5137 Clouds 26 1013 65 10000 5.7 130 09:19 06.01.2020
5138 Clouds 26 1014 65 10000 5.7 130 08:46 06.01.2020
5139 Clouds 27 1014 57 10000 7.2 150 08:26 06.01.2020
5140 Clouds 26 1015 61 10000 6.2 150 07:53 06.01.2020
5141 Clouds 26 1015 65 10000 5.7 170 07:32 06.01.2020
5142 Clouds 25 1016 69 10000 6.2 160 06:45 06.01.2020
5143 Clouds 25 1017 69 10000 4.6 140 06:20 06.01.2020
5144 Clouds 25 1018 69 9000 4.1 160 05:45 06.01.2020
5145 Mist 23 1019 78 5000 5.1 120 04:37 06.01.2020
5146 Mist 23 1019 78 5000 5.1 120 04:18 06.01.2020
5147 Mist 22 1019 83 3500 4.1 110 02:46 06.01.2020
5148 Mist 21 1018 88 2700 4.1 110 02:23 06.01.2020
5149 Mist 21 1018 88 2500 3.1 100 01:44 06.01.2020
5150 Mist 20 1018 94 2300 2.1 90 01:24 06.01.2020
5151 Mist 20 1017 94 4600 2.6 120 00:41 06.01.2020
5152 Mist 20 1017 94 4600 2.6 120 00:20 06.01.2020
5153 Mist 20 1016 94 3800 2.6 110 23:41 05.01.2020
5154 Mist 20 1016 94 3800 2.6 110 23:22 05.01.2020
5155 Mist 20 1016 94 4600 2.1 110 22:55 05.01.2020
5156 Mist 20 1016 94 4100 2.6 100 22:37 05.01.2020
5157 Mist 20 1016 94 4100 2.6 100 22:19 05.01.2020
5158 Mist 20 1016 94 5000 3.6 100 21:41 05.01.2020
5159 Mist 20 1016 94 5000 3.6 100 21:21 05.01.2020
5160 Mist 20 1016 88 4200 3.6 110 20:59 05.01.2020
5161 Mist 20 1017 94 5000 3.6 110 20:40 05.01.2020
5162 Mist 20 1017 94 5000 3.6 110 20:20 05.01.2020
5163 Mist 20 1017 94 5000 3.6 110 20:20 05.01.2020
5164 Clouds 21 1017 88 6000 3.1 120 19:59 05.01.2020
5165 Clouds 21 1017 88 6000 3.1 120 19:41 05.01.2020
5166 Clouds 21 1017 88 6000 3.1 120 19:21 05.01.2020
5167 Clouds 21 1017 83 6000 2.6 130 18:56 05.01.2020
5168 Clouds 21 1017 83 7000 1.5 110 18:38 05.01.2020
5169 Clouds 21 1017 83 7000 1.5 110 18:19 05.01.2020
5170 Clouds 20 1018 88 6000 0.5 0 17:59 05.01.2020
5171 Clouds 20 1018 88 7000 2.1 120 17:39 05.01.2020
5172 Clouds 20 1018 88 7000 2.1 120 17:20 05.01.2020
5173 Clouds 21 1018 83 8000 1.5 100 16:57 05.01.2020
5174 Clouds 21 1018 83 9000 3.6 140 16:39 05.01.2020
5175 Clouds 21 1018 83 9000 3.6 140 16:20 05.01.2020
5176 Clouds 21 1018 83 9000 3.6 120 15:40 05.01.2020
5177 Clouds 21 1017 88 7000 4.6 130 15:22 05.01.2020
5178 Clouds 21 1017 88 6000 4.1 120 14:57 05.01.2020
5179 Clouds 21 1017 88 6000 4.1 120 14:57 05.01.2020
5180 Clouds 21 1017 88 6000 5.1 120 14:38 05.01.2020
5181 Clouds 21 1017 88 6000 5.1 120 14:20 05.01.2020
5182 Clouds 21 1017 88 8000 4.6 140 13:57 05.01.2020
5183 Clouds 21 1017 88 8000 3.6 140 13:38 05.01.2020
5184 Clouds 21 1017 88 8000 3.6 140 13:38 05.01.2020
5185 Clouds 21 1017 88 8000 3.6 140 13:20 05.01.2020
5186 Clouds 21 1017 88 8000 3.6 140 13:20 05.01.2020
5187 Clouds 21 1016 94 6000 4.1 130 12:56 05.01.2020
5188 Clouds 21 1016 94 6000 4.1 130 12:56 05.01.2020
5189 Rain 21 1016 94 4500 3.6 160 12:37 05.01.2020
5190 Rain 21 1016 94 4500 3.6 160 12:19 05.01.2020
5191 Rain 21 1016 94 4500 3.6 160 12:19 05.01.2020
5192 Mist 22 1016 88 4500 3.1 160 11:44 05.01.2020
5193 Rain 22 1016 88 4300 2.6 210 11:20 05.01.2020
5194 Mist 23 1016 83 5000 3.1 200 11:00 05.01.2020
5195 Mist 23 1016 83 4600 3.1 200 10:40 05.01.2020
5196 Mist 23 1016 83 4600 3.1 200 10:19 05.01.2020
5197 Clouds 23 1015 83 6000 3.1 200 09:42 05.01.2020
5198 Clouds 23 1015 83 6000 3.1 200 09:22 05.01.2020
5199 Rain 23 1016 83 4600 3.1 200 08:52 05.01.2020
5200 Clouds 24 1016 73 10000 3.1 200 08:32 05.01.2020
5201 Clouds 24 1016 69 10000 2.1 180 07:59 05.01.2020
5202 Clouds 24 1017 73 10000 3.6 180 07:39 05.01.2020
5203 Clouds 24 1017 73 10000 3.6 180 07:39 05.01.2020
5204 Clouds 24 1017 73 10000 3.6 180 07:20 05.01.2020
5205 Clouds 24 1018 73 10000 3.1 140 06:40 05.01.2020
5206 Clouds 24 1019 73 7000 4.1 120 05:38 05.01.2020
5207 Mist 23 1019 78 5000 3.6 120 04:49 05.01.2020
5208 Mist 22 1020 83 4400 3.1 120 04:18 05.01.2020
5209 Mist 22 1020 83 4400 3.1 120 04:18 05.01.2020
5210 Mist 21 1020 88 2900 2.1 70 03:18 05.01.2020
5211 Mist 20 1019 94 2000 2.1 90 02:32 05.01.2020
5212 Mist 20 1019 94 2000 1 0 01:49 05.01.2020
5213 Mist 20 1018 94 2200 0.5 0 01:20 05.01.2020
5214 Mist 20 1018 94 2800 2.1 80 00:56 05.01.2020
5215 Mist 20 1017 94 3100 1.5 90 00:37 05.01.2020
5216 Mist 20 1017 94 3100 1.5 90 00:19 05.01.2020
5217 Mist 20 1017 94 3100 0.5 0 23:40 04.01.2020
5218 Mist 20 1017 94 3000 1.5 90 23:20 04.01.2020
5219 Mist 20 1017 94 3100 1.5 70 22:40 04.01.2020
5220 Mist 20 1016 94 2800 1.5 80 22:22 04.01.2020
5221 Mist 20 1016 94 2800 1.5 80 22:22 04.01.2020
5222 Mist 20 1016 94 2800 1.5 80 22:22 04.01.2020
5223 Mist 20 1017 94 2700 0.5 0 21:58 04.01.2020
5224 Mist 20 1017 94 2700 0.5 0 21:40 04.01.2020
5225 Mist 20 1017 88 2700 1 100 21:21 04.01.2020
5226 Mist 20 1017 94 3000 1.5 120 20:59 04.01.2020
5227 Mist 20 1017 94 3500 2.1 120 20:40 04.01.2020
5228 Mist 20 1017 94 3500 2.1 120 20:22 04.01.2020
5229 Mist 20 1018 94 4100 1 160 19:57 04.01.2020
5230 Mist 20 1018 94 4500 1 0 19:38 04.01.2020
5231 Mist 20 1018 94 4500 1 0 19:20 04.01.2020
5232 Mist 19 1018 93 1400 2.09 138 18:56 04.01.2020
5233 Mist 19 1018 93 2700 0.5 50 18:37 04.01.2020
5234 Mist 19 1018 93 2700 0.5 50 18:18 04.01.2020
5235 Mist 20 1019 94 4500 0.5 0 17:41 04.01.2020
5236 Mist 20 1019 94 4500 0.5 0 17:23 04.01.2020
5237 Mist 20 1019 88 5000 1 0 16:58 04.01.2020
5238 Clouds 20 1019 88 6000 1.5 90 16:39 04.01.2020
5239 Clouds 20 1019 88 6000 1.5 90 16:39 04.01.2020
5240 Clouds 20 1019 88 6000 1.5 90 16:21 04.01.2020
5241 Clouds 20 1019 88 6000 2.1 100 15:54 04.01.2020
5242 Clouds 21 1019 88 6000 1.5 70 15:36 04.01.2020
5243 Clouds 21 1019 88 6000 1.5 70 15:18 04.01.2020
5244 Clouds 20 1018 94 7000 2.1 90 14:42 04.01.2020
5245 Clouds 21 1018 88 7000 2.6 100 14:20 04.01.2020
5246 Clouds 21 1018 88 8000 3.6 110 13:59 04.01.2020
5247 Clouds 21 1017 88 9000 4.6 120 13:38 04.01.2020
5248 Clouds 21 1017 88 9000 4.6 120 13:19 04.01.2020
5249 Clouds 22 1017 83 10000 4.6 110 12:57 04.01.2020
5250 Clouds 22 1016 83 10000 4.6 130 12:38 04.01.2020
5251 Clouds 22 1016 83 10000 4.6 130 12:18 04.01.2020
5252 Clouds 22 1016 83 10000 5.7 120 11:55 04.01.2020
5253 Clouds 23 1016 78 10000 6.2 130 11:36 04.01.2020
5254 Clouds 23 1016 78 10000 6.2 130 11:18 04.01.2020
5255 Clouds 24 1016 73 10000 4.1 120 10:40 04.01.2020
5256 Clouds 24 1016 73 10000 4.1 120 10:21 04.01.2020
5257 Clouds 24 1016 73 10000 4.6 110 09:47 04.01.2020
5258 Clouds 25 1016 73 10000 4.1 140 09:26 04.01.2020
5259 Clouds 24 1016 78 7000 3.1 110 08:49 04.01.2020
5260 Clouds 23 1017 83 7000 2.6 110 08:29 04.01.2020
5261 Mist 23 1017 88 3900 2.1 90 07:56 04.01.2020
5262 Mist 22 1017 88 3000 2.1 60 07:38 04.01.2020
5263 Rain 21 1019 94 1300 1.5 150 06:44 04.01.2020
5264 Rain 21 1020 88 1700 1 0 05:59 04.01.2020
5265 Rain 21 1021 88 4800 2.1 70 04:51 04.01.2020
5266 Mist 21 1021 88 5000 2.6 70 04:30 04.01.2020
5267 Mist 20 1021 94 3700 2.6 50 03:29 04.01.2020
5268 Rain 20 1021 94 2200 2.6 50 02:49 04.01.2020
5269 Rain 20 1020 94 1800 2.6 50 02:18 04.01.2020
5270 Rain 20 1020 94 1800 2.6 50 02:18 04.01.2020
5271 Drizzle 20 1020 94 1400 3.1 70 01:42 04.01.2020
5272 Rain 20 1020 94 2200 2.1 60 01:23 04.01.2020
5273 Mist 20 1019 94 4300 2.1 50 00:29 04.01.2020
5274 Rain 20 1019 94 4500 2.6 90 23:57 03.01.2020
5275 Rain 21 1019 83 6000 2.1 80 23:30 03.01.2020
5276 Rain 21 1019 83 6000 2.1 80 23:30 03.01.2020
5277 Clouds 21 1018 83 6000 2.1 60 22:59 03.01.2020
5278 Mist 21 1018 83 5000 1.5 80 22:40 03.01.2020
5279 Mist 21 1018 83 5000 1.5 80 22:19 03.01.2020
5280 Clouds 21 1018 83 7000 2.1 70 21:57 03.01.2020
5281 Clouds 21 1018 83 6000 2.6 100 21:38 03.01.2020
5282 Clouds 21 1018 83 6000 2.6 100 21:19 03.01.2020
5283 Clouds 21 1019 83 6000 2.6 120 20:55 03.01.2020
5284 Clouds 21 1019 83 6000 2.6 120 20:55 03.01.2020
5285 Clouds 21 1019 83 8000 2.1 110 20:36 03.01.2020
5286 Clouds 21 1019 83 8000 2.1 110 20:18 03.01.2020
5287 Clouds 21 1019 83 8000 2.1 110 20:18 03.01.2020
5288 Clouds 21 1019 83 8000 2.1 110 19:42 03.01.2020
5289 Clouds 21 1019 83 8000 2.1 110 19:23 03.01.2020
5290 Clouds 21 1019 83 8000 1.5 70 18:54 03.01.2020
5291 Clouds 21 1020 83 8000 2.1 130 18:36 03.01.2020
5292 Clouds 21 1020 83 8000 2.1 130 18:18 03.01.2020
5293 Clouds 21 1020 83 8000 3.1 130 17:41 03.01.2020
5294 Clouds 21 1020 83 8000 3.1 130 17:21 03.01.2020
5295 Clouds 21 1020 83 9000 3.6 130 16:45 03.01.2020
5296 Clouds 22 1021 78 10000 4.1 140 16:26 03.01.2020
5297 Clouds 22 1021 78 10000 4.1 140 16:00 03.01.2020
5298 Clouds 22 1020 78 10000 4.6 140 15:41 03.01.2020
5299 Clouds 22 1020 78 10000 4.6 140 15:19 03.01.2020
5300 Clouds 22 1020 78 10000 4.6 140 14:40 03.01.2020
5301 Clouds 22 1020 78 10000 4.6 140 14:40 03.01.2020
5302 Clouds 22 1020 78 10000 4.6 140 14:20 03.01.2020
5303 Clouds 23 1020 73 10000 5.1 150 13:57 03.01.2020
5304 Clouds 23 1020 73 10000 5.1 140 13:39 03.01.2020
5305 Clouds 23 1020 73 10000 5.1 140 13:39 03.01.2020
5306 Clouds 23 1020 73 10000 5.1 140 13:20 03.01.2020
5307 Clouds 24 1019 69 10000 4.6 150 12:41 03.01.2020
5308 Clouds 24 1019 69 10000 4.6 150 12:22 03.01.2020
5309 Clouds 25 1018 65 10000 3.6 150 11:53 03.01.2020
5310 Clouds 25 1018 65 10000 3.6 140 11:34 03.01.2020
5311 Clouds 25 1018 65 10000 4.1 130 10:58 03.01.2020
5312 Clouds 26 1018 61 10000 3.1 170 10:39 03.01.2020
5313 Clouds 26 1018 61 10000 3.1 170 10:21 03.01.2020
5314 Rain 25 1018 65 10000 2.6 170 09:55 03.01.2020
5315 Rain 26 1018 61 10000 3.1 140 09:37 03.01.2020
5316 Rain 26 1018 61 10000 3.1 140 09:19 03.01.2020
5317 Clouds 25 1018 65 10000 3.6 170 08:44 03.01.2020
5318 Clouds 26 1018 61 10000 3.1 150 08:22 03.01.2020
5319 Clouds 25 1019 65 10000 2.1 180 07:43 03.01.2020
5320 Clouds 25 1019 65 10000 2.6 120 07:19 03.01.2020
5321 Clouds 25 1020 65 9000 3.1 130 06:59 03.01.2020
5322 Clouds 25 1020 65 10000 2.1 120 06:40 03.01.2020
5323 Clouds 25 1020 65 10000 2.1 120 06:22 03.01.2020
5324 Clouds 25 1020 65 10000 2.1 120 06:22 03.01.2020
5325 Clouds 24 1022 73 9000 2.6 100 04:45 03.01.2020
5326 Clouds 22 1022 83 6000 2.6 130 03:38 03.01.2020
5327 Mist 22 1022 83 5000 2.6 130 02:53 03.01.2020
5328 Mist 21 1021 88 4100 1.5 110 01:50 03.01.2020
5329 Mist 20 1021 94 3800 2.6 110 01:18 03.01.2020
5330 Clouds 21 1021 83 6000 2.6 110 00:34 03.01.2020
5331 Clouds 21 1020 83 6000 3.6 120 23:59 02.01.2020
5332 Mist 21 1020 83 5000 3.1 100 23:39 02.01.2020
5333 Mist 21 1020 83 5000 3.1 100 23:20 02.01.2020
5334 Clouds 21 1020 83 7000 3.1 110 22:58 02.01.2020
5335 Clouds 21 1020 83 7000 3.6 130 22:39 02.01.2020
5336 Clouds 21 1020 83 7000 3.6 130 22:19 02.01.2020
5337 Clouds 21 1020 83 7000 3.1 130 21:55 02.01.2020
5338 Clouds 21 1020 83 8000 3.6 130 21:36 02.01.2020
5339 Clouds 21 1020 83 8000 3.6 130 21:18 02.01.2020
5340 Clouds 21 1020 83 10000 4.6 130 20:40 02.01.2020
5341 Clouds 21 1020 83 10000 4.6 130 20:21 02.01.2020
5342 Clouds 21 1021 83 10000 4.1 130 19:56 02.01.2020
5343 Clouds 21 1021 83 10000 4.1 130 19:38 02.01.2020
5344 Clouds 21 1021 83 10000 4.1 130 19:19 02.01.2020
5345 Clouds 21 1021 88 9000 5.1 130 18:59 02.01.2020
5346 Clouds 21 1021 88 9000 5.1 130 18:59 02.01.2020
5347 Clouds 21 1022 88 9000 5.7 130 18:41 02.01.2020
5348 Clouds 21 1022 88 9000 5.7 130 18:22 02.01.2020
5349 Clouds 21 1022 88 8000 4.6 120 17:57 02.01.2020
5350 Clouds 21 1022 88 8000 4.1 130 17:38 02.01.2020
5351 Clouds 21 1022 88 8000 4.1 130 17:19 02.01.2020
5352 Clouds 21 1022 88 7000 4.1 140 16:57 02.01.2020
5353 Clouds 21 1022 88 6000 2.6 140 16:39 02.01.2020
5354 Clouds 21 1022 88 6000 2.6 140 16:20 02.01.2020
5355 Clouds 21 1022 88 6000 3.1 130 15:56 02.01.2020
5356 Clouds 21 1022 88 6000 3.1 130 15:56 02.01.2020
5357 Clouds 21 1022 88 6000 3.6 120 15:37 02.01.2020
5358 Mist 21 1021 88 5000 3.1 110 15:19 02.01.2020
5359 Mist 21 1021 88 5000 3.1 110 14:54 02.01.2020
5360 Mist 21 1021 88 5000 3.1 110 14:54 02.01.2020
5361 Clouds 21 1021 88 6000 2.6 110 14:36 02.01.2020
5362 Clouds 21 1021 88 6000 3.1 120 14:18 02.01.2020
5363 Mist 22 1021 83 5000 3.1 120 13:45 02.01.2020
5364 Mist 22 1021 83 5000 3.1 120 13:26 02.01.2020
5365 Mist 22 1020 78 4700 2.1 70 12:43 02.01.2020
5366 Mist 23 1020 73 3400 2.1 60 12:24 02.01.2020
5367 Mist 24 1020 69 3900 2.1 60 11:43 02.01.2020
5368 Mist 24 1020 69 3900 2.1 60 11:24 02.01.2020
5369 Mist 24 1020 69 3800 2.1 70 10:56 02.01.2020
5370 Mist 24 1020 69 3800 2.1 70 10:56 02.01.2020
5371 Mist 24 1020 69 3700 2.1 60 10:36 02.01.2020
5372 Mist 24 1020 69 3700 2.1 60 10:18 02.01.2020
5373 Mist 24 1020 69 3800 2.6 70 09:41 02.01.2020
5374 Mist 24 1020 69 3800 2.6 70 09:21 02.01.2020
5375 Mist 24 1021 69 3800 1.5 330 08:41 02.01.2020
5376 Mist 24 1021 69 3800 1.5 330 08:22 02.01.2020
5377 Mist 24 1021 69 3500 2.1 360 07:47 02.01.2020
5378 Mist 24 1022 69 4100 1 0 07:27 02.01.2020
5379 Mist 24 1022 69 3800 1 0 06:43 02.01.2020
5380 Mist 23 1024 73 2400 2.6 110 05:42 02.01.2020
5381 Mist 22 1025 78 2600 2.6 110 04:36 02.01.2020
5382 Mist 22 1025 78 2900 1.5 110 03:54 02.01.2020
5383 Mist 20 1025 94 2300 1.5 110 02:21 02.01.2020
5384 Mist 20 1024 88 2200 1.5 110 01:53 02.01.2020
5385 Mist 20 1024 88 2400 1 0 01:25 02.01.2020
5386 Mist 20 1023 88 2900 1 0 00:45 02.01.2020
5387 Mist 20 1023 88 3300 1.34 125 00:26 02.01.2020
5388 Mist 20 1023 88 2800 1.5 340 23:43 01.01.2020
5389 Mist 20 1023 88 2800 1.5 340 23:21 01.01.2020
5390 Mist 20 1022 88 5000 1 0 22:39 01.01.2020
5391 Mist 20 1022 88 5000 1 0 22:39 01.01.2020
5392 Mist 20 1022 88 5000 1 0 22:39 01.01.2020
5393 Mist 20 1022 88 5000 1 0 22:20 01.01.2020
5394 Mist 20 1022 88 5000 1 0 22:20 01.01.2020
5395 Mist 20 1022 88 5000 1 0 22:20 01.01.2020
5396 Mist 20 1022 88 4000 1.06 139 21:58 01.01.2020
5397 Mist 20 1022 88 4400 1 250 21:39 01.01.2020
5398 Mist 20 1022 88 4400 1 250 21:20 01.01.2020
5399 Mist 20 1022 88 4400 1 250 21:20 01.01.2020
5400 Mist 21 1022 83 5000 1 0 20:57 01.01.2020
5401 Mist 21 1023 83 4500 1 0 20:38 01.01.2020
5402 Mist 21 1023 83 4500 1 0 20:38 01.01.2020
5403 Mist 21 1023 83 4500 1 0 20:19 01.01.2020
5404 Mist 21 1023 83 3500 2.1 260 19:55 01.01.2020
5405 Mist 20 1023 88 3200 1.5 300 19:37 01.01.2020
5406 Mist 20 1023 88 3200 1.5 300 19:19 01.01.2020
5407 Mist 20 1023 88 3200 1.5 330 18:56 01.01.2020
5408 Mist 20 1023 88 2900 1.5 330 18:36 01.01.2020
5409 Mist 20 1023 88 2900 1.5 330 18:18 01.01.2020
5410 Mist 20 1024 88 3300 1 0 17:57 01.01.2020
5411 Mist 20 1024 88 3200 0.5 0 17:38 01.01.2020
5412 Mist 20 1024 88 3200 0.5 0 17:19 01.01.2020
5413 Mist 21 1024 83 3800 2.1 110 16:42 01.01.2020
5414 Mist 21 1024 83 3800 2.1 110 16:24 01.01.2020
5415 Mist 21 1024 83 4200 3.1 130 15:58 01.01.2020
5416 Mist 21 1024 83 4600 2.1 120 15:40 01.01.2020
5417 Mist 21 1024 83 4600 2.1 120 15:40 01.01.2020
5418 Mist 21 1024 83 4600 2.1 120 15:22 01.01.2020
5419 Mist 21 1024 83 4500 0.5 0 14:59 01.01.2020
5420 Mist 21 1024 83 4500 0.5 0 14:40 01.01.2020
5421 Mist 21 1024 77 4800 1 0 14:22 01.01.2020
5422 Mist 22 1024 73 5000 1.5 170 13:56 01.01.2020
5423 Mist 22 1023 73 5000 2.1 150 13:37 01.01.2020
5424 Mist 22 1023 73 5000 2.1 150 13:19 01.01.2020
5425 Mist 22 1023 73 5000 2.6 130 12:57 01.01.2020
5426 Clouds 22 1023 73 6000 3.1 130 12:39 01.01.2020
5427 Clouds 22 1023 73 6000 3.1 130 12:19 01.01.2020
5428 Mist 23 1022 69 4000 1.5 180 11:43 01.01.2020
5429 Mist 23 1022 69 4000 1.5 180 11:23 01.01.2020
5430 Haze 23 1022 69 4000 2.6 130 10:59 01.01.2020
5431 Haze 23 1022 69 4500 2.6 140 10:41 01.01.2020
5432 Haze 23 1022 69 4500 2.6 140 10:21 01.01.2020
5433 Haze 23 1022 69 5000 2.6 150 09:58 01.01.2020
5434 Clouds 23 1022 69 6000 3.1 170 09:37 01.01.2020
5435 Clouds 23 1022 69 6000 3.1 170 09:18 01.01.2020
5436 Clouds 23 1022 69 6000 3.1 170 09:18 01.01.2020
5437 Haze 23 1022 64 5000 2.6 150 08:55 01.01.2020
5438 Haze 23 1022 64 5000 2.6 150 08:55 01.01.2020
5439 Clouds 23 1022 64 6000 2.1 180 08:36 01.01.2020
5440 Clouds 23 1022 64 6000 2.1 180 08:18 01.01.2020
5441 Haze 23 1023 64 4300 2.1 200 07:54 01.01.2020
5442 Haze 23 1023 69 4500 2.6 170 07:35 01.01.2020
5443 Clouds 23 1024 64 6000 2.6 170 06:44 01.01.2020
5444 Clouds 23 1024 64 6000 1 0 06:20 01.01.2020
5445 Clouds 22 1026 68 6000 1.5 10 05:21 01.01.2020
5446 Clouds 22 1026 68 6000 1.5 30 03:43 01.01.2020
5447 Mist 21 1026 73 5000 1.5 20 03:22 01.01.2020
5448 Mist 21 1025 73 4700 1 0 02:56 01.01.2020
5449 Mist 20 1025 77 3700 1.5 40 02:33 01.01.2020
5450 Mist 20 1025 77 3600 1.5 100 01:45 01.01.2020
5451 Mist 20 1024 77 3600 0.5 0 01:25 01.01.2020
5452 Mist 20 1024 77 4900 1 0 00:57 01.01.2020
5453 Mist 20 1024 82 4300 1 0 00:38 01.01.2020
5454 Mist 20 1024 82 4300 1 0 00:20 01.01.2020
5455 Mist 20 1023 88 3500 1.61 11 23:40 31.12.2019
5456 Mist 20 1023 88 3500 1.45 337 23:21 31.12.2019
5457 Mist 20 1023 82 4300 1.45 337 22:57 31.12.2019
5458 Mist 20 1023 82 3800 0.5 0 22:38 31.12.2019
5459 Mist 20 1023 82 3800 0.5 0 22:18 31.12.2019
5460 Rain 20 1023 88 3600 1 350 21:54 31.12.2019
5461 Rain 20 1023 88 3800 1 330 21:36 31.12.2019
5462 Rain 20 1023 88 3800 1 330 21:18 31.12.2019
5463 Mist 20 1024 88 4200 1 0 20:40 31.12.2019
5464 Mist 20 1024 88 4200 1 0 20:22 31.12.2019
5465 Mist 21 1024 83 4200 0.5 0 19:59 31.12.2019
5466 Mist 21 1024 77 4300 1 0 19:40 31.12.2019
5467 Mist 21 1024 77 4300 1 0 19:22 31.12.2019
5468 Mist 21 1024 77 4300 1 0 19:22 31.12.2019
5469 Mist 20 1024 82 4500 1.5 290 18:58 31.12.2019
5470 Mist 20 1024 88 4000 1.5 280 18:40 31.12.2019
5471 Mist 20 1024 88 4000 1.5 280 18:19 31.12.2019
5472 Mist 20 1024 88 3500 1.5 310 17:56 31.12.2019
5473 Mist 21 1024 83 3600 1 310 17:37 31.12.2019
5474 Mist 21 1024 83 3600 1 310 17:19 31.12.2019
5475 Mist 21 1024 83 3600 1 310 17:19 31.12.2019
5476 Mist 21 1024 77 4300 2.1 290 16:56 31.12.2019
5477 Mist 21 1024 83 4600 1.5 290 16:37 31.12.2019
5478 Mist 21 1024 83 4600 1.5 290 16:19 31.12.2019
5479 Mist 21 1024 77 4700 1.5 320 15:56 31.12.2019
5480 Mist 21 1024 77 5000 2.1 300 15:38 31.12.2019
5481 Mist 21 1024 77 5000 2.1 300 15:20 31.12.2019
5482 Mist 21 1024 77 4800 2.1 300 14:56 31.12.2019
5483 Mist 21 1024 77 5000 1.5 300 14:37 31.12.2019
5484 Mist 21 1024 77 5000 1.5 300 14:19 31.12.2019
5485 Mist 21 1024 77 4500 2.6 290 13:56 31.12.2019
5486 Mist 21 1023 77 4900 2.1 260 13:38 31.12.2019
5487 Mist 21 1023 77 4900 2.1 260 13:38 31.12.2019
5488 Mist 21 1023 77 4900 2.1 260 13:20 31.12.2019
5489 Mist 21 1023 77 4400 2.1 290 12:56 31.12.2019
5490 Mist 21 1022 77 4900 2.6 270 12:37 31.12.2019
5491 Mist 21 1022 77 4900 2.6 270 12:19 31.12.2019
5492 Mist 22 1022 73 3800 2.6 270 11:55 31.12.2019
5493 Mist 22 1022 73 3100 3.1 280 11:37 31.12.2019
5494 Mist 22 1022 73 3100 3.1 280 11:19 31.12.2019
5495 Mist 22 1022 73 3100 3.1 280 11:19 31.12.2019
5496 Mist 22 1022 73 3300 2.1 290 10:56 31.12.2019
5497 Haze 22 1022 68 3400 1 350 10:37 31.12.2019
5498 Haze 22 1022 68 3400 1 350 10:19 31.12.2019
5499 Mist 22 1022 68 5000 1 0 09:57 31.12.2019
5500 Mist 22 1022 68 5000 1 0 09:57 31.12.2019
5501 Clouds 22 1022 64 5000 1.5 340 09:38 31.12.2019
5502 Clouds 22 1022 64 5000 1.5 340 09:19 31.12.2019
5503 Clouds 23 1022 60 6000 2.6 350 08:42 31.12.2019
5504 Clouds 23 1022 60 6000 2.6 350 08:23 31.12.2019
5505 Clouds 23 1023 64 7000 3.1 360 07:57 31.12.2019
5506 Clouds 23 1023 60 6000 3.1 20 07:38 31.12.2019
5507 Clouds 23 1023 60 6000 3.1 20 07:18 31.12.2019
5508 Haze 23 1024 64 4800 4.1 20 06:29 31.12.2019
5509 Mist 22 1025 73 5000 2.1 20 04:58 31.12.2019
5510 Mist 22 1026 73 3700 1.5 350 04:25 31.12.2019
5511 Mist 20 1025 88 4400 0.5 0 02:58 31.12.2019
5512 Mist 20 1025 88 3600 1 0 02:21 31.12.2019
5513 Mist 20 1024 88 3100 1 0 01:51 31.12.2019
5514 Mist 20 1024 82 3500 1 0 01:32 31.12.2019
5515 Mist 19 1023 88 4900 1.5 280 00:49 31.12.2019
5516 Mist 19 1023 88 4800 1 280 00:26 31.12.2019
5517 Mist 19 1022 88 5000 1.5 290 23:59 30.12.2019
5518 Mist 20 1022 82 4600 1 0 23:41 30.12.2019
5519 Mist 20 1022 82 4600 1 0 23:23 30.12.2019
5520 Mist 19 1022 88 4400 1 320 22:59 30.12.2019
5521 Mist 19 1022 88 4400 1 320 22:41 30.12.2019
5522 Mist 19 1022 88 3800 1 290 22:21 30.12.2019
5523 Mist 20 1022 82 4100 2.1 320 21:57 30.12.2019
5524 Mist 20 1022 82 4100 2.1 320 21:57 30.12.2019
5525 Mist 20 1022 82 4300 2.1 310 21:39 30.12.2019
5526 Mist 20 1022 82 4300 2.1 310 21:20 30.12.2019
5527 Mist 20 1022 82 4100 2.1 290 20:58 30.12.2019
5528 Mist 20 1022 82 4300 2.1 290 20:40 30.12.2019
5529 Mist 20 1022 82 4300 2.1 290 20:40 30.12.2019
5530 Mist 20 1022 82 4300 2.1 290 20:20 30.12.2019
5531 Mist 20 1022 82 4500 2.6 310 19:58 30.12.2019
5532 Mist 20 1022 82 4500 2.1 300 19:39 30.12.2019
5533 Mist 20 1022 82 4500 2.1 300 19:19 30.12.2019
5534 Mist 20 1022 82 4500 2.1 300 18:59 30.12.2019
5535 Mist 20 1022 82 4500 2.1 300 18:40 30.12.2019
5536 Mist 20 1022 82 4800 3.1 290 18:20 30.12.2019
5537 Mist 20 1022 82 4400 2.6 290 17:57 30.12.2019
5538 Mist 20 1022 82 4000 2.1 290 17:39 30.12.2019
5539 Mist 20 1022 82 4000 2.1 290 17:19 30.12.2019
5540 Mist 20 1022 82 4000 2.6 300 16:58 30.12.2019
5541 Mist 20 1022 82 4200 2.6 310 16:37 30.12.2019
5542 Mist 20 1022 82 4200 2.6 310 16:19 30.12.2019
5543 Mist 19 1022 88 3700 2.6 290 15:55 30.12.2019
5544 Mist 20 1021 77 4100 2.1 290 15:37 30.12.2019
5545 Mist 19 1021 82 4300 2.1 300 15:18 30.12.2019
5546 Mist 19 1021 82 4300 2.1 300 14:43 30.12.2019
5547 Mist 20 1021 77 4300 1.5 280 14:43 30.12.2019
5548 Mist 20 1021 77 4300 1.5 280 14:20 30.12.2019
5549 Mist 20 1021 77 4000 1.5 310 13:57 30.12.2019
5550 Mist 20 1020 77 4100 2.1 330 13:39 30.12.2019
5551 Mist 20 1020 77 4100 2.1 330 13:21 30.12.2019
5552 Mist 20 1020 77 5000 2.1 290 12:56 30.12.2019
5553 Mist 20 1019 77 5000 2.6 290 12:36 30.12.2019
5554 Mist 20 1019 77 5000 2.6 290 12:18 30.12.2019
5555 Mist 22 1019 68 4100 2.1 270 11:40 30.12.2019
5556 Haze 22 1019 68 5000 3.1 260 11:19 30.12.2019
5557 Haze 23 1019 64 5000 2.6 280 10:57 30.12.2019
5558 Haze 23 1018 64 5000 2.6 290 10:38 30.12.2019
5559 Haze 23 1018 64 5000 2.6 290 10:18 30.12.2019
5560 Haze 23 1018 64 5000 2.6 300 09:41 30.12.2019
5561 Haze 23 1018 64 5000 2.6 300 09:20 30.12.2019
5562 Haze 23 1018 64 5000 2.6 0 08:55 30.12.2019
5563 Haze 23 1018 64 4900 2.6 270 08:36 30.12.2019
5564 Haze 23 1018 64 4900 2.6 270 08:18 30.12.2019
5565 Haze 23 1018 64 4900 2.6 270 08:18 30.12.2019
5566 Haze 23 1019 64 4600 2.6 290 07:40 30.12.2019
5567 Mist 22 1020 68 4400 2.1 300 06:55 30.12.2019
5568 Mist 20 1022 77 4500 1 0 05:24 30.12.2019
5569 Mist 19 1022 82 3700 2.1 300 03:58 30.12.2019
5570 Mist 19 1021 82 3500 2.6 300 03:19 30.12.2019
5571 Mist 19 1021 82 3300 2.1 290 02:40 30.12.2019
5572 Mist 18 1020 88 3100 1.5 320 01:55 30.12.2019
5573 Mist 18 1020 88 3100 2.1 290 01:23 30.12.2019
5574 Mist 18 1019 88 4500 1.5 280 00:45 30.12.2019
5575 Mist 18 1019 88 4800 1 300 00:19 30.12.2019
5576 Mist 18 1018 88 5000 1.5 260 23:39 29.12.2019
5577 Mist 18 1018 88 5000 1.5 260 23:21 29.12.2019
5578 Mist 18 1018 88 5000 1 270 22:55 29.12.2019
5579 Mist 18 1018 88 4900 1 0 22:37 29.12.2019
5580 Mist 18 1018 88 4900 1 0 22:18 29.12.2019
5581 Mist 18 1018 88 5000 1 0 21:43 29.12.2019
5582 Mist 18 1018 88 5000 2.1 300 21:21 29.12.2019
5583 Mist 19 1018 82 5000 1.5 290 20:57 29.12.2019
5584 Mist 18 1018 88 5000 2.1 290 20:39 29.12.2019
5585 Mist 18 1018 88 5000 2.1 290 20:20 29.12.2019
5586 Mist 19 1018 82 5000 1 300 19:59 29.12.2019
5587 Mist 19 1018 82 5000 1 300 19:40 29.12.2019
5588 Mist 19 1018 82 5000 1 0 19:21 29.12.2019
5589 Clouds 19 1018 77 6000 1.5 210 18:57 29.12.2019
5590 Clouds 19 1018 77 6000 1 0 18:38 29.12.2019
5591 Clouds 19 1018 77 6000 1 0 18:19 29.12.2019
5592 Mist 19 1018 77 5000 1 0 17:58 29.12.2019
5593 Mist 18 1019 82 5000 0.5 0 17:39 29.12.2019
5594 Mist 18 1019 82 5000 0.5 0 17:20 29.12.2019
5595 Clouds 18 1019 88 6000 2.1 300 16:56 29.12.2019
5596 Clouds 18 1018 82 6000 3.1 290 16:37 29.12.2019
5597 Clouds 18 1018 82 6000 3.1 290 16:19 29.12.2019
5598 Clouds 18 1018 82 6000 3.1 290 15:57 29.12.2019
5599 Clouds 18 1017 82 6000 2.1 280 15:39 29.12.2019
5600 Clouds 18 1017 82 6000 2.1 280 15:20 29.12.2019
5601 Clouds 18 1017 82 6000 1.5 290 14:57 29.12.2019
5602 Clouds 19 1017 77 7000 2.6 280 14:38 29.12.2019
5603 Clear 19 1017 77 7000 2.6 280 14:18 29.12.2019
5604 Clouds 19 1017 77 6000 2.6 290 13:57 29.12.2019
5605 Clear 20 1017 72 6000 3.6 290 13:38 29.12.2019
5606 Clouds 20 1017 72 6000 3.6 290 13:19 29.12.2019
5607 Clouds 21 1016 68 6000 4.1 290 12:45 29.12.2019
5608 Clouds 21 1016 68 6000 3.1 290 12:26 29.12.2019
5609 Haze 22 1016 64 5000 2.6 270 11:57 29.12.2019
5610 Haze 22 1016 64 5000 2.6 270 11:38 29.12.2019
5611 Haze 22 1016 64 5000 2.6 270 11:38 29.12.2019
5612 Haze 22 1016 64 5000 2.6 270 11:20 29.12.2019
5613 Clear 23 1015 60 6000 1.5 330 10:42 29.12.2019
5614 Clear 23 1015 60 6000 1.5 330 10:23 29.12.2019
5615 Clear 23 1015 60 6000 1 0 09:57 29.12.2019
5616 Clouds 24 1015 57 6000 2.1 290 09:38 29.12.2019
5617 Clouds 24 1015 57 6000 2.1 290 09:20 29.12.2019
5618 Clouds 23 1016 56 6000 2.6 300 08:47 29.12.2019
5619 Clouds 23 1016 60 6000 2.1 250 08:24 29.12.2019
5620 Clouds 22 1016 64 6000 1.5 0 07:55 29.12.2019
5621 Haze 22 1017 64 5000 3.1 270 07:28 29.12.2019
5622 Haze 22 1017 60 5000 3.1 280 06:55 29.12.2019
5623 Haze 22 1018 60 5000 3.6 290 06:25 29.12.2019
5624 Haze 21 1019 64 5000 1.5 350 05:51 29.12.2019
5625 Mist 19 1020 72 4700 2.1 300 04:36 29.12.2019
5626 Mist 19 1020 72 4000 3.1 280 03:51 29.12.2019
5627 Mist 18 1020 77 3900 2.6 290 03:20 29.12.2019
5628 Mist 16 1019 87 2700 0.5 0 02:20 29.12.2019
5629 Mist 16 1019 87 2700 2.6 310 01:31 29.12.2019
5630 Mist 16 1018 87 4000 3.6 300 00:57 29.12.2019
5631 Mist 16 1018 87 4600 2.1 300 00:39 29.12.2019
5632 Mist 16 1018 87 4600 2.1 300 00:21 29.12.2019
5633 Mist 16 1018 82 4700 1.5 260 23:42 28.12.2019
5634 Mist 16 1018 82 4700 1.5 260 23:42 28.12.2019
5635 Mist 16 1018 82 4700 1.5 260 23:18 28.12.2019
5636 Mist 16 1018 82 5000 2.1 290 22:39 28.12.2019
5637 Mist 16 1018 82 5000 2.1 290 22:20 28.12.2019
5638 Mist 16 1018 82 4700 1 290 21:58 28.12.2019
5639 Mist 16 1018 82 5000 2.1 310 21:39 28.12.2019
5640 Mist 16 1018 82 5000 2.1 310 21:39 28.12.2019
5641 Mist 16 1018 82 5000 2.1 310 21:20 28.12.2019
5642 Mist 16 1019 82 5000 2.1 310 20:57 28.12.2019
5643 Mist 16 1019 82 5000 2.6 290 20:37 28.12.2019
5644 Mist 16 1019 82 5000 2.6 290 20:19 28.12.2019
5645 Mist 16 1019 82 4900 2.1 280 19:55 28.12.2019
5646 Mist 16 1019 82 4700 2.6 300 19:37 28.12.2019
5647 Mist 16 1019 82 4700 2.6 300 19:18 28.12.2019
5648 Mist 16 1019 82 4700 2.6 290 18:56 28.12.2019
5649 Mist 16 1019 82 4500 2.1 290 18:38 28.12.2019
5650 Mist 16 1019 82 4500 2.1 290 18:18 28.12.2019
5651 Mist 16 1020 82 5000 3.1 290 17:42 28.12.2019
5652 Mist 16 1020 82 5000 3.1 290 17:42 28.12.2019
5653 Mist 16 1020 82 5000 3.1 290 17:21 28.12.2019
5654 Mist 16 1020 82 4900 3.1 290 16:58 28.12.2019
5655 Mist 16 1020 82 4900 3.1 290 16:40 28.12.2019
5656 Mist 16 1020 82 4900 3.1 290 16:21 28.12.2019
5657 Mist 16 1020 82 5000 3.1 290 15:43 28.12.2019
5658 Mist 17 1019 77 5000 3.6 290 15:22 28.12.2019
5659 Mist 17 1019 77 5000 3.1 290 14:48 28.12.2019
5660 Mist 17 1019 77 5000 2.6 300 14:26 28.12.2019
5661 Clouds 18 1019 72 6000 1.5 300 13:58 28.12.2019
5662 Mist 18 1019 72 5000 1 0 13:40 28.12.2019
5663 Mist 18 1019 72 5000 1 0 13:20 28.12.2019
5664 Mist 18 1018 72 5000 1 0 12:57 28.12.2019
5665 Clouds 18 1018 72 6000 1.5 340 12:39 28.12.2019
5666 Clouds 18 1018 72 6000 1.5 340 12:20 28.12.2019
5667 Clouds 18 1018 68 6000 1.5 20 11:40 28.12.2019
5668 Clouds 18 1018 68 6000 1.5 20 11:21 28.12.2019
5669 Clouds 19 1018 63 7000 1 0 10:55 28.12.2019
5670 Clouds 19 1018 63 8000 1 0 10:36 28.12.2019
5671 Clouds 19 1018 63 8000 1 0 10:18 28.12.2019
5672 Clouds 19 1018 63 8000 1 0 10:18 28.12.2019
5673 Clouds 19 1018 63 8000 1 0 09:45 28.12.2019
5674 Clouds 19 1018 63 10000 2.1 320 09:23 28.12.2019
5675 Clouds 19 1018 59 9000 2.1 320 08:57 28.12.2019
5676 Clouds 19 1018 63 8000 2.1 320 08:38 28.12.2019
5677 Clouds 19 1018 63 8000 2.1 320 08:19 28.12.2019
5678 Clouds 19 1019 59 10000 2.6 330 07:41 28.12.2019
5679 Clouds 19 1020 59 8000 2.1 10 06:55 28.12.2019
5680 Clouds 18 1021 59 8000 2.6 350 05:40 28.12.2019
5681 Clouds 16 1022 63 8000 2.1 20 03:48 28.12.2019
5682 Clouds 16 1021 63 9000 1.5 70 02:50 28.12.2019
5683 Clouds 16 1021 67 10000 2.6 30 02:19 28.12.2019
5684 Clouds 16 1020 67 10000 2.6 30 01:50 28.12.2019
5685 Clouds 16 1020 63 10000 2.1 30 01:21 28.12.2019
5686 Clouds 16 1019 63 10000 2.6 30 00:42 28.12.2019
5687 Clouds 16 1019 63 10000 2.6 30 00:23 28.12.2019
5688 Clouds 16 1019 63 10000 2.6 30 00:23 28.12.2019
5689 Clouds 16 1019 63 10000 2.6 40 23:46 27.12.2019
5690 Clouds 16 1019 59 10000 2.1 50 23:21 27.12.2019
5691 Clouds 16 1019 59 10000 2.6 30 22:59 27.12.2019
5692 Clouds 16 1019 63 10000 2.1 20 22:40 27.12.2019
5693 Clouds 16 1019 63 10000 2.1 20 22:40 27.12.2019
5694 Clouds 16 1019 63 10000 2.1 20 22:21 27.12.2019
5695 Clouds 16 1019 63 10000 2.1 360 21:59 27.12.2019
5696 Clouds 16 1019 63 10000 2.1 360 21:40 27.12.2019
5697 Clouds 16 1020 59 10000 2.1 360 21:40 27.12.2019
5698 Clouds 16 1020 59 10000 2.1 360 21:22 27.12.2019
5699 Clouds 16 1020 63 10000 2.6 20 20:42 27.12.2019
5700 Clouds 16 1020 59 10000 3.1 10 20:24 27.12.2019
5701 Clouds 16 1020 63 10000 1.5 30 19:57 27.12.2019
5702 Clouds 16 1020 63 10000 2.1 30 19:38 27.12.2019
5703 Clouds 16 1020 63 10000 2.1 30 19:19 27.12.2019
5704 Clouds 16 1021 63 10000 2.6 20 18:42 27.12.2019
5705 Clouds 16 1021 63 10000 2.6 10 18:24 27.12.2019
5706 Clouds 16 1021 63 10000 2.1 10 18:00 27.12.2019
5707 Clouds 16 1021 67 10000 2.1 340 17:41 27.12.2019
5708 Clouds 16 1021 67 10000 2.1 340 17:20 27.12.2019
5709 Clouds 16 1021 67 10000 2.1 30 16:59 27.12.2019
5710 Clouds 16 1021 67 10000 2.1 30 16:59 27.12.2019
5711 Clouds 16 1021 67 10000 3.1 30 16:39 27.12.2019
5712 Clouds 16 1021 67 10000 3.1 30 16:21 27.12.2019
5713 Clouds 16 1021 63 10000 2.6 30 15:56 27.12.2019
5714 Clouds 16 1021 63 10000 2.6 20 15:37 27.12.2019
5715 Clouds 16 1021 63 10000 2.6 20 15:18 27.12.2019
5716 Clouds 16 1021 67 10000 2.6 20 14:54 27.12.2019
5717 Clouds 16 1021 67 10000 2.6 30 14:36 27.12.2019
5718 Clouds 16 1021 67 10000 2.6 30 14:18 27.12.2019
5719 Clouds 16 1021 67 10000 2.6 30 13:43 27.12.2019
5720 Clouds 16 1020 67 10000 2.6 50 13:22 27.12.2019
5721 Clouds 16 1020 67 10000 2.1 50 12:44 27.12.2019
5722 Clouds 16 1020 63 10000 2.6 40 12:26 27.12.2019
5723 Clouds 16 1020 67 10000 1.5 30 11:56 27.12.2019
5724 Clouds 17 1020 63 10000 2.6 10 11:38 27.12.2019
5725 Clouds 17 1020 63 10000 2.6 10 11:19 27.12.2019
5726 Clouds 17 1020 59 10000 3.1 30 10:45 27.12.2019
5727 Clouds 17 1020 59 10000 3.1 40 10:23 27.12.2019
5728 Clouds 17 1020 59 10000 3.6 50 09:50 27.12.2019
5729 Clouds 17 1020 55 10000 3.6 40 09:22 27.12.2019
5730 Clouds 17 1020 59 10000 3.1 20 08:59 27.12.2019
5731 Clouds 17 1020 59 10000 3.1 360 08:41 27.12.2019
5732 Clouds 17 1020 59 10000 3.1 360 08:22 27.12.2019
5733 Clouds 17 1021 59 10000 3.6 360 07:38 27.12.2019
5734 Clouds 17 1021 55 10000 3.1 10 06:59 27.12.2019
5735 Clouds 17 1022 59 10000 4.1 40 06:23 27.12.2019
5736 Clouds 16 1023 63 10000 3.1 30 04:37 27.12.2019
5737 Clouds 16 1023 63 10000 3.6 20 02:28 27.12.2019
5738 Clouds 16 1022 63 10000 3.6 30 01:42 27.12.2019
5739 Clouds 16 1022 63 10000 4.6 30 01:20 27.12.2019
5740 Clouds 17 1021 59 10000 2.6 10 00:46 27.12.2019
5741 Clouds 17 1021 59 10000 3.6 10 00:25 27.12.2019
5742 Clouds 17 1021 59 10000 3.1 10 23:54 26.12.2019
5743 Clouds 17 1020 59 10000 4.1 20 23:36 26.12.2019
5744 Clouds 17 1020 59 10000 4.1 20 23:18 26.12.2019
5745 Clouds 17 1020 63 10000 5.1 30 22:38 26.12.2019
5746 Clouds 17 1020 63 10000 5.1 30 22:18 26.12.2019
5747 Clouds 17 1020 59 10000 5.1 20 21:40 26.12.2019
5748 Clouds 17 1020 59 10000 5.1 20 21:21 26.12.2019
5749 Clouds 17 1021 63 10000 4.6 20 20:57 26.12.2019
5750 Clouds 17 1021 63 10000 5.1 10 20:38 26.12.2019
5751 Clouds 17 1021 63 10000 5.1 10 20:19 26.12.2019
5752 Clouds 17 1021 63 10000 4.6 10 19:54 26.12.2019
5753 Clouds 18 1021 59 10000 3.6 20 19:36 26.12.2019
5754 Clouds 18 1021 59 10000 3.6 20 19:18 26.12.2019
5755 Clouds 18 1020 59 10000 3.6 20 18:55 26.12.2019
5756 Clouds 18 1020 59 10000 3.6 20 18:55 26.12.2019
5757 Clouds 18 1021 63 10000 3.1 20 18:36 26.12.2019
5758 Clouds 18 1021 63 10000 3.1 20 18:18 26.12.2019
5759 Rain 17 1020 67 10000 3.6 30 17:40 26.12.2019
5760 Rain 17 1020 67 10000 3.6 30 17:20 26.12.2019
5761 Clouds 18 1020 63 10000 5.1 40 16:48 26.12.2019
5762 Clouds 18 1020 63 10000 4.1 40 16:26 26.12.2019
5763 Clouds 18 1020 63 10000 4.1 40 15:57 26.12.2019
5764 Clouds 18 1020 63 10000 5.7 50 15:38 26.12.2019
5765 Clouds 18 1020 63 10000 5.7 50 15:19 26.12.2019
5766 Clouds 18 1020 63 10000 5.7 50 14:41 26.12.2019
5767 Clouds 18 1019 63 10000 6.7 50 14:23 26.12.2019
5768 Clouds 18 1019 63 10000 6.7 50 14:23 26.12.2019
5769 Clouds 18 1019 63 10000 6.7 40 13:45 26.12.2019
5770 Clouds 18 1018 68 10000 6.2 50 13:26 26.12.2019
5771 Clouds 18 1018 72 10000 6.2 50 12:59 26.12.2019
5772 Clouds 18 1018 72 10000 6.2 50 12:59 26.12.2019
5773 Clouds 18 1018 72 10000 6.2 40 12:41 26.12.2019
5774 Clouds 18 1018 72 10000 6.2 40 12:23 26.12.2019
5775 Clouds 18 1017 72 10000 6.7 40 11:58 26.12.2019
5776 Clouds 18 1017 72 10000 6.7 40 11:58 26.12.2019
5777 Rain 18 1017 77 8000 5.7 40 11:40 26.12.2019
5778 Rain 18 1017 77 8000 5.7 40 11:21 26.12.2019
5779 Rain 19 1016 77 10000 6.7 40 10:49 26.12.2019
5780 Clouds 19 1016 82 10000 5.7 40 10:24 26.12.2019
5781 Rain 20 1016 77 10000 8.2 40 09:54 26.12.2019
5782 Rain 25 1015 69 9000 2.6 70 09:33 26.12.2019
5783 Clouds 25 1015 65 10000 3.1 120 08:58 26.12.2019
5784 Clouds 25 1015 69 10000 2.6 90 08:38 26.12.2019
5785 Clouds 25 1015 69 10000 2.6 90 08:20 26.12.2019
5786 Clouds 25 1015 69 10000 3.1 70 07:31 26.12.2019
5787 Clouds 25 1016 65 10000 3.1 110 06:57 26.12.2019
5788 Clouds 25 1016 69 10000 3.1 110 06:34 26.12.2019
5789 Clouds 26 1017 65 10000 3.6 90 05:57 26.12.2019
5790 Clouds 25 1017 69 9000 3.6 80 05:38 26.12.2019
5791 Clouds 23 1018 78 8000 3.6 50 04:32 26.12.2019
5792 Clouds 21 1017 88 7000 2.6 50 03:20 26.12.2019
5793 Clouds 21 1016 88 6000 2.6 60 02:40 26.12.2019
5794 Clouds 21 1016 88 6000 2.6 60 02:20 26.12.2019
5795 Mist 21 1015 94 3800 2.6 60 01:42 26.12.2019
5796 Mist 21 1015 94 3800 2.6 60 01:24 26.12.2019
5797 Mist 21 1014 94 4400 2.1 70 00:42 26.12.2019
5798 Mist 21 1014 94 4400 2.1 70 00:22 26.12.2019
5799 Mist 22 1014 88 4400 1.5 110 23:42 25.12.2019
5800 Mist 22 1014 88 4400 1.5 110 23:21 25.12.2019
5801 Rain 22 1013 88 4100 1 0 22:59 25.12.2019
5802 Rain 22 1013 88 3700 1.5 70 22:40 25.12.2019
5803 Rain 22 1013 88 3700 1.5 70 22:22 25.12.2019
5804 Rain 22 1013 88 3700 1.5 70 22:22 25.12.2019
5805 Clouds 22 1013 88 6000 1.5 80 21:59 25.12.2019
5806 Mist 22 1013 88 5000 2.6 120 21:40 25.12.2019
5807 Mist 22 1013 88 5000 2.6 120 21:22 25.12.2019
5808 Clouds 22 1013 88 6000 3.6 120 20:57 25.12.2019
5809 Mist 22 1013 88 5000 3.1 100 20:39 25.12.2019
5810 Mist 22 1013 88 5000 3.1 100 20:18 25.12.2019
5811 Mist 22 1013 88 4300 3.1 100 19:44 25.12.2019
5812 Mist 22 1013 88 4200 2.6 100 19:25 25.12.2019
5813 Mist 21 1013 94 4400 2.1 80 18:59 25.12.2019
5814 Mist 21 1013 94 4400 2.6 90 18:38 25.12.2019
5815 Mist 21 1013 94 4400 2.6 90 18:38 25.12.2019
5816 Mist 21 1013 94 4400 2.6 90 18:19 25.12.2019
5817 Mist 21 1013 94 4600 2.6 100 17:43 25.12.2019
5818 Mist 22 1013 88 5000 3.1 90 17:20 25.12.2019
5819 Clouds 22 1013 88 6000 3.1 90 16:59 25.12.2019
5820 Clouds 22 1013 83 9000 3.6 140 16:39 25.12.2019
5821 Clouds 22 1013 83 9000 3.6 140 16:19 25.12.2019
5822 Clouds 22 1013 83 10000 3.6 130 15:57 25.12.2019
5823 Clouds 22 1013 83 10000 3.6 110 15:39 25.12.2019
5824 Clouds 22 1013 83 10000 3.6 110 15:20 25.12.2019
5825 Clouds 23 1012 78 10000 3.6 120 14:57 25.12.2019
5826 Clouds 23 1012 78 10000 4.6 130 14:39 25.12.2019
5827 Clouds 23 1012 78 10000 4.6 130 14:20 25.12.2019
5828 Clouds 24 1012 73 10000 4.6 130 13:45 25.12.2019
5829 Clouds 24 1011 73 10000 4.6 130 13:21 25.12.2019
5830 Clouds 24 1011 69 10000 4.1 130 12:57 25.12.2019
5831 Clouds 25 1010 65 10000 4.1 140 12:38 25.12.2019
5832 Clouds 25 1010 65 10000 4.1 140 12:19 25.12.2019
5833 Clouds 25 1010 65 10000 4.6 130 11:43 25.12.2019
5834 Clouds 26 1010 61 10000 4.6 140 11:22 25.12.2019
5835 Clouds 27 1010 57 10000 4.6 140 10:59 25.12.2019
5836 Clouds 27 1010 57 10000 4.6 140 10:59 25.12.2019
5837 Clouds 27 1010 57 10000 4.6 140 10:36 25.12.2019
5838 Clouds 27 1010 57 10000 4.6 140 10:18 25.12.2019
5839 Clouds 27 1010 57 10000 4.6 140 09:44 25.12.2019
5840 Clouds 27 1010 57 10000 4.6 150 09:26 25.12.2019
5841 Clouds 27 1010 57 10000 5.1 150 08:46 25.12.2019
5842 Clouds 27 1010 57 10000 4.6 160 08:26 25.12.2019
5843 Clouds 27 1011 57 10000 4.6 160 07:45 25.12.2019
5844 Clouds 27 1011 57 10000 5.1 160 07:23 25.12.2019
5845 Clouds 28 1012 54 10000 5.1 180 06:47 25.12.2019
5846 Clouds 27 1013 61 10000 4.6 160 06:22 25.12.2019
5847 Clouds 25 1015 69 10000 5.1 140 04:49 25.12.2019
5848 Clouds 24 1015 78 8000 4.6 140 04:25 25.12.2019
5849 Mist 23 1015 83 5000 4.1 130 03:58 25.12.2019
5850 Mist 22 1016 88 5000 4.1 120 03:39 25.12.2019
5851 Mist 22 1015 88 4500 3.1 120 02:32 25.12.2019
5852 Mist 22 1015 88 4300 3.6 120 01:55 25.12.2019
5853 Mist 22 1014 88 4100 3.1 130 01:24 25.12.2019
5854 Mist 22 1014 88 5000 3.1 120 00:46 25.12.2019
5855 Mist 21 1013 94 5000 3.6 130 00:27 25.12.2019
5856 Mist 21 1013 94 4600 3.6 120 23:55 24.12.2019
5857 Mist 21 1013 94 4700 4.1 130 23:36 24.12.2019
5858 Mist 21 1013 94 4700 4.1 130 23:18 24.12.2019
5859 Mist 21 1013 94 5000 5.1 120 22:38 24.12.2019
5860 Mist 21 1013 94 5000 5.1 120 22:20 24.12.2019
5861 Mist 21 1013 94 4200 3.1 110 21:42 24.12.2019
5862 Mist 21 1013 94 4200 3.6 120 21:22 24.12.2019
5863 Mist 21 1013 94 4000 3.6 110 20:43 24.12.2019
5864 Mist 21 1014 94 3800 3.6 110 20:24 24.12.2019
5865 Mist 21 1014 94 4400 4.1 110 19:57 24.12.2019
5866 Mist 22 1014 88 4600 4.1 120 19:37 24.12.2019
5867 Mist 22 1014 88 4600 4.1 120 19:18 24.12.2019
5868 Mist 22 1014 88 4200 3.1 120 18:42 24.12.2019
5869 Mist 22 1014 88 4200 3.1 120 18:19 24.12.2019
5870 Mist 22 1015 88 4500 3.1 110 17:45 24.12.2019
5871 Mist 22 1015 88 5000 3.1 130 17:23 24.12.2019
5872 Mist 22 1015 88 5000 3.6 120 16:58 24.12.2019
5873 Mist 22 1015 88 5000 3.6 120 16:58 24.12.2019
5874 Mist 22 1015 88 5000 3.1 120 16:40 24.12.2019
5875 Mist 22 1015 88 5000 3.1 120 16:40 24.12.2019
5876 Mist 22 1015 88 5000 3.1 120 16:21 24.12.2019
5877 Clouds 22 1015 88 5000 3.6 110 15:58 24.12.2019
5878 Clouds 22 1015 88 6000 3.6 110 15:38 24.12.2019
5879 Clouds 22 1015 88 6000 3.6 110 15:19 24.12.2019
5880 Clouds 22 1015 88 6000 4.6 120 14:58 24.12.2019
5881 Clouds 22 1015 88 5000 4.1 120 14:40 24.12.2019
5882 Clouds 22 1015 88 5000 4.1 120 14:22 24.12.2019
5883 Clouds 22 1014 88 6000 4.6 110 13:56 24.12.2019
5884 Clouds 23 1014 83 6000 4.6 120 13:38 24.12.2019
5885 Clouds 23 1014 83 6000 4.6 120 13:20 24.12.2019
5886 Clouds 23 1014 83 7000 3.6 100 12:56 24.12.2019
5887 Mist 23 1013 83 5000 3.1 100 12:38 24.12.2019
5888 Mist 23 1013 83 5000 3.1 100 12:19 24.12.2019
5889 Mist 23 1013 83 1900 2.6 100 11:56 24.12.2019
5890 Mist 24 1013 78 1900 3.1 90 11:37 24.12.2019
5891 Mist 24 1013 78 1900 3.1 90 11:19 24.12.2019
5892 Mist 25 1013 73 2300 3.1 90 10:56 24.12.2019
5893 Mist 25 1013 73 3400 3.6 120 10:38 24.12.2019
5894 Mist 25 1013 73 3400 3.6 120 10:19 24.12.2019
5895 Mist 25 1013 73 3500 3.1 120 09:55 24.12.2019
5896 Mist 25 1013 73 3300 2.6 140 09:37 24.12.2019
5897 Mist 25 1013 73 3300 2.6 140 09:19 24.12.2019
5898 Mist 25 1013 69 3100 2.1 130 08:46 24.12.2019
5899 Mist 25 1014 73 3200 2.1 110 08:24 24.12.2019
5900 Mist 24 1014 78 3000 1 0 07:46 24.12.2019
5901 Mist 23 1015 83 2300 1.5 160 07:27 24.12.2019
5902 Mist 23 1016 83 2300 1.5 200 06:59 24.12.2019
5903 Mist 22 1016 88 2200 1 0 06:39 24.12.2019
5904 Mist 22 1016 88 2200 1 0 06:19 24.12.2019
5905 Mist 22 1017 83 2000 0.5 0 05:46 24.12.2019
5906 Mist 21 1017 88 1800 1.5 10 05:18 24.12.2019
5907 Mist 20 1018 94 1000 1 0 03:55 24.12.2019
5908 Fog 19 1018 100 800 2.1 290 03:25 24.12.2019
5909 Drizzle 19 1017 93 450 2.1 280 02:25 24.12.2019
5910 Mist 19 1017 93 1000 1.5 280 01:52 24.12.2019
5911 Mist 19 1017 93 1300 2.1 290 01:23 24.12.2019
5912 Mist 19 1016 93 1900 2.1 270 00:47 24.12.2019
5913 Mist 19 1016 93 3000 1.5 250 00:26 24.12.2019
5914 Mist 19 1015 93 2800 1.5 280 23:59 23.12.2019
5915 Rain 19 1015 93 2900 2.1 290 23:41 23.12.2019
5916 Rain 19 1015 93 2900 2.1 290 23:23 23.12.2019
5917 Rain 19 1015 93 2900 2.1 290 23:23 23.12.2019
5918 Mist 19 1015 93 2900 1.5 290 22:56 23.12.2019
5919 Mist 19 1015 93 2900 1.5 290 22:56 23.12.2019
5920 Mist 19 1015 93 3900 2.12 113 22:37 23.12.2019
5921 Mist 19 1015 93 3900 2.12 113 22:19 23.12.2019
5922 Mist 19 1015 93 3700 2.12 113 21:55 23.12.2019
5923 Mist 19 1015 93 3700 2.12 113 21:55 23.12.2019
5924 Mist 19 1015 93 3800 1.5 100 21:36 23.12.2019
5925 Mist 19 1015 93 3800 1.5 100 21:36 23.12.2019
5926 Mist 19 1015 93 3800 1.5 100 21:36 23.12.2019
5927 Mist 19 1015 93 3800 1.5 100 21:18 23.12.2019
5928 Mist 19 1015 93 3900 1.5 110 20:57 23.12.2019
5929 Mist 20 1015 88 3900 1.5 80 20:39 23.12.2019
5930 Mist 20 1015 88 3900 1.5 80 20:18 23.12.2019
5931 Mist 19 1015 93 4300 1.5 70 19:56 23.12.2019
5932 Mist 19 1015 93 4300 1.5 80 19:38 23.12.2019
5933 Mist 19 1015 93 4300 1.5 80 19:19 23.12.2019
5934 Mist 19 1015 93 4200 2.1 90 18:57 23.12.2019
5935 Mist 19 1015 93 4500 2.1 90 18:38 23.12.2019
5936 Mist 19 1015 93 4500 2.1 90 18:20 23.12.2019
5937 Mist 20 1016 88 4800 1.5 100 17:56 23.12.2019
5938 Mist 19 1016 93 4600 1.5 60 17:37 23.12.2019
5939 Mist 19 1016 93 4600 1.5 60 17:19 23.12.2019
5940 Mist 19 1016 93 4000 1.5 80 16:42 23.12.2019
5941 Mist 19 1016 93 4000 1.5 80 16:42 23.12.2019
5942 Mist 20 1016 88 4400 1 0 16:19 23.12.2019
5943 Mist 20 1016 88 4400 1 0 16:19 23.12.2019
5944 Mist 20 1015 88 4300 1 0 15:59 23.12.2019
5945 Mist 19 1015 93 4300 1 0 15:38 23.12.2019
5946 Mist 19 1015 93 4300 1 0 15:20 23.12.2019
5947 Mist 19 1014 93 4200 2.29 118 14:59 23.12.2019
5948 Mist 19 1014 93 4400 0.5 0 14:41 23.12.2019
5949 Mist 19 1014 93 4400 0.5 0 14:22 23.12.2019
5950 Mist 19 1014 93 4700 0.5 0 13:58 23.12.2019
5951 Mist 19 1014 93 4300 1 0 13:40 23.12.2019
5952 Mist 19 1014 93 4300 1 0 13:22 23.12.2019
5953 Mist 19 1013 93 4600 0.5 0 12:56 23.12.2019
5954 Mist 19 1013 93 4300 1.5 60 12:37 23.12.2019
5955 Mist 19 1013 93 4300 1.5 60 12:19 23.12.2019
5956 Mist 19 1012 93 2700 1.5 30 11:44 23.12.2019
5957 Mist 19 1012 93 2700 1.5 30 11:25 23.12.2019
5958 Mist 20 1012 88 2500 2.6 20 10:57 23.12.2019
5959 Mist 20 1012 88 2500 2.6 20 10:57 23.12.2019
5960 Mist 20 1012 88 2300 2.1 50 10:39 23.12.2019
5961 Mist 20 1012 88 2300 2.1 50 10:20 23.12.2019
5962 Mist 20 1012 88 2500 2.1 50 09:59 23.12.2019
5963 Mist 20 1012 88 2500 1.5 40 09:39 23.12.2019
5964 Mist 20 1012 88 2500 1.5 40 09:20 23.12.2019
5965 Mist 20 1012 88 2900 1.5 90 08:55 23.12.2019
5966 Mist 20 1012 88 2900 1 0 08:37 23.12.2019
5967 Mist 20 1012 88 2900 1 0 08:19 23.12.2019
5968 Mist 19 1013 88 3600 1 0 07:43 23.12.2019
5969 Mist 19 1013 88 3600 1 0 07:20 23.12.2019
5970 Mist 19 1014 88 3900 1.5 330 06:52 23.12.2019
5971 Mist 18 1015 93 4200 1 0 06:25 23.12.2019
5972 Drizzle 18 1015 93 4200 0.5 0 05:50 23.12.2019
5973 Drizzle 18 1016 93 2600 1 0 05:26 23.12.2019
5974 Drizzle 17 1016 100 3200 1 0 04:27 23.12.2019
5975 Rain 16 1016 100 2300 1.5 70 02:58 23.12.2019
5976 Rain 16 1015 100 2300 1 80 02:40 23.12.2019
5977 Rain 16 1015 100 2300 1 80 02:18 23.12.2019
5978 Rain 16 1014 100 2200 1 50 01:41 23.12.2019
5979 Rain 16 1014 100 2200 1 50 01:19 23.12.2019
5980 Drizzle 16 1013 93 3200 1 0 00:41 23.12.2019
5981 Drizzle 16 1013 93 3200 1 0 00:19 23.12.2019
5982 Drizzle 16 1013 93 2800 1.5 40 23:39 22.12.2019
5983 Drizzle 16 1013 93 2800 1.5 40 23:20 22.12.2019
5984 Drizzle 16 1013 93 2500 1.5 70 22:58 22.12.2019
5985 Drizzle 16 1013 93 2800 1.5 50 22:38 22.12.2019
5986 Drizzle 16 1013 93 2800 1.5 50 22:19 22.12.2019
5987 Drizzle 16 1013 93 2100 2.1 70 21:57 22.12.2019
5988 Drizzle 16 1013 93 2100 2.1 70 21:57 22.12.2019
5989 Mist 16 1013 93 2400 2.1 70 21:39 22.12.2019
5990 Mist 16 1013 93 2400 2.1 70 21:20 22.12.2019
5991 Drizzle 16 1013 93 2600 1.5 100 20:56 22.12.2019
5992 Mist 16 1013 93 3200 2.6 60 20:38 22.12.2019
5993 Mist 16 1013 93 3200 2.6 60 20:18 22.12.2019
5994 Drizzle 16 1013 93 3500 2.6 60 19:41 22.12.2019
5995 Drizzle 16 1014 93 2900 2.6 60 19:21 22.12.2019
5996 Drizzle 16 1014 93 3100 2.6 60 18:58 22.12.2019
5997 Drizzle 15 1014 100 2400 1.5 60 18:38 22.12.2019
5998 Drizzle 15 1014 100 2400 1.5 60 18:19 22.12.2019
5999 Drizzle 15 1014 100 2700 1.5 80 17:55 22.12.2019
6000 Drizzle 15 1014 100 2400 2.1 70 17:37 22.12.2019
6001 Drizzle 15 1014 100 2400 2.1 70 17:18 22.12.2019
6002 Rain 15 1015 93 3300 2.1 70 16:43 22.12.2019
6003 Rain 15 1015 93 3300 2.1 70 16:43 22.12.2019
6004 Rain 15 1015 93 3300 2.1 70 16:23 22.12.2019
6005 Rain 15 1015 93 3100 2.1 80 15:59 22.12.2019
6006 Rain 15 1015 100 3000 2.1 80 15:39 22.12.2019
6007 Rain 15 1015 100 3000 2.1 80 15:21 22.12.2019
6008 Rain 15 1015 100 3000 2.1 80 15:21 22.12.2019
6009 Drizzle 16 1014 93 3800 2.1 40 14:59 22.12.2019
6010 Drizzle 16 1014 93 3300 2.1 50 14:38 22.12.2019
6011 Drizzle 16 1014 93 3300 2.1 50 14:19 22.12.2019
6012 Rain 16 1014 87 5000 2.1 50 13:56 22.12.2019
6013 Rain 16 1014 87 6000 2.1 30 13:38 22.12.2019
6014 Rain 16 1014 87 6000 2.1 30 13:19 22.12.2019
6015 Rain 16 1014 87 5000 2.1 40 12:57 22.12.2019
6016 Rain 16 1014 87 5000 2.1 40 12:57 22.12.2019
6017 Clouds 16 1014 87 8000 2.6 50 12:38 22.12.2019
6018 Clouds 16 1014 87 8000 2.6 50 12:19 22.12.2019
6019 Clouds 16 1014 87 7000 2.1 60 11:58 22.12.2019
6020 Clouds 16 1013 87 7000 3.1 40 11:38 22.12.2019
6021 Clouds 16 1013 87 7000 3.1 40 11:19 22.12.2019
6022 Clouds 16 1014 87 6000 3.1 50 10:57 22.12.2019
6023 Clouds 16 1014 87 6000 3.1 50 10:38 22.12.2019
6024 Clouds 16 1014 87 6000 3.1 50 10:19 22.12.2019
6025 Clouds 16 1014 87 9000 3.6 50 09:57 22.12.2019
6026 Clouds 16 1014 87 10000 3.6 40 09:39 22.12.2019
6027 Clouds 16 1014 87 10000 3.6 40 09:20 22.12.2019
6028 Clouds 16 1014 87 10000 4.1 50 08:42 22.12.2019
6029 Clouds 16 1014 87 10000 4.1 50 08:22 22.12.2019
6030 Clouds 16 1016 87 10000 3.6 40 07:44 22.12.2019
6031 Clouds 16 1016 87 10000 3.6 40 07:21 22.12.2019
6032 Clouds 16 1016 87 10000 4.1 40 06:53 22.12.2019
6033 Clouds 16 1017 87 8000 4.1 40 06:26 22.12.2019
6034 Clouds 16 1018 87 8000 4.1 40 05:33 22.12.2019
6035 Clouds 16 1019 87 7000 4.6 50 04:46 22.12.2019
6036 Rain 16 1019 87 6000 3.6 50 04:25 22.12.2019
6037 Rain 15 1019 93 8000 3.6 50 02:45 22.12.2019
6038 Drizzle 15 1018 93 5000 3.1 50 02:20 22.12.2019
6039 Drizzle 15 1018 93 3700 3.1 30 01:31 22.12.2019
6040 Drizzle 15 1017 93 4700 2.1 30 00:54 22.12.2019
6041 Drizzle 15 1017 93 6000 2.1 20 00:36 22.12.2019
6042 Drizzle 15 1017 93 6000 2.1 20 00:18 22.12.2019
6043 Drizzle 16 1016 93 5000 1.5 20 23:40 21.12.2019
6044 Drizzle 16 1016 93 5000 1.5 20 23:21 21.12.2019
6045 Rain 16 1016 93 5000 2.1 30 22:47 21.12.2019
6046 Rain 16 1016 93 5000 2.1 50 22:20 21.12.2019
6047 Rain 16 1016 93 5000 2.1 50 22:20 21.12.2019
6048 Drizzle 16 1016 93 6000 2.1 50 21:59 21.12.2019
6049 Drizzle 16 1016 93 5000 1.5 20 21:40 21.12.2019
6050 Drizzle 16 1016 93 5000 1.5 20 21:40 21.12.2019
6051 Drizzle 16 1016 93 5000 1.5 20 21:21 21.12.2019
6052 Drizzle 16 1016 93 4000 2.1 50 20:59 21.12.2019
6053 Drizzle 16 1016 93 4000 2.1 50 20:59 21.12.2019
6054 Drizzle 16 1016 93 4000 2.1 50 20:41 21.12.2019
6055 Mist 16 1016 93 4400 1.5 50 20:22 21.12.2019
6056 Mist 16 1016 93 5000 2.1 30 19:59 21.12.2019
6057 Drizzle 16 1016 93 4700 2.1 30 19:41 21.12.2019
6058 Drizzle 16 1016 93 4700 2.1 30 19:41 21.12.2019
6059 Drizzle 16 1016 93 4700 2.1 30 19:20 21.12.2019
6060 Drizzle 16 1017 93 3400 3.1 50 18:59 21.12.2019
6061 Drizzle 16 1017 93 3400 2.6 50 18:40 21.12.2019
6062 Drizzle 16 1017 93 3400 2.6 50 18:22 21.12.2019
6063 Mist 16 1017 93 3300 2.6 50 17:55 21.12.2019
6064 Mist 16 1017 93 3500 2.1 50 17:37 21.12.2019
6065 Mist 16 1017 93 3500 2.1 50 17:18 21.12.2019
6066 Rain 16 1017 93 2900 2.1 50 16:41 21.12.2019
6067 Rain 16 1017 93 2900 2.1 50 16:19 21.12.2019
6068 Rain 16 1017 93 2900 2.1 40 15:58 21.12.2019
6069 Drizzle 16 1017 93 3300 2.1 50 15:39 21.12.2019
6070 Drizzle 16 1017 93 3300 2.1 50 15:20 21.12.2019
6071 Drizzle 16 1017 93 4500 2.6 40 14:59 21.12.2019
6072 Mist 16 1016 93 5000 2.6 40 14:40 21.12.2019
6073 Mist 16 1016 93 5000 2.6 40 14:22 21.12.2019
6074 Mist 16 1016 93 4000 2.1 40 13:57 21.12.2019
6075 Mist 16 1016 93 4500 2.6 40 13:38 21.12.2019
6076 Mist 16 1016 93 4500 2.6 40 13:18 21.12.2019
6077 Mist 16 1015 93 5000 2.1 60 12:56 21.12.2019
6078 Clouds 16 1015 87 6000 3.1 60 12:37 21.12.2019
6079 Clouds 16 1015 87 6000 3.1 60 12:19 21.12.2019
6080 Clouds 16 1014 93 6000 4.1 60 11:45 21.12.2019
6081 Clouds 16 1014 93 6000 4.1 60 11:26 21.12.2019
6082 Clouds 16 1014 93 6000 4.1 60 10:57 21.12.2019
6083 Mist 16 1014 93 4100 3.6 40 10:39 21.12.2019
6084 Mist 16 1014 93 4100 3.6 40 10:21 21.12.2019
6085 Rain 16 1014 93 4600 4.6 50 09:56 21.12.2019
6086 Mist 16 1014 93 5000 3.6 50 09:37 21.12.2019
6087 Mist 16 1014 93 5000 3.6 50 09:18 21.12.2019
6088 Mist 16 1015 93 3700 3.6 50 08:44 21.12.2019
6089 Mist 16 1015 93 3700 3.6 50 08:25 21.12.2019
6090 Drizzle 16 1015 93 2400 3.1 40 07:46 21.12.2019
6091 Rain 16 1016 93 2500 3.1 50 07:22 21.12.2019
6092 Mist 16 1016 93 3100 4.1 50 06:46 21.12.2019
6093 Rain 16 1017 93 3200 3.6 50 06:26 21.12.2019
6094 Rain 16 1018 93 2700 3.6 40 05:55 21.12.2019
6095 Rain 16 1018 93 2500 3.6 50 04:58 21.12.2019
6096 Rain 16 1018 93 2500 3.6 50 04:58 21.12.2019
6097 Rain 16 1019 93 2500 2.1 70 03:59 21.12.2019
6098 Mist 15 1019 93 4500 3.1 50 03:18 21.12.2019
6099 Rain 15 1019 93 3400 3.6 50 02:18 21.12.2019
6100 Rain 15 1018 93 2600 2.6 40 01:38 21.12.2019
6101 Rain 15 1018 93 2600 2.6 40 01:20 21.12.2019
6102 Rain 15 1017 93 3900 2.6 60 00:37 21.12.2019
6103 Rain 15 1017 93 3900 2.6 60 00:18 21.12.2019
6104 Mist 15 1017 93 4400 3.1 60 23:38 20.12.2019
6105 Mist 15 1017 93 4400 3.1 60 23:19 20.12.2019
6106 Mist 15 1017 93 4800 3.1 60 22:43 20.12.2019
6107 Mist 15 1017 93 4900 3.1 50 22:21 20.12.2019
6108 Mist 15 1017 93 5000 3.1 70 21:59 20.12.2019
6109 Mist 15 1017 93 5000 2.6 60 21:40 20.12.2019
6110 Mist 15 1017 93 5000 2.6 60 21:20 20.12.2019
6111 Rain 15 1018 93 4500 2.6 50 20:41 20.12.2019
6112 Rain 15 1018 93 4500 2.6 50 20:22 20.12.2019
6113 Rain 15 1018 93 4500 2.1 50 19:59 20.12.2019
6114 Rain 15 1018 93 4500 2.1 50 19:59 20.12.2019
6115 Rain 15 1018 93 5000 2.1 20 19:40 20.12.2019
6116 Rain 15 1018 93 5000 2.1 20 19:20 20.12.2019
6117 Mist 15 1018 87 5000 3.1 40 18:55 20.12.2019
6118 Mist 15 1018 87 5000 3.1 40 18:55 20.12.2019
6119 Mist 15 1018 87 5000 3.1 40 18:55 20.12.2019
6120 Rain 15 1018 87 5000 2.6 40 18:36 20.12.2019
6121 Rain 15 1018 87 5000 2.6 40 18:18 20.12.2019
6122 Clouds 15 1019 87 6000 2.1 40 17:42 20.12.2019
6123 Clouds 15 1019 87 6000 2.1 40 17:42 20.12.2019
6124 Clouds 15 1019 87 6000 2.1 40 17:21 20.12.2019
6125 Rain 16 1019 82 6000 2.6 50 16:59 20.12.2019
6126 Clouds 16 1019 82 9000 2.6 40 16:39 20.12.2019
6127 Clouds 16 1019 82 9000 2.6 40 16:20 20.12.2019
6128 Clouds 16 1019 82 10000 2.6 40 15:57 20.12.2019
6129 Clouds 16 1018 82 8000 3.1 40 15:38 20.12.2019
6130 Clouds 16 1018 82 8000 3.1 40 15:19 20.12.2019
6131 Clouds 16 1018 82 8000 3.6 50 14:55 20.12.2019
6132 Clouds 16 1018 82 9000 3.1 40 14:37 20.12.2019
6133 Clouds 16 1018 82 9000 3.1 40 14:18 20.12.2019
6134 Clouds 16 1017 82 8000 3.1 30 13:41 20.12.2019
6135 Clouds 16 1017 82 8000 3.1 30 13:20 20.12.2019
6136 Clouds 16 1017 82 7000 2.6 40 12:57 20.12.2019
6137 Clouds 16 1017 82 7000 3.6 40 12:38 20.12.2019
6138 Clouds 16 1017 82 7000 3.6 40 12:19 20.12.2019
6139 Clouds 16 1017 82 6000 3.1 40 11:58 20.12.2019
6140 Clouds 16 1017 82 6000 3.1 50 11:39 20.12.2019
6141 Clouds 16 1017 82 6000 3.1 50 11:19 20.12.2019
6142 Mist 16 1016 82 5000 3.6 40 10:57 20.12.2019
6143 Mist 16 1016 82 5000 4.1 50 10:39 20.12.2019
6144 Mist 16 1016 82 5000 4.1 50 10:20 20.12.2019
6145 Clouds 16 1016 82 6000 4.6 30 09:44 20.12.2019
6146 Mist 16 1016 82 5000 4.6 30 09:22 20.12.2019
6147 Mist 16 1016 87 4200 4.1 40 08:59 20.12.2019
6148 Drizzle 16 1017 87 3200 3.6 40 08:41 20.12.2019
6149 Drizzle 16 1017 87 3200 3.6 40 08:21 20.12.2019
6150 Mist 16 1017 82 5000 4.1 50 07:57 20.12.2019
6151 Clouds 16 1018 82 6000 3.6 40 07:38 20.12.2019
6152 Clouds 16 1018 82 6000 3.6 40 07:18 20.12.2019
6153 Clouds 16 1018 82 7000 5.1 50 06:48 20.12.2019
6154 Clouds 16 1019 82 7000 5.7 50 06:29 20.12.2019
6155 Clouds 17 1019 77 7000 5.1 50 05:49 20.12.2019
6156 Clouds 17 1020 77 7000 6.2 60 05:20 20.12.2019
6157 Clouds 16 1020 82 7000 6.2 50 03:50 20.12.2019
6158 Clouds 16 1020 82 7000 6.2 50 03:21 20.12.2019
6159 Rain 16 1020 82 6000 4.6 40 02:20 20.12.2019
6160 Clouds 17 1019 77 8000 4.1 40 01:36 20.12.2019
6161 Clouds 17 1019 77 10000 3.6 50 00:58 20.12.2019
6162 Clouds 17 1018 72 9000 4.6 40 00:36 20.12.2019
6163 Clouds 17 1018 72 10000 4.1 40 23:58 19.12.2019
6164 Clouds 17 1017 77 10000 3.6 40 23:40 19.12.2019
6165 Clouds 17 1017 77 10000 3.6 40 23:21 19.12.2019
6166 Clouds 17 1017 77 10000 4.1 50 22:40 19.12.2019
6167 Clouds 17 1017 77 10000 4.1 50 22:22 19.12.2019
6168 Clouds 17 1017 77 10000 4.1 50 21:59 19.12.2019
6169 Clouds 17 1017 77 10000 4.1 50 21:59 19.12.2019
6170 Clouds 18 1017 72 10000 4.6 40 21:41 19.12.2019
6171 Clouds 18 1017 72 10000 4.6 40 21:19 19.12.2019
6172 Clouds 18 1017 72 10000 4.1 40 20:57 19.12.2019
6173 Clouds 18 1018 72 10000 4.6 40 20:38 19.12.2019
6174 Clouds 18 1018 72 10000 4.6 40 20:20 19.12.2019
6175 Clouds 18 1018 72 10000 5.7 40 19:58 19.12.2019
6176 Clouds 18 1018 72 10000 5.1 40 19:39 19.12.2019
6177 Clouds 18 1018 72 10000 5.1 40 19:19 19.12.2019
6178 Clouds 18 1018 72 10000 5.1 40 19:19 19.12.2019
6179 Clouds 18 1018 72 10000 5.1 40 19:19 19.12.2019
6180 Clouds 18 1018 72 10000 4.6 50 18:57 19.12.2019
6181 Clouds 18 1018 72 10000 4.6 50 18:57 19.12.2019
6182 Clouds 18 1019 72 10000 4.6 50 18:39 19.12.2019
6183 Clouds 18 1019 72 10000 4.6 50 18:19 19.12.2019
6184 Clouds 18 1019 72 10000 5.1 60 17:55 19.12.2019
6185 Clouds 18 1019 72 10000 4.6 50 17:37 19.12.2019
6186 Clouds 18 1019 72 10000 4.6 50 17:18 19.12.2019
6187 Clouds 19 1019 72 10000 5.7 50 16:55 19.12.2019
6188 Clouds 19 1019 72 10000 5.7 50 16:55 19.12.2019
6189 Clouds 19 1019 68 10000 5.1 60 16:37 19.12.2019
6190 Clouds 19 1019 68 10000 5.1 60 16:19 19.12.2019
6191 Clouds 19 1018 72 10000 5.1 60 15:55 19.12.2019
6192 Clouds 19 1018 72 10000 5.7 50 15:37 19.12.2019
6193 Clouds 19 1018 72 10000 5.7 50 15:18 19.12.2019
6194 Clouds 19 1018 72 10000 5.1 50 14:42 19.12.2019
6195 Clouds 19 1018 72 10000 5.1 50 14:20 19.12.2019
6196 Clouds 20 1017 68 10000 6.7 50 13:58 19.12.2019
6197 Clouds 20 1017 68 10000 6.7 50 13:58 19.12.2019
6198 Clouds 20 1016 68 10000 5.1 60 13:38 19.12.2019
6199 Clouds 20 1016 68 10000 5.1 60 13:19 19.12.2019
6200 Clouds 20 1016 68 10000 5.1 60 12:57 19.12.2019
6201 Clouds 20 1016 72 8000 5.1 60 12:39 19.12.2019
6202 Clouds 20 1016 72 8000 5.1 60 12:39 19.12.2019
6203 Clouds 20 1016 72 8000 5.1 60 12:19 19.12.2019
6204 Clouds 21 1015 68 6000 7.2 70 11:58 19.12.2019
6205 Clouds 21 1015 68 7000 7.7 70 11:40 19.12.2019
6206 Clouds 21 1015 68 7000 7.7 70 11:18 19.12.2019
6207 Clouds 22 1015 64 6000 6.7 60 11:18 19.12.2019
6208 Clouds 22 1015 64 6000 6.7 60 10:56 19.12.2019
6209 Clouds 22 1015 64 6000 6.7 60 10:37 19.12.2019
6210 Clouds 22 1015 64 6000 6.7 60 10:19 19.12.2019
6211 Clouds 24 1015 64 6000 6.7 70 09:40 19.12.2019
6212 Clouds 24 1015 64 6000 6.7 70 09:40 19.12.2019
6213 Clouds 24 1015 64 6000 6.7 70 09:21 19.12.2019
6214 Clouds 24 1015 64 7000 6.7 60 08:58 19.12.2019
6215 Clouds 25 1015 65 8000 6.2 70 08:40 19.12.2019
6216 Clouds 25 1015 65 8000 6.2 70 08:19 19.12.2019
6217 Clouds 24 1015 69 9000 6.2 70 07:57 19.12.2019
6218 Clouds 24 1016 73 10000 6.7 70 07:38 19.12.2019
6219 Clouds 24 1016 73 10000 6.7 70 07:19 19.12.2019
6220 Clouds 25 1016 73 10000 4.6 70 06:49 19.12.2019
6221 Clouds 25 1017 73 9000 4.1 80 06:28 19.12.2019
6222 Clouds 25 1018 73 9000 4.6 90 05:55 19.12.2019
6223 Clouds 26 1019 69 10000 4.6 130 05:33 19.12.2019
6224 Clouds 26 1019 69 10000 4.1 120 04:48 19.12.2019
6225 Mist 23 1019 88 2800 1 0 02:49 19.12.2019
6226 Mist 20 1017 100 1300 1.5 90 01:47 19.12.2019
6227 Mist 20 1017 100 1300 1.5 90 01:22 19.12.2019
6228 Mist 21 1017 94 2600 2.1 80 00:39 19.12.2019
6229 Mist 21 1017 94 2600 2.1 80 00:39 19.12.2019
6230 Mist 21 1017 94 2600 2.1 80 00:20 19.12.2019
6231 Mist 21 1017 94 2600 2.1 80 23:55 18.12.2019
6232 Mist 21 1017 94 3500 3.1 80 23:36 18.12.2019
6233 Mist 21 1017 94 3500 3.1 80 23:18 18.12.2019
6234 Mist 22 1017 88 4800 3.1 80 22:55 18.12.2019
6235 Mist 22 1017 88 4800 2.1 70 22:36 18.12.2019
6236 Mist 22 1017 88 4800 2.1 70 22:18 18.12.2019
6237 Mist 22 1016 88 5000 2.6 60 21:41 18.12.2019
6238 Mist 22 1016 88 5000 2.6 60 21:21 18.12.2019
6239 Mist 22 1016 88 5000 2.6 60 20:58 18.12.2019
6240 Mist 22 1016 88 4900 2.6 70 20:39 18.12.2019
6241 Mist 22 1016 88 4900 2.6 70 20:20 18.12.2019
6242 Mist 22 1016 88 4900 2.6 70 20:20 18.12.2019
6243 Mist 22 1016 94 4700 4.6 110 19:57 18.12.2019
6244 Mist 22 1016 94 4700 4.6 110 19:39 18.12.2019
6245 Mist 22 1016 94 4700 4.6 110 19:39 18.12.2019
6246 Mist 22 1016 94 4700 4.6 110 19:19 18.12.2019
6247 Clouds 22 1016 88 6000 4.1 110 18:59 18.12.2019
6248 Mist 22 1017 88 5000 3.6 100 18:41 18.12.2019
6249 Mist 22 1017 88 5000 3.6 100 18:22 18.12.2019
6250 Clouds 22 1017 88 7000 4.6 100 17:56 18.12.2019
6251 Clouds 22 1017 88 8000 3.6 100 17:38 18.12.2019
6252 Clouds 22 1017 88 8000 3.6 100 17:38 18.12.2019
6253 Clouds 22 1017 88 8000 3.6 100 17:19 18.12.2019
6254 Clouds 23 1017 83 8000 3.6 130 16:43 18.12.2019
6255 Clouds 23 1017 83 9000 3.1 120 16:24 18.12.2019
6256 Clouds 23 1017 83 10000 3.6 130 15:59 18.12.2019
6257 Clouds 23 1017 83 10000 4.6 130 15:40 18.12.2019
6258 Clouds 23 1017 83 10000 4.6 130 15:21 18.12.2019
6259 Clouds 24 1017 78 10000 5.7 130 14:58 18.12.2019
6260 Clouds 24 1017 83 10000 5.1 130 14:40 18.12.2019
6261 Clouds 24 1017 83 10000 5.1 130 14:19 18.12.2019
6262 Clouds 24 1016 78 10000 5.1 130 13:56 18.12.2019
6263 Clouds 25 1016 73 10000 5.7 130 13:37 18.12.2019
6264 Clouds 25 1016 73 10000 5.7 130 13:19 18.12.2019
6265 Clouds 25 1015 73 10000 4.1 130 12:54 18.12.2019
6266 Clouds 25 1015 73 10000 4.1 130 12:54 18.12.2019
6267 Rain 26 1015 69 10000 4.1 130 12:36 18.12.2019
6268 Rain 26 1015 69 10000 4.1 130 12:18 18.12.2019
6269 Clouds 26 1014 69 10000 4.6 120 11:54 18.12.2019
6270 Clouds 27 1014 65 10000 5.7 130 11:36 18.12.2019
6271 Clouds 27 1014 65 10000 5.7 130 11:18 18.12.2019
6272 Clouds 27 1014 65 10000 4.6 130 10:54 18.12.2019
6273 Clouds 27 1014 65 10000 4.6 130 10:54 18.12.2019
6274 Clouds 28 1013 61 10000 4.6 130 10:36 18.12.2019
6275 Clouds 28 1013 61 10000 4.6 130 10:18 18.12.2019
6276 Clouds 28 1014 58 10000 3.6 150 09:21 18.12.2019
6277 Clouds 28 1014 58 10000 4.1 160 08:57 18.12.2019
6278 Clouds 28 1014 58 10000 4.1 160 08:57 18.12.2019
6279 Clouds 28 1014 58 10000 4.1 160 08:57 18.12.2019
6280 Clouds 29 1014 58 10000 4.1 160 08:39 18.12.2019
6281 Clouds 29 1014 58 10000 4.1 160 08:20 18.12.2019
6282 Clouds 28 1015 58 10000 2.6 170 07:42 18.12.2019
6283 Clouds 28 1015 58 10000 2.6 170 07:21 18.12.2019
6284 Clouds 27 1016 65 10000 1.5 170 06:53 18.12.2019
6285 Clouds 27 1016 65 10000 1.5 140 06:26 18.12.2019
6286 Clouds 26 1017 69 8000 2.6 150 05:39 18.12.2019
6287 Clouds 25 1018 78 7000 3.1 120 04:37 18.12.2019
6288 Mist 23 1017 88 3200 3.1 100 02:50 18.12.2019
6289 Mist 22 1017 94 2400 2.6 100 02:30 18.12.2019
6290 Mist 22 1017 94 1900 4.1 110 01:47 18.12.2019
6291 Mist 22 1016 94 2000 3.6 110 01:28 18.12.2019
6292 Mist 22 1016 94 2400 2.1 100 00:59 18.12.2019
6293 Mist 22 1016 94 3900 1.5 70 00:39 18.12.2019
6294 Mist 22 1016 94 3900 1.5 70 00:21 18.12.2019
6295 Clouds 22 1015 94 3200 2.1 90 23:44 17.12.2019
6296 Clouds 22 1015 94 3200 2.1 90 23:24 17.12.2019
6297 Mist 22 1015 94 3200 2.1 90 22:57 17.12.2019
6298 Mist 21 1015 94 4400 2.1 90 22:39 17.12.2019
6299 Mist 21 1015 94 4400 2.1 90 22:20 17.12.2019
6300 Mist 22 1015 88 5000 3.1 100 21:57 17.12.2019
6301 Mist 22 1015 88 5000 3.1 110 21:39 17.12.2019
6302 Mist 22 1015 88 5000 3.1 110 21:39 17.12.2019
6303 Mist 22 1015 88 5000 3.1 110 21:20 17.12.2019
6304 Clouds 22 1015 88 6000 2.6 100 20:59 17.12.2019
6305 Mist 22 1015 88 5000 3.1 100 20:40 17.12.2019
6306 Mist 22 1015 88 5000 3.1 100 20:19 17.12.2019
6307 Mist 22 1015 88 5000 3.6 100 19:59 17.12.2019
6308 Clouds 22 1016 88 6000 3.6 110 19:41 17.12.2019
6309 Clouds 22 1016 88 6000 3.6 110 19:20 17.12.2019
6310 Clouds 23 1016 83 6000 3.1 120 18:57 17.12.2019
6311 Clouds 22 1016 88 6000 3.6 130 18:38 17.12.2019
6312 Clouds 23 1016 83 7000 3.1 120 18:20 17.12.2019
6313 Clouds 23 1016 83 7000 3.1 120 17:55 17.12.2019
6314 Clouds 23 1016 83 7000 5.1 130 17:37 17.12.2019
6315 Clouds 23 1016 83 7000 5.1 130 17:18 17.12.2019
6316 Clouds 22 1016 88 6000 4.1 130 16:55 17.12.2019
6317 Clouds 22 1016 88 6000 4.1 120 16:36 17.12.2019
6318 Clouds 22 1016 88 6000 4.1 120 16:18 17.12.2019
6319 Clear 23 1016 83 8000 4.1 120 15:38 17.12.2019
6320 Clear 23 1016 83 8000 4.1 120 15:20 17.12.2019
6321 Clouds 23 1016 83 7000 4.1 130 14:57 17.12.2019
6322 Clouds 24 1015 78 7000 5.1 130 14:38 17.12.2019
6323 Clouds 24 1015 78 7000 5.1 130 14:19 17.12.2019
6324 Clouds 24 1015 78 7000 5.1 130 14:19 17.12.2019
6325 Mist 24 1015 78 5000 3.6 110 13:58 17.12.2019
6326 Mist 24 1015 78 4900 2.6 100 13:40 17.12.2019
6327 Mist 24 1015 78 4900 2.6 100 13:19 17.12.2019
6328 Mist 23 1014 83 5000 2.1 90 12:59 17.12.2019
6329 Clouds 24 1014 73 7000 2.6 90 12:38 17.12.2019
6330 Clouds 24 1014 73 7000 2.6 90 12:38 17.12.2019
6331 Clouds 26 1014 65 8000 2.6 130 12:18 17.12.2019
6332 Clouds 26 1014 65 8000 2.6 130 12:18 17.12.2019
6333 Clouds 26 1014 65 8000 2.6 130 11:56 17.12.2019
6334 Clouds 26 1014 61 10000 2.1 150 11:37 17.12.2019
6335 Clouds 27 1014 57 10000 3.1 160 11:18 17.12.2019
6336 Clouds 27 1014 57 10000 3.1 160 10:57 17.12.2019
6337 Clouds 27 1014 61 10000 2.6 170 10:38 17.12.2019
6338 Clouds 27 1014 61 10000 2.6 170 10:19 17.12.2019
6339 Clouds 27 1014 61 8000 2.6 130 09:43 17.12.2019
6340 Haze 26 1014 69 5000 1.5 360 09:22 17.12.2019
6341 Mist 26 1014 69 5000 2.1 360 08:59 17.12.2019
6342 Mist 25 1014 73 5000 2.1 10 08:40 17.12.2019
6343 Mist 25 1014 73 5000 2.1 10 08:22 17.12.2019
6344 Mist 25 1014 73 5000 2.1 10 08:22 17.12.2019
6345 Mist 26 1015 69 4200 1.5 320 07:58 17.12.2019
6346 Mist 25 1015 73 4200 1 0 07:39 17.12.2019
6347 Mist 25 1015 73 4200 1 0 07:21 17.12.2019
6348 Mist 25 1017 78 4000 1.5 0 06:42 17.12.2019
6349 Mist 25 1017 78 4000 1.5 0 06:24 17.12.2019
6350 Mist 24 1017 78 4200 2.1 130 06:24 17.12.2019
6351 Clouds 25 1017 73 6000 2.1 170 05:41 17.12.2019
6352 Clouds 24 1018 78 6000 2.6 150 04:53 17.12.2019
6353 Mist 23 1018 83 4400 2.6 150 03:51 17.12.2019
6354 Mist 22 1018 88 2400 2.1 110 02:25 17.12.2019
6355 Mist 21 1017 94 2100 1 80 01:21 17.12.2019
6356 Mist 21 1016 94 3400 1 0 00:47 17.12.2019
6357 Mist 21 1016 94 3800 1 0 00:21 17.12.2019
6358 Mist 21 1016 94 3800 1 0 00:21 17.12.2019
6359 Mist 21 1016 94 3800 1 0 00:21 17.12.2019
6360 Mist 21 1015 94 4100 1.5 130 23:44 16.12.2019
6361 Mist 21 1015 94 4000 1 0 23:20 16.12.2019
6362 Mist 21 1015 94 4000 1 0 22:59 16.12.2019
6363 Mist 20 1015 94 3200 1.5 90 22:39 16.12.2019
6364 Mist 20 1015 94 3200 1.5 90 22:21 16.12.2019
6365 Mist 20 1015 94 3500 1.5 90 21:57 16.12.2019
6366 Mist 20 1015 94 3500 1.5 90 21:57 16.12.2019
6367 Mist 21 1015 88 4200 2.6 100 21:39 16.12.2019
6368 Mist 21 1015 88 4200 2.6 100 21:20 16.12.2019
6369 Mist 21 1015 88 4400 3.6 110 20:58 16.12.2019
6370 Mist 21 1015 94 4700 4.1 110 20:39 16.12.2019
6371 Mist 21 1015 94 4700 4.1 110 20:39 16.12.2019
6372 Mist 21 1015 94 4700 4.1 110 20:19 16.12.2019
6373 Mist 21 1016 94 4900 3.1 120 19:56 16.12.2019
6374 Mist 20 1016 94 3800 3.1 100 19:37 16.12.2019
6375 Mist 20 1016 94 3800 3.1 100 19:19 16.12.2019
6376 Mist 20 1016 94 4300 2.6 90 18:58 16.12.2019
6377 Mist 21 1016 88 4700 2.6 110 18:40 16.12.2019
6378 Mist 21 1016 88 4700 2.6 110 18:20 16.12.2019
6379 -273 0 0 0 0 0 17:57 16.12.2019
6380 Clear 21 1016 88 7000 3.6 130 17:39 16.12.2019
6381 Clear 21 1016 88 7000 3.6 130 17:21 16.12.2019
6382 Clear 22 1016 83 7000 3.6 120 16:57 16.12.2019
6383 Clear 22 1016 83 6000 3.6 120 16:38 16.12.2019
6384 Clear 22 1016 83 6000 3.6 120 16:19 16.12.2019
6385 Clear 22 1016 88 6000 3.6 0 15:58 16.12.2019
6386 Clear 22 1016 88 6000 3.6 120 15:38 16.12.2019
6387 Clear 22 1016 88 6000 3.6 120 15:20 16.12.2019
6388 Clear 23 1016 83 7000 4.1 120 14:57 16.12.2019
6389 Clear 24 1015 78 8000 4.6 130 14:37 16.12.2019
6390 Clouds 24 1015 78 8000 4.6 130 14:19 16.12.2019
6391 Clouds 24 1015 73 8000 4.1 130 13:56 16.12.2019
6392 Clouds 24 1015 73 7000 3.6 120 13:37 16.12.2019
6393 Clouds 24 1015 73 7000 3.6 120 13:19 16.12.2019
6394 Clouds 25 1014 65 7000 2.6 120 12:57 16.12.2019
6395 Clouds 24 1014 69 8000 1.5 110 12:39 16.12.2019
6396 Clouds 24 1014 69 8000 1.5 110 12:18 16.12.2019
6397 Clouds 26 1014 61 9000 3.1 160 11:57 16.12.2019
6398 Clouds 27 1014 57 10000 3.1 150 11:39 16.12.2019
6399 Clouds 27 1014 57 10000 3.1 150 11:19 16.12.2019
6400 Clouds 27 1013 57 10000 2.6 150 10:54 16.12.2019
6401 Clouds 27 1013 57 10000 2.6 140 10:36 16.12.2019
6402 Clouds 27 1013 57 10000 2.6 140 10:18 16.12.2019
6403 Clouds 27 1013 57 10000 2.6 150 09:43 16.12.2019
6404 Clouds 27 1013 57 9000 2.1 0 09:24 16.12.2019
6405 Clouds 27 1014 57 10000 2.1 170 08:41 16.12.2019
6406 Clouds 27 1014 57 10000 2.1 170 08:20 16.12.2019
6407 Clouds 26 1014 61 8000 1.5 0 07:53 16.12.2019
6408 Clouds 26 1015 65 8000 2.1 260 07:31 16.12.2019
6409 Clouds 26 1016 61 7000 2.6 170 06:58 16.12.2019
6410 Clouds 24 1017 69 6000 2.1 180 06:40 16.12.2019
6411 Mist 24 1017 73 5000 2.1 150 06:20 16.12.2019
6412 Mist 24 1018 73 4600 2.1 170 05:41 16.12.2019
6413 Mist 24 1018 73 4600 2.1 170 05:22 16.12.2019
6414 Mist 21 1018 88 3400 2.1 140 03:28 16.12.2019
6415 Mist 21 1017 88 2500 2.6 130 01:46 16.12.2019
6416 Mist 20 1016 94 1900 3.1 120 01:21 16.12.2019
6417 Mist 20 1015 94 3900 2.6 110 00:39 16.12.2019
6418 Mist 20 1015 94 3900 2.1 110 00:19 16.12.2019
6419 Mist 20 1016 94 3800 1.5 110 23:44 15.12.2019
6420 Mist 20 1016 94 3800 1.5 110 23:25 15.12.2019
6421 Mist 20 1016 94 4000 2.1 100 22:57 15.12.2019
6422 Mist 20 1016 94 3800 2.1 120 22:38 15.12.2019
6423 Mist 20 1016 94 3800 2.1 120 22:19 15.12.2019
6424 Mist 20 1016 94 3900 1.5 90 21:58 15.12.2019
6425 Mist 20 1016 94 3700 2.1 50 21:39 15.12.2019
6426 Mist 20 1016 94 3700 2.1 50 21:20 15.12.2019
6427 Mist 20 1016 94 3200 1.5 60 20:58 15.12.2019
6428 Mist 20 1016 94 3300 2.6 80 20:40 15.12.2019
6429 Mist 20 1016 94 3300 2.6 80 20:21 15.12.2019
6430 Mist 20 1016 94 3300 2.6 80 20:21 15.12.2019
6431 Mist 20 1016 94 4400 3.1 80 19:58 15.12.2019
6432 Mist 21 1016 88 5000 2.1 90 19:40 15.12.2019
6433 Mist 21 1016 88 5000 2.1 90 19:20 15.12.2019
6434 Clouds 21 1016 88 6000 3.1 120 18:57 15.12.2019
6435 Clouds 21 1017 88 6000 4.1 130 18:39 15.12.2019
6436 Clouds 21 1017 88 6000 4.1 130 18:19 15.12.2019
6437 Clouds 21 1017 88 7000 3.1 140 17:56 15.12.2019
6438 Clouds 21 1017 88 6000 3.1 140 17:37 15.12.2019
6439 Clouds 21 1017 88 6000 3.1 140 17:37 15.12.2019
6440 Clouds 21 1017 88 6000 3.6 120 17:19 15.12.2019
6441 Clouds 21 1017 88 6000 3.6 120 16:57 15.12.2019
6442 Clouds 21 1017 88 6000 3.6 120 16:57 15.12.2019
6443 Clouds 21 1017 88 7000 4.6 150 16:39 15.12.2019
6444 Clouds 21 1017 88 7000 4.6 150 16:20 15.12.2019
6445 Clouds 21 1017 88 7000 4.1 140 15:55 15.12.2019
6446 Clouds 21 1017 88 7000 3.6 130 15:37 15.12.2019
6447 Clouds 21 1017 88 7000 3.6 130 15:18 15.12.2019
6448 Clouds 21 1017 88 7000 3.1 120 14:55 15.12.2019
6449 Clouds 22 1017 83 7000 3.1 120 14:36 15.12.2019
6450 Clouds 22 1017 83 7000 3.1 120 14:18 15.12.2019
6451 Clouds 22 1016 83 8000 3.1 130 13:55 15.12.2019
6452 Clouds 23 1016 78 8000 4.1 130 13:36 15.12.2019
6453 Clouds 23 1016 78 8000 4.1 130 13:18 15.12.2019
6454 Clouds 23 1016 78 8000 4.1 130 13:18 15.12.2019
6455 Clouds 23 1016 78 7000 5.1 130 12:55 15.12.2019
6456 Clouds 24 1016 73 7000 5.7 130 12:37 15.12.2019
6457 Clouds 24 1016 73 7000 5.7 130 12:37 15.12.2019
6458 Clouds 24 1016 73 7000 5.7 130 12:37 15.12.2019
6459 Clouds 24 1016 73 7000 5.7 130 12:19 15.12.2019
6460 Clouds 24 1015 73 8000 4.1 120 11:38 15.12.2019
6461 Clouds 25 1015 65 8000 5.1 110 11:19 15.12.2019
6462 Clouds 25 1015 65 8000 5.1 110 10:57 15.12.2019
6463 Clouds 25 1015 65 8000 3.6 110 10:38 15.12.2019
6464 Clouds 25 1015 65 8000 3.6 110 10:19 15.12.2019
6465 Clouds 26 1015 61 10000 4.1 140 09:58 15.12.2019
6466 Clouds 26 1015 61 10000 3.1 140 09:37 15.12.2019
6467 Clouds 26 1015 61 10000 3.1 140 09:19 15.12.2019
6468 Clouds 26 1015 61 10000 2.6 130 08:54 15.12.2019
6469 Clouds 26 1016 61 7000 2.6 0 08:36 15.12.2019
6470 Clouds 26 1016 61 7000 2.6 0 08:18 15.12.2019
6471 Haze 25 1017 65 4900 1.5 0 07:43 15.12.2019
6472 Haze 25 1017 65 4900 1.5 0 07:43 15.12.2019
6473 Haze 25 1017 65 4900 1.5 0 07:25 15.12.2019
6474 Mist 24 1018 69 5000 2.1 80 06:26 15.12.2019
6475 Mist 23 1019 73 3900 2.1 70 05:42 15.12.2019
6476 Mist 23 1019 73 3900 2.1 70 05:21 15.12.2019
6477 Mist 22 1019 78 4500 2.1 70 04:20 15.12.2019
6478 Mist 21 1019 88 3100 2.1 100 02:50 15.12.2019
6479 Mist 21 1019 88 3000 2.6 100 02:31 15.12.2019
6480 Mist 20 1018 88 2000 2.1 70 01:40 15.12.2019
6481 Mist 20 1018 88 2000 2.1 70 01:18 15.12.2019
6482 Mist 21 1018 83 5000 2.1 120 00:47 15.12.2019
6483 Mist 21 1018 83 5000 2.1 120 00:47 15.12.2019
6484 Mist 21 1018 83 5000 2.1 120 00:29 15.12.2019
6485 Mist 20 1017 88 5000 3.1 110 23:41 14.12.2019
6486 Mist 20 1017 88 5000 3.1 110 23:22 14.12.2019
6487 Clouds 21 1017 83 6000 4.1 110 22:59 14.12.2019
6488 Clouds 21 1017 83 7000 3.1 140 22:41 14.12.2019
6489 Clouds 21 1017 83 7000 3.1 140 22:22 14.12.2019
6490 Clouds 21 1017 83 6000 3.6 140 21:56 14.12.2019
6491 Mist 21 1017 83 5000 3.1 120 21:38 14.12.2019
6492 Mist 21 1017 83 4700 3.1 150 21:19 14.12.2019
6493 Mist 21 1017 83 4700 3.1 150 20:57 14.12.2019
6494 Mist 20 1018 88 3700 2.6 110 20:39 14.12.2019
6495 Mist 20 1018 88 3700 2.6 110 20:19 14.12.2019
6496 Mist 21 1018 83 4700 3.1 130 19:57 14.12.2019
6497 Mist 21 1018 83 4600 3.1 140 19:37 14.12.2019
6498 Mist 21 1018 83 4600 3.1 140 19:19 14.12.2019
6499 Mist 21 1018 83 4600 3.1 140 18:56 14.12.2019
6500 Mist 21 1018 83 4400 1.5 140 18:37 14.12.2019
6501 Mist 21 1018 83 4400 1.5 140 18:19 14.12.2019
6502 Mist 21 1018 83 4100 1.5 200 17:43 14.12.2019
6503 Mist 21 1018 83 4100 1.5 200 17:23 14.12.2019
6504 Mist 21 1018 83 4100 1.5 200 16:56 14.12.2019
6505 Mist 21 1018 83 4100 1.5 160 16:38 14.12.2019
6506 Mist 21 1018 83 4100 1.5 160 16:18 14.12.2019
6507 Mist 21 1018 83 3800 1.5 130 15:42 14.12.2019
6508 Mist 21 1018 83 4300 1.5 150 15:21 14.12.2019
6509 Mist 20 1018 82 3500 1 70 14:58 14.12.2019
6510 Mist 20 1018 82 4100 1.5 110 14:38 14.12.2019
6511 Mist 20 1018 82 4100 1.5 110 14:19 14.12.2019
6512 Mist 21 1018 77 4400 2.1 120 13:45 14.12.2019
6513 Mist 21 1018 77 4500 1.5 70 13:20 14.12.2019
6514 Mist 21 1018 77 5000 2.1 100 12:59 14.12.2019
6515 Clouds 22 1017 73 6000 3.1 90 12:40 14.12.2019
6516 Mist 22 1017 73 4500 2.6 100 12:21 14.12.2019
6517 Clouds 22 1017 73 6000 3.1 90 12:21 14.12.2019
6518 Clouds 22 1017 73 6000 3.1 90 12:21 14.12.2019
6519 Mist 22 1017 73 4500 2.6 100 11:59 14.12.2019
6520 Mist 23 1017 69 4500 3.1 100 11:39 14.12.2019
6521 Haze 24 1017 64 4000 2.6 120 11:20 14.12.2019
6522 Haze 24 1017 64 4000 2.6 120 10:57 14.12.2019
6523 Haze 24 1017 64 4300 2.1 90 10:39 14.12.2019
6524 Haze 24 1017 64 4300 2.1 90 10:21 14.12.2019
6525 Haze 24 1017 64 4500 1.5 90 09:57 14.12.2019
6526 Haze 24 1018 64 4700 1.5 90 09:38 14.12.2019
6527 Haze 24 1018 64 4700 1.5 90 09:18 14.12.2019
6528 Haze 24 1019 64 4600 1.5 330 08:42 14.12.2019
6529 Haze 24 1019 64 4600 1.5 330 08:19 14.12.2019
6530 Haze 24 1019 64 4300 1 0 07:44 14.12.2019
6531 Haze 23 1020 69 4100 1.5 0 07:23 14.12.2019
6532 Haze 23 1020 69 4100 2.1 270 06:56 14.12.2019
6533 Mist 22 1021 73 3400 1.5 310 06:37 14.12.2019
6534 Mist 22 1021 73 2600 2.1 0 05:57 14.12.2019
6535 Mist 20 1023 82 2100 1.5 330 04:42 14.12.2019
6536 Mist 17 1022 93 1000 1 0 02:31 14.12.2019
6537 Fog 16 1022 93 800 1.5 100 01:49 14.12.2019
6538 Fog 16 1021 93 900 1 0 01:31 14.12.2019
6539 Mist 16 1021 93 2000 3.1 40 00:44 14.12.2019
6540 Mist 16 1021 93 2000 3.1 40 00:26 14.12.2019
6541 Mist 15 1020 93 1900 1.5 90 23:44 13.12.2019
6542 Mist 15 1020 93 1900 1.5 90 23:22 13.12.2019
6543 Mist 15 1020 93 1900 2.1 80 23:00 13.12.2019
6544 Mist 16 1020 93 1600 1.5 70 22:40 13.12.2019
6545 Mist 16 1020 93 1600 1.5 70 22:19 13.12.2019
6546 Mist 16 1020 93 2100 1.5 80 21:55 13.12.2019
6547 Mist 16 1020 93 1800 1.5 70 21:36 13.12.2019
6548 Mist 16 1020 93 1800 1.5 70 21:18 13.12.2019
6549 Mist 16 1020 93 2600 1 80 20:40 13.12.2019
6550 Mist 16 1020 93 2600 1 80 20:21 13.12.2019
6551 Mist 16 1020 93 2600 1 80 19:58 13.12.2019
6552 Mist 17 1021 88 3100 0.5 0 19:40 13.12.2019
6553 Mist 17 1021 88 3100 0.5 0 19:20 13.12.2019
6554 Mist 17 1021 88 3900 1 0 18:58 13.12.2019
6555 Mist 19 1021 82 4800 2.1 150 18:40 13.12.2019
6556 Mist 19 1021 82 4800 2.1 150 18:18 13.12.2019
6557 Mist 20 1021 77 5000 1.5 150 17:41 13.12.2019
6558 Mist 20 1021 77 5000 1.5 150 17:19 13.12.2019
6559 Mist 20 1021 77 5000 1.5 150 17:19 13.12.2019
6560 Mist 20 1021 77 5000 1.5 150 17:19 13.12.2019
6561 Mist 20 1021 77 5000 2.1 180 16:59 13.12.2019
6562 Mist 20 1021 77 4300 2.1 170 16:39 13.12.2019
6563 Mist 20 1021 77 4300 2.1 170 16:20 13.12.2019
6564 Mist 18 1021 82 3600 1 0 15:43 13.12.2019
6565 Mist 18 1021 82 3600 1 0 15:23 13.12.2019
6566 Mist 18 1020 88 2700 1 0 14:58 13.12.2019
6567 Mist 19 1020 77 4200 2.08 155 14:39 13.12.2019
6568 Mist 19 1020 77 4200 1.68 142 14:20 13.12.2019
6569 Mist 19 1020 77 4200 1.68 142 14:20 13.12.2019
6570 Mist 19 1020 77 4200 1.68 142 14:20 13.12.2019
6571 Mist 21 1020 68 4000 1 0 13:56 13.12.2019
6572 Mist 21 1020 68 4100 1 0 13:37 13.12.2019
6573 Mist 21 1020 68 4100 1 0 13:37 13.12.2019
6574 Mist 21 1020 68 4100 1 0 13:18 13.12.2019
6575 Clouds 23 1019 56 6000 1.5 160 12:42 13.12.2019
6576 Clouds 23 1019 56 6000 1.5 160 12:19 13.12.2019
6577 Haze 23 1019 56 4700 1.5 180 11:57 13.12.2019
6578 Haze 23 1019 60 5000 1.5 170 11:39 13.12.2019
6579 Haze 23 1019 60 5000 1.5 170 11:19 13.12.2019
6580 Haze 24 1019 57 5000 2.1 190 10:41 13.12.2019
6581 Haze 24 1019 57 5000 2.1 190 10:21 13.12.2019
6582 Clouds 24 1019 53 7000 2.6 170 09:43 13.12.2019
6583 Clouds 24 1019 53 7000 2.6 170 09:22 13.12.2019
6584 Clouds 24 1019 57 7000 2.1 240 08:59 13.12.2019
6585 Clouds 24 1020 53 6000 2.1 0 08:40 13.12.2019
6586 Clouds 24 1020 53 6000 2.1 0 08:22 13.12.2019
6587 Haze 23 1021 56 5000 2.1 270 07:43 13.12.2019
6588 Haze 23 1021 56 5000 2.1 270 07:20 13.12.2019
6589 Haze 23 1021 56 4700 2.1 0 06:50 13.12.2019
6590 Haze 22 1022 60 4400 2.1 300 06:28 13.12.2019
6591 Haze 21 1023 64 4100 2.1 320 05:43 13.12.2019
6592 Haze 21 1023 64 4100 2.1 320 05:20 13.12.2019
6593 Mist 19 1023 72 3100 2.6 290 04:33 13.12.2019
6594 Mist 18 1023 77 2500 2.6 280 03:29 13.12.2019
6595 Mist 17 1022 77 2600 2.6 300 02:31 13.12.2019
6596 Mist 16 1021 87 1900 2.6 290 01:39 13.12.2019
6597 Mist 16 1021 87 2700 2.6 290 00:51 13.12.2019
6598 Mist 16 1021 82 4200 1.5 290 00:29 13.12.2019
6599 Mist 16 1020 82 3400 1 220 23:46 12.12.2019
6600 Mist 16 1020 82 3700 1 170 23:27 12.12.2019
6601 Mist 15 1020 82 3600 1 130 22:57 12.12.2019
6602 Mist 15 1020 82 3400 0.5 0 22:39 12.12.2019
6603 Mist 15 1020 82 3400 0.5 0 22:21 12.12.2019
6604 Mist 14 1020 87 2900 1 100 21:56 12.12.2019
6605 Mist 15 1020 82 3100 1.5 110 21:38 12.12.2019
6606 Mist 15 1020 82 3100 1.5 110 21:20 12.12.2019
6607 Mist 15 1020 87 3300 1 0 20:59 12.12.2019
6608 Mist 15 1020 82 3600 1.5 60 20:41 12.12.2019
6609 Mist 15 1020 82 3600 1.5 60 20:23 12.12.2019
6610 Mist 16 1020 77 4000 1.5 70 19:59 12.12.2019
6611 Mist 15 1020 82 3700 1.5 70 19:40 12.12.2019
6612 Mist 15 1020 82 3700 1.5 70 19:21 12.12.2019
6613 Mist 16 1020 77 4300 1.5 80 18:56 12.12.2019
6614 Mist 16 1020 77 4300 1.5 80 18:56 12.12.2019
6615 Mist 15 1020 82 4800 1 0 18:38 12.12.2019
6616 Mist 15 1020 82 4800 1 0 18:19 12.12.2019
6617 Mist 16 1020 77 4300 1 50 17:57 12.12.2019
6618 Mist 16 1020 77 4600 1.5 30 17:38 12.12.2019
6619 Mist 16 1020 77 4600 1.5 30 17:19 12.12.2019
6620 Mist 16 1020 77 5000 1.5 40 16:55 12.12.2019
6621 Mist 17 1020 67 5000 1 0 16:37 12.12.2019
6622 Mist 17 1020 67 5000 1 0 16:19 12.12.2019
6623 Clear 18 1020 68 5000 2.1 120 15:54 12.12.2019
6624 Clear 18 1019 63 6000 2.6 130 15:36 12.12.2019
6625 Clear 18 1019 63 6000 2.6 130 15:18 12.12.2019
6626 Clear 18 1019 63 6000 2.6 130 15:18 12.12.2019
6627 Haze 19 1019 55 5000 3.6 130 14:38 12.12.2019
6628 Haze 19 1019 55 5000 3.6 130 14:19 12.12.2019
6629 Haze 19 1018 55 4200 3.1 120 13:57 12.12.2019
6630 Haze 18 1018 63 3900 1 0 13:38 12.12.2019
6631 Haze 18 1018 63 3900 1 0 13:20 12.12.2019
6632 Haze 19 1018 55 4500 1 0 12:57 12.12.2019
6633 Haze 20 1017 49 5000 1.5 90 12:38 12.12.2019
6634 Haze 20 1017 49 5000 1.5 90 12:38 12.12.2019
6635 Haze 20 1017 49 5000 1.5 90 12:19 12.12.2019
6636 Haze 20 1017 49 5000 2.6 100 11:55 12.12.2019
6637 Haze 20 1017 49 5000 2.6 100 11:55 12.12.2019
6638 Clear 21 1017 43 6000 2.6 110 11:37 12.12.2019
6639 Clear 21 1017 43 6000 2.6 110 11:19 12.12.2019
6640 Clear 23 1016 38 6000 3.1 90 10:42 12.12.2019
6641 Clear 23 1016 38 6000 3.1 90 10:23 12.12.2019
6642 Clear 24 1016 38 7000 1.5 110 09:59 12.12.2019
6643 Clear 24 1016 38 7000 1.5 110 09:59 12.12.2019
6644 Clear 24 1017 36 7000 2.6 100 09:41 12.12.2019
6645 Clear 24 1017 36 7000 2.6 100 09:23 12.12.2019
6646 Clear 24 1017 36 7000 2.6 100 09:23 12.12.2019
6647 Clear 23 1017 38 6000 2.1 140 08:55 12.12.2019
6648 Clear 24 1017 38 7000 1 0 08:37 12.12.2019
6649 Clear 24 1017 38 7000 1 0 08:19 12.12.2019
6650 Clear 22 1019 40 7000 1.5 270 07:41 12.12.2019
6651 Clear 22 1019 40 7000 1.5 270 07:23 12.12.2019
6652 Clear 21 1020 43 6000 1 0 06:44 12.12.2019
6653 Clear 21 1020 43 6000 1 0 06:24 12.12.2019
6654 Haze 20 1021 52 5000 1 0 05:36 12.12.2019
6655 Haze 19 1021 55 3900 2.1 280 04:51 12.12.2019
6656 Mist 14 1022 82 3100 2.1 300 02:57 12.12.2019
6657 Mist 12 1021 87 2300 2.1 290 02:37 12.12.2019
6658 Mist 12 1021 87 2300 2.1 290 02:18 12.12.2019
6659 Mist 11 1021 87 2500 1 300 01:36 12.12.2019
6660 Mist 11 1020 81 3800 1 0 00:58 12.12.2019
6661 Mist 11 1020 87 5000 0.5 0 00:38 12.12.2019
6662 Clear 11 1019 87 6000 2.1 200 00:18 12.12.2019
6663 Mist 11 1019 81 5000 1 0 23:40 11.12.2019
6664 Mist 11 1019 81 5000 1 0 23:19 11.12.2019
6665 Clear 11 1019 87 6000 1 300 22:57 11.12.2019
6666 Mist 11 1019 81 5000 2.1 310 22:38 11.12.2019
6667 Mist 11 1019 81 5000 2.1 310 22:19 11.12.2019
6668 Mist 11 1019 81 5000 2.6 350 21:55 11.12.2019
6669 Clear 11 1019 81 6000 1 0 21:36 11.12.2019
6670 Clear 11 1019 81 6000 1 0 21:18 11.12.2019
6671 Clear 11 1019 81 6000 1 0 21:18 11.12.2019
6672 Clear 12 1019 76 7000 2.1 100 20:55 11.12.2019
6673 Clear 12 1019 76 6000 1 0 20:36 11.12.2019
6674 Clear 12 1019 76 6000 1 0 20:18 11.12.2019
6675 Clear 12 1019 81 6000 1.5 100 19:42 11.12.2019
6676 Clear 12 1019 81 6000 1.5 100 19:23 11.12.2019
6677 Clear 12 1019 81 6000 1 350 18:59 11.12.2019
6678 Clear 13 1019 76 6000 1 0 18:40 11.12.2019
6679 Clear 13 1019 76 6000 1 0 18:20 11.12.2019
6680 Clear 12 1019 81 6000 1.5 70 17:56 11.12.2019
6681 Clear 13 1019 76 6000 0.5 0 17:38 11.12.2019
6682 Clear 13 1019 76 6000 1 0 17:18 11.12.2019
6683 Clear 13 1019 76 6000 1 0 16:55 11.12.2019
6684 Clear 13 1019 76 6000 1.5 310 16:37 11.12.2019
6685 Clear 13 1019 76 6000 1.5 310 16:18 11.12.2019
6686 Mist 13 1019 76 4700 2.1 320 15:56 11.12.2019
6687 Mist 14 1018 71 4700 1 320 15:37 11.12.2019
6688 Mist 14 1018 71 4700 1 320 15:18 11.12.2019
6689 Mist 14 1018 76 4200 2.1 350 14:54 11.12.2019
6690 Haze 15 1018 67 3500 1 0 14:36 11.12.2019
6691 Haze 15 1018 67 3500 1 0 14:36 11.12.2019
6692 Haze 15 1018 67 3500 1 0 14:18 11.12.2019
6693 Haze 17 1017 51 5000 0.45 157 13:42 11.12.2019
6694 Haze 17 1017 51 5000 0.45 157 13:22 11.12.2019
6695 Clear 18 1017 48 6000 1 330 12:58 11.12.2019
6696 Haze 19 1017 42 4500 0.5 0 12:39 11.12.2019
6697 Haze 19 1017 42 4500 0.5 0 12:21 11.12.2019
6698 Haze 19 1017 42 4500 0.5 0 12:21 11.12.2019
6699 Haze 20 1016 40 3000 1 330 11:58 11.12.2019
6700 Clear 22 1016 35 10000 2.1 290 11:39 11.12.2019
6701 Clear 22 1016 35 10000 2.1 290 11:19 11.12.2019
6702 Clear 22 1016 35 10000 2.1 290 11:19 11.12.2019
6703 Clear 22 1016 35 10000 2.1 290 10:57 11.12.2019
6704 Clear 22 1016 35 10000 2.1 290 10:38 11.12.2019
6705 Clear 22 1016 35 10000 2.1 290 10:19 11.12.2019
6706 Clear 23 1016 31 10000 1.5 0 09:43 11.12.2019
6707 Clear 23 1016 31 10000 1.5 0 09:21 11.12.2019
6708 Clear 23 1016 33 10000 2.1 320 08:58 11.12.2019
6709 Clear 23 1017 33 10000 1 0 08:39 11.12.2019
6710 Clear 23 1017 33 10000 1 0 08:19 11.12.2019
6711 Clear 23 1017 33 10000 1 0 08:19 11.12.2019
6712 Clear 22 1017 37 10000 2.1 340 07:57 11.12.2019
6713 Clear 22 1018 40 9000 1.5 0 07:39 11.12.2019
6714 Clear 22 1018 40 9000 1.5 0 07:21 11.12.2019
6715 Clear 21 1019 43 10000 2.1 280 06:44 11.12.2019
6716 Clear 21 1019 43 10000 2.1 280 06:22 11.12.2019
6717 Clear 20 1020 49 6000 2.6 300 05:45 11.12.2019
6718 Clear 19 1021 52 6000 3.1 280 05:21 11.12.2019
6719 Haze 17 1021 63 5000 3.1 310 04:38 11.12.2019
6720 Mist 13 1021 82 3500 1.5 290 02:49 11.12.2019
6721 Mist 10 1020 87 3200 0.5 0 01:26 11.12.2019
6722 Mist 10 1020 93 3400 2.06 331 00:49 11.12.2019
6723 Mist 10 1020 87 4400 0.5 0 00:23 11.12.2019
6724 Mist 10 1019 87 3600 0.5 0 23:58 10.12.2019
6725 Mist 11 1019 81 4100 1 330 23:39 10.12.2019
6726 Mist 11 1019 81 4100 1 330 23:21 10.12.2019
6727 Mist 12 1018 76 5000 1 230 22:40 10.12.2019
6728 Mist 12 1018 76 5000 1 230 22:40 10.12.2019
6729 Mist 12 1018 76 5000 1 230 22:22 10.12.2019
6730 Mist 12 1018 76 5000